<?xml version="1.0" encoding="UTF-8" standalone="no" ?>
<gpx xmlns="http://www.topografix.com/GPX/1/1" xmlns:xsi="http://www.w3.org/2001/XMLSchema-instance" xsi:schemaLocation="http://www.topografix.com/GPX/1/1 http://www.topografix.com/GPX/1/1/gpx.xsd" version="1.1" creator="VisuGPX - https://www.visugpx.com">
  <metadata>
    <name>Lauret_Lafoux</name>
    <desc><![CDATA[
]]></desc>
  </metadata>
  <trk>
    <name><![CDATA[SaumaneVaucluseMarculy]]></name>
    <trkseg>
      <trkpt lat="43.9394" lon="5.10812">
        <ele>122.2</ele>
        <time>2020-02-23T10:02:52.000Z</time>
      </trkpt>
      <trkpt lat="43.9394" lon="5.10813">
        <ele>127</ele>
        <time>2020-02-23T10:02:53.000Z</time>
      </trkpt>
      <trkpt lat="43.9394" lon="5.10813">
        <ele>131.4</ele>
        <time>2020-02-23T10:02:54.000Z</time>
      </trkpt>
      <trkpt lat="43.9394" lon="5.10814">
        <ele>135.7</ele>
        <time>2020-02-23T10:02:55.000Z</time>
      </trkpt>
      <trkpt lat="43.9394" lon="5.10814">
        <ele>140</ele>
        <time>2020-02-23T10:02:56.000Z</time>
      </trkpt>
      <trkpt lat="43.9394" lon="5.10814">
        <ele>143.9</ele>
        <time>2020-02-23T10:02:57.000Z</time>
      </trkpt>
      <trkpt lat="43.9394" lon="5.10814">
        <ele>147.7</ele>
        <time>2020-02-23T10:02:58.000Z</time>
      </trkpt>
      <trkpt lat="43.9394" lon="5.10814">
        <ele>151.1</ele>
        <time>2020-02-23T10:02:59.000Z</time>
      </trkpt>
      <trkpt lat="43.9394" lon="5.10814">
        <ele>154.4</ele>
        <time>2020-02-23T10:03:00.000Z</time>
      </trkpt>
      <trkpt lat="43.93941" lon="5.10813">
        <ele>157.8</ele>
        <time>2020-02-23T10:03:01.000Z</time>
      </trkpt>
      <trkpt lat="43.93941" lon="5.10813">
        <ele>161.2</ele>
        <time>2020-02-23T10:03:02.000Z</time>
      </trkpt>
      <trkpt lat="43.93941" lon="5.10813">
        <ele>161.2</ele>
        <time>2020-02-23T10:03:03.000Z</time>
      </trkpt>
      <trkpt lat="43.93941" lon="5.10813">
        <ele>166.9</ele>
        <time>2020-02-23T10:03:04.000Z</time>
      </trkpt>
      <trkpt lat="43.93941" lon="5.10813">
        <ele>172.2</ele>
        <time>2020-02-23T10:03:06.000Z</time>
      </trkpt>
      <trkpt lat="43.93941" lon="5.10813">
        <ele>177.5</ele>
        <time>2020-02-23T10:03:08.000Z</time>
      </trkpt>
      <trkpt lat="43.93941" lon="5.10813">
        <ele>182.3</ele>
        <time>2020-02-23T10:03:10.000Z</time>
      </trkpt>
      <trkpt lat="43.93941" lon="5.10813">
        <ele>186.6</ele>
        <time>2020-02-23T10:03:12.000Z</time>
      </trkpt>
      <trkpt lat="43.9394" lon="5.10814">
        <ele>191</ele>
        <time>2020-02-23T10:03:14.000Z</time>
      </trkpt>
      <trkpt lat="43.9394" lon="5.10813">
        <ele>194.8</ele>
        <time>2020-02-23T10:03:16.000Z</time>
      </trkpt>
      <trkpt lat="43.93941" lon="5.10812">
        <ele>198.6</ele>
        <time>2020-02-23T10:03:18.000Z</time>
      </trkpt>
      <trkpt lat="43.93942" lon="5.10811">
        <ele>203.5</ele>
        <time>2020-02-23T10:03:21.000Z</time>
      </trkpt>
      <trkpt lat="43.93943" lon="5.1081">
        <ele>208.3</ele>
        <time>2020-02-23T10:03:24.000Z</time>
      </trkpt>
      <trkpt lat="43.93943" lon="5.1081">
        <ele>212.1</ele>
        <time>2020-02-23T10:03:27.000Z</time>
      </trkpt>
      <trkpt lat="43.93944" lon="5.10809">
        <ele>213.1</ele>
        <time>2020-02-23T10:03:29.000Z</time>
      </trkpt>
      <trkpt lat="43.93944" lon="5.10809">
        <ele>216.9</ele>
        <time>2020-02-23T10:03:31.000Z</time>
      </trkpt>
      <trkpt lat="43.93945" lon="5.10808">
        <ele>220.3</ele>
        <time>2020-02-23T10:03:35.000Z</time>
      </trkpt>
      <trkpt lat="43.93946" lon="5.10807">
        <ele>223.6</ele>
        <time>2020-02-23T10:03:39.000Z</time>
      </trkpt>
      <trkpt lat="43.93948" lon="5.10807">
        <ele>227.5</ele>
        <time>2020-02-23T10:03:44.000Z</time>
      </trkpt>
      <trkpt lat="43.93949" lon="5.10807">
        <ele>227.5</ele>
        <time>2020-02-23T10:03:45.000Z</time>
      </trkpt>
      <trkpt lat="43.93955" lon="5.108">
        <ele>230.9</ele>
        <time>2020-02-23T10:03:51.000Z</time>
      </trkpt>
      <trkpt lat="43.93956" lon="5.108">
        <ele>231.8</ele>
        <time>2020-02-23T10:03:53.000Z</time>
      </trkpt>
      <trkpt lat="43.93956" lon="5.10801">
        <ele>232.8</ele>
        <time>2020-02-23T10:03:55.000Z</time>
      </trkpt>
      <trkpt lat="43.93954" lon="5.10808">
        <ele>235.7</ele>
        <time>2020-02-23T10:04:32.000Z</time>
      </trkpt>
      <trkpt lat="43.93948" lon="5.10808">
        <ele>235.2</ele>
        <time>2020-02-23T10:04:54.000Z</time>
      </trkpt>
      <trkpt lat="43.9395" lon="5.10807">
        <ele>235.7</ele>
        <time>2020-02-23T10:05:20.000Z</time>
      </trkpt>
      <trkpt lat="43.9395" lon="5.10809">
        <ele>236.6</ele>
        <time>2020-02-23T10:05:44.000Z</time>
      </trkpt>
      <trkpt lat="43.93951" lon="5.1081">
        <ele>236.6</ele>
        <time>2020-02-23T10:05:57.000Z</time>
      </trkpt>
      <trkpt lat="43.93949" lon="5.10809">
        <ele>237.1</ele>
        <time>2020-02-23T10:06:20.000Z</time>
      </trkpt>
      <trkpt lat="43.93958" lon="5.10824">
        <ele>237.1</ele>
        <time>2020-02-23T10:06:33.000Z</time>
      </trkpt>
      <trkpt lat="43.93966" lon="5.10833">
        <ele>238.5</ele>
        <time>2020-02-23T10:06:47.000Z</time>
      </trkpt>
      <trkpt lat="43.93975" lon="5.10836">
        <ele>239</ele>
        <time>2020-02-23T10:07:01.000Z</time>
      </trkpt>
      <trkpt lat="43.93977" lon="5.10837">
        <ele>239.5</ele>
        <time>2020-02-23T10:07:19.000Z</time>
      </trkpt>
      <trkpt lat="43.93978" lon="5.10838">
        <ele>239</ele>
        <time>2020-02-23T10:07:38.000Z</time>
      </trkpt>
      <trkpt lat="43.93977" lon="5.10843">
        <ele>239.5</ele>
        <time>2020-02-23T10:07:42.000Z</time>
      </trkpt>
      <trkpt lat="43.93969" lon="5.1086">
        <ele>238.5</ele>
        <time>2020-02-23T10:07:58.000Z</time>
      </trkpt>
      <trkpt lat="43.93963" lon="5.10855">
        <ele>239</ele>
        <time>2020-02-23T10:08:06.000Z</time>
      </trkpt>
      <trkpt lat="43.93948" lon="5.10842">
        <ele>237.6</ele>
        <time>2020-02-23T10:08:21.000Z</time>
      </trkpt>
      <trkpt lat="43.93946" lon="5.1084">
        <ele>237.6</ele>
        <time>2020-02-23T10:08:23.000Z</time>
      </trkpt>
      <trkpt lat="43.93929" lon="5.10828">
        <ele>236.1</ele>
        <time>2020-02-23T10:08:40.000Z</time>
      </trkpt>
      <trkpt lat="43.93917" lon="5.10805">
        <ele>235.7</ele>
        <time>2020-02-23T10:08:59.000Z</time>
      </trkpt>
      <trkpt lat="43.93917" lon="5.10796">
        <ele>235.2</ele>
        <time>2020-02-23T10:09:05.000Z</time>
      </trkpt>
      <trkpt lat="43.93917" lon="5.10791">
        <ele>235.2</ele>
        <time>2020-02-23T10:09:08.000Z</time>
      </trkpt>
      <trkpt lat="43.93925" lon="5.1077">
        <ele>234.7</ele>
        <time>2020-02-23T10:09:24.000Z</time>
      </trkpt>
      <trkpt lat="43.93926" lon="5.10766">
        <ele>234.7</ele>
        <time>2020-02-23T10:09:27.000Z</time>
      </trkpt>
      <trkpt lat="43.93912" lon="5.10762">
        <ele>231.3</ele>
        <time>2020-02-23T10:09:41.000Z</time>
      </trkpt>
      <trkpt lat="43.93897" lon="5.10758">
        <ele>228.4</ele>
        <time>2020-02-23T10:09:57.000Z</time>
      </trkpt>
      <trkpt lat="43.93882" lon="5.10751">
        <ele>226.5</ele>
        <time>2020-02-23T10:10:12.000Z</time>
      </trkpt>
      <trkpt lat="43.93869" lon="5.10742">
        <ele>225.1</ele>
        <time>2020-02-23T10:10:25.000Z</time>
      </trkpt>
      <trkpt lat="43.93852" lon="5.10732">
        <ele>222.7</ele>
        <time>2020-02-23T10:10:44.000Z</time>
      </trkpt>
      <trkpt lat="43.93844" lon="5.10729">
        <ele>222.2</ele>
        <time>2020-02-23T10:11:00.000Z</time>
      </trkpt>
      <trkpt lat="43.93844" lon="5.10733">
        <ele>222.2</ele>
        <time>2020-02-23T10:11:21.000Z</time>
      </trkpt>
      <trkpt lat="43.93839" lon="5.10736">
        <ele>221.2</ele>
        <time>2020-02-23T10:11:33.000Z</time>
      </trkpt>
      <trkpt lat="43.9384" lon="5.10735">
        <ele>221.2</ele>
        <time>2020-02-23T10:11:39.000Z</time>
      </trkpt>
      <trkpt lat="43.93836" lon="5.10729">
        <ele>221.7</ele>
        <time>2020-02-23T10:11:52.000Z</time>
      </trkpt>
      <trkpt lat="43.93829" lon="5.10709">
        <ele>220.8</ele>
        <time>2020-02-23T10:12:09.000Z</time>
      </trkpt>
      <trkpt lat="43.93828" lon="5.10706">
        <ele>220.8</ele>
        <time>2020-02-23T10:12:27.000Z</time>
      </trkpt>
      <trkpt lat="43.93828" lon="5.10717">
        <ele>220.8</ele>
        <time>2020-02-23T10:12:42.000Z</time>
      </trkpt>
      <trkpt lat="43.93834" lon="5.10735">
        <ele>221.7</ele>
        <time>2020-02-23T10:12:58.000Z</time>
      </trkpt>
      <trkpt lat="43.93838" lon="5.10739">
        <ele>221.7</ele>
        <time>2020-02-23T10:13:10.000Z</time>
      </trkpt>
      <trkpt lat="43.93838" lon="5.10743">
        <ele>222.2</ele>
        <time>2020-02-23T10:13:17.000Z</time>
      </trkpt>
      <trkpt lat="43.93847" lon="5.10759">
        <ele>219.8</ele>
        <time>2020-02-23T10:13:31.000Z</time>
      </trkpt>
      <trkpt lat="43.93849" lon="5.10764">
        <ele>218.8</ele>
        <time>2020-02-23T10:13:35.000Z</time>
      </trkpt>
      <trkpt lat="43.93849" lon="5.10789">
        <ele>216.9</ele>
        <time>2020-02-23T10:13:53.000Z</time>
      </trkpt>
      <trkpt lat="43.93848" lon="5.10793">
        <ele>216.4</ele>
        <time>2020-02-23T10:13:56.000Z</time>
      </trkpt>
      <trkpt lat="43.9384" lon="5.10808">
        <ele>215.5</ele>
        <time>2020-02-23T10:14:10.000Z</time>
      </trkpt>
      <trkpt lat="43.93838" lon="5.10812">
        <ele>215</ele>
        <time>2020-02-23T10:14:14.000Z</time>
      </trkpt>
      <trkpt lat="43.93838" lon="5.10833">
        <ele>213.6</ele>
        <time>2020-02-23T10:14:30.000Z</time>
      </trkpt>
      <trkpt lat="43.93843" lon="5.10854">
        <ele>212.6</ele>
        <time>2020-02-23T10:14:47.000Z</time>
      </trkpt>
      <trkpt lat="43.93852" lon="5.10868">
        <ele>212.1</ele>
        <time>2020-02-23T10:15:02.000Z</time>
      </trkpt>
      <trkpt lat="43.93863" lon="5.10881">
        <ele>210.7</ele>
        <time>2020-02-23T10:15:20.000Z</time>
      </trkpt>
      <trkpt lat="43.93874" lon="5.10892">
        <ele>209.7</ele>
        <time>2020-02-23T10:15:36.000Z</time>
      </trkpt>
      <trkpt lat="43.9388" lon="5.10896">
        <ele>209.2</ele>
        <time>2020-02-23T10:15:50.000Z</time>
      </trkpt>
      <trkpt lat="43.93887" lon="5.10904">
        <ele>209.2</ele>
        <time>2020-02-23T10:16:13.000Z</time>
      </trkpt>
      <trkpt lat="43.93899" lon="5.10918">
        <ele>208.7</ele>
        <time>2020-02-23T10:16:33.000Z</time>
      </trkpt>
      <trkpt lat="43.9391" lon="5.10933">
        <ele>207.3</ele>
        <time>2020-02-23T10:16:52.000Z</time>
      </trkpt>
      <trkpt lat="43.93909" lon="5.10938">
        <ele>207.3</ele>
        <time>2020-02-23T10:17:08.000Z</time>
      </trkpt>
      <trkpt lat="43.93912" lon="5.10939">
        <ele>207.3</ele>
        <time>2020-02-23T10:17:36.000Z</time>
      </trkpt>
      <trkpt lat="43.93923" lon="5.10954">
        <ele>206.8</ele>
        <time>2020-02-23T10:17:54.000Z</time>
      </trkpt>
      <trkpt lat="43.9393" lon="5.10968">
        <ele>206.3</ele>
        <time>2020-02-23T10:18:12.000Z</time>
      </trkpt>
      <trkpt lat="43.93933" lon="5.10977">
        <ele>206.8</ele>
        <time>2020-02-23T10:18:29.000Z</time>
      </trkpt>
      <trkpt lat="43.93928" lon="5.10986">
        <ele>206.8</ele>
        <time>2020-02-23T10:18:54.000Z</time>
      </trkpt>
      <trkpt lat="43.93929" lon="5.10982">
        <ele>206.8</ele>
        <time>2020-02-23T10:19:15.000Z</time>
      </trkpt>
      <trkpt lat="43.93932" lon="5.10978">
        <ele>207.3</ele>
        <time>2020-02-23T10:19:51.000Z</time>
      </trkpt>
      <trkpt lat="43.93936" lon="5.10983">
        <ele>207.3</ele>
        <time>2020-02-23T10:20:22.000Z</time>
      </trkpt>
      <trkpt lat="43.93937" lon="5.10988">
        <ele>207.3</ele>
        <time>2020-02-23T10:20:25.000Z</time>
      </trkpt>
      <trkpt lat="43.93945" lon="5.11008">
        <ele>208.3</ele>
        <time>2020-02-23T10:20:41.000Z</time>
      </trkpt>
      <trkpt lat="43.93958" lon="5.11021">
        <ele>206.8</ele>
        <time>2020-02-23T10:20:55.000Z</time>
      </trkpt>
      <trkpt lat="43.93965" lon="5.1103">
        <ele>206.3</ele>
        <time>2020-02-23T10:21:08.000Z</time>
      </trkpt>
      <trkpt lat="43.93974" lon="5.11047">
        <ele>206.3</ele>
        <time>2020-02-23T10:21:22.000Z</time>
      </trkpt>
      <trkpt lat="43.93985" lon="5.11065">
        <ele>206.3</ele>
        <time>2020-02-23T10:21:37.000Z</time>
      </trkpt>
      <trkpt lat="43.93999" lon="5.11077">
        <ele>206.8</ele>
        <time>2020-02-23T10:21:53.000Z</time>
      </trkpt>
      <trkpt lat="43.94014" lon="5.11089">
        <ele>205.9</ele>
        <time>2020-02-23T10:22:10.000Z</time>
      </trkpt>
      <trkpt lat="43.94016" lon="5.11093">
        <ele>205.9</ele>
        <time>2020-02-23T10:22:14.000Z</time>
      </trkpt>
      <trkpt lat="43.9403" lon="5.11106">
        <ele>205.9</ele>
        <time>2020-02-23T10:22:29.000Z</time>
      </trkpt>
      <trkpt lat="43.94042" lon="5.11117">
        <ele>205.9</ele>
        <time>2020-02-23T10:22:43.000Z</time>
      </trkpt>
      <trkpt lat="43.94055" lon="5.11126">
        <ele>204.9</ele>
        <time>2020-02-23T10:22:57.000Z</time>
      </trkpt>
      <trkpt lat="43.9407" lon="5.11136">
        <ele>202.5</ele>
        <time>2020-02-23T10:23:15.000Z</time>
      </trkpt>
      <trkpt lat="43.9408" lon="5.11141">
        <ele>201.1</ele>
        <time>2020-02-23T10:23:27.000Z</time>
      </trkpt>
      <trkpt lat="43.94089" lon="5.11157">
        <ele>198.6</ele>
        <time>2020-02-23T10:23:43.000Z</time>
      </trkpt>
      <trkpt lat="43.94099" lon="5.11164">
        <ele>197.7</ele>
        <time>2020-02-23T10:23:56.000Z</time>
      </trkpt>
      <trkpt lat="43.94096" lon="5.11161">
        <ele>197.2</ele>
        <time>2020-02-23T10:24:09.000Z</time>
      </trkpt>
      <trkpt lat="43.94093" lon="5.11162">
        <ele>196.7</ele>
        <time>2020-02-23T10:24:24.000Z</time>
      </trkpt>
      <trkpt lat="43.94085" lon="5.11159">
        <ele>195.8</ele>
        <time>2020-02-23T10:24:42.000Z</time>
      </trkpt>
      <trkpt lat="43.94084" lon="5.11159">
        <ele>195.8</ele>
        <time>2020-02-23T10:25:04.000Z</time>
      </trkpt>
      <trkpt lat="43.94085" lon="5.11161">
        <ele>195.8</ele>
        <time>2020-02-23T10:25:20.000Z</time>
      </trkpt>
      <trkpt lat="43.94089" lon="5.11161">
        <ele>195.8</ele>
        <time>2020-02-23T10:25:53.000Z</time>
      </trkpt>
      <trkpt lat="43.9409" lon="5.11163">
        <ele>196.3</ele>
        <time>2020-02-23T10:26:27.000Z</time>
      </trkpt>
      <trkpt lat="43.94091" lon="5.11166">
        <ele>196.7</ele>
        <time>2020-02-23T10:27:02.000Z</time>
      </trkpt>
      <trkpt lat="43.94074" lon="5.11165">
        <ele>195.8</ele>
        <time>2020-02-23T10:27:13.000Z</time>
      </trkpt>
      <trkpt lat="43.9405" lon="5.11158">
        <ele>193.8</ele>
        <time>2020-02-23T10:27:30.000Z</time>
      </trkpt>
      <trkpt lat="43.9403" lon="5.1115">
        <ele>192.4</ele>
        <time>2020-02-23T10:27:46.000Z</time>
      </trkpt>
      <trkpt lat="43.94013" lon="5.11139">
        <ele>191.9</ele>
        <time>2020-02-23T10:28:00.000Z</time>
      </trkpt>
      <trkpt lat="43.94002" lon="5.11131">
        <ele>189</ele>
        <time>2020-02-23T10:28:15.000Z</time>
      </trkpt>
      <trkpt lat="43.93981" lon="5.11125">
        <ele>186.1</ele>
        <time>2020-02-23T10:28:30.000Z</time>
      </trkpt>
      <trkpt lat="43.93977" lon="5.11122">
        <ele>184.7</ele>
        <time>2020-02-23T10:28:37.000Z</time>
      </trkpt>
      <trkpt lat="43.9398" lon="5.1114">
        <ele>185.7</ele>
        <time>2020-02-23T10:28:52.000Z</time>
      </trkpt>
      <trkpt lat="43.9399" lon="5.11152">
        <ele>188.1</ele>
        <time>2020-02-23T10:29:07.000Z</time>
      </trkpt>
      <trkpt lat="43.93996" lon="5.11162">
        <ele>189</ele>
        <time>2020-02-23T10:29:19.000Z</time>
      </trkpt>
      <trkpt lat="43.93997" lon="5.11162">
        <ele>189.5</ele>
        <time>2020-02-23T10:29:20.000Z</time>
      </trkpt>
      <trkpt lat="43.94005" lon="5.1117">
        <ele>191</ele>
        <time>2020-02-23T10:29:34.000Z</time>
      </trkpt>
      <trkpt lat="43.94008" lon="5.11171">
        <ele>191.4</ele>
        <time>2020-02-23T10:29:37.000Z</time>
      </trkpt>
      <trkpt lat="43.94016" lon="5.11178">
        <ele>193.4</ele>
        <time>2020-02-23T10:29:50.000Z</time>
      </trkpt>
      <trkpt lat="43.94019" lon="5.11189">
        <ele>196.3</ele>
        <time>2020-02-23T10:30:06.000Z</time>
      </trkpt>
      <trkpt lat="43.94028" lon="5.11193">
        <ele>197.7</ele>
        <time>2020-02-23T10:30:22.000Z</time>
      </trkpt>
      <trkpt lat="43.94036" lon="5.11199">
        <ele>198.6</ele>
        <time>2020-02-23T10:30:37.000Z</time>
      </trkpt>
      <trkpt lat="43.94047" lon="5.11208">
        <ele>199.6</ele>
        <time>2020-02-23T10:30:50.000Z</time>
      </trkpt>
      <trkpt lat="43.94056" lon="5.11214">
        <ele>201.1</ele>
        <time>2020-02-23T10:31:02.000Z</time>
      </trkpt>
      <trkpt lat="43.94058" lon="5.11212">
        <ele>200.1</ele>
        <time>2020-02-23T10:31:18.000Z</time>
      </trkpt>
      <trkpt lat="43.94063" lon="5.11206">
        <ele>197.7</ele>
        <time>2020-02-23T10:31:29.000Z</time>
      </trkpt>
      <trkpt lat="43.94059" lon="5.11194">
        <ele>196.7</ele>
        <time>2020-02-23T10:31:48.000Z</time>
      </trkpt>
      <trkpt lat="43.94057" lon="5.11197">
        <ele>197.2</ele>
        <time>2020-02-23T10:32:11.000Z</time>
      </trkpt>
      <trkpt lat="43.94057" lon="5.11194">
        <ele>196.3</ele>
        <time>2020-02-23T10:32:35.000Z</time>
      </trkpt>
      <trkpt lat="43.94063" lon="5.11194">
        <ele>197.2</ele>
        <time>2020-02-23T10:33:00.000Z</time>
      </trkpt>
      <trkpt lat="43.94063" lon="5.11195">
        <ele>197.2</ele>
        <time>2020-02-23T10:33:26.000Z</time>
      </trkpt>
      <trkpt lat="43.94064" lon="5.11195">
        <ele>196.7</ele>
        <time>2020-02-23T10:33:55.000Z</time>
      </trkpt>
      <trkpt lat="43.94057" lon="5.11201">
        <ele>197.2</ele>
        <time>2020-02-23T10:34:10.000Z</time>
      </trkpt>
      <trkpt lat="43.94061" lon="5.11212">
        <ele>199.1</ele>
        <time>2020-02-23T10:34:26.000Z</time>
      </trkpt>
      <trkpt lat="43.94057" lon="5.11217">
        <ele>201.5</ele>
        <time>2020-02-23T10:34:42.000Z</time>
      </trkpt>
      <trkpt lat="43.94066" lon="5.11224">
        <ele>203.5</ele>
        <time>2020-02-23T10:35:01.000Z</time>
      </trkpt>
      <trkpt lat="43.94082" lon="5.11228">
        <ele>204.9</ele>
        <time>2020-02-23T10:35:18.000Z</time>
      </trkpt>
      <trkpt lat="43.94093" lon="5.11233">
        <ele>205.9</ele>
        <time>2020-02-23T10:35:31.000Z</time>
      </trkpt>
      <trkpt lat="43.94103" lon="5.11242">
        <ele>207.3</ele>
        <time>2020-02-23T10:35:47.000Z</time>
      </trkpt>
      <trkpt lat="43.94114" lon="5.11251">
        <ele>209.7</ele>
        <time>2020-02-23T10:36:01.000Z</time>
      </trkpt>
      <trkpt lat="43.94122" lon="5.11258">
        <ele>210.2</ele>
        <time>2020-02-23T10:36:15.000Z</time>
      </trkpt>
      <trkpt lat="43.94135" lon="5.11262">
        <ele>212.1</ele>
        <time>2020-02-23T10:36:31.000Z</time>
      </trkpt>
      <trkpt lat="43.94148" lon="5.11266">
        <ele>213.6</ele>
        <time>2020-02-23T10:36:46.000Z</time>
      </trkpt>
      <trkpt lat="43.94163" lon="5.11271">
        <ele>214.5</ele>
        <time>2020-02-23T10:37:01.000Z</time>
      </trkpt>
      <trkpt lat="43.94167" lon="5.11277">
        <ele>215.5</ele>
        <time>2020-02-23T10:37:16.000Z</time>
      </trkpt>
      <trkpt lat="43.94183" lon="5.11278">
        <ele>216.9</ele>
        <time>2020-02-23T10:37:32.000Z</time>
      </trkpt>
      <trkpt lat="43.94195" lon="5.11282">
        <ele>218.8</ele>
        <time>2020-02-23T10:37:46.000Z</time>
      </trkpt>
      <trkpt lat="43.94205" lon="5.11289">
        <ele>220.3</ele>
        <time>2020-02-23T10:38:03.000Z</time>
      </trkpt>
      <trkpt lat="43.94214" lon="5.11296">
        <ele>222.2</ele>
        <time>2020-02-23T10:38:18.000Z</time>
      </trkpt>
      <trkpt lat="43.94225" lon="5.11305">
        <ele>224.1</ele>
        <time>2020-02-23T10:38:35.000Z</time>
      </trkpt>
      <trkpt lat="43.94233" lon="5.11317">
        <ele>226.1</ele>
        <time>2020-02-23T10:38:52.000Z</time>
      </trkpt>
      <trkpt lat="43.94242" lon="5.11324">
        <ele>227.5</ele>
        <time>2020-02-23T10:39:07.000Z</time>
      </trkpt>
      <trkpt lat="43.94252" lon="5.11326">
        <ele>229.9</ele>
        <time>2020-02-23T10:39:23.000Z</time>
      </trkpt>
      <trkpt lat="43.94254" lon="5.11328">
        <ele>230.9</ele>
        <time>2020-02-23T10:39:38.000Z</time>
      </trkpt>
      <trkpt lat="43.94254" lon="5.11327">
        <ele>231.3</ele>
        <time>2020-02-23T10:40:04.000Z</time>
      </trkpt>
      <trkpt lat="43.94251" lon="5.11328">
        <ele>231.3</ele>
        <time>2020-02-23T10:40:27.000Z</time>
      </trkpt>
      <trkpt lat="43.94254" lon="5.11323">
        <ele>231.8</ele>
        <time>2020-02-23T10:40:54.000Z</time>
      </trkpt>
      <trkpt lat="43.9426" lon="5.11329">
        <ele>233.7</ele>
        <time>2020-02-23T10:41:15.000Z</time>
      </trkpt>
      <trkpt lat="43.94272" lon="5.11335">
        <ele>236.6</ele>
        <time>2020-02-23T10:41:32.000Z</time>
      </trkpt>
      <trkpt lat="43.94283" lon="5.1135">
        <ele>239</ele>
        <time>2020-02-23T10:41:50.000Z</time>
      </trkpt>
      <trkpt lat="43.94288" lon="5.1136">
        <ele>241.4</ele>
        <time>2020-02-23T10:42:08.000Z</time>
      </trkpt>
      <trkpt lat="43.94293" lon="5.11372">
        <ele>243.8</ele>
        <time>2020-02-23T10:42:26.000Z</time>
      </trkpt>
      <trkpt lat="43.94294" lon="5.11383">
        <ele>246.2</ele>
        <time>2020-02-23T10:42:42.000Z</time>
      </trkpt>
      <trkpt lat="43.94304" lon="5.11396">
        <ele>248.2</ele>
        <time>2020-02-23T10:42:59.000Z</time>
      </trkpt>
      <trkpt lat="43.94313" lon="5.11408">
        <ele>250.1</ele>
        <time>2020-02-23T10:43:21.000Z</time>
      </trkpt>
      <trkpt lat="43.94322" lon="5.11418">
        <ele>253</ele>
        <time>2020-02-23T10:43:39.000Z</time>
      </trkpt>
      <trkpt lat="43.94322" lon="5.11427">
        <ele>254.4</ele>
        <time>2020-02-23T10:43:54.000Z</time>
      </trkpt>
      <trkpt lat="43.94325" lon="5.11439">
        <ele>257.3</ele>
        <time>2020-02-23T10:44:11.000Z</time>
      </trkpt>
      <trkpt lat="43.94328" lon="5.11447">
        <ele>259.7</ele>
        <time>2020-02-23T10:44:29.000Z</time>
      </trkpt>
      <trkpt lat="43.94327" lon="5.11453">
        <ele>261.6</ele>
        <time>2020-02-23T10:44:43.000Z</time>
      </trkpt>
      <trkpt lat="43.94322" lon="5.11456">
        <ele>263.1</ele>
        <time>2020-02-23T10:44:56.000Z</time>
      </trkpt>
      <trkpt lat="43.94323" lon="5.11463">
        <ele>265.5</ele>
        <time>2020-02-23T10:45:13.000Z</time>
      </trkpt>
      <trkpt lat="43.94319" lon="5.11469">
        <ele>266.9</ele>
        <time>2020-02-23T10:45:25.000Z</time>
      </trkpt>
      <trkpt lat="43.94319" lon="5.11475">
        <ele>269.3</ele>
        <time>2020-02-23T10:45:38.000Z</time>
      </trkpt>
      <trkpt lat="43.94317" lon="5.11483">
        <ele>271.7</ele>
        <time>2020-02-23T10:45:54.000Z</time>
      </trkpt>
      <trkpt lat="43.94314" lon="5.11491">
        <ele>273.6</ele>
        <time>2020-02-23T10:46:09.000Z</time>
      </trkpt>
      <trkpt lat="43.94312" lon="5.11492">
        <ele>274.1</ele>
        <time>2020-02-23T10:46:25.000Z</time>
      </trkpt>
      <trkpt lat="43.94312" lon="5.11489">
        <ele>273.6</ele>
        <time>2020-02-23T10:46:45.000Z</time>
      </trkpt>
      <trkpt lat="43.94311" lon="5.11491">
        <ele>274.1</ele>
        <time>2020-02-23T10:47:09.000Z</time>
      </trkpt>
      <trkpt lat="43.94314" lon="5.11493">
        <ele>274.1</ele>
        <time>2020-02-23T10:47:35.000Z</time>
      </trkpt>
      <trkpt lat="43.94314" lon="5.11497">
        <ele>275.6</ele>
        <time>2020-02-23T10:47:55.000Z</time>
      </trkpt>
      <trkpt lat="43.94314" lon="5.11504">
        <ele>276.5</ele>
        <time>2020-02-23T10:48:14.000Z</time>
      </trkpt>
      <trkpt lat="43.94303" lon="5.1149">
        <ele>278.9</ele>
        <time>2020-02-23T10:48:34.000Z</time>
      </trkpt>
      <trkpt lat="43.94302" lon="5.11493">
        <ele>279.9</ele>
        <time>2020-02-23T10:48:49.000Z</time>
      </trkpt>
      <trkpt lat="43.94304" lon="5.11511">
        <ele>280.8</ele>
        <time>2020-02-23T10:49:07.000Z</time>
      </trkpt>
      <trkpt lat="43.94309" lon="5.11524">
        <ele>282.3</ele>
        <time>2020-02-23T10:49:21.000Z</time>
      </trkpt>
      <trkpt lat="43.94308" lon="5.11531">
        <ele>282.8</ele>
        <time>2020-02-23T10:49:43.000Z</time>
      </trkpt>
      <trkpt lat="43.9431" lon="5.11525">
        <ele>282.8</ele>
        <time>2020-02-23T10:50:13.000Z</time>
      </trkpt>
      <trkpt lat="43.9432" lon="5.1153">
        <ele>282.8</ele>
        <time>2020-02-23T10:50:42.000Z</time>
      </trkpt>
      <trkpt lat="43.94319" lon="5.11528">
        <ele>282.8</ele>
        <time>2020-02-23T10:51:12.000Z</time>
      </trkpt>
      <trkpt lat="43.94314" lon="5.11542">
        <ele>284.2</ele>
        <time>2020-02-23T10:51:26.000Z</time>
      </trkpt>
      <trkpt lat="43.9431" lon="5.11541">
        <ele>284.2</ele>
        <time>2020-02-23T10:51:44.000Z</time>
      </trkpt>
      <trkpt lat="43.94307" lon="5.11545">
        <ele>285.2</ele>
        <time>2020-02-23T10:51:55.000Z</time>
      </trkpt>
      <trkpt lat="43.94304" lon="5.11554">
        <ele>285.6</ele>
        <time>2020-02-23T10:52:10.000Z</time>
      </trkpt>
      <trkpt lat="43.94309" lon="5.11561">
        <ele>286.1</ele>
        <time>2020-02-23T10:52:22.000Z</time>
      </trkpt>
      <trkpt lat="43.94311" lon="5.11562">
        <ele>287.1</ele>
        <time>2020-02-23T10:52:34.000Z</time>
      </trkpt>
      <trkpt lat="43.94313" lon="5.11565">
        <ele>287.6</ele>
        <time>2020-02-23T10:52:50.000Z</time>
      </trkpt>
      <trkpt lat="43.94313" lon="5.11562">
        <ele>286.6</ele>
        <time>2020-02-23T10:53:05.000Z</time>
      </trkpt>
      <trkpt lat="43.94311" lon="5.11564">
        <ele>286.6</ele>
        <time>2020-02-23T10:53:20.000Z</time>
      </trkpt>
      <trkpt lat="43.94311" lon="5.11558">
        <ele>286.1</ele>
        <time>2020-02-23T10:53:40.000Z</time>
      </trkpt>
      <trkpt lat="43.94309" lon="5.11547">
        <ele>284.7</ele>
        <time>2020-02-23T10:53:59.000Z</time>
      </trkpt>
      <trkpt lat="43.94305" lon="5.11542">
        <ele>283.7</ele>
        <time>2020-02-23T10:54:16.000Z</time>
      </trkpt>
      <trkpt lat="43.94305" lon="5.11532">
        <ele>282.3</ele>
        <time>2020-02-23T10:54:36.000Z</time>
      </trkpt>
      <trkpt lat="43.94304" lon="5.11522">
        <ele>281.3</ele>
        <time>2020-02-23T10:54:52.000Z</time>
      </trkpt>
      <trkpt lat="43.94296" lon="5.11503">
        <ele>280.4</ele>
        <time>2020-02-23T10:55:06.000Z</time>
      </trkpt>
      <trkpt lat="43.94296" lon="5.11502">
        <ele>280.4</ele>
        <time>2020-02-23T10:55:07.000Z</time>
      </trkpt>
      <trkpt lat="43.943" lon="5.11492">
        <ele>278.4</ele>
        <time>2020-02-23T10:55:22.000Z</time>
      </trkpt>
      <trkpt lat="43.94308" lon="5.11503">
        <ele>277</ele>
        <time>2020-02-23T10:55:35.000Z</time>
      </trkpt>
      <trkpt lat="43.94306" lon="5.11491">
        <ele>278</ele>
        <time>2020-02-23T10:55:51.000Z</time>
      </trkpt>
      <trkpt lat="43.94301" lon="5.11477">
        <ele>279.4</ele>
        <time>2020-02-23T10:56:04.000Z</time>
      </trkpt>
      <trkpt lat="43.94296" lon="5.11466">
        <ele>280.8</ele>
        <time>2020-02-23T10:56:19.000Z</time>
      </trkpt>
      <trkpt lat="43.94287" lon="5.11464">
        <ele>283.3</ele>
        <time>2020-02-23T10:56:33.000Z</time>
      </trkpt>
      <trkpt lat="43.94276" lon="5.11467">
        <ele>285.6</ele>
        <time>2020-02-23T10:56:50.000Z</time>
      </trkpt>
      <trkpt lat="43.94265" lon="5.11466">
        <ele>288.5</ele>
        <time>2020-02-23T10:57:08.000Z</time>
      </trkpt>
      <trkpt lat="43.94262" lon="5.11468">
        <ele>289</ele>
        <time>2020-02-23T10:57:13.000Z</time>
      </trkpt>
      <trkpt lat="43.94254" lon="5.11474">
        <ele>290.9</ele>
        <time>2020-02-23T10:57:27.000Z</time>
      </trkpt>
      <trkpt lat="43.94243" lon="5.1148">
        <ele>293.8</ele>
        <time>2020-02-23T10:57:46.000Z</time>
      </trkpt>
      <trkpt lat="43.94235" lon="5.11483">
        <ele>295.7</ele>
        <time>2020-02-23T10:58:00.000Z</time>
      </trkpt>
      <trkpt lat="43.94225" lon="5.11489">
        <ele>297.7</ele>
        <time>2020-02-23T10:58:17.000Z</time>
      </trkpt>
      <trkpt lat="43.94216" lon="5.11492">
        <ele>299.1</ele>
        <time>2020-02-23T10:58:31.000Z</time>
      </trkpt>
      <trkpt lat="43.94209" lon="5.11497">
        <ele>300.5</ele>
        <time>2020-02-23T10:58:50.000Z</time>
      </trkpt>
      <trkpt lat="43.942" lon="5.115">
        <ele>303</ele>
        <time>2020-02-23T10:59:06.000Z</time>
      </trkpt>
      <trkpt lat="43.94191" lon="5.1151">
        <ele>304.9</ele>
        <time>2020-02-23T10:59:25.000Z</time>
      </trkpt>
      <trkpt lat="43.94184" lon="5.11523">
        <ele>307.3</ele>
        <time>2020-02-23T10:59:42.000Z</time>
      </trkpt>
      <trkpt lat="43.94176" lon="5.11532">
        <ele>308.2</ele>
        <time>2020-02-23T10:59:58.000Z</time>
      </trkpt>
      <trkpt lat="43.94166" lon="5.11542">
        <ele>309.7</ele>
        <time>2020-02-23T11:00:14.000Z</time>
      </trkpt>
      <trkpt lat="43.94158" lon="5.11552">
        <ele>310.6</ele>
        <time>2020-02-23T11:00:28.000Z</time>
      </trkpt>
      <trkpt lat="43.94148" lon="5.11559">
        <ele>310.6</ele>
        <time>2020-02-23T11:00:44.000Z</time>
      </trkpt>
      <trkpt lat="43.94147" lon="5.11569">
        <ele>311.6</ele>
        <time>2020-02-23T11:00:56.000Z</time>
      </trkpt>
      <trkpt lat="43.94147" lon="5.11572">
        <ele>312.1</ele>
        <time>2020-02-23T11:01:08.000Z</time>
      </trkpt>
      <trkpt lat="43.94149" lon="5.11578">
        <ele>312.6</ele>
        <time>2020-02-23T11:01:21.000Z</time>
      </trkpt>
      <trkpt lat="43.9415" lon="5.11576">
        <ele>313</ele>
        <time>2020-02-23T11:01:35.000Z</time>
      </trkpt>
      <trkpt lat="43.9415" lon="5.11572">
        <ele>312.1</ele>
        <time>2020-02-23T11:01:52.000Z</time>
      </trkpt>
      <trkpt lat="43.94152" lon="5.11575">
        <ele>312.6</ele>
        <time>2020-02-23T11:02:04.000Z</time>
      </trkpt>
      <trkpt lat="43.94151" lon="5.1158">
        <ele>313</ele>
        <time>2020-02-23T11:02:26.000Z</time>
      </trkpt>
      <trkpt lat="43.94149" lon="5.11582">
        <ele>312.6</ele>
        <time>2020-02-23T11:02:54.000Z</time>
      </trkpt>
      <trkpt lat="43.9415" lon="5.1158">
        <ele>313</ele>
        <time>2020-02-23T11:03:11.000Z</time>
      </trkpt>
      <trkpt lat="43.94148" lon="5.11586">
        <ele>314.5</ele>
        <time>2020-02-23T11:03:22.000Z</time>
      </trkpt>
      <trkpt lat="43.94149" lon="5.11604">
        <ele>316.4</ele>
        <time>2020-02-23T11:03:39.000Z</time>
      </trkpt>
      <trkpt lat="43.94149" lon="5.11616">
        <ele>318.8</ele>
        <time>2020-02-23T11:03:53.000Z</time>
      </trkpt>
      <trkpt lat="43.94151" lon="5.11631">
        <ele>320.3</ele>
        <time>2020-02-23T11:04:08.000Z</time>
      </trkpt>
      <trkpt lat="43.9415" lon="5.11644">
        <ele>323.1</ele>
        <time>2020-02-23T11:04:23.000Z</time>
      </trkpt>
      <trkpt lat="43.9415" lon="5.11656">
        <ele>324.1</ele>
        <time>2020-02-23T11:04:37.000Z</time>
      </trkpt>
      <trkpt lat="43.94151" lon="5.11665">
        <ele>326</ele>
        <time>2020-02-23T11:04:52.000Z</time>
      </trkpt>
      <trkpt lat="43.94153" lon="5.11671">
        <ele>328</ele>
        <time>2020-02-23T11:05:05.000Z</time>
      </trkpt>
      <trkpt lat="43.94153" lon="5.11686">
        <ele>329.4</ele>
        <time>2020-02-23T11:05:18.000Z</time>
      </trkpt>
      <trkpt lat="43.94156" lon="5.11703">
        <ele>331.3</ele>
        <time>2020-02-23T11:05:34.000Z</time>
      </trkpt>
      <trkpt lat="43.94164" lon="5.11715">
        <ele>332.8</ele>
        <time>2020-02-23T11:05:49.000Z</time>
      </trkpt>
      <trkpt lat="43.94171" lon="5.11718">
        <ele>333.2</ele>
        <time>2020-02-23T11:05:59.000Z</time>
      </trkpt>
      <trkpt lat="43.94184" lon="5.11729">
        <ele>334.2</ele>
        <time>2020-02-23T11:06:13.000Z</time>
      </trkpt>
      <trkpt lat="43.94194" lon="5.11739">
        <ele>334.2</ele>
        <time>2020-02-23T11:06:26.000Z</time>
      </trkpt>
      <trkpt lat="43.94208" lon="5.11747">
        <ele>335.6</ele>
        <time>2020-02-23T11:06:42.000Z</time>
      </trkpt>
      <trkpt lat="43.94221" lon="5.11757">
        <ele>336.1</ele>
        <time>2020-02-23T11:06:59.000Z</time>
      </trkpt>
      <trkpt lat="43.94229" lon="5.11771">
        <ele>337.6</ele>
        <time>2020-02-23T11:07:16.000Z</time>
      </trkpt>
      <trkpt lat="43.94234" lon="5.11782">
        <ele>339.5</ele>
        <time>2020-02-23T11:07:30.000Z</time>
      </trkpt>
      <trkpt lat="43.94243" lon="5.11795">
        <ele>340.9</ele>
        <time>2020-02-23T11:07:45.000Z</time>
      </trkpt>
      <trkpt lat="43.94248" lon="5.1181">
        <ele>342.9</ele>
        <time>2020-02-23T11:08:01.000Z</time>
      </trkpt>
      <trkpt lat="43.94247" lon="5.11822">
        <ele>344.3</ele>
        <time>2020-02-23T11:08:17.000Z</time>
      </trkpt>
      <trkpt lat="43.9424" lon="5.1183">
        <ele>346.7</ele>
        <time>2020-02-23T11:08:33.000Z</time>
      </trkpt>
      <trkpt lat="43.94234" lon="5.11842">
        <ele>348.1</ele>
        <time>2020-02-23T11:08:49.000Z</time>
      </trkpt>
      <trkpt lat="43.94228" lon="5.11853">
        <ele>350.1</ele>
        <time>2020-02-23T11:09:05.000Z</time>
      </trkpt>
      <trkpt lat="43.94221" lon="5.11862">
        <ele>351.5</ele>
        <time>2020-02-23T11:09:21.000Z</time>
      </trkpt>
      <trkpt lat="43.94216" lon="5.11874">
        <ele>353.4</ele>
        <time>2020-02-23T11:09:37.000Z</time>
      </trkpt>
      <trkpt lat="43.9421" lon="5.11882">
        <ele>353.4</ele>
        <time>2020-02-23T11:09:49.000Z</time>
      </trkpt>
      <trkpt lat="43.9421" lon="5.11883">
        <ele>353.9</ele>
        <time>2020-02-23T11:10:04.000Z</time>
      </trkpt>
      <trkpt lat="43.94209" lon="5.11883">
        <ele>353.9</ele>
        <time>2020-02-23T11:10:25.000Z</time>
      </trkpt>
      <trkpt lat="43.94211" lon="5.11884">
        <ele>353.9</ele>
        <time>2020-02-23T11:10:56.000Z</time>
      </trkpt>
      <trkpt lat="43.94214" lon="5.11885">
        <ele>353.9</ele>
        <time>2020-02-23T11:11:13.000Z</time>
      </trkpt>
      <trkpt lat="43.94212" lon="5.11885">
        <ele>353.9</ele>
        <time>2020-02-23T11:11:33.000Z</time>
      </trkpt>
      <trkpt lat="43.94211" lon="5.11889">
        <ele>353.4</ele>
        <time>2020-02-23T11:11:37.000Z</time>
      </trkpt>
      <trkpt lat="43.94214" lon="5.11908">
        <ele>352</ele>
        <time>2020-02-23T11:11:52.000Z</time>
      </trkpt>
      <trkpt lat="43.94219" lon="5.11931">
        <ele>350.5</ele>
        <time>2020-02-23T11:12:09.000Z</time>
      </trkpt>
      <trkpt lat="43.94218" lon="5.11948">
        <ele>348.1</ele>
        <time>2020-02-23T11:12:23.000Z</time>
      </trkpt>
      <trkpt lat="43.94222" lon="5.11972">
        <ele>345.3</ele>
        <time>2020-02-23T11:12:39.000Z</time>
      </trkpt>
      <trkpt lat="43.94222" lon="5.11992">
        <ele>342.4</ele>
        <time>2020-02-23T11:12:54.000Z</time>
      </trkpt>
      <trkpt lat="43.94229" lon="5.12002">
        <ele>342.4</ele>
        <time>2020-02-23T11:13:05.000Z</time>
      </trkpt>
      <trkpt lat="43.94237" lon="5.12019">
        <ele>343.3</ele>
        <time>2020-02-23T11:13:21.000Z</time>
      </trkpt>
      <trkpt lat="43.9424" lon="5.12041">
        <ele>343.3</ele>
        <time>2020-02-23T11:13:37.000Z</time>
      </trkpt>
      <trkpt lat="43.94235" lon="5.12058">
        <ele>343.8</ele>
        <time>2020-02-23T11:13:51.000Z</time>
      </trkpt>
      <trkpt lat="43.94234" lon="5.12061">
        <ele>344.3</ele>
        <time>2020-02-23T11:13:54.000Z</time>
      </trkpt>
      <trkpt lat="43.94231" lon="5.12066">
        <ele>343.8</ele>
        <time>2020-02-23T11:13:59.000Z</time>
      </trkpt>
      <trkpt lat="43.94226" lon="5.12064">
        <ele>343.3</ele>
        <time>2020-02-23T11:14:04.000Z</time>
      </trkpt>
      <trkpt lat="43.94212" lon="5.12063">
        <ele>342.9</ele>
        <time>2020-02-23T11:14:20.000Z</time>
      </trkpt>
      <trkpt lat="43.94196" lon="5.12078">
        <ele>342.9</ele>
        <time>2020-02-23T11:14:40.000Z</time>
      </trkpt>
      <trkpt lat="43.94192" lon="5.12086">
        <ele>343.8</ele>
        <time>2020-02-23T11:14:48.000Z</time>
      </trkpt>
      <trkpt lat="43.94185" lon="5.12097">
        <ele>344.8</ele>
        <time>2020-02-23T11:15:03.000Z</time>
      </trkpt>
      <trkpt lat="43.9418" lon="5.12105">
        <ele>345.3</ele>
        <time>2020-02-23T11:15:18.000Z</time>
      </trkpt>
      <trkpt lat="43.94174" lon="5.12111">
        <ele>345.7</ele>
        <time>2020-02-23T11:15:33.000Z</time>
      </trkpt>
      <trkpt lat="43.94171" lon="5.12118">
        <ele>346.7</ele>
        <time>2020-02-23T11:15:49.000Z</time>
      </trkpt>
      <trkpt lat="43.94168" lon="5.12128">
        <ele>348.1</ele>
        <time>2020-02-23T11:16:04.000Z</time>
      </trkpt>
      <trkpt lat="43.94163" lon="5.12134">
        <ele>349.1</ele>
        <time>2020-02-23T11:16:20.000Z</time>
      </trkpt>
      <trkpt lat="43.94158" lon="5.12147">
        <ele>351</ele>
        <time>2020-02-23T11:16:36.000Z</time>
      </trkpt>
      <trkpt lat="43.94151" lon="5.12157">
        <ele>352.5</ele>
        <time>2020-02-23T11:16:54.000Z</time>
      </trkpt>
      <trkpt lat="43.94146" lon="5.12162">
        <ele>353.9</ele>
        <time>2020-02-23T11:17:08.000Z</time>
      </trkpt>
      <trkpt lat="43.94138" lon="5.12163">
        <ele>355.3</ele>
        <time>2020-02-23T11:17:24.000Z</time>
      </trkpt>
      <trkpt lat="43.94128" lon="5.12161">
        <ele>357.3</ele>
        <time>2020-02-23T11:17:42.000Z</time>
      </trkpt>
      <trkpt lat="43.94119" lon="5.12157">
        <ele>358.2</ele>
        <time>2020-02-23T11:17:57.000Z</time>
      </trkpt>
      <trkpt lat="43.94109" lon="5.12148">
        <ele>359.7</ele>
        <time>2020-02-23T11:18:15.000Z</time>
      </trkpt>
      <trkpt lat="43.94096" lon="5.12144">
        <ele>360.6</ele>
        <time>2020-02-23T11:18:34.000Z</time>
      </trkpt>
      <trkpt lat="43.94086" lon="5.12138">
        <ele>361.1</ele>
        <time>2020-02-23T11:18:48.000Z</time>
      </trkpt>
      <trkpt lat="43.94077" lon="5.12132">
        <ele>364</ele>
        <time>2020-02-23T11:19:03.000Z</time>
      </trkpt>
      <trkpt lat="43.94069" lon="5.12125">
        <ele>365</ele>
        <time>2020-02-23T11:19:18.000Z</time>
      </trkpt>
      <trkpt lat="43.94058" lon="5.12118">
        <ele>366.9</ele>
        <time>2020-02-23T11:19:35.000Z</time>
      </trkpt>
      <trkpt lat="43.94046" lon="5.12107">
        <ele>365.9</ele>
        <time>2020-02-23T11:19:52.000Z</time>
      </trkpt>
      <trkpt lat="43.94033" lon="5.12098">
        <ele>365.9</ele>
        <time>2020-02-23T11:20:08.000Z</time>
      </trkpt>
      <trkpt lat="43.94019" lon="5.12089">
        <ele>365.4</ele>
        <time>2020-02-23T11:20:27.000Z</time>
      </trkpt>
      <trkpt lat="43.94013" lon="5.12084">
        <ele>365.9</ele>
        <time>2020-02-23T11:20:34.000Z</time>
      </trkpt>
      <trkpt lat="43.94" lon="5.12078">
        <ele>365.9</ele>
        <time>2020-02-23T11:20:51.000Z</time>
      </trkpt>
      <trkpt lat="43.93988" lon="5.12081">
        <ele>367.8</ele>
        <time>2020-02-23T11:21:07.000Z</time>
      </trkpt>
      <trkpt lat="43.93978" lon="5.12091">
        <ele>368.8</ele>
        <time>2020-02-23T11:21:23.000Z</time>
      </trkpt>
      <trkpt lat="43.9398" lon="5.12099">
        <ele>369.8</ele>
        <time>2020-02-23T11:21:39.000Z</time>
      </trkpt>
      <trkpt lat="43.93984" lon="5.12097">
        <ele>369.8</ele>
        <time>2020-02-23T11:22:08.000Z</time>
      </trkpt>
      <trkpt lat="43.9398" lon="5.121">
        <ele>369.8</ele>
        <time>2020-02-23T11:22:29.000Z</time>
      </trkpt>
      <trkpt lat="43.93982" lon="5.12099">
        <ele>370.2</ele>
        <time>2020-02-23T11:22:45.000Z</time>
      </trkpt>
      <trkpt lat="43.9398" lon="5.12101">
        <ele>369.8</ele>
        <time>2020-02-23T11:23:17.000Z</time>
      </trkpt>
      <trkpt lat="43.93983" lon="5.12102">
        <ele>370.2</ele>
        <time>2020-02-23T11:23:41.000Z</time>
      </trkpt>
      <trkpt lat="43.93975" lon="5.12096">
        <ele>369.3</ele>
        <time>2020-02-23T11:24:01.000Z</time>
      </trkpt>
      <trkpt lat="43.93964" lon="5.1209">
        <ele>369.3</ele>
        <time>2020-02-23T11:24:16.000Z</time>
      </trkpt>
      <trkpt lat="43.93963" lon="5.12087">
        <ele>369.3</ele>
        <time>2020-02-23T11:24:28.000Z</time>
      </trkpt>
      <trkpt lat="43.93969" lon="5.12091">
        <ele>368.8</ele>
        <time>2020-02-23T11:24:34.000Z</time>
      </trkpt>
      <trkpt lat="43.9398" lon="5.12092">
        <ele>369.3</ele>
        <time>2020-02-23T11:24:48.000Z</time>
      </trkpt>
      <trkpt lat="43.93982" lon="5.12088">
        <ele>368.8</ele>
        <time>2020-02-23T11:24:52.000Z</time>
      </trkpt>
      <trkpt lat="43.93985" lon="5.12084">
        <ele>368.3</ele>
        <time>2020-02-23T11:24:56.000Z</time>
      </trkpt>
      <trkpt lat="43.94001" lon="5.1208">
        <ele>366.4</ele>
        <time>2020-02-23T11:25:12.000Z</time>
      </trkpt>
      <trkpt lat="43.94018" lon="5.1209">
        <ele>365.9</ele>
        <time>2020-02-23T11:25:29.000Z</time>
      </trkpt>
      <trkpt lat="43.94036" lon="5.12103">
        <ele>366.4</ele>
        <time>2020-02-23T11:25:46.000Z</time>
      </trkpt>
      <trkpt lat="43.94056" lon="5.12118">
        <ele>366.9</ele>
        <time>2020-02-23T11:26:05.000Z</time>
      </trkpt>
      <trkpt lat="43.94047" lon="5.12108">
        <ele>366.4</ele>
        <time>2020-02-23T11:26:18.000Z</time>
      </trkpt>
      <trkpt lat="43.9404" lon="5.12104">
        <ele>366.4</ele>
        <time>2020-02-23T11:26:27.000Z</time>
      </trkpt>
      <trkpt lat="43.94024" lon="5.12092">
        <ele>365.9</ele>
        <time>2020-02-23T11:26:46.000Z</time>
      </trkpt>
      <trkpt lat="43.9401" lon="5.1208">
        <ele>365.4</ele>
        <time>2020-02-23T11:27:03.000Z</time>
      </trkpt>
      <trkpt lat="43.93997" lon="5.12076">
        <ele>366.9</ele>
        <time>2020-02-23T11:27:19.000Z</time>
      </trkpt>
      <trkpt lat="43.93987" lon="5.12081">
        <ele>367.8</ele>
        <time>2020-02-23T11:27:34.000Z</time>
      </trkpt>
      <trkpt lat="43.93981" lon="5.12085">
        <ele>368.3</ele>
        <time>2020-02-23T11:27:53.000Z</time>
      </trkpt>
      <trkpt lat="43.93977" lon="5.12097">
        <ele>369.8</ele>
        <time>2020-02-23T11:28:07.000Z</time>
      </trkpt>
      <trkpt lat="43.93966" lon="5.12091">
        <ele>369.3</ele>
        <time>2020-02-23T11:28:21.000Z</time>
      </trkpt>
      <trkpt lat="43.93961" lon="5.12087">
        <ele>368.3</ele>
        <time>2020-02-23T11:28:37.000Z</time>
      </trkpt>
      <trkpt lat="43.93958" lon="5.12086">
        <ele>368.8</ele>
        <time>2020-02-23T11:28:46.000Z</time>
      </trkpt>
      <trkpt lat="43.93948" lon="5.1208">
        <ele>367.8</ele>
        <time>2020-02-23T11:28:58.000Z</time>
      </trkpt>
      <trkpt lat="43.93929" lon="5.12069">
        <ele>365.4</ele>
        <time>2020-02-23T11:29:16.000Z</time>
      </trkpt>
      <trkpt lat="43.93916" lon="5.12061">
        <ele>365</ele>
        <time>2020-02-23T11:29:30.000Z</time>
      </trkpt>
      <trkpt lat="43.93908" lon="5.12059">
        <ele>364</ele>
        <time>2020-02-23T11:29:46.000Z</time>
      </trkpt>
      <trkpt lat="43.93894" lon="5.12053">
        <ele>363.5</ele>
        <time>2020-02-23T11:30:03.000Z</time>
      </trkpt>
      <trkpt lat="43.93888" lon="5.12055">
        <ele>363</ele>
        <time>2020-02-23T11:30:16.000Z</time>
      </trkpt>
      <trkpt lat="43.9388" lon="5.12052">
        <ele>362.5</ele>
        <time>2020-02-23T11:30:29.000Z</time>
      </trkpt>
      <trkpt lat="43.93883" lon="5.12048">
        <ele>362.1</ele>
        <time>2020-02-23T11:30:41.000Z</time>
      </trkpt>
      <trkpt lat="43.93891" lon="5.12066">
        <ele>364</ele>
        <time>2020-02-23T11:33:36.000Z</time>
      </trkpt>
      <trkpt lat="43.9389" lon="5.12068">
        <ele>367.4</ele>
        <time>2020-02-23T11:33:57.000Z</time>
      </trkpt>
      <trkpt lat="43.93889" lon="5.12073">
        <ele>370.7</ele>
        <time>2020-02-23T11:34:22.000Z</time>
      </trkpt>
      <trkpt lat="43.93889" lon="5.12076">
        <ele>373.6</ele>
        <time>2020-02-23T11:34:42.000Z</time>
      </trkpt>
      <trkpt lat="43.93889" lon="5.12076">
        <ele>376.5</ele>
        <time>2020-02-23T11:35:05.000Z</time>
      </trkpt>
      <trkpt lat="43.93889" lon="5.12075">
        <ele>377.5</ele>
        <time>2020-02-23T11:35:27.000Z</time>
      </trkpt>
      <trkpt lat="43.93885" lon="5.12061">
        <ele>380.8</ele>
        <time>2020-02-23T12:14:19.000Z</time>
      </trkpt>
      <trkpt lat="43.93883" lon="5.12063">
        <ele>380.3</ele>
        <time>2020-02-23T12:14:20.000Z</time>
      </trkpt>
      <trkpt lat="43.93881" lon="5.12065">
        <ele>377</ele>
        <time>2020-02-23T12:14:31.000Z</time>
      </trkpt>
      <trkpt lat="43.93881" lon="5.12066">
        <ele>374.1</ele>
        <time>2020-02-23T12:14:36.000Z</time>
      </trkpt>
      <trkpt lat="43.93882" lon="5.12065">
        <ele>370.7</ele>
        <time>2020-02-23T12:14:44.000Z</time>
      </trkpt>
      <trkpt lat="43.93883" lon="5.12065">
        <ele>367.4</ele>
        <time>2020-02-23T12:14:56.000Z</time>
      </trkpt>
      <trkpt lat="43.93884" lon="5.12064">
        <ele>364.5</ele>
        <time>2020-02-23T12:15:11.000Z</time>
      </trkpt>
      <trkpt lat="43.93882" lon="5.12069">
        <ele>362.5</ele>
        <time>2020-02-23T12:15:36.000Z</time>
      </trkpt>
      <trkpt lat="43.93881" lon="5.1206">
        <ele>361.6</ele>
        <time>2020-02-23T12:15:50.000Z</time>
      </trkpt>
      <trkpt lat="43.93883" lon="5.12048">
        <ele>361.1</ele>
        <time>2020-02-23T12:16:04.000Z</time>
      </trkpt>
      <trkpt lat="43.93885" lon="5.1204">
        <ele>360.1</ele>
        <time>2020-02-23T12:16:18.000Z</time>
      </trkpt>
      <trkpt lat="43.93884" lon="5.12041">
        <ele>360.6</ele>
        <time>2020-02-23T12:16:38.000Z</time>
      </trkpt>
      <trkpt lat="43.93881" lon="5.12037">
        <ele>360.1</ele>
        <time>2020-02-23T12:16:56.000Z</time>
      </trkpt>
      <trkpt lat="43.93876" lon="5.12038">
        <ele>360.1</ele>
        <time>2020-02-23T12:17:04.000Z</time>
      </trkpt>
      <trkpt lat="43.93864" lon="5.12045">
        <ele>359.7</ele>
        <time>2020-02-23T12:17:18.000Z</time>
      </trkpt>
      <trkpt lat="43.93862" lon="5.12046">
        <ele>359.7</ele>
        <time>2020-02-23T12:17:20.000Z</time>
      </trkpt>
      <trkpt lat="43.93844" lon="5.12053">
        <ele>358.7</ele>
        <time>2020-02-23T12:17:40.000Z</time>
      </trkpt>
      <trkpt lat="43.9383" lon="5.1206">
        <ele>357.8</ele>
        <time>2020-02-23T12:17:56.000Z</time>
      </trkpt>
      <trkpt lat="43.93816" lon="5.12063">
        <ele>355.8</ele>
        <time>2020-02-23T12:18:11.000Z</time>
      </trkpt>
      <trkpt lat="43.93806" lon="5.12065">
        <ele>355.3</ele>
        <time>2020-02-23T12:18:26.000Z</time>
      </trkpt>
      <trkpt lat="43.93804" lon="5.12064">
        <ele>354.9</ele>
        <time>2020-02-23T12:18:38.000Z</time>
      </trkpt>
      <trkpt lat="43.93799" lon="5.12068">
        <ele>354.9</ele>
        <time>2020-02-23T12:18:56.000Z</time>
      </trkpt>
      <trkpt lat="43.93797" lon="5.12069">
        <ele>354.9</ele>
        <time>2020-02-23T12:19:11.000Z</time>
      </trkpt>
      <trkpt lat="43.93792" lon="5.12074">
        <ele>353.9</ele>
        <time>2020-02-23T12:19:27.000Z</time>
      </trkpt>
      <trkpt lat="43.93782" lon="5.12083">
        <ele>352.9</ele>
        <time>2020-02-23T12:19:40.000Z</time>
      </trkpt>
      <trkpt lat="43.93771" lon="5.1209">
        <ele>352</ele>
        <time>2020-02-23T12:19:54.000Z</time>
      </trkpt>
      <trkpt lat="43.93759" lon="5.12105">
        <ele>350.1</ele>
        <time>2020-02-23T12:20:11.000Z</time>
      </trkpt>
      <trkpt lat="43.9375" lon="5.12121">
        <ele>349.6</ele>
        <time>2020-02-23T12:20:27.000Z</time>
      </trkpt>
      <trkpt lat="43.93735" lon="5.1214">
        <ele>349.1</ele>
        <time>2020-02-23T12:20:48.000Z</time>
      </trkpt>
      <trkpt lat="43.93724" lon="5.12153">
        <ele>348.1</ele>
        <time>2020-02-23T12:21:02.000Z</time>
      </trkpt>
      <trkpt lat="43.93713" lon="5.12162">
        <ele>346.7</ele>
        <time>2020-02-23T12:21:16.000Z</time>
      </trkpt>
      <trkpt lat="43.9371" lon="5.12162">
        <ele>346.7</ele>
        <time>2020-02-23T12:21:19.000Z</time>
      </trkpt>
      <trkpt lat="43.937" lon="5.12163">
        <ele>344.8</ele>
        <time>2020-02-23T12:21:31.000Z</time>
      </trkpt>
      <trkpt lat="43.9369" lon="5.12173">
        <ele>343.3</ele>
        <time>2020-02-23T12:21:44.000Z</time>
      </trkpt>
      <trkpt lat="43.93681" lon="5.12184">
        <ele>342.4</ele>
        <time>2020-02-23T12:21:57.000Z</time>
      </trkpt>
      <trkpt lat="43.93666" lon="5.12196">
        <ele>340.9</ele>
        <time>2020-02-23T12:22:12.000Z</time>
      </trkpt>
      <trkpt lat="43.93652" lon="5.12214">
        <ele>339.5</ele>
        <time>2020-02-23T12:22:30.000Z</time>
      </trkpt>
      <trkpt lat="43.93635" lon="5.12227">
        <ele>337.6</ele>
        <time>2020-02-23T12:22:49.000Z</time>
      </trkpt>
      <trkpt lat="43.93624" lon="5.12233">
        <ele>335.6</ele>
        <time>2020-02-23T12:23:03.000Z</time>
      </trkpt>
      <trkpt lat="43.93617" lon="5.12247">
        <ele>334.7</ele>
        <time>2020-02-23T12:23:19.000Z</time>
      </trkpt>
      <trkpt lat="43.93614" lon="5.12255">
        <ele>334.2</ele>
        <time>2020-02-23T12:23:32.000Z</time>
      </trkpt>
      <trkpt lat="43.93605" lon="5.12276">
        <ele>332.3</ele>
        <time>2020-02-23T12:23:49.000Z</time>
      </trkpt>
      <trkpt lat="43.93589" lon="5.1229">
        <ele>329.9</ele>
        <time>2020-02-23T12:24:07.000Z</time>
      </trkpt>
      <trkpt lat="43.93576" lon="5.12307">
        <ele>328</ele>
        <time>2020-02-23T12:24:25.000Z</time>
      </trkpt>
      <trkpt lat="43.93572" lon="5.12314">
        <ele>328</ele>
        <time>2020-02-23T12:24:30.000Z</time>
      </trkpt>
      <trkpt lat="43.93566" lon="5.12319">
        <ele>327.5</ele>
        <time>2020-02-23T12:24:38.000Z</time>
      </trkpt>
      <trkpt lat="43.93553" lon="5.1232">
        <ele>326.5</ele>
        <time>2020-02-23T12:24:54.000Z</time>
      </trkpt>
      <trkpt lat="43.9355" lon="5.12319">
        <ele>326.5</ele>
        <time>2020-02-23T12:25:17.000Z</time>
      </trkpt>
      <trkpt lat="43.93537" lon="5.12326">
        <ele>325.5</ele>
        <time>2020-02-23T12:25:35.000Z</time>
      </trkpt>
      <trkpt lat="43.93533" lon="5.12328">
        <ele>325.5</ele>
        <time>2020-02-23T12:25:49.000Z</time>
      </trkpt>
      <trkpt lat="43.93532" lon="5.12329">
        <ele>325.5</ele>
        <time>2020-02-23T12:26:24.000Z</time>
      </trkpt>
      <trkpt lat="43.9353" lon="5.12331">
        <ele>326</ele>
        <time>2020-02-23T12:26:57.000Z</time>
      </trkpt>
      <trkpt lat="43.93531" lon="5.12329">
        <ele>325.5</ele>
        <time>2020-02-23T12:27:16.000Z</time>
      </trkpt>
      <trkpt lat="43.9352" lon="5.12312">
        <ele>325.1</ele>
        <time>2020-02-23T12:27:32.000Z</time>
      </trkpt>
      <trkpt lat="43.93512" lon="5.12292">
        <ele>324.1</ele>
        <time>2020-02-23T12:27:47.000Z</time>
      </trkpt>
      <trkpt lat="43.93507" lon="5.12268">
        <ele>322.2</ele>
        <time>2020-02-23T12:28:04.000Z</time>
      </trkpt>
      <trkpt lat="43.93495" lon="5.12245">
        <ele>320.7</ele>
        <time>2020-02-23T12:28:23.000Z</time>
      </trkpt>
      <trkpt lat="43.93484" lon="5.12223">
        <ele>318.8</ele>
        <time>2020-02-23T12:28:40.000Z</time>
      </trkpt>
      <trkpt lat="43.93482" lon="5.12218">
        <ele>317.9</ele>
        <time>2020-02-23T12:28:44.000Z</time>
      </trkpt>
      <trkpt lat="43.93461" lon="5.12211">
        <ele>316.4</ele>
        <time>2020-02-23T12:29:03.000Z</time>
      </trkpt>
      <trkpt lat="43.93447" lon="5.12208">
        <ele>315.5</ele>
        <time>2020-02-23T12:29:24.000Z</time>
      </trkpt>
      <trkpt lat="43.93445" lon="5.12202">
        <ele>314.5</ele>
        <time>2020-02-23T12:29:30.000Z</time>
      </trkpt>
      <trkpt lat="43.93451" lon="5.12182">
        <ele>313.5</ele>
        <time>2020-02-23T12:29:44.000Z</time>
      </trkpt>
      <trkpt lat="43.9346" lon="5.12159">
        <ele>312.1</ele>
        <time>2020-02-23T12:30:02.000Z</time>
      </trkpt>
      <trkpt lat="43.93465" lon="5.12133">
        <ele>311.6</ele>
        <time>2020-02-23T12:30:19.000Z</time>
      </trkpt>
      <trkpt lat="43.93468" lon="5.12107">
        <ele>310.6</ele>
        <time>2020-02-23T12:30:35.000Z</time>
      </trkpt>
      <trkpt lat="43.93466" lon="5.12073">
        <ele>310.2</ele>
        <time>2020-02-23T12:30:56.000Z</time>
      </trkpt>
      <trkpt lat="43.93457" lon="5.12044">
        <ele>309.2</ele>
        <time>2020-02-23T12:31:17.000Z</time>
      </trkpt>
      <trkpt lat="43.93443" lon="5.12024">
        <ele>308.7</ele>
        <time>2020-02-23T12:31:35.000Z</time>
      </trkpt>
      <trkpt lat="43.93428" lon="5.12003">
        <ele>307.8</ele>
        <time>2020-02-23T12:31:54.000Z</time>
      </trkpt>
      <trkpt lat="43.93423" lon="5.11995">
        <ele>307.8</ele>
        <time>2020-02-23T12:32:09.000Z</time>
      </trkpt>
      <trkpt lat="43.93423" lon="5.11991">
        <ele>307.8</ele>
        <time>2020-02-23T12:32:25.000Z</time>
      </trkpt>
      <trkpt lat="43.9342" lon="5.11985">
        <ele>308.2</ele>
        <time>2020-02-23T12:32:40.000Z</time>
      </trkpt>
      <trkpt lat="43.93417" lon="5.11984">
        <ele>308.2</ele>
        <time>2020-02-23T12:32:55.000Z</time>
      </trkpt>
      <trkpt lat="43.93413" lon="5.11979">
        <ele>308.7</ele>
        <time>2020-02-23T12:33:10.000Z</time>
      </trkpt>
      <trkpt lat="43.93412" lon="5.11984">
        <ele>308.7</ele>
        <time>2020-02-23T12:33:36.000Z</time>
      </trkpt>
      <trkpt lat="43.93407" lon="5.11973">
        <ele>308.7</ele>
        <time>2020-02-23T12:33:52.000Z</time>
      </trkpt>
      <trkpt lat="43.93397" lon="5.11965">
        <ele>309.7</ele>
        <time>2020-02-23T12:34:09.000Z</time>
      </trkpt>
      <trkpt lat="43.93384" lon="5.11955">
        <ele>309.2</ele>
        <time>2020-02-23T12:34:25.000Z</time>
      </trkpt>
      <trkpt lat="43.93371" lon="5.11941">
        <ele>309.2</ele>
        <time>2020-02-23T12:34:42.000Z</time>
      </trkpt>
      <trkpt lat="43.93358" lon="5.11929">
        <ele>308.2</ele>
        <time>2020-02-23T12:34:59.000Z</time>
      </trkpt>
      <trkpt lat="43.93347" lon="5.11919">
        <ele>307.3</ele>
        <time>2020-02-23T12:35:13.000Z</time>
      </trkpt>
      <trkpt lat="43.93337" lon="5.11903">
        <ele>307.3</ele>
        <time>2020-02-23T12:35:28.000Z</time>
      </trkpt>
      <trkpt lat="43.93325" lon="5.11886">
        <ele>307.3</ele>
        <time>2020-02-23T12:35:46.000Z</time>
      </trkpt>
      <trkpt lat="43.93315" lon="5.11869">
        <ele>306.3</ele>
        <time>2020-02-23T12:36:03.000Z</time>
      </trkpt>
      <trkpt lat="43.93304" lon="5.11857">
        <ele>305.4</ele>
        <time>2020-02-23T12:36:19.000Z</time>
      </trkpt>
      <trkpt lat="43.93297" lon="5.11845">
        <ele>304.9</ele>
        <time>2020-02-23T12:36:34.000Z</time>
      </trkpt>
      <trkpt lat="43.93297" lon="5.11831">
        <ele>303.9</ele>
        <time>2020-02-23T12:36:47.000Z</time>
      </trkpt>
      <trkpt lat="43.933" lon="5.11814">
        <ele>301.5</ele>
        <time>2020-02-23T12:37:03.000Z</time>
      </trkpt>
      <trkpt lat="43.93311" lon="5.11804">
        <ele>300.1</ele>
        <time>2020-02-23T12:37:19.000Z</time>
      </trkpt>
      <trkpt lat="43.93323" lon="5.11791">
        <ele>298.6</ele>
        <time>2020-02-23T12:37:36.000Z</time>
      </trkpt>
      <trkpt lat="43.93334" lon="5.11777">
        <ele>297.7</ele>
        <time>2020-02-23T12:37:52.000Z</time>
      </trkpt>
      <trkpt lat="43.93334" lon="5.11768">
        <ele>295.3</ele>
        <time>2020-02-23T12:38:03.000Z</time>
      </trkpt>
      <trkpt lat="43.93321" lon="5.11773">
        <ele>292.9</ele>
        <time>2020-02-23T12:38:18.000Z</time>
      </trkpt>
      <trkpt lat="43.93311" lon="5.11774">
        <ele>290.9</ele>
        <time>2020-02-23T12:38:32.000Z</time>
      </trkpt>
      <trkpt lat="43.93299" lon="5.11774">
        <ele>288</ele>
        <time>2020-02-23T12:38:46.000Z</time>
      </trkpt>
      <trkpt lat="43.93294" lon="5.11767">
        <ele>285.6</ele>
        <time>2020-02-23T12:39:01.000Z</time>
      </trkpt>
      <trkpt lat="43.93282" lon="5.11767">
        <ele>282.8</ele>
        <time>2020-02-23T12:39:15.000Z</time>
      </trkpt>
      <trkpt lat="43.93274" lon="5.11772">
        <ele>281.3</ele>
        <time>2020-02-23T12:39:30.000Z</time>
      </trkpt>
      <trkpt lat="43.93276" lon="5.11764">
        <ele>278.4</ele>
        <time>2020-02-23T12:39:43.000Z</time>
      </trkpt>
      <trkpt lat="43.93277" lon="5.11762">
        <ele>278</ele>
        <time>2020-02-23T12:39:46.000Z</time>
      </trkpt>
      <trkpt lat="43.93284" lon="5.11751">
        <ele>275.6</ele>
        <time>2020-02-23T12:40:02.000Z</time>
      </trkpt>
      <trkpt lat="43.9329" lon="5.1174">
        <ele>273.1</ele>
        <time>2020-02-23T12:40:17.000Z</time>
      </trkpt>
      <trkpt lat="43.93295" lon="5.1173">
        <ele>270.8</ele>
        <time>2020-02-23T12:40:32.000Z</time>
      </trkpt>
      <trkpt lat="43.93301" lon="5.11718">
        <ele>267.9</ele>
        <time>2020-02-23T12:40:46.000Z</time>
      </trkpt>
      <trkpt lat="43.93305" lon="5.11706">
        <ele>264.5</ele>
        <time>2020-02-23T12:41:01.000Z</time>
      </trkpt>
      <trkpt lat="43.93313" lon="5.11698">
        <ele>262.1</ele>
        <time>2020-02-23T12:41:16.000Z</time>
      </trkpt>
      <trkpt lat="43.93324" lon="5.11688">
        <ele>260.2</ele>
        <time>2020-02-23T12:41:30.000Z</time>
      </trkpt>
      <trkpt lat="43.93333" lon="5.11678">
        <ele>258.3</ele>
        <time>2020-02-23T12:41:45.000Z</time>
      </trkpt>
      <trkpt lat="43.93348" lon="5.1167">
        <ele>256.3</ele>
        <time>2020-02-23T12:42:04.000Z</time>
      </trkpt>
      <trkpt lat="43.9336" lon="5.1166">
        <ele>254.9</ele>
        <time>2020-02-23T12:42:18.000Z</time>
      </trkpt>
      <trkpt lat="43.93374" lon="5.11645">
        <ele>253</ele>
        <time>2020-02-23T12:42:37.000Z</time>
      </trkpt>
      <trkpt lat="43.93384" lon="5.11633">
        <ele>251.5</ele>
        <time>2020-02-23T12:42:50.000Z</time>
      </trkpt>
      <trkpt lat="43.93391" lon="5.11621">
        <ele>249.6</ele>
        <time>2020-02-23T12:43:05.000Z</time>
      </trkpt>
      <trkpt lat="43.93395" lon="5.11609">
        <ele>248.2</ele>
        <time>2020-02-23T12:43:17.000Z</time>
      </trkpt>
      <trkpt lat="43.93404" lon="5.11595">
        <ele>247.7</ele>
        <time>2020-02-23T12:43:33.000Z</time>
      </trkpt>
      <trkpt lat="43.93403" lon="5.11588">
        <ele>248.2</ele>
        <time>2020-02-23T12:43:51.000Z</time>
      </trkpt>
      <trkpt lat="43.93403" lon="5.11578">
        <ele>248.2</ele>
        <time>2020-02-23T12:44:28.000Z</time>
      </trkpt>
      <trkpt lat="43.93402" lon="5.11575">
        <ele>248.2</ele>
        <time>2020-02-23T12:45:12.000Z</time>
      </trkpt>
      <trkpt lat="43.93405" lon="5.11581">
        <ele>248.2</ele>
        <time>2020-02-23T12:45:53.000Z</time>
      </trkpt>
      <trkpt lat="43.93403" lon="5.11589">
        <ele>248.2</ele>
        <time>2020-02-23T12:46:05.000Z</time>
      </trkpt>
      <trkpt lat="43.93395" lon="5.11593">
        <ele>247.7</ele>
        <time>2020-02-23T12:46:32.000Z</time>
      </trkpt>
      <trkpt lat="43.93398" lon="5.11584">
        <ele>247.7</ele>
        <time>2020-02-23T12:46:53.000Z</time>
      </trkpt>
      <trkpt lat="43.93399" lon="5.11582">
        <ele>247.2</ele>
        <time>2020-02-23T12:47:15.000Z</time>
      </trkpt>
      <trkpt lat="43.93399" lon="5.11584">
        <ele>246.2</ele>
        <time>2020-02-23T12:47:32.000Z</time>
      </trkpt>
      <trkpt lat="43.93404" lon="5.11584">
        <ele>246.7</ele>
        <time>2020-02-23T12:47:55.000Z</time>
      </trkpt>
      <trkpt lat="43.93399" lon="5.11589">
        <ele>246.7</ele>
        <time>2020-02-23T12:48:11.000Z</time>
      </trkpt>
      <trkpt lat="43.93402" lon="5.11585">
        <ele>246.7</ele>
        <time>2020-02-23T12:48:32.000Z</time>
      </trkpt>
      <trkpt lat="43.93405" lon="5.11582">
        <ele>246.7</ele>
        <time>2020-02-23T12:48:45.000Z</time>
      </trkpt>
      <trkpt lat="43.93408" lon="5.11582">
        <ele>247.7</ele>
        <time>2020-02-23T12:49:03.000Z</time>
      </trkpt>
      <trkpt lat="43.93407" lon="5.11578">
        <ele>247.2</ele>
        <time>2020-02-23T12:49:19.000Z</time>
      </trkpt>
      <trkpt lat="43.93412" lon="5.11585">
        <ele>248.6</ele>
        <time>2020-02-23T12:49:35.000Z</time>
      </trkpt>
      <trkpt lat="43.93417" lon="5.11584">
        <ele>248.6</ele>
        <time>2020-02-23T12:49:52.000Z</time>
      </trkpt>
      <trkpt lat="43.93411" lon="5.1159">
        <ele>248.6</ele>
        <time>2020-02-23T12:50:07.000Z</time>
      </trkpt>
      <trkpt lat="43.9341" lon="5.11588">
        <ele>248.6</ele>
        <time>2020-02-23T12:50:25.000Z</time>
      </trkpt>
      <trkpt lat="43.93409" lon="5.11588">
        <ele>248.2</ele>
        <time>2020-02-23T12:50:41.000Z</time>
      </trkpt>
      <trkpt lat="43.93413" lon="5.11579">
        <ele>246.7</ele>
        <time>2020-02-23T12:50:55.000Z</time>
      </trkpt>
      <trkpt lat="43.93415" lon="5.11573">
        <ele>246.7</ele>
        <time>2020-02-23T12:51:13.000Z</time>
      </trkpt>
      <trkpt lat="43.93423" lon="5.11571">
        <ele>246.2</ele>
        <time>2020-02-23T12:51:29.000Z</time>
      </trkpt>
      <trkpt lat="43.93427" lon="5.11569">
        <ele>245.8</ele>
        <time>2020-02-23T12:51:42.000Z</time>
      </trkpt>
      <trkpt lat="43.93433" lon="5.11568">
        <ele>245.8</ele>
        <time>2020-02-23T12:51:54.000Z</time>
      </trkpt>
      <trkpt lat="43.93446" lon="5.11563">
        <ele>244.8</ele>
        <time>2020-02-23T12:52:10.000Z</time>
      </trkpt>
      <trkpt lat="43.93456" lon="5.1156">
        <ele>243.4</ele>
        <time>2020-02-23T12:52:23.000Z</time>
      </trkpt>
      <trkpt lat="43.93462" lon="5.11557">
        <ele>242.9</ele>
        <time>2020-02-23T12:52:35.000Z</time>
      </trkpt>
      <trkpt lat="43.93472" lon="5.11554">
        <ele>241.9</ele>
        <time>2020-02-23T12:52:48.000Z</time>
      </trkpt>
      <trkpt lat="43.93476" lon="5.11551">
        <ele>241.9</ele>
        <time>2020-02-23T12:53:03.000Z</time>
      </trkpt>
      <trkpt lat="43.93478" lon="5.11546">
        <ele>241.9</ele>
        <time>2020-02-23T12:53:26.000Z</time>
      </trkpt>
      <trkpt lat="43.93475" lon="5.11548">
        <ele>241.9</ele>
        <time>2020-02-23T12:53:50.000Z</time>
      </trkpt>
      <trkpt lat="43.93482" lon="5.11553">
        <ele>242.4</ele>
        <time>2020-02-23T12:54:04.000Z</time>
      </trkpt>
      <trkpt lat="43.9349" lon="5.11552">
        <ele>242.9</ele>
        <time>2020-02-23T12:54:17.000Z</time>
      </trkpt>
      <trkpt lat="43.93496" lon="5.11542">
        <ele>243.8</ele>
        <time>2020-02-23T12:54:30.000Z</time>
      </trkpt>
      <trkpt lat="43.93496" lon="5.1153">
        <ele>244.8</ele>
        <time>2020-02-23T12:54:45.000Z</time>
      </trkpt>
      <trkpt lat="43.93493" lon="5.1152">
        <ele>246.2</ele>
        <time>2020-02-23T12:55:01.000Z</time>
      </trkpt>
      <trkpt lat="43.93489" lon="5.11512">
        <ele>248.2</ele>
        <time>2020-02-23T12:55:16.000Z</time>
      </trkpt>
      <trkpt lat="43.93486" lon="5.11499">
        <ele>249.6</ele>
        <time>2020-02-23T12:55:31.000Z</time>
      </trkpt>
      <trkpt lat="43.93479" lon="5.1149">
        <ele>251</ele>
        <time>2020-02-23T12:55:47.000Z</time>
      </trkpt>
      <trkpt lat="43.93473" lon="5.11479">
        <ele>252.5</ele>
        <time>2020-02-23T12:56:03.000Z</time>
      </trkpt>
      <trkpt lat="43.93467" lon="5.11472">
        <ele>253.9</ele>
        <time>2020-02-23T12:56:17.000Z</time>
      </trkpt>
      <trkpt lat="43.93461" lon="5.11463">
        <ele>254.9</ele>
        <time>2020-02-23T12:56:32.000Z</time>
      </trkpt>
      <trkpt lat="43.93453" lon="5.11456">
        <ele>255.9</ele>
        <time>2020-02-23T12:56:47.000Z</time>
      </trkpt>
      <trkpt lat="43.93445" lon="5.11449">
        <ele>257.3</ele>
        <time>2020-02-23T12:57:00.000Z</time>
      </trkpt>
      <trkpt lat="43.93439" lon="5.11443">
        <ele>258.3</ele>
        <time>2020-02-23T12:57:14.000Z</time>
      </trkpt>
      <trkpt lat="43.93432" lon="5.11436">
        <ele>259.2</ele>
        <time>2020-02-23T12:57:28.000Z</time>
      </trkpt>
      <trkpt lat="43.93427" lon="5.1143">
        <ele>260.6</ele>
        <time>2020-02-23T12:57:47.000Z</time>
      </trkpt>
      <trkpt lat="43.93425" lon="5.11423">
        <ele>262.1</ele>
        <time>2020-02-23T12:58:04.000Z</time>
      </trkpt>
      <trkpt lat="43.93427" lon="5.1142">
        <ele>265</ele>
        <time>2020-02-23T12:58:21.000Z</time>
      </trkpt>
      <trkpt lat="43.93427" lon="5.11416">
        <ele>266.4</ele>
        <time>2020-02-23T12:58:37.000Z</time>
      </trkpt>
      <trkpt lat="43.93425" lon="5.11416">
        <ele>266.4</ele>
        <time>2020-02-23T12:58:53.000Z</time>
      </trkpt>
      <trkpt lat="43.93426" lon="5.11418">
        <ele>266.4</ele>
        <time>2020-02-23T12:59:25.000Z</time>
      </trkpt>
      <trkpt lat="43.93428" lon="5.11415">
        <ele>266.4</ele>
        <time>2020-02-23T12:59:48.000Z</time>
      </trkpt>
      <trkpt lat="43.93428" lon="5.11416">
        <ele>266.4</ele>
        <time>2020-02-23T13:00:07.000Z</time>
      </trkpt>
      <trkpt lat="43.93426" lon="5.11415">
        <ele>266.4</ele>
        <time>2020-02-23T13:00:29.000Z</time>
      </trkpt>
      <trkpt lat="43.93426" lon="5.11415">
        <ele>265.9</ele>
        <time>2020-02-23T13:00:57.000Z</time>
      </trkpt>
      <trkpt lat="43.93426" lon="5.11411">
        <ele>265.9</ele>
        <time>2020-02-23T13:01:18.000Z</time>
      </trkpt>
      <trkpt lat="43.93427" lon="5.11414">
        <ele>265.9</ele>
        <time>2020-02-23T13:01:44.000Z</time>
      </trkpt>
      <trkpt lat="43.93425" lon="5.11416">
        <ele>265.9</ele>
        <time>2020-02-23T13:02:10.000Z</time>
      </trkpt>
      <trkpt lat="43.93423" lon="5.11421">
        <ele>265.9</ele>
        <time>2020-02-23T13:02:39.000Z</time>
      </trkpt>
      <trkpt lat="43.93427" lon="5.11421">
        <ele>265.9</ele>
        <time>2020-02-23T13:02:54.000Z</time>
      </trkpt>
      <trkpt lat="43.93431" lon="5.11422">
        <ele>265.5</ele>
        <time>2020-02-23T13:03:05.000Z</time>
      </trkpt>
      <trkpt lat="43.93437" lon="5.11425">
        <ele>264</ele>
        <time>2020-02-23T13:03:17.000Z</time>
      </trkpt>
      <trkpt lat="43.93437" lon="5.11433">
        <ele>262.1</ele>
        <time>2020-02-23T13:03:29.000Z</time>
      </trkpt>
      <trkpt lat="43.9343" lon="5.1144">
        <ele>260.2</ele>
        <time>2020-02-23T13:03:44.000Z</time>
      </trkpt>
      <trkpt lat="43.93424" lon="5.11434">
        <ele>261.1</ele>
        <time>2020-02-23T13:03:59.000Z</time>
      </trkpt>
      <trkpt lat="43.93417" lon="5.11426">
        <ele>262.6</ele>
        <time>2020-02-23T13:04:14.000Z</time>
      </trkpt>
      <trkpt lat="43.93408" lon="5.11421">
        <ele>264</ele>
        <time>2020-02-23T13:04:29.000Z</time>
      </trkpt>
      <trkpt lat="43.93401" lon="5.11417">
        <ele>265</ele>
        <time>2020-02-23T13:04:43.000Z</time>
      </trkpt>
      <trkpt lat="43.93395" lon="5.11412">
        <ele>265.5</ele>
        <time>2020-02-23T13:04:59.000Z</time>
      </trkpt>
      <trkpt lat="43.93387" lon="5.11407">
        <ele>267.4</ele>
        <time>2020-02-23T13:05:14.000Z</time>
      </trkpt>
      <trkpt lat="43.93379" lon="5.11402">
        <ele>269.3</ele>
        <time>2020-02-23T13:05:28.000Z</time>
      </trkpt>
      <trkpt lat="43.93373" lon="5.11397">
        <ele>270.8</ele>
        <time>2020-02-23T13:05:42.000Z</time>
      </trkpt>
      <trkpt lat="43.93367" lon="5.1139">
        <ele>271.2</ele>
        <time>2020-02-23T13:05:55.000Z</time>
      </trkpt>
      <trkpt lat="43.93362" lon="5.11376">
        <ele>269.8</ele>
        <time>2020-02-23T13:06:11.000Z</time>
      </trkpt>
      <trkpt lat="43.93365" lon="5.11359">
        <ele>267.9</ele>
        <time>2020-02-23T13:06:27.000Z</time>
      </trkpt>
      <trkpt lat="43.93368" lon="5.11343">
        <ele>265.5</ele>
        <time>2020-02-23T13:06:40.000Z</time>
      </trkpt>
      <trkpt lat="43.93367" lon="5.11325">
        <ele>264</ele>
        <time>2020-02-23T13:06:55.000Z</time>
      </trkpt>
      <trkpt lat="43.9337" lon="5.11301">
        <ele>261.6</ele>
        <time>2020-02-23T13:07:14.000Z</time>
      </trkpt>
      <trkpt lat="43.93371" lon="5.11295">
        <ele>261.6</ele>
        <time>2020-02-23T13:07:29.000Z</time>
      </trkpt>
      <trkpt lat="43.93369" lon="5.11293">
        <ele>261.1</ele>
        <time>2020-02-23T13:07:57.000Z</time>
      </trkpt>
      <trkpt lat="43.9337" lon="5.11291">
        <ele>261.1</ele>
        <time>2020-02-23T13:08:29.000Z</time>
      </trkpt>
      <trkpt lat="43.93369" lon="5.11289">
        <ele>261.6</ele>
        <time>2020-02-23T13:08:36.000Z</time>
      </trkpt>
      <trkpt lat="43.9337" lon="5.11282">
        <ele>259.7</ele>
        <time>2020-02-23T13:08:48.000Z</time>
      </trkpt>
      <trkpt lat="43.93371" lon="5.11274">
        <ele>258.7</ele>
        <time>2020-02-23T13:09:01.000Z</time>
      </trkpt>
      <trkpt lat="43.93374" lon="5.11266">
        <ele>258.3</ele>
        <time>2020-02-23T13:09:13.000Z</time>
      </trkpt>
      <trkpt lat="43.93374" lon="5.11264">
        <ele>257.8</ele>
        <time>2020-02-23T13:09:15.000Z</time>
      </trkpt>
      <trkpt lat="43.93375" lon="5.11254">
        <ele>256.8</ele>
        <time>2020-02-23T13:09:25.000Z</time>
      </trkpt>
      <trkpt lat="43.93377" lon="5.11245">
        <ele>255.9</ele>
        <time>2020-02-23T13:09:34.000Z</time>
      </trkpt>
      <trkpt lat="43.9338" lon="5.11234">
        <ele>254.4</ele>
        <time>2020-02-23T13:09:44.000Z</time>
      </trkpt>
      <trkpt lat="43.93381" lon="5.11224">
        <ele>253.9</ele>
        <time>2020-02-23T13:09:52.000Z</time>
      </trkpt>
      <trkpt lat="43.93381" lon="5.11224">
        <ele>253.9</ele>
        <time>2020-02-23T13:09:53.000Z</time>
      </trkpt>
      <trkpt lat="43.93381" lon="5.11211">
        <ele>252.5</ele>
        <time>2020-02-23T13:10:03.000Z</time>
      </trkpt>
      <trkpt lat="43.9338" lon="5.11206">
        <ele>252.5</ele>
        <time>2020-02-23T13:10:13.000Z</time>
      </trkpt>
      <trkpt lat="43.93381" lon="5.11194">
        <ele>251.5</ele>
        <time>2020-02-23T13:10:23.000Z</time>
      </trkpt>
      <trkpt lat="43.93382" lon="5.11187">
        <ele>250.6</ele>
        <time>2020-02-23T13:10:30.000Z</time>
      </trkpt>
      <trkpt lat="43.93385" lon="5.11174">
        <ele>250.1</ele>
        <time>2020-02-23T13:10:41.000Z</time>
      </trkpt>
      <trkpt lat="43.93385" lon="5.11165">
        <ele>249.6</ele>
        <time>2020-02-23T13:10:48.000Z</time>
      </trkpt>
      <trkpt lat="43.93386" lon="5.11157">
        <ele>248.6</ele>
        <time>2020-02-23T13:10:54.000Z</time>
      </trkpt>
      <trkpt lat="43.93387" lon="5.11147">
        <ele>248.6</ele>
        <time>2020-02-23T13:11:01.000Z</time>
      </trkpt>
      <trkpt lat="43.93393" lon="5.11133">
        <ele>248.2</ele>
        <time>2020-02-23T13:11:12.000Z</time>
      </trkpt>
      <trkpt lat="43.93399" lon="5.1112">
        <ele>247.2</ele>
        <time>2020-02-23T13:11:23.000Z</time>
      </trkpt>
      <trkpt lat="43.934" lon="5.11118">
        <ele>247.2</ele>
        <time>2020-02-23T13:11:26.000Z</time>
      </trkpt>
      <trkpt lat="43.93406" lon="5.11102">
        <ele>246.7</ele>
        <time>2020-02-23T13:11:38.000Z</time>
      </trkpt>
      <trkpt lat="43.93408" lon="5.11096">
        <ele>246.2</ele>
        <time>2020-02-23T13:11:44.000Z</time>
      </trkpt>
      <trkpt lat="43.93411" lon="5.11089">
        <ele>245.8</ele>
        <time>2020-02-23T13:11:50.000Z</time>
      </trkpt>
      <trkpt lat="43.93416" lon="5.11072">
        <ele>244.8</ele>
        <time>2020-02-23T13:12:03.000Z</time>
      </trkpt>
      <trkpt lat="43.93419" lon="5.11062">
        <ele>244.3</ele>
        <time>2020-02-23T13:12:11.000Z</time>
      </trkpt>
      <trkpt lat="43.93424" lon="5.11043">
        <ele>243.4</ele>
        <time>2020-02-23T13:12:23.000Z</time>
      </trkpt>
      <trkpt lat="43.93424" lon="5.11042">
        <ele>243.4</ele>
        <time>2020-02-23T13:12:25.000Z</time>
      </trkpt>
      <trkpt lat="43.93428" lon="5.11027">
        <ele>242.9</ele>
        <time>2020-02-23T13:12:36.000Z</time>
      </trkpt>
      <trkpt lat="43.93431" lon="5.11017">
        <ele>242.9</ele>
        <time>2020-02-23T13:12:44.000Z</time>
      </trkpt>
      <trkpt lat="43.93434" lon="5.1101">
        <ele>242.4</ele>
        <time>2020-02-23T13:12:49.000Z</time>
      </trkpt>
      <trkpt lat="43.93442" lon="5.10987">
        <ele>241.4</ele>
        <time>2020-02-23T13:13:06.000Z</time>
      </trkpt>
      <trkpt lat="43.93446" lon="5.10968">
        <ele>241.4</ele>
        <time>2020-02-23T13:13:23.000Z</time>
      </trkpt>
      <trkpt lat="43.93447" lon="5.10967">
        <ele>241.4</ele>
        <time>2020-02-23T13:13:40.000Z</time>
      </trkpt>
      <trkpt lat="43.9345" lon="5.10968">
        <ele>241.4</ele>
        <time>2020-02-23T13:13:53.000Z</time>
      </trkpt>
      <trkpt lat="43.93442" lon="5.1096">
        <ele>240.5</ele>
        <time>2020-02-23T13:14:05.000Z</time>
      </trkpt>
      <trkpt lat="43.93437" lon="5.1094">
        <ele>240</ele>
        <time>2020-02-23T13:14:22.000Z</time>
      </trkpt>
      <trkpt lat="43.93435" lon="5.10932">
        <ele>239</ele>
        <time>2020-02-23T13:14:36.000Z</time>
      </trkpt>
      <trkpt lat="43.93441" lon="5.10926">
        <ele>238.1</ele>
        <time>2020-02-23T13:14:48.000Z</time>
      </trkpt>
      <trkpt lat="43.93443" lon="5.10913">
        <ele>236.6</ele>
        <time>2020-02-23T13:15:04.000Z</time>
      </trkpt>
      <trkpt lat="43.9345" lon="5.10896">
        <ele>234.7</ele>
        <time>2020-02-23T13:15:23.000Z</time>
      </trkpt>
      <trkpt lat="43.93461" lon="5.10898">
        <ele>233.3</ele>
        <time>2020-02-23T13:15:41.000Z</time>
      </trkpt>
      <trkpt lat="43.93463" lon="5.109">
        <ele>233.3</ele>
        <time>2020-02-23T13:15:59.000Z</time>
      </trkpt>
      <trkpt lat="43.93477" lon="5.10905">
        <ele>231.3</ele>
        <time>2020-02-23T13:16:14.000Z</time>
      </trkpt>
      <trkpt lat="43.9349" lon="5.10908">
        <ele>228.9</ele>
        <time>2020-02-23T13:16:30.000Z</time>
      </trkpt>
      <trkpt lat="43.93498" lon="5.10907">
        <ele>228</ele>
        <time>2020-02-23T13:16:40.000Z</time>
      </trkpt>
      <trkpt lat="43.93509" lon="5.10907">
        <ele>226.5</ele>
        <time>2020-02-23T13:16:54.000Z</time>
      </trkpt>
      <trkpt lat="43.93519" lon="5.10905">
        <ele>224.6</ele>
        <time>2020-02-23T13:17:08.000Z</time>
      </trkpt>
      <trkpt lat="43.93518" lon="5.10902">
        <ele>224.1</ele>
        <time>2020-02-23T13:17:21.000Z</time>
      </trkpt>
      <trkpt lat="43.93528" lon="5.10894">
        <ele>221.7</ele>
        <time>2020-02-23T13:17:35.000Z</time>
      </trkpt>
      <trkpt lat="43.93533" lon="5.10893">
        <ele>220.3</ele>
        <time>2020-02-23T13:17:50.000Z</time>
      </trkpt>
      <trkpt lat="43.9354" lon="5.10893">
        <ele>218.8</ele>
        <time>2020-02-23T13:18:04.000Z</time>
      </trkpt>
      <trkpt lat="43.93549" lon="5.10893">
        <ele>216.9</ele>
        <time>2020-02-23T13:18:17.000Z</time>
      </trkpt>
      <trkpt lat="43.9356" lon="5.10889">
        <ele>214</ele>
        <time>2020-02-23T13:18:30.000Z</time>
      </trkpt>
      <trkpt lat="43.93562" lon="5.10887">
        <ele>213.1</ele>
        <time>2020-02-23T13:18:33.000Z</time>
      </trkpt>
      <trkpt lat="43.9357" lon="5.10883">
        <ele>211.1</ele>
        <time>2020-02-23T13:18:50.000Z</time>
      </trkpt>
      <trkpt lat="43.93579" lon="5.10885">
        <ele>208.3</ele>
        <time>2020-02-23T13:19:05.000Z</time>
      </trkpt>
      <trkpt lat="43.93589" lon="5.10885">
        <ele>206.3</ele>
        <time>2020-02-23T13:19:22.000Z</time>
      </trkpt>
      <trkpt lat="43.93596" lon="5.10888">
        <ele>204.4</ele>
        <time>2020-02-23T13:19:39.000Z</time>
      </trkpt>
      <trkpt lat="43.93605" lon="5.10885">
        <ele>203</ele>
        <time>2020-02-23T13:19:56.000Z</time>
      </trkpt>
      <trkpt lat="43.93612" lon="5.10883">
        <ele>201.5</ele>
        <time>2020-02-23T13:20:10.000Z</time>
      </trkpt>
      <trkpt lat="43.93621" lon="5.1088">
        <ele>199.6</ele>
        <time>2020-02-23T13:20:26.000Z</time>
      </trkpt>
      <trkpt lat="43.93625" lon="5.10876">
        <ele>199.1</ele>
        <time>2020-02-23T13:20:41.000Z</time>
      </trkpt>
      <trkpt lat="43.93632" lon="5.10874">
        <ele>197.2</ele>
        <time>2020-02-23T13:20:56.000Z</time>
      </trkpt>
      <trkpt lat="43.93639" lon="5.10872">
        <ele>195.8</ele>
        <time>2020-02-23T13:21:10.000Z</time>
      </trkpt>
      <trkpt lat="43.9364" lon="5.10881">
        <ele>196.3</ele>
        <time>2020-02-23T13:21:27.000Z</time>
      </trkpt>
      <trkpt lat="43.93641" lon="5.10873">
        <ele>195.3</ele>
        <time>2020-02-23T13:21:44.000Z</time>
      </trkpt>
      <trkpt lat="43.93648" lon="5.10874">
        <ele>193.4</ele>
        <time>2020-02-23T13:21:58.000Z</time>
      </trkpt>
      <trkpt lat="43.93658" lon="5.10875">
        <ele>191.4</ele>
        <time>2020-02-23T13:22:13.000Z</time>
      </trkpt>
      <trkpt lat="43.93669" lon="5.10874">
        <ele>188.6</ele>
        <time>2020-02-23T13:22:37.000Z</time>
      </trkpt>
      <trkpt lat="43.93677" lon="5.10878">
        <ele>186.1</ele>
        <time>2020-02-23T13:22:59.000Z</time>
      </trkpt>
      <trkpt lat="43.93688" lon="5.10875">
        <ele>185.7</ele>
        <time>2020-02-23T13:23:16.000Z</time>
      </trkpt>
      <trkpt lat="43.93689" lon="5.10876">
        <ele>185.2</ele>
        <time>2020-02-23T13:23:21.000Z</time>
      </trkpt>
      <trkpt lat="43.93692" lon="5.10869">
        <ele>182.8</ele>
        <time>2020-02-23T13:23:39.000Z</time>
      </trkpt>
      <trkpt lat="43.93706" lon="5.10872">
        <ele>179.9</ele>
        <time>2020-02-23T13:23:59.000Z</time>
      </trkpt>
      <trkpt lat="43.93726" lon="5.10874">
        <ele>178.9</ele>
        <time>2020-02-23T13:24:14.000Z</time>
      </trkpt>
      <trkpt lat="43.9373" lon="5.10877">
        <ele>180.9</ele>
        <time>2020-02-23T13:24:29.000Z</time>
      </trkpt>
      <trkpt lat="43.93734" lon="5.10877">
        <ele>181.4</ele>
        <time>2020-02-23T13:24:46.000Z</time>
      </trkpt>
      <trkpt lat="43.93744" lon="5.10864">
        <ele>183.8</ele>
        <time>2020-02-23T13:25:05.000Z</time>
      </trkpt>
      <trkpt lat="43.9375" lon="5.10853">
        <ele>187.1</ele>
        <time>2020-02-23T13:25:24.000Z</time>
      </trkpt>
      <trkpt lat="43.93745" lon="5.1084">
        <ele>188.6</ele>
        <time>2020-02-23T13:25:40.000Z</time>
      </trkpt>
      <trkpt lat="43.9374" lon="5.10832">
        <ele>190.5</ele>
        <time>2020-02-23T13:25:55.000Z</time>
      </trkpt>
      <trkpt lat="43.93738" lon="5.10822">
        <ele>191.9</ele>
        <time>2020-02-23T13:26:13.000Z</time>
      </trkpt>
      <trkpt lat="43.93734" lon="5.10811">
        <ele>192.9</ele>
        <time>2020-02-23T13:26:30.000Z</time>
      </trkpt>
      <trkpt lat="43.93728" lon="5.10799">
        <ele>194.8</ele>
        <time>2020-02-23T13:26:48.000Z</time>
      </trkpt>
      <trkpt lat="43.93723" lon="5.10784">
        <ele>195.3</ele>
        <time>2020-02-23T13:27:07.000Z</time>
      </trkpt>
      <trkpt lat="43.93715" lon="5.10774">
        <ele>196.7</ele>
        <time>2020-02-23T13:27:25.000Z</time>
      </trkpt>
      <trkpt lat="43.93715" lon="5.10773">
        <ele>197.2</ele>
        <time>2020-02-23T13:27:26.000Z</time>
      </trkpt>
      <trkpt lat="43.93713" lon="5.10771">
        <ele>197.2</ele>
        <time>2020-02-23T13:27:29.000Z</time>
      </trkpt>
    </trkseg>
  </trk>
  <trk>
    <name><![CDATA[MontHaut_Pegairolles19-1-20]]></name>
    <trkseg>
      <trkpt lat="43.81166" lon="3.59164">
        <ele>123.2</ele>
        <time>2020-01-19T08:31:43.000Z</time>
      </trkpt>
      <trkpt lat="43.81167" lon="3.59163">
        <ele>127</ele>
        <time>2020-01-19T08:31:46.000Z</time>
      </trkpt>
      <trkpt lat="43.81166" lon="3.59163">
        <ele>130.9</ele>
        <time>2020-01-19T08:31:49.000Z</time>
      </trkpt>
      <trkpt lat="43.81166" lon="3.59163">
        <ele>130.9</ele>
        <time>2020-01-19T08:31:50.000Z</time>
      </trkpt>
      <trkpt lat="43.81166" lon="3.59163">
        <ele>134.2</ele>
        <time>2020-01-19T08:31:52.000Z</time>
      </trkpt>
      <trkpt lat="43.81165" lon="3.59163">
        <ele>137.1</ele>
        <time>2020-01-19T08:31:55.000Z</time>
      </trkpt>
      <trkpt lat="43.81165" lon="3.59163">
        <ele>140.5</ele>
        <time>2020-01-19T08:31:59.000Z</time>
      </trkpt>
      <trkpt lat="43.81165" lon="3.59164">
        <ele>143.9</ele>
        <time>2020-01-19T08:32:03.000Z</time>
      </trkpt>
      <trkpt lat="43.81165" lon="3.59162">
        <ele>147.2</ele>
        <time>2020-01-19T08:32:07.000Z</time>
      </trkpt>
      <trkpt lat="43.81165" lon="3.59161">
        <ele>150.6</ele>
        <time>2020-01-19T08:32:11.000Z</time>
      </trkpt>
      <trkpt lat="43.81165" lon="3.5916">
        <ele>153</ele>
        <time>2020-01-19T08:32:16.000Z</time>
      </trkpt>
      <trkpt lat="43.81165" lon="3.59157">
        <ele>156.4</ele>
        <time>2020-01-19T08:32:23.000Z</time>
      </trkpt>
      <trkpt lat="43.81166" lon="3.59158">
        <ele>159.2</ele>
        <time>2020-01-19T08:32:30.000Z</time>
      </trkpt>
      <trkpt lat="43.81168" lon="3.59157">
        <ele>162.6</ele>
        <time>2020-01-19T08:32:39.000Z</time>
      </trkpt>
      <trkpt lat="43.81168" lon="3.59158">
        <ele>164</ele>
        <time>2020-01-19T08:32:44.000Z</time>
      </trkpt>
      <trkpt lat="43.81167" lon="3.59157">
        <ele>166.9</ele>
        <time>2020-01-19T08:32:57.000Z</time>
      </trkpt>
      <trkpt lat="43.81168" lon="3.59161">
        <ele>170.3</ele>
        <time>2020-01-19T08:33:17.000Z</time>
      </trkpt>
      <trkpt lat="43.81166" lon="3.59152">
        <ele>170.8</ele>
        <time>2020-01-19T08:33:39.000Z</time>
      </trkpt>
      <trkpt lat="43.81166" lon="3.5915">
        <ele>170.8</ele>
        <time>2020-01-19T08:33:40.000Z</time>
      </trkpt>
      <trkpt lat="43.81167" lon="3.59148">
        <ele>170.3</ele>
        <time>2020-01-19T08:33:42.000Z</time>
      </trkpt>
      <trkpt lat="43.81164" lon="3.59149">
        <ele>170.8</ele>
        <time>2020-01-19T08:34:06.000Z</time>
      </trkpt>
      <trkpt lat="43.81168" lon="3.59153">
        <ele>170.8</ele>
        <time>2020-01-19T08:34:31.000Z</time>
      </trkpt>
      <trkpt lat="43.8117" lon="3.59159">
        <ele>171.3</ele>
        <time>2020-01-19T08:34:56.000Z</time>
      </trkpt>
      <trkpt lat="43.81168" lon="3.59157">
        <ele>171.3</ele>
        <time>2020-01-19T08:35:23.000Z</time>
      </trkpt>
      <trkpt lat="43.81168" lon="3.59152">
        <ele>171.3</ele>
        <time>2020-01-19T08:35:43.000Z</time>
      </trkpt>
      <trkpt lat="43.8116" lon="3.5914">
        <ele>171.7</ele>
        <time>2020-01-19T08:36:01.000Z</time>
      </trkpt>
      <trkpt lat="43.81133" lon="3.59154">
        <ele>171.7</ele>
        <time>2020-01-19T08:36:25.000Z</time>
      </trkpt>
      <trkpt lat="43.81117" lon="3.59172">
        <ele>172.7</ele>
        <time>2020-01-19T08:36:48.000Z</time>
      </trkpt>
      <trkpt lat="43.81112" lon="3.59195">
        <ele>173.2</ele>
        <time>2020-01-19T08:37:07.000Z</time>
      </trkpt>
      <trkpt lat="43.81085" lon="3.59203">
        <ele>172.7</ele>
        <time>2020-01-19T08:37:27.000Z</time>
      </trkpt>
      <trkpt lat="43.81067" lon="3.59207">
        <ele>172.2</ele>
        <time>2020-01-19T08:37:40.000Z</time>
      </trkpt>
      <trkpt lat="43.81048" lon="3.59225">
        <ele>172.7</ele>
        <time>2020-01-19T08:38:00.000Z</time>
      </trkpt>
      <trkpt lat="43.81049" lon="3.59233">
        <ele>174.1</ele>
        <time>2020-01-19T08:38:06.000Z</time>
      </trkpt>
      <trkpt lat="43.81055" lon="3.59251">
        <ele>176.1</ele>
        <time>2020-01-19T08:38:23.000Z</time>
      </trkpt>
      <trkpt lat="43.81052" lon="3.59267">
        <ele>178</ele>
        <time>2020-01-19T08:38:38.000Z</time>
      </trkpt>
      <trkpt lat="43.81043" lon="3.59282">
        <ele>180.4</ele>
        <time>2020-01-19T08:38:56.000Z</time>
      </trkpt>
      <trkpt lat="43.81041" lon="3.59283">
        <ele>180.9</ele>
        <time>2020-01-19T08:38:58.000Z</time>
      </trkpt>
      <trkpt lat="43.8104" lon="3.59286">
        <ele>180.9</ele>
        <time>2020-01-19T08:39:00.000Z</time>
      </trkpt>
      <trkpt lat="43.8103" lon="3.5929">
        <ele>182.3</ele>
        <time>2020-01-19T08:39:13.000Z</time>
      </trkpt>
      <trkpt lat="43.81026" lon="3.59302">
        <ele>182.8</ele>
        <time>2020-01-19T08:39:23.000Z</time>
      </trkpt>
      <trkpt lat="43.8104" lon="3.59306">
        <ele>183.8</ele>
        <time>2020-01-19T08:39:38.000Z</time>
      </trkpt>
      <trkpt lat="43.81049" lon="3.59316">
        <ele>185.2</ele>
        <time>2020-01-19T08:39:55.000Z</time>
      </trkpt>
      <trkpt lat="43.81032" lon="3.59316">
        <ele>186.1</ele>
        <time>2020-01-19T08:40:13.000Z</time>
      </trkpt>
      <trkpt lat="43.81014" lon="3.59315">
        <ele>188.1</ele>
        <time>2020-01-19T08:40:34.000Z</time>
      </trkpt>
      <trkpt lat="43.81007" lon="3.59312">
        <ele>189.5</ele>
        <time>2020-01-19T08:40:43.000Z</time>
      </trkpt>
      <trkpt lat="43.80977" lon="3.59322">
        <ele>189.5</ele>
        <time>2020-01-19T08:41:12.000Z</time>
      </trkpt>
      <trkpt lat="43.80976" lon="3.59323">
        <ele>190</ele>
        <time>2020-01-19T08:41:13.000Z</time>
      </trkpt>
      <trkpt lat="43.80971" lon="3.59327">
        <ele>188.6</ele>
        <time>2020-01-19T08:41:20.000Z</time>
      </trkpt>
      <trkpt lat="43.80964" lon="3.59349">
        <ele>188.1</ele>
        <time>2020-01-19T08:41:35.000Z</time>
      </trkpt>
      <trkpt lat="43.80962" lon="3.59352">
        <ele>187.1</ele>
        <time>2020-01-19T08:41:40.000Z</time>
      </trkpt>
      <trkpt lat="43.80939" lon="3.59364">
        <ele>186.6</ele>
        <time>2020-01-19T08:42:04.000Z</time>
      </trkpt>
      <trkpt lat="43.80918" lon="3.59379">
        <ele>187.1</ele>
        <time>2020-01-19T08:42:28.000Z</time>
      </trkpt>
      <trkpt lat="43.80892" lon="3.59387">
        <ele>186.1</ele>
        <time>2020-01-19T08:42:51.000Z</time>
      </trkpt>
      <trkpt lat="43.80871" lon="3.59395">
        <ele>184.7</ele>
        <time>2020-01-19T08:43:18.000Z</time>
      </trkpt>
      <trkpt lat="43.80854" lon="3.59378">
        <ele>186.1</ele>
        <time>2020-01-19T08:43:43.000Z</time>
      </trkpt>
      <trkpt lat="43.80856" lon="3.59399">
        <ele>187.1</ele>
        <time>2020-01-19T08:44:00.000Z</time>
      </trkpt>
      <trkpt lat="43.80856" lon="3.594">
        <ele>187.6</ele>
        <time>2020-01-19T08:44:01.000Z</time>
      </trkpt>
      <trkpt lat="43.80864" lon="3.59423">
        <ele>189</ele>
        <time>2020-01-19T08:44:20.000Z</time>
      </trkpt>
      <trkpt lat="43.80864" lon="3.59425">
        <ele>189</ele>
        <time>2020-01-19T08:44:22.000Z</time>
      </trkpt>
      <trkpt lat="43.80865" lon="3.59447">
        <ele>190.5</ele>
        <time>2020-01-19T08:44:40.000Z</time>
      </trkpt>
      <trkpt lat="43.80868" lon="3.59464">
        <ele>193.4</ele>
        <time>2020-01-19T08:44:56.000Z</time>
      </trkpt>
      <trkpt lat="43.8088" lon="3.59477">
        <ele>196.3</ele>
        <time>2020-01-19T08:45:16.000Z</time>
      </trkpt>
      <trkpt lat="43.80888" lon="3.59486">
        <ele>199.1</ele>
        <time>2020-01-19T08:45:32.000Z</time>
      </trkpt>
      <trkpt lat="43.80896" lon="3.59485">
        <ele>201.1</ele>
        <time>2020-01-19T08:45:47.000Z</time>
      </trkpt>
      <trkpt lat="43.80898" lon="3.59483">
        <ele>200.6</ele>
        <time>2020-01-19T08:46:04.000Z</time>
      </trkpt>
      <trkpt lat="43.809" lon="3.59484">
        <ele>201.1</ele>
        <time>2020-01-19T08:46:27.000Z</time>
      </trkpt>
      <trkpt lat="43.80899" lon="3.59481">
        <ele>201.1</ele>
        <time>2020-01-19T08:46:53.000Z</time>
      </trkpt>
      <trkpt lat="43.80899" lon="3.59483">
        <ele>201.1</ele>
        <time>2020-01-19T08:47:14.000Z</time>
      </trkpt>
      <trkpt lat="43.80902" lon="3.5949">
        <ele>202.5</ele>
        <time>2020-01-19T08:47:28.000Z</time>
      </trkpt>
      <trkpt lat="43.80897" lon="3.59501">
        <ele>203.5</ele>
        <time>2020-01-19T08:47:42.000Z</time>
      </trkpt>
      <trkpt lat="43.80893" lon="3.59515">
        <ele>203.5</ele>
        <time>2020-01-19T08:47:57.000Z</time>
      </trkpt>
      <trkpt lat="43.80884" lon="3.5952">
        <ele>204.9</ele>
        <time>2020-01-19T08:48:11.000Z</time>
      </trkpt>
      <trkpt lat="43.80882" lon="3.59525">
        <ele>205.4</ele>
        <time>2020-01-19T08:48:18.000Z</time>
      </trkpt>
      <trkpt lat="43.80883" lon="3.59529">
        <ele>206.3</ele>
        <time>2020-01-19T08:48:22.000Z</time>
      </trkpt>
      <trkpt lat="43.8089" lon="3.59544">
        <ele>207.8</ele>
        <time>2020-01-19T08:48:36.000Z</time>
      </trkpt>
      <trkpt lat="43.80886" lon="3.5955">
        <ele>210.2</ele>
        <time>2020-01-19T08:48:51.000Z</time>
      </trkpt>
      <trkpt lat="43.80883" lon="3.59546">
        <ele>211.1</ele>
        <time>2020-01-19T08:49:04.000Z</time>
      </trkpt>
      <trkpt lat="43.80876" lon="3.59543">
        <ele>213.1</ele>
        <time>2020-01-19T08:49:16.000Z</time>
      </trkpt>
      <trkpt lat="43.80871" lon="3.59546">
        <ele>214.5</ele>
        <time>2020-01-19T08:49:28.000Z</time>
      </trkpt>
      <trkpt lat="43.80875" lon="3.59561">
        <ele>216.4</ele>
        <time>2020-01-19T08:49:44.000Z</time>
      </trkpt>
      <trkpt lat="43.80874" lon="3.59573">
        <ele>218.4</ele>
        <time>2020-01-19T08:49:58.000Z</time>
      </trkpt>
      <trkpt lat="43.8087" lon="3.59568">
        <ele>220.3</ele>
        <time>2020-01-19T08:50:13.000Z</time>
      </trkpt>
      <trkpt lat="43.80862" lon="3.59563">
        <ele>222.2</ele>
        <time>2020-01-19T08:50:26.000Z</time>
      </trkpt>
      <trkpt lat="43.80849" lon="3.59556">
        <ele>223.6</ele>
        <time>2020-01-19T08:50:42.000Z</time>
      </trkpt>
      <trkpt lat="43.80837" lon="3.59551">
        <ele>225.6</ele>
        <time>2020-01-19T08:50:56.000Z</time>
      </trkpt>
      <trkpt lat="43.80838" lon="3.5956">
        <ele>226.5</ele>
        <time>2020-01-19T08:51:08.000Z</time>
      </trkpt>
      <trkpt lat="43.80841" lon="3.5957">
        <ele>228</ele>
        <time>2020-01-19T08:51:19.000Z</time>
      </trkpt>
      <trkpt lat="43.80844" lon="3.59579">
        <ele>229.9</ele>
        <time>2020-01-19T08:51:28.000Z</time>
      </trkpt>
      <trkpt lat="43.80844" lon="3.59582">
        <ele>230.4</ele>
        <time>2020-01-19T08:51:31.000Z</time>
      </trkpt>
      <trkpt lat="43.80845" lon="3.59598">
        <ele>231.3</ele>
        <time>2020-01-19T08:51:44.000Z</time>
      </trkpt>
      <trkpt lat="43.80838" lon="3.59601">
        <ele>233.3</ele>
        <time>2020-01-19T08:51:57.000Z</time>
      </trkpt>
      <trkpt lat="43.80833" lon="3.59594">
        <ele>234.2</ele>
        <time>2020-01-19T08:52:06.000Z</time>
      </trkpt>
      <trkpt lat="43.80827" lon="3.59589">
        <ele>235.7</ele>
        <time>2020-01-19T08:52:16.000Z</time>
      </trkpt>
      <trkpt lat="43.80818" lon="3.59591">
        <ele>237.6</ele>
        <time>2020-01-19T08:52:28.000Z</time>
      </trkpt>
      <trkpt lat="43.80814" lon="3.596">
        <ele>239.5</ele>
        <time>2020-01-19T08:52:40.000Z</time>
      </trkpt>
      <trkpt lat="43.80808" lon="3.59598">
        <ele>240.5</ele>
        <time>2020-01-19T08:52:47.000Z</time>
      </trkpt>
      <trkpt lat="43.80799" lon="3.59596">
        <ele>242.4</ele>
        <time>2020-01-19T08:53:01.000Z</time>
      </trkpt>
      <trkpt lat="43.80789" lon="3.59597">
        <ele>243.8</ele>
        <time>2020-01-19T08:53:14.000Z</time>
      </trkpt>
      <trkpt lat="43.80781" lon="3.59594">
        <ele>245.8</ele>
        <time>2020-01-19T08:53:28.000Z</time>
      </trkpt>
      <trkpt lat="43.80772" lon="3.59591">
        <ele>247.7</ele>
        <time>2020-01-19T08:53:39.000Z</time>
      </trkpt>
      <trkpt lat="43.80762" lon="3.59594">
        <ele>249.1</ele>
        <time>2020-01-19T08:53:49.000Z</time>
      </trkpt>
      <trkpt lat="43.80755" lon="3.59599">
        <ele>248.6</ele>
        <time>2020-01-19T08:53:57.000Z</time>
      </trkpt>
      <trkpt lat="43.80746" lon="3.59602">
        <ele>249.1</ele>
        <time>2020-01-19T08:54:07.000Z</time>
      </trkpt>
      <trkpt lat="43.80739" lon="3.59611">
        <ele>250.6</ele>
        <time>2020-01-19T08:54:21.000Z</time>
      </trkpt>
      <trkpt lat="43.80729" lon="3.5962">
        <ele>251</ele>
        <time>2020-01-19T08:54:31.000Z</time>
      </trkpt>
      <trkpt lat="43.80728" lon="3.59621">
        <ele>251</ele>
        <time>2020-01-19T08:54:32.000Z</time>
      </trkpt>
      <trkpt lat="43.80721" lon="3.59639">
        <ele>252</ele>
        <time>2020-01-19T08:54:46.000Z</time>
      </trkpt>
      <trkpt lat="43.80718" lon="3.59654">
        <ele>253</ele>
        <time>2020-01-19T08:54:58.000Z</time>
      </trkpt>
      <trkpt lat="43.80718" lon="3.59666">
        <ele>254.4</ele>
        <time>2020-01-19T08:55:11.000Z</time>
      </trkpt>
      <trkpt lat="43.80719" lon="3.59682">
        <ele>256.3</ele>
        <time>2020-01-19T08:55:25.000Z</time>
      </trkpt>
      <trkpt lat="43.80721" lon="3.59691">
        <ele>257.8</ele>
        <time>2020-01-19T08:55:41.000Z</time>
      </trkpt>
      <trkpt lat="43.8072" lon="3.59705">
        <ele>259.2</ele>
        <time>2020-01-19T08:55:55.000Z</time>
      </trkpt>
      <trkpt lat="43.80719" lon="3.59717">
        <ele>261.6</ele>
        <time>2020-01-19T08:56:09.000Z</time>
      </trkpt>
      <trkpt lat="43.80718" lon="3.59733">
        <ele>263.1</ele>
        <time>2020-01-19T08:56:24.000Z</time>
      </trkpt>
      <trkpt lat="43.80715" lon="3.5974">
        <ele>264</ele>
        <time>2020-01-19T08:56:36.000Z</time>
      </trkpt>
      <trkpt lat="43.80707" lon="3.59753">
        <ele>265.5</ele>
        <time>2020-01-19T08:56:51.000Z</time>
      </trkpt>
      <trkpt lat="43.80694" lon="3.59767">
        <ele>265.9</ele>
        <time>2020-01-19T08:57:08.000Z</time>
      </trkpt>
      <trkpt lat="43.80682" lon="3.59769">
        <ele>267.9</ele>
        <time>2020-01-19T08:57:23.000Z</time>
      </trkpt>
      <trkpt lat="43.80673" lon="3.59769">
        <ele>270.3</ele>
        <time>2020-01-19T08:57:39.000Z</time>
      </trkpt>
      <trkpt lat="43.80678" lon="3.59758">
        <ele>272.2</ele>
        <time>2020-01-19T08:57:53.000Z</time>
      </trkpt>
      <trkpt lat="43.80668" lon="3.59756">
        <ele>274.6</ele>
        <time>2020-01-19T08:58:09.000Z</time>
      </trkpt>
      <trkpt lat="43.80658" lon="3.59759">
        <ele>276</ele>
        <time>2020-01-19T08:58:25.000Z</time>
      </trkpt>
      <trkpt lat="43.80647" lon="3.59767">
        <ele>277</ele>
        <time>2020-01-19T08:58:39.000Z</time>
      </trkpt>
      <trkpt lat="43.80644" lon="3.5977">
        <ele>276.5</ele>
        <time>2020-01-19T08:58:43.000Z</time>
      </trkpt>
      <trkpt lat="43.80634" lon="3.59771">
        <ele>277.5</ele>
        <time>2020-01-19T08:58:53.000Z</time>
      </trkpt>
      <trkpt lat="43.80617" lon="3.59782">
        <ele>276</ele>
        <time>2020-01-19T08:59:12.000Z</time>
      </trkpt>
      <trkpt lat="43.806" lon="3.59789">
        <ele>277</ele>
        <time>2020-01-19T08:59:29.000Z</time>
      </trkpt>
      <trkpt lat="43.80585" lon="3.59798">
        <ele>277.5</ele>
        <time>2020-01-19T08:59:46.000Z</time>
      </trkpt>
      <trkpt lat="43.80566" lon="3.59807">
        <ele>277.5</ele>
        <time>2020-01-19T09:00:07.000Z</time>
      </trkpt>
      <trkpt lat="43.80557" lon="3.59809">
        <ele>277.5</ele>
        <time>2020-01-19T09:00:28.000Z</time>
      </trkpt>
      <trkpt lat="43.80535" lon="3.59794">
        <ele>279.4</ele>
        <time>2020-01-19T09:00:53.000Z</time>
      </trkpt>
      <trkpt lat="43.80509" lon="3.5979">
        <ele>280.4</ele>
        <time>2020-01-19T09:01:17.000Z</time>
      </trkpt>
      <trkpt lat="43.80492" lon="3.59781">
        <ele>283.7</ele>
        <time>2020-01-19T09:01:36.000Z</time>
      </trkpt>
      <trkpt lat="43.8048" lon="3.59782">
        <ele>286.6</ele>
        <time>2020-01-19T09:01:53.000Z</time>
      </trkpt>
      <trkpt lat="43.80469" lon="3.59795">
        <ele>288</ele>
        <time>2020-01-19T09:02:11.000Z</time>
      </trkpt>
      <trkpt lat="43.80466" lon="3.59819">
        <ele>289.5</ele>
        <time>2020-01-19T09:02:32.000Z</time>
      </trkpt>
      <trkpt lat="43.80464" lon="3.59837">
        <ele>290.9</ele>
        <time>2020-01-19T09:02:48.000Z</time>
      </trkpt>
      <trkpt lat="43.80463" lon="3.59836">
        <ele>290.5</ele>
        <time>2020-01-19T09:03:04.000Z</time>
      </trkpt>
      <trkpt lat="43.80463" lon="3.59838">
        <ele>290.5</ele>
        <time>2020-01-19T09:03:20.000Z</time>
      </trkpt>
      <trkpt lat="43.80465" lon="3.59831">
        <ele>290</ele>
        <time>2020-01-19T09:03:39.000Z</time>
      </trkpt>
      <trkpt lat="43.80463" lon="3.59829">
        <ele>289.5</ele>
        <time>2020-01-19T09:04:01.000Z</time>
      </trkpt>
      <trkpt lat="43.80464" lon="3.59828">
        <ele>289</ele>
        <time>2020-01-19T09:04:31.000Z</time>
      </trkpt>
      <trkpt lat="43.80464" lon="3.59828">
        <ele>290</ele>
        <time>2020-01-19T09:04:57.000Z</time>
      </trkpt>
      <trkpt lat="43.80461" lon="3.5983">
        <ele>289.5</ele>
        <time>2020-01-19T09:05:38.000Z</time>
      </trkpt>
      <trkpt lat="43.80466" lon="3.5984">
        <ele>290</ele>
        <time>2020-01-19T09:06:08.000Z</time>
      </trkpt>
      <trkpt lat="43.80464" lon="3.59859">
        <ele>291.9</ele>
        <time>2020-01-19T09:06:29.000Z</time>
      </trkpt>
      <trkpt lat="43.8046" lon="3.59873">
        <ele>295.3</ele>
        <time>2020-01-19T09:06:46.000Z</time>
      </trkpt>
      <trkpt lat="43.80457" lon="3.59895">
        <ele>298.1</ele>
        <time>2020-01-19T09:07:05.000Z</time>
      </trkpt>
      <trkpt lat="43.80458" lon="3.59924">
        <ele>300.1</ele>
        <time>2020-01-19T09:07:29.000Z</time>
      </trkpt>
      <trkpt lat="43.80451" lon="3.59913">
        <ele>301.5</ele>
        <time>2020-01-19T09:07:47.000Z</time>
      </trkpt>
      <trkpt lat="43.80444" lon="3.59926">
        <ele>304.9</ele>
        <time>2020-01-19T09:08:06.000Z</time>
      </trkpt>
      <trkpt lat="43.80443" lon="3.59942">
        <ele>307.8</ele>
        <time>2020-01-19T09:08:26.000Z</time>
      </trkpt>
      <trkpt lat="43.80448" lon="3.59965">
        <ele>309.7</ele>
        <time>2020-01-19T09:08:50.000Z</time>
      </trkpt>
      <trkpt lat="43.8045" lon="3.59974">
        <ele>309.7</ele>
        <time>2020-01-19T09:08:58.000Z</time>
      </trkpt>
      <trkpt lat="43.80455" lon="3.59982">
        <ele>310.2</ele>
        <time>2020-01-19T09:09:04.000Z</time>
      </trkpt>
      <trkpt lat="43.80458" lon="3.59997">
        <ele>311.1</ele>
        <time>2020-01-19T09:09:17.000Z</time>
      </trkpt>
      <trkpt lat="43.80455" lon="3.59997">
        <ele>313</ele>
        <time>2020-01-19T09:09:27.000Z</time>
      </trkpt>
      <trkpt lat="43.8045" lon="3.59988">
        <ele>314</ele>
        <time>2020-01-19T09:09:38.000Z</time>
      </trkpt>
      <trkpt lat="43.80441" lon="3.5998">
        <ele>315.5</ele>
        <time>2020-01-19T09:09:51.000Z</time>
      </trkpt>
      <trkpt lat="43.80436" lon="3.59974">
        <ele>316.4</ele>
        <time>2020-01-19T09:09:59.000Z</time>
      </trkpt>
      <trkpt lat="43.80431" lon="3.59968">
        <ele>318.3</ele>
        <time>2020-01-19T09:10:09.000Z</time>
      </trkpt>
      <trkpt lat="43.80428" lon="3.5997">
        <ele>319.3</ele>
        <time>2020-01-19T09:10:13.000Z</time>
      </trkpt>
      <trkpt lat="43.80429" lon="3.5998">
        <ele>320.7</ele>
        <time>2020-01-19T09:10:25.000Z</time>
      </trkpt>
      <trkpt lat="43.80434" lon="3.59992">
        <ele>321.7</ele>
        <time>2020-01-19T09:10:37.000Z</time>
      </trkpt>
      <trkpt lat="43.80436" lon="3.60005">
        <ele>324.1</ele>
        <time>2020-01-19T09:10:49.000Z</time>
      </trkpt>
      <trkpt lat="43.80441" lon="3.60028">
        <ele>326.5</ele>
        <time>2020-01-19T09:11:07.000Z</time>
      </trkpt>
      <trkpt lat="43.80444" lon="3.60043">
        <ele>328</ele>
        <time>2020-01-19T09:11:21.000Z</time>
      </trkpt>
      <trkpt lat="43.80449" lon="3.60058">
        <ele>329.9</ele>
        <time>2020-01-19T09:11:36.000Z</time>
      </trkpt>
      <trkpt lat="43.80454" lon="3.60064">
        <ele>329.9</ele>
        <time>2020-01-19T09:11:44.000Z</time>
      </trkpt>
      <trkpt lat="43.80457" lon="3.60076">
        <ele>330.8</ele>
        <time>2020-01-19T09:11:55.000Z</time>
      </trkpt>
      <trkpt lat="43.80457" lon="3.60081">
        <ele>332.3</ele>
        <time>2020-01-19T09:11:59.000Z</time>
      </trkpt>
      <trkpt lat="43.80459" lon="3.60089">
        <ele>332.8</ele>
        <time>2020-01-19T09:12:09.000Z</time>
      </trkpt>
      <trkpt lat="43.80461" lon="3.60092">
        <ele>332.8</ele>
        <time>2020-01-19T09:12:12.000Z</time>
      </trkpt>
      <trkpt lat="43.80459" lon="3.60103">
        <ele>335.2</ele>
        <time>2020-01-19T09:12:23.000Z</time>
      </trkpt>
      <trkpt lat="43.80452" lon="3.60107">
        <ele>336.6</ele>
        <time>2020-01-19T09:12:32.000Z</time>
      </trkpt>
      <trkpt lat="43.80448" lon="3.60108">
        <ele>336.6</ele>
        <time>2020-01-19T09:12:36.000Z</time>
      </trkpt>
      <trkpt lat="43.80446" lon="3.60109">
        <ele>336.6</ele>
        <time>2020-01-19T09:12:39.000Z</time>
      </trkpt>
      <trkpt lat="43.80434" lon="3.60109">
        <ele>338.5</ele>
        <time>2020-01-19T09:12:53.000Z</time>
      </trkpt>
      <trkpt lat="43.80425" lon="3.60108">
        <ele>340.4</ele>
        <time>2020-01-19T09:13:07.000Z</time>
      </trkpt>
      <trkpt lat="43.80417" lon="3.60113">
        <ele>342.4</ele>
        <time>2020-01-19T09:13:20.000Z</time>
      </trkpt>
      <trkpt lat="43.80403" lon="3.60113">
        <ele>344.8</ele>
        <time>2020-01-19T09:13:35.000Z</time>
      </trkpt>
      <trkpt lat="43.80388" lon="3.60113">
        <ele>346.2</ele>
        <time>2020-01-19T09:13:50.000Z</time>
      </trkpt>
      <trkpt lat="43.80379" lon="3.60108">
        <ele>347.6</ele>
        <time>2020-01-19T09:14:05.000Z</time>
      </trkpt>
      <trkpt lat="43.80381" lon="3.60102">
        <ele>351</ele>
        <time>2020-01-19T09:14:17.000Z</time>
      </trkpt>
      <trkpt lat="43.80391" lon="3.60094">
        <ele>352.9</ele>
        <time>2020-01-19T09:14:30.000Z</time>
      </trkpt>
      <trkpt lat="43.8039" lon="3.60092">
        <ele>353.4</ele>
        <time>2020-01-19T09:14:35.000Z</time>
      </trkpt>
      <trkpt lat="43.80381" lon="3.6009">
        <ele>354.9</ele>
        <time>2020-01-19T09:14:47.000Z</time>
      </trkpt>
      <trkpt lat="43.8037" lon="3.60086">
        <ele>356.3</ele>
        <time>2020-01-19T09:15:02.000Z</time>
      </trkpt>
      <trkpt lat="43.80359" lon="3.60088">
        <ele>358.2</ele>
        <time>2020-01-19T09:15:15.000Z</time>
      </trkpt>
      <trkpt lat="43.80349" lon="3.60094">
        <ele>361.1</ele>
        <time>2020-01-19T09:15:31.000Z</time>
      </trkpt>
      <trkpt lat="43.80343" lon="3.60095">
        <ele>364.5</ele>
        <time>2020-01-19T09:15:44.000Z</time>
      </trkpt>
      <trkpt lat="43.80339" lon="3.6009">
        <ele>366.4</ele>
        <time>2020-01-19T09:15:55.000Z</time>
      </trkpt>
      <trkpt lat="43.80334" lon="3.60086">
        <ele>369.8</ele>
        <time>2020-01-19T09:16:07.000Z</time>
      </trkpt>
      <trkpt lat="43.80328" lon="3.60076">
        <ele>372.6</ele>
        <time>2020-01-19T09:16:21.000Z</time>
      </trkpt>
      <trkpt lat="43.80324" lon="3.60066">
        <ele>375</ele>
        <time>2020-01-19T09:16:35.000Z</time>
      </trkpt>
      <trkpt lat="43.80319" lon="3.60061">
        <ele>377.9</ele>
        <time>2020-01-19T09:16:50.000Z</time>
      </trkpt>
      <trkpt lat="43.80313" lon="3.60068">
        <ele>379.9</ele>
        <time>2020-01-19T09:17:03.000Z</time>
      </trkpt>
      <trkpt lat="43.8031" lon="3.60057">
        <ele>381.8</ele>
        <time>2020-01-19T09:17:16.000Z</time>
      </trkpt>
      <trkpt lat="43.80307" lon="3.60057">
        <ele>383.2</ele>
        <time>2020-01-19T09:17:27.000Z</time>
      </trkpt>
      <trkpt lat="43.80305" lon="3.60065">
        <ele>384.2</ele>
        <time>2020-01-19T09:17:37.000Z</time>
      </trkpt>
      <trkpt lat="43.80304" lon="3.60079">
        <ele>386.1</ele>
        <time>2020-01-19T09:17:51.000Z</time>
      </trkpt>
      <trkpt lat="43.80305" lon="3.60084">
        <ele>386.1</ele>
        <time>2020-01-19T09:18:03.000Z</time>
      </trkpt>
      <trkpt lat="43.80303" lon="3.60081">
        <ele>386.1</ele>
        <time>2020-01-19T09:18:24.000Z</time>
      </trkpt>
      <trkpt lat="43.80301" lon="3.60081">
        <ele>386.6</ele>
        <time>2020-01-19T09:18:48.000Z</time>
      </trkpt>
      <trkpt lat="43.80302" lon="3.60081">
        <ele>387.1</ele>
        <time>2020-01-19T09:19:08.000Z</time>
      </trkpt>
      <trkpt lat="43.80303" lon="3.60079">
        <ele>386.6</ele>
        <time>2020-01-19T09:19:35.000Z</time>
      </trkpt>
      <trkpt lat="43.80303" lon="3.60079">
        <ele>386.6</ele>
        <time>2020-01-19T09:20:01.000Z</time>
      </trkpt>
      <trkpt lat="43.80303" lon="3.60079">
        <ele>386.6</ele>
        <time>2020-01-19T09:20:28.000Z</time>
      </trkpt>
      <trkpt lat="43.80303" lon="3.6008">
        <ele>386.6</ele>
        <time>2020-01-19T09:20:57.000Z</time>
      </trkpt>
      <trkpt lat="43.80302" lon="3.60082">
        <ele>387.1</ele>
        <time>2020-01-19T09:21:21.000Z</time>
      </trkpt>
      <trkpt lat="43.80301" lon="3.60082">
        <ele>386.6</ele>
        <time>2020-01-19T09:21:38.000Z</time>
      </trkpt>
      <trkpt lat="43.803" lon="3.60081">
        <ele>386.6</ele>
        <time>2020-01-19T09:22:07.000Z</time>
      </trkpt>
      <trkpt lat="43.80298" lon="3.60086">
        <ele>386.6</ele>
        <time>2020-01-19T09:22:23.000Z</time>
      </trkpt>
      <trkpt lat="43.80296" lon="3.60095">
        <ele>386.6</ele>
        <time>2020-01-19T09:22:40.000Z</time>
      </trkpt>
      <trkpt lat="43.80295" lon="3.60112">
        <ele>388.5</ele>
        <time>2020-01-19T09:22:57.000Z</time>
      </trkpt>
      <trkpt lat="43.80294" lon="3.60126">
        <ele>390</ele>
        <time>2020-01-19T09:23:12.000Z</time>
      </trkpt>
      <trkpt lat="43.80288" lon="3.60136">
        <ele>391.9</ele>
        <time>2020-01-19T09:23:25.000Z</time>
      </trkpt>
      <trkpt lat="43.80277" lon="3.60142">
        <ele>392.8</ele>
        <time>2020-01-19T09:23:39.000Z</time>
      </trkpt>
      <trkpt lat="43.80268" lon="3.60149">
        <ele>395.7</ele>
        <time>2020-01-19T09:23:56.000Z</time>
      </trkpt>
      <trkpt lat="43.80264" lon="3.60157">
        <ele>398.1</ele>
        <time>2020-01-19T09:24:09.000Z</time>
      </trkpt>
      <trkpt lat="43.80261" lon="3.60169">
        <ele>400</ele>
        <time>2020-01-19T09:24:24.000Z</time>
      </trkpt>
      <trkpt lat="43.80252" lon="3.60162">
        <ele>402.9</ele>
        <time>2020-01-19T09:24:41.000Z</time>
      </trkpt>
      <trkpt lat="43.80244" lon="3.60154">
        <ele>404.9</ele>
        <time>2020-01-19T09:24:56.000Z</time>
      </trkpt>
      <trkpt lat="43.80235" lon="3.60144">
        <ele>406.3</ele>
        <time>2020-01-19T09:25:12.000Z</time>
      </trkpt>
      <trkpt lat="43.80235" lon="3.60135">
        <ele>407.3</ele>
        <time>2020-01-19T09:25:25.000Z</time>
      </trkpt>
      <trkpt lat="43.80233" lon="3.60127">
        <ele>409.2</ele>
        <time>2020-01-19T09:25:41.000Z</time>
      </trkpt>
      <trkpt lat="43.80237" lon="3.60117">
        <ele>411.1</ele>
        <time>2020-01-19T09:25:56.000Z</time>
      </trkpt>
      <trkpt lat="43.80242" lon="3.60106">
        <ele>412.1</ele>
        <time>2020-01-19T09:26:10.000Z</time>
      </trkpt>
      <trkpt lat="43.80249" lon="3.60092">
        <ele>413</ele>
        <time>2020-01-19T09:26:25.000Z</time>
      </trkpt>
      <trkpt lat="43.80255" lon="3.60078">
        <ele>413.5</ele>
        <time>2020-01-19T09:26:39.000Z</time>
      </trkpt>
      <trkpt lat="43.80255" lon="3.60077">
        <ele>413</ele>
        <time>2020-01-19T09:26:40.000Z</time>
      </trkpt>
      <trkpt lat="43.80258" lon="3.60063">
        <ele>413.5</ele>
        <time>2020-01-19T09:26:53.000Z</time>
      </trkpt>
      <trkpt lat="43.80254" lon="3.60051">
        <ele>413.5</ele>
        <time>2020-01-19T09:27:07.000Z</time>
      </trkpt>
      <trkpt lat="43.80254" lon="3.6004">
        <ele>413.5</ele>
        <time>2020-01-19T09:27:21.000Z</time>
      </trkpt>
      <trkpt lat="43.80255" lon="3.60029">
        <ele>413</ele>
        <time>2020-01-19T09:27:34.000Z</time>
      </trkpt>
      <trkpt lat="43.80253" lon="3.6002">
        <ele>414</ele>
        <time>2020-01-19T09:27:46.000Z</time>
      </trkpt>
      <trkpt lat="43.80253" lon="3.60008">
        <ele>413</ele>
        <time>2020-01-19T09:27:58.000Z</time>
      </trkpt>
      <trkpt lat="43.80253" lon="3.59997">
        <ele>414</ele>
        <time>2020-01-19T09:28:11.000Z</time>
      </trkpt>
      <trkpt lat="43.80252" lon="3.59988">
        <ele>415.9</ele>
        <time>2020-01-19T09:28:23.000Z</time>
      </trkpt>
      <trkpt lat="43.80246" lon="3.59982">
        <ele>418.3</ele>
        <time>2020-01-19T09:28:39.000Z</time>
      </trkpt>
      <trkpt lat="43.80242" lon="3.59977">
        <ele>420.2</ele>
        <time>2020-01-19T09:28:57.000Z</time>
      </trkpt>
      <trkpt lat="43.80242" lon="3.59966">
        <ele>423.1</ele>
        <time>2020-01-19T09:29:16.000Z</time>
      </trkpt>
      <trkpt lat="43.80243" lon="3.5996">
        <ele>423.1</ele>
        <time>2020-01-19T09:29:30.000Z</time>
      </trkpt>
      <trkpt lat="43.80242" lon="3.59953">
        <ele>424.6</ele>
        <time>2020-01-19T09:29:44.000Z</time>
      </trkpt>
      <trkpt lat="43.80243" lon="3.59956">
        <ele>426.5</ele>
        <time>2020-01-19T09:29:58.000Z</time>
      </trkpt>
      <trkpt lat="43.80247" lon="3.59958">
        <ele>426.5</ele>
        <time>2020-01-19T09:30:18.000Z</time>
      </trkpt>
      <trkpt lat="43.80242" lon="3.59957">
        <ele>426.5</ele>
        <time>2020-01-19T09:30:39.000Z</time>
      </trkpt>
      <trkpt lat="43.80244" lon="3.59956">
        <ele>427</ele>
        <time>2020-01-19T09:31:06.000Z</time>
      </trkpt>
      <trkpt lat="43.80239" lon="3.59956">
        <ele>426.5</ele>
        <time>2020-01-19T09:31:29.000Z</time>
      </trkpt>
      <trkpt lat="43.80238" lon="3.59955">
        <ele>427.4</ele>
        <time>2020-01-19T09:31:46.000Z</time>
      </trkpt>
      <trkpt lat="43.80245" lon="3.59949">
        <ele>428.4</ele>
        <time>2020-01-19T09:32:09.000Z</time>
      </trkpt>
      <trkpt lat="43.80236" lon="3.59943">
        <ele>430.8</ele>
        <time>2020-01-19T09:32:26.000Z</time>
      </trkpt>
      <trkpt lat="43.80228" lon="3.59936">
        <ele>430.8</ele>
        <time>2020-01-19T09:32:39.000Z</time>
      </trkpt>
      <trkpt lat="43.80228" lon="3.59929">
        <ele>430.8</ele>
        <time>2020-01-19T09:32:55.000Z</time>
      </trkpt>
      <trkpt lat="43.80225" lon="3.5993">
        <ele>431.3</ele>
        <time>2020-01-19T09:33:08.000Z</time>
      </trkpt>
      <trkpt lat="43.80221" lon="3.59928">
        <ele>430.3</ele>
        <time>2020-01-19T09:33:20.000Z</time>
      </trkpt>
      <trkpt lat="43.80223" lon="3.59923">
        <ele>430.8</ele>
        <time>2020-01-19T09:33:32.000Z</time>
      </trkpt>
      <trkpt lat="43.80223" lon="3.59929">
        <ele>430.8</ele>
        <time>2020-01-19T09:33:48.000Z</time>
      </trkpt>
      <trkpt lat="43.80224" lon="3.59931">
        <ele>430.8</ele>
        <time>2020-01-19T09:34:06.000Z</time>
      </trkpt>
      <trkpt lat="43.80221" lon="3.59929">
        <ele>430.8</ele>
        <time>2020-01-19T09:34:30.000Z</time>
      </trkpt>
      <trkpt lat="43.80224" lon="3.59929">
        <ele>431.3</ele>
        <time>2020-01-19T09:34:51.000Z</time>
      </trkpt>
      <trkpt lat="43.80226" lon="3.59928">
        <ele>431.3</ele>
        <time>2020-01-19T09:35:22.000Z</time>
      </trkpt>
      <trkpt lat="43.80231" lon="3.5992">
        <ele>432.3</ele>
        <time>2020-01-19T09:35:36.000Z</time>
      </trkpt>
      <trkpt lat="43.8023" lon="3.59917">
        <ele>432.3</ele>
        <time>2020-01-19T09:35:52.000Z</time>
      </trkpt>
      <trkpt lat="43.80229" lon="3.59916">
        <ele>432.7</ele>
        <time>2020-01-19T09:36:09.000Z</time>
      </trkpt>
      <trkpt lat="43.80231" lon="3.59914">
        <ele>432.3</ele>
        <time>2020-01-19T09:36:13.000Z</time>
      </trkpt>
      <trkpt lat="43.80234" lon="3.59912">
        <ele>433.2</ele>
        <time>2020-01-19T09:36:29.000Z</time>
      </trkpt>
      <trkpt lat="43.80235" lon="3.59912">
        <ele>433.2</ele>
        <time>2020-01-19T09:36:51.000Z</time>
      </trkpt>
      <trkpt lat="43.80237" lon="3.59911">
        <ele>432.7</ele>
        <time>2020-01-19T09:37:13.000Z</time>
      </trkpt>
      <trkpt lat="43.80236" lon="3.59913">
        <ele>432.7</ele>
        <time>2020-01-19T09:37:32.000Z</time>
      </trkpt>
      <trkpt lat="43.80237" lon="3.59911">
        <ele>432.7</ele>
        <time>2020-01-19T09:37:47.000Z</time>
      </trkpt>
      <trkpt lat="43.80236" lon="3.5991">
        <ele>432.3</ele>
        <time>2020-01-19T09:38:08.000Z</time>
      </trkpt>
      <trkpt lat="43.80236" lon="3.5991">
        <ele>432.7</ele>
        <time>2020-01-19T09:38:31.000Z</time>
      </trkpt>
      <trkpt lat="43.80235" lon="3.5991">
        <ele>433.2</ele>
        <time>2020-01-19T09:38:48.000Z</time>
      </trkpt>
      <trkpt lat="43.80234" lon="3.59912">
        <ele>432.7</ele>
        <time>2020-01-19T09:38:56.000Z</time>
      </trkpt>
      <trkpt lat="43.80232" lon="3.59911">
        <ele>433.2</ele>
        <time>2020-01-19T09:39:16.000Z</time>
      </trkpt>
      <trkpt lat="43.80233" lon="3.59912">
        <ele>432.7</ele>
        <time>2020-01-19T09:39:35.000Z</time>
      </trkpt>
      <trkpt lat="43.80231" lon="3.59911">
        <ele>432.3</ele>
        <time>2020-01-19T09:39:57.000Z</time>
      </trkpt>
      <trkpt lat="43.80233" lon="3.5991">
        <ele>432.7</ele>
        <time>2020-01-19T09:40:13.000Z</time>
      </trkpt>
      <trkpt lat="43.80232" lon="3.59911">
        <ele>432.3</ele>
        <time>2020-01-19T09:40:23.000Z</time>
      </trkpt>
      <trkpt lat="43.80227" lon="3.59902">
        <ele>431.3</ele>
        <time>2020-01-19T09:40:36.000Z</time>
      </trkpt>
      <trkpt lat="43.80221" lon="3.5989">
        <ele>429.9</ele>
        <time>2020-01-19T09:40:48.000Z</time>
      </trkpt>
      <trkpt lat="43.8022" lon="3.59887">
        <ele>429.9</ele>
        <time>2020-01-19T09:40:51.000Z</time>
      </trkpt>
      <trkpt lat="43.80219" lon="3.59879">
        <ele>428.4</ele>
        <time>2020-01-19T09:40:57.000Z</time>
      </trkpt>
      <trkpt lat="43.80214" lon="3.59869">
        <ele>425.5</ele>
        <time>2020-01-19T09:41:08.000Z</time>
      </trkpt>
      <trkpt lat="43.80207" lon="3.59861">
        <ele>423.1</ele>
        <time>2020-01-19T09:41:20.000Z</time>
      </trkpt>
      <trkpt lat="43.80206" lon="3.5985">
        <ele>422.2</ele>
        <time>2020-01-19T09:41:29.000Z</time>
      </trkpt>
      <trkpt lat="43.80211" lon="3.59834">
        <ele>422.2</ele>
        <time>2020-01-19T09:41:44.000Z</time>
      </trkpt>
      <trkpt lat="43.80213" lon="3.59831">
        <ele>422.6</ele>
        <time>2020-01-19T09:41:48.000Z</time>
      </trkpt>
      <trkpt lat="43.80216" lon="3.59813">
        <ele>421.2</ele>
        <time>2020-01-19T09:42:04.000Z</time>
      </trkpt>
      <trkpt lat="43.80212" lon="3.59804">
        <ele>421.2</ele>
        <time>2020-01-19T09:42:15.000Z</time>
      </trkpt>
      <trkpt lat="43.80205" lon="3.59796">
        <ele>422.2</ele>
        <time>2020-01-19T09:42:29.000Z</time>
      </trkpt>
      <trkpt lat="43.80202" lon="3.59782">
        <ele>424.6</ele>
        <time>2020-01-19T09:42:45.000Z</time>
      </trkpt>
      <trkpt lat="43.80197" lon="3.5977">
        <ele>425.5</ele>
        <time>2020-01-19T09:42:58.000Z</time>
      </trkpt>
      <trkpt lat="43.80197" lon="3.59756">
        <ele>427.4</ele>
        <time>2020-01-19T09:43:12.000Z</time>
      </trkpt>
      <trkpt lat="43.80196" lon="3.59743">
        <ele>429.9</ele>
        <time>2020-01-19T09:43:29.000Z</time>
      </trkpt>
      <trkpt lat="43.80193" lon="3.59731">
        <ele>433.2</ele>
        <time>2020-01-19T09:43:45.000Z</time>
      </trkpt>
      <trkpt lat="43.80191" lon="3.59722">
        <ele>435.6</ele>
        <time>2020-01-19T09:44:00.000Z</time>
      </trkpt>
      <trkpt lat="43.80182" lon="3.59722">
        <ele>435.6</ele>
        <time>2020-01-19T09:44:13.000Z</time>
      </trkpt>
      <trkpt lat="43.80177" lon="3.59719">
        <ele>434.6</ele>
        <time>2020-01-19T09:44:19.000Z</time>
      </trkpt>
      <trkpt lat="43.8017" lon="3.59717">
        <ele>432.7</ele>
        <time>2020-01-19T09:44:32.000Z</time>
      </trkpt>
      <trkpt lat="43.80156" lon="3.59731">
        <ele>432.7</ele>
        <time>2020-01-19T09:44:48.000Z</time>
      </trkpt>
      <trkpt lat="43.80148" lon="3.59739">
        <ele>433.7</ele>
        <time>2020-01-19T09:45:00.000Z</time>
      </trkpt>
      <trkpt lat="43.80141" lon="3.59745">
        <ele>434.6</ele>
        <time>2020-01-19T09:45:12.000Z</time>
      </trkpt>
      <trkpt lat="43.80129" lon="3.59748">
        <ele>436.6</ele>
        <time>2020-01-19T09:45:29.000Z</time>
      </trkpt>
      <trkpt lat="43.8012" lon="3.5975">
        <ele>439</ele>
        <time>2020-01-19T09:45:43.000Z</time>
      </trkpt>
      <trkpt lat="43.80112" lon="3.59751">
        <ele>440.4</ele>
        <time>2020-01-19T09:45:57.000Z</time>
      </trkpt>
      <trkpt lat="43.80103" lon="3.5975">
        <ele>441.9</ele>
        <time>2020-01-19T09:46:12.000Z</time>
      </trkpt>
      <trkpt lat="43.80097" lon="3.59753">
        <ele>442.8</ele>
        <time>2020-01-19T09:46:24.000Z</time>
      </trkpt>
      <trkpt lat="43.80091" lon="3.59754">
        <ele>442.8</ele>
        <time>2020-01-19T09:46:36.000Z</time>
      </trkpt>
      <trkpt lat="43.80081" lon="3.59757">
        <ele>444.3</ele>
        <time>2020-01-19T09:46:49.000Z</time>
      </trkpt>
      <trkpt lat="43.80078" lon="3.59766">
        <ele>444.8</ele>
        <time>2020-01-19T09:47:00.000Z</time>
      </trkpt>
      <trkpt lat="43.80069" lon="3.59773">
        <ele>446.2</ele>
        <time>2020-01-19T09:47:13.000Z</time>
      </trkpt>
      <trkpt lat="43.80053" lon="3.59775">
        <ele>446.2</ele>
        <time>2020-01-19T09:47:29.000Z</time>
      </trkpt>
      <trkpt lat="43.80042" lon="3.59774">
        <ele>446.7</ele>
        <time>2020-01-19T09:47:43.000Z</time>
      </trkpt>
      <trkpt lat="43.80038" lon="3.5977">
        <ele>447.1</ele>
        <time>2020-01-19T09:47:50.000Z</time>
      </trkpt>
      <trkpt lat="43.80029" lon="3.59769">
        <ele>447.6</ele>
        <time>2020-01-19T09:48:02.000Z</time>
      </trkpt>
      <trkpt lat="43.80024" lon="3.59771">
        <ele>449.1</ele>
        <time>2020-01-19T09:48:12.000Z</time>
      </trkpt>
      <trkpt lat="43.80015" lon="3.5977">
        <ele>449.5</ele>
        <time>2020-01-19T09:48:24.000Z</time>
      </trkpt>
      <trkpt lat="43.80019" lon="3.5976">
        <ele>449.5</ele>
        <time>2020-01-19T09:48:35.000Z</time>
      </trkpt>
      <trkpt lat="43.80016" lon="3.59748">
        <ele>449.5</ele>
        <time>2020-01-19T09:48:49.000Z</time>
      </trkpt>
      <trkpt lat="43.8001" lon="3.59744">
        <ele>451.5</ele>
        <time>2020-01-19T09:49:02.000Z</time>
      </trkpt>
      <trkpt lat="43.80004" lon="3.59737">
        <ele>454.8</ele>
        <time>2020-01-19T09:49:17.000Z</time>
      </trkpt>
      <trkpt lat="43.79998" lon="3.59734">
        <ele>457.7</ele>
        <time>2020-01-19T09:49:30.000Z</time>
      </trkpt>
      <trkpt lat="43.79993" lon="3.59736">
        <ele>460.1</ele>
        <time>2020-01-19T09:49:45.000Z</time>
      </trkpt>
      <trkpt lat="43.79987" lon="3.5974">
        <ele>462</ele>
        <time>2020-01-19T09:49:57.000Z</time>
      </trkpt>
      <trkpt lat="43.79977" lon="3.59736">
        <ele>464.5</ele>
        <time>2020-01-19T09:50:12.000Z</time>
      </trkpt>
      <trkpt lat="43.79971" lon="3.59729">
        <ele>466.4</ele>
        <time>2020-01-19T09:50:28.000Z</time>
      </trkpt>
      <trkpt lat="43.79963" lon="3.59728">
        <ele>469.3</ele>
        <time>2020-01-19T09:50:46.000Z</time>
      </trkpt>
      <trkpt lat="43.79961" lon="3.59729">
        <ele>468.3</ele>
        <time>2020-01-19T09:51:03.000Z</time>
      </trkpt>
      <trkpt lat="43.79956" lon="3.59726">
        <ele>470.2</ele>
        <time>2020-01-19T09:51:38.000Z</time>
      </trkpt>
      <trkpt lat="43.79952" lon="3.59729">
        <ele>473.1</ele>
        <time>2020-01-19T09:51:50.000Z</time>
      </trkpt>
      <trkpt lat="43.79946" lon="3.59727">
        <ele>476</ele>
        <time>2020-01-19T09:52:05.000Z</time>
      </trkpt>
      <trkpt lat="43.79939" lon="3.59723">
        <ele>478.4</ele>
        <time>2020-01-19T09:52:21.000Z</time>
      </trkpt>
      <trkpt lat="43.79928" lon="3.59722">
        <ele>480.8</ele>
        <time>2020-01-19T09:52:38.000Z</time>
      </trkpt>
      <trkpt lat="43.79921" lon="3.59719">
        <ele>483.7</ele>
        <time>2020-01-19T09:52:54.000Z</time>
      </trkpt>
      <trkpt lat="43.79914" lon="3.59715">
        <ele>486.6</ele>
        <time>2020-01-19T09:53:10.000Z</time>
      </trkpt>
      <trkpt lat="43.79907" lon="3.59715">
        <ele>489</ele>
        <time>2020-01-19T09:53:26.000Z</time>
      </trkpt>
      <trkpt lat="43.79897" lon="3.59713">
        <ele>490.9</ele>
        <time>2020-01-19T09:53:43.000Z</time>
      </trkpt>
      <trkpt lat="43.79894" lon="3.59703">
        <ele>492.8</ele>
        <time>2020-01-19T09:53:57.000Z</time>
      </trkpt>
      <trkpt lat="43.79888" lon="3.59693">
        <ele>492.8</ele>
        <time>2020-01-19T09:54:09.000Z</time>
      </trkpt>
      <trkpt lat="43.79881" lon="3.5968">
        <ele>493.3</ele>
        <time>2020-01-19T09:54:25.000Z</time>
      </trkpt>
      <trkpt lat="43.79883" lon="3.5967">
        <ele>494.3</ele>
        <time>2020-01-19T09:54:38.000Z</time>
      </trkpt>
      <trkpt lat="43.79882" lon="3.59659">
        <ele>495.7</ele>
        <time>2020-01-19T09:54:51.000Z</time>
      </trkpt>
      <trkpt lat="43.79886" lon="3.59648">
        <ele>497.1</ele>
        <time>2020-01-19T09:55:04.000Z</time>
      </trkpt>
      <trkpt lat="43.79886" lon="3.59645">
        <ele>497.1</ele>
        <time>2020-01-19T09:55:07.000Z</time>
      </trkpt>
      <trkpt lat="43.7988" lon="3.59637">
        <ele>498.1</ele>
        <time>2020-01-19T09:55:20.000Z</time>
      </trkpt>
      <trkpt lat="43.79874" lon="3.5963">
        <ele>501.5</ele>
        <time>2020-01-19T09:55:34.000Z</time>
      </trkpt>
      <trkpt lat="43.79868" lon="3.59626">
        <ele>503.4</ele>
        <time>2020-01-19T09:55:47.000Z</time>
      </trkpt>
      <trkpt lat="43.79867" lon="3.59623">
        <ele>506.3</ele>
        <time>2020-01-19T09:55:58.000Z</time>
      </trkpt>
      <trkpt lat="43.79861" lon="3.59614">
        <ele>507.7</ele>
        <time>2020-01-19T09:56:15.000Z</time>
      </trkpt>
      <trkpt lat="43.79861" lon="3.59604">
        <ele>509.6</ele>
        <time>2020-01-19T09:56:29.000Z</time>
      </trkpt>
      <trkpt lat="43.7986" lon="3.59595">
        <ele>513</ele>
        <time>2020-01-19T09:56:46.000Z</time>
      </trkpt>
      <trkpt lat="43.79855" lon="3.59587">
        <ele>514.9</ele>
        <time>2020-01-19T09:56:59.000Z</time>
      </trkpt>
      <trkpt lat="43.79851" lon="3.59581">
        <ele>517.3</ele>
        <time>2020-01-19T09:57:13.000Z</time>
      </trkpt>
      <trkpt lat="43.79848" lon="3.59573">
        <ele>520.2</ele>
        <time>2020-01-19T09:57:27.000Z</time>
      </trkpt>
      <trkpt lat="43.79847" lon="3.59562">
        <ele>523.1</ele>
        <time>2020-01-19T09:57:43.000Z</time>
      </trkpt>
      <trkpt lat="43.79842" lon="3.59553">
        <ele>524.5</ele>
        <time>2020-01-19T09:57:57.000Z</time>
      </trkpt>
      <trkpt lat="43.79835" lon="3.59547">
        <ele>526.5</ele>
        <time>2020-01-19T09:58:10.000Z</time>
      </trkpt>
      <trkpt lat="43.7983" lon="3.59536">
        <ele>527.4</ele>
        <time>2020-01-19T09:58:24.000Z</time>
      </trkpt>
      <trkpt lat="43.79827" lon="3.59524">
        <ele>529.8</ele>
        <time>2020-01-19T09:58:38.000Z</time>
      </trkpt>
      <trkpt lat="43.7983" lon="3.59516">
        <ele>532.2</ele>
        <time>2020-01-19T09:58:50.000Z</time>
      </trkpt>
      <trkpt lat="43.79826" lon="3.59508">
        <ele>535.1</ele>
        <time>2020-01-19T09:59:04.000Z</time>
      </trkpt>
      <trkpt lat="43.79827" lon="3.59502">
        <ele>538</ele>
        <time>2020-01-19T09:59:17.000Z</time>
      </trkpt>
      <trkpt lat="43.79826" lon="3.59498">
        <ele>539.4</ele>
        <time>2020-01-19T09:59:29.000Z</time>
      </trkpt>
      <trkpt lat="43.79824" lon="3.59501">
        <ele>539.4</ele>
        <time>2020-01-19T09:59:53.000Z</time>
      </trkpt>
      <trkpt lat="43.79823" lon="3.59503">
        <ele>539.4</ele>
        <time>2020-01-19T10:00:20.000Z</time>
      </trkpt>
      <trkpt lat="43.79826" lon="3.59502">
        <ele>539.4</ele>
        <time>2020-01-19T10:00:53.000Z</time>
      </trkpt>
      <trkpt lat="43.79829" lon="3.59504">
        <ele>539</ele>
        <time>2020-01-19T10:01:19.000Z</time>
      </trkpt>
      <trkpt lat="43.79831" lon="3.59495">
        <ele>538.5</ele>
        <time>2020-01-19T10:01:38.000Z</time>
      </trkpt>
      <trkpt lat="43.79828" lon="3.59492">
        <ele>539.4</ele>
        <time>2020-01-19T10:02:11.000Z</time>
      </trkpt>
      <trkpt lat="43.79826" lon="3.59489">
        <ele>540.4</ele>
        <time>2020-01-19T10:02:32.000Z</time>
      </trkpt>
      <trkpt lat="43.79822" lon="3.59483">
        <ele>542.8</ele>
        <time>2020-01-19T10:02:45.000Z</time>
      </trkpt>
      <trkpt lat="43.79819" lon="3.59475">
        <ele>544.7</ele>
        <time>2020-01-19T10:02:57.000Z</time>
      </trkpt>
      <trkpt lat="43.79813" lon="3.59465">
        <ele>546.7</ele>
        <time>2020-01-19T10:03:12.000Z</time>
      </trkpt>
      <trkpt lat="43.79808" lon="3.59459">
        <ele>546.7</ele>
        <time>2020-01-19T10:03:25.000Z</time>
      </trkpt>
      <trkpt lat="43.79807" lon="3.59458">
        <ele>546.7</ele>
        <time>2020-01-19T10:03:26.000Z</time>
      </trkpt>
      <trkpt lat="43.79804" lon="3.59456">
        <ele>546.7</ele>
        <time>2020-01-19T10:03:29.000Z</time>
      </trkpt>
      <trkpt lat="43.79794" lon="3.59443">
        <ele>545.7</ele>
        <time>2020-01-19T10:03:45.000Z</time>
      </trkpt>
      <trkpt lat="43.79789" lon="3.59434">
        <ele>548.1</ele>
        <time>2020-01-19T10:03:58.000Z</time>
      </trkpt>
      <trkpt lat="43.79782" lon="3.59431">
        <ele>547.1</ele>
        <time>2020-01-19T10:04:06.000Z</time>
      </trkpt>
      <trkpt lat="43.79774" lon="3.59422">
        <ele>546.2</ele>
        <time>2020-01-19T10:04:19.000Z</time>
      </trkpt>
      <trkpt lat="43.79769" lon="3.59414">
        <ele>546.2</ele>
        <time>2020-01-19T10:04:33.000Z</time>
      </trkpt>
      <trkpt lat="43.79762" lon="3.59405">
        <ele>546.7</ele>
        <time>2020-01-19T10:04:47.000Z</time>
      </trkpt>
      <trkpt lat="43.79758" lon="3.59389">
        <ele>547.1</ele>
        <time>2020-01-19T10:05:03.000Z</time>
      </trkpt>
      <trkpt lat="43.79753" lon="3.59375">
        <ele>548.1</ele>
        <time>2020-01-19T10:05:18.000Z</time>
      </trkpt>
      <trkpt lat="43.79755" lon="3.59363">
        <ele>549</ele>
        <time>2020-01-19T10:05:31.000Z</time>
      </trkpt>
      <trkpt lat="43.79753" lon="3.59351">
        <ele>549.5</ele>
        <time>2020-01-19T10:05:45.000Z</time>
      </trkpt>
      <trkpt lat="43.7975" lon="3.59341">
        <ele>551.5</ele>
        <time>2020-01-19T10:06:00.000Z</time>
      </trkpt>
      <trkpt lat="43.79747" lon="3.59327">
        <ele>553.4</ele>
        <time>2020-01-19T10:06:15.000Z</time>
      </trkpt>
      <trkpt lat="43.79744" lon="3.59317">
        <ele>553.4</ele>
        <time>2020-01-19T10:06:27.000Z</time>
      </trkpt>
      <trkpt lat="43.79744" lon="3.59303">
        <ele>552.9</ele>
        <time>2020-01-19T10:06:43.000Z</time>
      </trkpt>
      <trkpt lat="43.79742" lon="3.59293">
        <ele>556.3</ele>
        <time>2020-01-19T10:06:58.000Z</time>
      </trkpt>
      <trkpt lat="43.79739" lon="3.59286">
        <ele>557.2</ele>
        <time>2020-01-19T10:07:06.000Z</time>
      </trkpt>
      <trkpt lat="43.79732" lon="3.5927">
        <ele>558.7</ele>
        <time>2020-01-19T10:07:21.000Z</time>
      </trkpt>
      <trkpt lat="43.79724" lon="3.59258">
        <ele>558.2</ele>
        <time>2020-01-19T10:07:34.000Z</time>
      </trkpt>
      <trkpt lat="43.79719" lon="3.59253">
        <ele>560.1</ele>
        <time>2020-01-19T10:07:46.000Z</time>
      </trkpt>
      <trkpt lat="43.79713" lon="3.59245">
        <ele>562</ele>
        <time>2020-01-19T10:08:00.000Z</time>
      </trkpt>
      <trkpt lat="43.79704" lon="3.59237">
        <ele>562</ele>
        <time>2020-01-19T10:08:14.000Z</time>
      </trkpt>
      <trkpt lat="43.797" lon="3.59232">
        <ele>561.5</ele>
        <time>2020-01-19T10:08:30.000Z</time>
      </trkpt>
      <trkpt lat="43.79697" lon="3.59227">
        <ele>561.5</ele>
        <time>2020-01-19T10:08:45.000Z</time>
      </trkpt>
      <trkpt lat="43.79698" lon="3.59225">
        <ele>561.1</ele>
        <time>2020-01-19T10:09:08.000Z</time>
      </trkpt>
      <trkpt lat="43.7969" lon="3.59216">
        <ele>563.5</ele>
        <time>2020-01-19T10:09:30.000Z</time>
      </trkpt>
      <trkpt lat="43.79683" lon="3.59205">
        <ele>566.3</ele>
        <time>2020-01-19T10:09:46.000Z</time>
      </trkpt>
      <trkpt lat="43.79681" lon="3.59195">
        <ele>569.7</ele>
        <time>2020-01-19T10:10:02.000Z</time>
      </trkpt>
      <trkpt lat="43.79674" lon="3.59188">
        <ele>572.1</ele>
        <time>2020-01-19T10:10:15.000Z</time>
      </trkpt>
      <trkpt lat="43.79661" lon="3.59186">
        <ele>568.8</ele>
        <time>2020-01-19T10:10:30.000Z</time>
      </trkpt>
      <trkpt lat="43.7965" lon="3.59178">
        <ele>568.3</ele>
        <time>2020-01-19T10:10:46.000Z</time>
      </trkpt>
      <trkpt lat="43.79644" lon="3.5917">
        <ele>564.9</ele>
        <time>2020-01-19T10:11:00.000Z</time>
      </trkpt>
      <trkpt lat="43.79637" lon="3.5916">
        <ele>564.4</ele>
        <time>2020-01-19T10:11:15.000Z</time>
      </trkpt>
      <trkpt lat="43.79627" lon="3.5915">
        <ele>564</ele>
        <time>2020-01-19T10:11:31.000Z</time>
      </trkpt>
      <trkpt lat="43.79618" lon="3.59143">
        <ele>560.6</ele>
        <time>2020-01-19T10:11:44.000Z</time>
      </trkpt>
      <trkpt lat="43.79609" lon="3.5913">
        <ele>560.6</ele>
        <time>2020-01-19T10:11:59.000Z</time>
      </trkpt>
      <trkpt lat="43.79603" lon="3.59121">
        <ele>557.7</ele>
        <time>2020-01-19T10:12:12.000Z</time>
      </trkpt>
      <trkpt lat="43.79602" lon="3.59113">
        <ele>554.3</ele>
        <time>2020-01-19T10:12:23.000Z</time>
      </trkpt>
      <trkpt lat="43.79599" lon="3.59106">
        <ele>556.7</ele>
        <time>2020-01-19T10:12:37.000Z</time>
      </trkpt>
      <trkpt lat="43.79591" lon="3.59103">
        <ele>559.6</ele>
        <time>2020-01-19T10:12:53.000Z</time>
      </trkpt>
      <trkpt lat="43.79589" lon="3.59098">
        <ele>561.5</ele>
        <time>2020-01-19T10:13:05.000Z</time>
      </trkpt>
      <trkpt lat="43.7959" lon="3.59089">
        <ele>560.1</ele>
        <time>2020-01-19T10:13:16.000Z</time>
      </trkpt>
      <trkpt lat="43.79592" lon="3.59086">
        <ele>560.6</ele>
        <time>2020-01-19T10:13:31.000Z</time>
      </trkpt>
      <trkpt lat="43.79591" lon="3.59086">
        <ele>561.1</ele>
        <time>2020-01-19T10:13:49.000Z</time>
      </trkpt>
      <trkpt lat="43.79589" lon="3.5909">
        <ele>560.6</ele>
        <time>2020-01-19T10:14:05.000Z</time>
      </trkpt>
      <trkpt lat="43.79591" lon="3.5909">
        <ele>560.6</ele>
        <time>2020-01-19T10:14:30.000Z</time>
      </trkpt>
      <trkpt lat="43.79592" lon="3.5909">
        <ele>560.6</ele>
        <time>2020-01-19T10:15:03.000Z</time>
      </trkpt>
      <trkpt lat="43.79586" lon="3.59085">
        <ele>559.6</ele>
        <time>2020-01-19T10:15:25.000Z</time>
      </trkpt>
      <trkpt lat="43.79594" lon="3.59082">
        <ele>561.5</ele>
        <time>2020-01-19T10:15:39.000Z</time>
      </trkpt>
      <trkpt lat="43.79592" lon="3.59081">
        <ele>561.5</ele>
        <time>2020-01-19T10:16:03.000Z</time>
      </trkpt>
      <trkpt lat="43.7959" lon="3.59083">
        <ele>560.6</ele>
        <time>2020-01-19T10:16:31.000Z</time>
      </trkpt>
      <trkpt lat="43.7959" lon="3.59086">
        <ele>560.6</ele>
        <time>2020-01-19T10:17:04.000Z</time>
      </trkpt>
      <trkpt lat="43.79592" lon="3.59085">
        <ele>560.6</ele>
        <time>2020-01-19T10:17:29.000Z</time>
      </trkpt>
      <trkpt lat="43.7959" lon="3.59086">
        <ele>560.6</ele>
        <time>2020-01-19T10:17:52.000Z</time>
      </trkpt>
      <trkpt lat="43.7959" lon="3.59085">
        <ele>560.1</ele>
        <time>2020-01-19T10:18:12.000Z</time>
      </trkpt>
      <trkpt lat="43.79592" lon="3.59084">
        <ele>560.1</ele>
        <time>2020-01-19T10:18:40.000Z</time>
      </trkpt>
      <trkpt lat="43.7959" lon="3.59081">
        <ele>559.6</ele>
        <time>2020-01-19T10:19:04.000Z</time>
      </trkpt>
      <trkpt lat="43.79583" lon="3.59076">
        <ele>558.7</ele>
        <time>2020-01-19T10:19:18.000Z</time>
      </trkpt>
      <trkpt lat="43.79578" lon="3.59064">
        <ele>560.6</ele>
        <time>2020-01-19T10:19:34.000Z</time>
      </trkpt>
      <trkpt lat="43.79574" lon="3.59056">
        <ele>560.6</ele>
        <time>2020-01-19T10:19:42.000Z</time>
      </trkpt>
      <trkpt lat="43.79565" lon="3.59044">
        <ele>561.1</ele>
        <time>2020-01-19T10:19:58.000Z</time>
      </trkpt>
      <trkpt lat="43.79555" lon="3.59037">
        <ele>562.5</ele>
        <time>2020-01-19T10:20:13.000Z</time>
      </trkpt>
      <trkpt lat="43.79551" lon="3.59028">
        <ele>560.1</ele>
        <time>2020-01-19T10:20:27.000Z</time>
      </trkpt>
      <trkpt lat="43.79549" lon="3.59019">
        <ele>559.1</ele>
        <time>2020-01-19T10:20:39.000Z</time>
      </trkpt>
      <trkpt lat="43.79546" lon="3.59004">
        <ele>559.1</ele>
        <time>2020-01-19T10:20:54.000Z</time>
      </trkpt>
      <trkpt lat="43.79539" lon="3.58998">
        <ele>557.7</ele>
        <time>2020-01-19T10:21:05.000Z</time>
      </trkpt>
      <trkpt lat="43.79534" lon="3.58983">
        <ele>558.2</ele>
        <time>2020-01-19T10:21:20.000Z</time>
      </trkpt>
      <trkpt lat="43.79533" lon="3.58971">
        <ele>560.6</ele>
        <time>2020-01-19T10:21:36.000Z</time>
      </trkpt>
      <trkpt lat="43.79533" lon="3.58964">
        <ele>564</ele>
        <time>2020-01-19T10:21:48.000Z</time>
      </trkpt>
      <trkpt lat="43.79537" lon="3.58961">
        <ele>566.8</ele>
        <time>2020-01-19T10:22:02.000Z</time>
      </trkpt>
      <trkpt lat="43.79538" lon="3.58955">
        <ele>567.3</ele>
        <time>2020-01-19T10:22:15.000Z</time>
      </trkpt>
      <trkpt lat="43.79539" lon="3.58957">
        <ele>567.8</ele>
        <time>2020-01-19T10:22:27.000Z</time>
      </trkpt>
      <trkpt lat="43.79539" lon="3.58956">
        <ele>567.8</ele>
        <time>2020-01-19T10:22:52.000Z</time>
      </trkpt>
      <trkpt lat="43.79538" lon="3.58955">
        <ele>567.8</ele>
        <time>2020-01-19T10:23:16.000Z</time>
      </trkpt>
      <trkpt lat="43.79537" lon="3.58955">
        <ele>567.3</ele>
        <time>2020-01-19T10:23:37.000Z</time>
      </trkpt>
      <trkpt lat="43.7954" lon="3.58954">
        <ele>567.8</ele>
        <time>2020-01-19T10:24:08.000Z</time>
      </trkpt>
      <trkpt lat="43.79545" lon="3.58954">
        <ele>568.3</ele>
        <time>2020-01-19T10:24:34.000Z</time>
      </trkpt>
      <trkpt lat="43.79538" lon="3.58955">
        <ele>568.3</ele>
        <time>2020-01-19T10:24:53.000Z</time>
      </trkpt>
      <trkpt lat="43.79539" lon="3.58954">
        <ele>567.8</ele>
        <time>2020-01-19T10:25:16.000Z</time>
      </trkpt>
      <trkpt lat="43.79537" lon="3.58949">
        <ele>565.4</ele>
        <time>2020-01-19T10:25:36.000Z</time>
      </trkpt>
      <trkpt lat="43.79538" lon="3.58945">
        <ele>565.4</ele>
        <time>2020-01-19T10:26:01.000Z</time>
      </trkpt>
      <trkpt lat="43.79534" lon="3.5894">
        <ele>567.3</ele>
        <time>2020-01-19T10:26:12.000Z</time>
      </trkpt>
      <trkpt lat="43.7953" lon="3.58941">
        <ele>570.7</ele>
        <time>2020-01-19T10:26:25.000Z</time>
      </trkpt>
      <trkpt lat="43.79526" lon="3.58938">
        <ele>571.6</ele>
        <time>2020-01-19T10:26:35.000Z</time>
      </trkpt>
      <trkpt lat="43.79524" lon="3.58941">
        <ele>574</ele>
        <time>2020-01-19T10:26:47.000Z</time>
      </trkpt>
      <trkpt lat="43.79523" lon="3.58941">
        <ele>576</ele>
        <time>2020-01-19T10:27:01.000Z</time>
      </trkpt>
      <trkpt lat="43.7952" lon="3.58942">
        <ele>575.5</ele>
        <time>2020-01-19T10:27:18.000Z</time>
      </trkpt>
      <trkpt lat="43.79517" lon="3.58936">
        <ele>575.5</ele>
        <time>2020-01-19T10:27:31.000Z</time>
      </trkpt>
      <trkpt lat="43.79513" lon="3.58933">
        <ele>576.5</ele>
        <time>2020-01-19T10:27:43.000Z</time>
      </trkpt>
      <trkpt lat="43.79512" lon="3.58926">
        <ele>575</ele>
        <time>2020-01-19T10:27:54.000Z</time>
      </trkpt>
      <trkpt lat="43.79515" lon="3.58914">
        <ele>572.1</ele>
        <time>2020-01-19T10:28:07.000Z</time>
      </trkpt>
      <trkpt lat="43.79505" lon="3.5891">
        <ele>574.5</ele>
        <time>2020-01-19T10:28:23.000Z</time>
      </trkpt>
      <trkpt lat="43.79505" lon="3.58902">
        <ele>575.5</ele>
        <time>2020-01-19T10:28:33.000Z</time>
      </trkpt>
      <trkpt lat="43.79498" lon="3.58894">
        <ele>577.4</ele>
        <time>2020-01-19T10:28:49.000Z</time>
      </trkpt>
      <trkpt lat="43.79492" lon="3.58884">
        <ele>579.3</ele>
        <time>2020-01-19T10:29:04.000Z</time>
      </trkpt>
      <trkpt lat="43.79486" lon="3.58876">
        <ele>580.3</ele>
        <time>2020-01-19T10:29:19.000Z</time>
      </trkpt>
      <trkpt lat="43.79482" lon="3.58866">
        <ele>580.3</ele>
        <time>2020-01-19T10:29:33.000Z</time>
      </trkpt>
      <trkpt lat="43.79477" lon="3.58858">
        <ele>580.3</ele>
        <time>2020-01-19T10:29:45.000Z</time>
      </trkpt>
      <trkpt lat="43.79472" lon="3.58849">
        <ele>580.8</ele>
        <time>2020-01-19T10:29:59.000Z</time>
      </trkpt>
      <trkpt lat="43.79473" lon="3.58845">
        <ele>581.7</ele>
        <time>2020-01-19T10:30:14.000Z</time>
      </trkpt>
      <trkpt lat="43.7947" lon="3.58845">
        <ele>581.7</ele>
        <time>2020-01-19T10:30:46.000Z</time>
      </trkpt>
      <trkpt lat="43.7947" lon="3.58846">
        <ele>581.7</ele>
        <time>2020-01-19T10:31:16.000Z</time>
      </trkpt>
      <trkpt lat="43.79467" lon="3.58845">
        <ele>582.2</ele>
        <time>2020-01-19T10:31:44.000Z</time>
      </trkpt>
      <trkpt lat="43.79462" lon="3.58833">
        <ele>585.1</ele>
        <time>2020-01-19T10:32:02.000Z</time>
      </trkpt>
      <trkpt lat="43.79455" lon="3.58835">
        <ele>588</ele>
        <time>2020-01-19T10:32:17.000Z</time>
      </trkpt>
      <trkpt lat="43.79447" lon="3.58837">
        <ele>589.4</ele>
        <time>2020-01-19T10:32:37.000Z</time>
      </trkpt>
      <trkpt lat="43.79437" lon="3.58834">
        <ele>590.4</ele>
        <time>2020-01-19T10:32:54.000Z</time>
      </trkpt>
      <trkpt lat="43.7943" lon="3.5883">
        <ele>590.4</ele>
        <time>2020-01-19T10:33:07.000Z</time>
      </trkpt>
      <trkpt lat="43.79425" lon="3.58824">
        <ele>591.8</ele>
        <time>2020-01-19T10:33:20.000Z</time>
      </trkpt>
      <trkpt lat="43.79417" lon="3.58818">
        <ele>593.3</ele>
        <time>2020-01-19T10:33:35.000Z</time>
      </trkpt>
      <trkpt lat="43.79409" lon="3.58812">
        <ele>592.8</ele>
        <time>2020-01-19T10:33:49.000Z</time>
      </trkpt>
      <trkpt lat="43.79404" lon="3.5881">
        <ele>592.3</ele>
        <time>2020-01-19T10:34:03.000Z</time>
      </trkpt>
      <trkpt lat="43.794" lon="3.58814">
        <ele>595.2</ele>
        <time>2020-01-19T10:34:19.000Z</time>
      </trkpt>
      <trkpt lat="43.79395" lon="3.58813">
        <ele>598.1</ele>
        <time>2020-01-19T10:34:35.000Z</time>
      </trkpt>
      <trkpt lat="43.79386" lon="3.58811">
        <ele>600.5</ele>
        <time>2020-01-19T10:34:49.000Z</time>
      </trkpt>
      <trkpt lat="43.79381" lon="3.5881">
        <ele>603.8</ele>
        <time>2020-01-19T10:35:05.000Z</time>
      </trkpt>
      <trkpt lat="43.79374" lon="3.58803">
        <ele>605.8</ele>
        <time>2020-01-19T10:35:19.000Z</time>
      </trkpt>
      <trkpt lat="43.79366" lon="3.58803">
        <ele>608.2</ele>
        <time>2020-01-19T10:35:34.000Z</time>
      </trkpt>
      <trkpt lat="43.7936" lon="3.58798">
        <ele>610.1</ele>
        <time>2020-01-19T10:35:49.000Z</time>
      </trkpt>
      <trkpt lat="43.7935" lon="3.58794">
        <ele>612.5</ele>
        <time>2020-01-19T10:36:05.000Z</time>
      </trkpt>
      <trkpt lat="43.79342" lon="3.58788">
        <ele>614.4</ele>
        <time>2020-01-19T10:36:20.000Z</time>
      </trkpt>
      <trkpt lat="43.79335" lon="3.58782">
        <ele>616.3</ele>
        <time>2020-01-19T10:36:35.000Z</time>
      </trkpt>
      <trkpt lat="43.79326" lon="3.58775">
        <ele>618.3</ele>
        <time>2020-01-19T10:36:51.000Z</time>
      </trkpt>
      <trkpt lat="43.7932" lon="3.58766">
        <ele>621.2</ele>
        <time>2020-01-19T10:37:09.000Z</time>
      </trkpt>
      <trkpt lat="43.79313" lon="3.58756">
        <ele>622.6</ele>
        <time>2020-01-19T10:37:24.000Z</time>
      </trkpt>
      <trkpt lat="43.79305" lon="3.58749">
        <ele>625</ele>
        <time>2020-01-19T10:37:40.000Z</time>
      </trkpt>
      <trkpt lat="43.79298" lon="3.58745">
        <ele>627.4</ele>
        <time>2020-01-19T10:37:56.000Z</time>
      </trkpt>
      <trkpt lat="43.79293" lon="3.58747">
        <ele>630.3</ele>
        <time>2020-01-19T10:38:12.000Z</time>
      </trkpt>
      <trkpt lat="43.79289" lon="3.58743">
        <ele>632.7</ele>
        <time>2020-01-19T10:38:26.000Z</time>
      </trkpt>
      <trkpt lat="43.79284" lon="3.58735">
        <ele>634.6</ele>
        <time>2020-01-19T10:38:38.000Z</time>
      </trkpt>
      <trkpt lat="43.79276" lon="3.58725">
        <ele>635.6</ele>
        <time>2020-01-19T10:38:53.000Z</time>
      </trkpt>
      <trkpt lat="43.79271" lon="3.58716">
        <ele>636</ele>
        <time>2020-01-19T10:39:06.000Z</time>
      </trkpt>
      <trkpt lat="43.79265" lon="3.58706">
        <ele>638</ele>
        <time>2020-01-19T10:39:23.000Z</time>
      </trkpt>
      <trkpt lat="43.79257" lon="3.58699">
        <ele>640.4</ele>
        <time>2020-01-19T10:39:39.000Z</time>
      </trkpt>
      <trkpt lat="43.7925" lon="3.58691">
        <ele>643.3</ele>
        <time>2020-01-19T10:39:57.000Z</time>
      </trkpt>
      <trkpt lat="43.79248" lon="3.58685">
        <ele>643.7</ele>
        <time>2020-01-19T10:40:09.000Z</time>
      </trkpt>
      <trkpt lat="43.79245" lon="3.58677">
        <ele>644.7</ele>
        <time>2020-01-19T10:40:23.000Z</time>
      </trkpt>
      <trkpt lat="43.79238" lon="3.58672">
        <ele>647.1</ele>
        <time>2020-01-19T10:40:39.000Z</time>
      </trkpt>
      <trkpt lat="43.79234" lon="3.58663">
        <ele>649</ele>
        <time>2020-01-19T10:40:54.000Z</time>
      </trkpt>
      <trkpt lat="43.79227" lon="3.58658">
        <ele>650.5</ele>
        <time>2020-01-19T10:41:09.000Z</time>
      </trkpt>
      <trkpt lat="43.79219" lon="3.58653">
        <ele>653.3</ele>
        <time>2020-01-19T10:41:24.000Z</time>
      </trkpt>
      <trkpt lat="43.7922" lon="3.58656">
        <ele>653.8</ele>
        <time>2020-01-19T10:41:47.000Z</time>
      </trkpt>
      <trkpt lat="43.7922" lon="3.58654">
        <ele>653.3</ele>
        <time>2020-01-19T10:42:12.000Z</time>
      </trkpt>
      <trkpt lat="43.79223" lon="3.58656">
        <ele>653.3</ele>
        <time>2020-01-19T10:42:49.000Z</time>
      </trkpt>
      <trkpt lat="43.79218" lon="3.58648">
        <ele>652.9</ele>
        <time>2020-01-19T10:43:12.000Z</time>
      </trkpt>
      <trkpt lat="43.79223" lon="3.58647">
        <ele>652.9</ele>
        <time>2020-01-19T10:43:29.000Z</time>
      </trkpt>
      <trkpt lat="43.79225" lon="3.58659">
        <ele>652.9</ele>
        <time>2020-01-19T10:43:53.000Z</time>
      </trkpt>
      <trkpt lat="43.79217" lon="3.58658">
        <ele>652.9</ele>
        <time>2020-01-19T10:44:16.000Z</time>
      </trkpt>
      <trkpt lat="43.7922" lon="3.58656">
        <ele>653.3</ele>
        <time>2020-01-19T10:44:41.000Z</time>
      </trkpt>
      <trkpt lat="43.79219" lon="3.58652">
        <ele>652.9</ele>
        <time>2020-01-19T10:45:05.000Z</time>
      </trkpt>
      <trkpt lat="43.79223" lon="3.5865">
        <ele>653.3</ele>
        <time>2020-01-19T10:45:33.000Z</time>
      </trkpt>
      <trkpt lat="43.79218" lon="3.58646">
        <ele>652.9</ele>
        <time>2020-01-19T10:46:03.000Z</time>
      </trkpt>
      <trkpt lat="43.79216" lon="3.58648">
        <ele>652.9</ele>
        <time>2020-01-19T10:46:24.000Z</time>
      </trkpt>
      <trkpt lat="43.79221" lon="3.58636">
        <ele>653.3</ele>
        <time>2020-01-19T10:46:40.000Z</time>
      </trkpt>
      <trkpt lat="43.79217" lon="3.58624">
        <ele>653.8</ele>
        <time>2020-01-19T10:46:55.000Z</time>
      </trkpt>
      <trkpt lat="43.7921" lon="3.58616">
        <ele>655.8</ele>
        <time>2020-01-19T10:47:12.000Z</time>
      </trkpt>
      <trkpt lat="43.79202" lon="3.58609">
        <ele>656.7</ele>
        <time>2020-01-19T10:47:27.000Z</time>
      </trkpt>
      <trkpt lat="43.79194" lon="3.58603">
        <ele>657.7</ele>
        <time>2020-01-19T10:47:42.000Z</time>
      </trkpt>
      <trkpt lat="43.79183" lon="3.58598">
        <ele>657.7</ele>
        <time>2020-01-19T10:47:57.000Z</time>
      </trkpt>
      <trkpt lat="43.79177" lon="3.58585">
        <ele>658.2</ele>
        <time>2020-01-19T10:48:12.000Z</time>
      </trkpt>
      <trkpt lat="43.79167" lon="3.58573">
        <ele>657.7</ele>
        <time>2020-01-19T10:48:26.000Z</time>
      </trkpt>
      <trkpt lat="43.79163" lon="3.58571">
        <ele>657.2</ele>
        <time>2020-01-19T10:48:30.000Z</time>
      </trkpt>
      <trkpt lat="43.79151" lon="3.58573">
        <ele>656.7</ele>
        <time>2020-01-19T10:48:46.000Z</time>
      </trkpt>
      <trkpt lat="43.79146" lon="3.58557">
        <ele>655.8</ele>
        <time>2020-01-19T10:49:03.000Z</time>
      </trkpt>
      <trkpt lat="43.79139" lon="3.58547">
        <ele>654.3</ele>
        <time>2020-01-19T10:49:16.000Z</time>
      </trkpt>
      <trkpt lat="43.79126" lon="3.5854">
        <ele>652.9</ele>
        <time>2020-01-19T10:49:34.000Z</time>
      </trkpt>
      <trkpt lat="43.79123" lon="3.58524">
        <ele>652.4</ele>
        <time>2020-01-19T10:49:50.000Z</time>
      </trkpt>
      <trkpt lat="43.79122" lon="3.58512">
        <ele>651</ele>
        <time>2020-01-19T10:50:06.000Z</time>
      </trkpt>
      <trkpt lat="43.79114" lon="3.58506">
        <ele>650.5</ele>
        <time>2020-01-19T10:50:21.000Z</time>
      </trkpt>
      <trkpt lat="43.79107" lon="3.58501">
        <ele>650.5</ele>
        <time>2020-01-19T10:50:36.000Z</time>
      </trkpt>
      <trkpt lat="43.79099" lon="3.58493">
        <ele>649.5</ele>
        <time>2020-01-19T10:50:50.000Z</time>
      </trkpt>
      <trkpt lat="43.79091" lon="3.58486">
        <ele>648.1</ele>
        <time>2020-01-19T10:51:04.000Z</time>
      </trkpt>
      <trkpt lat="43.79082" lon="3.5848">
        <ele>648.1</ele>
        <time>2020-01-19T10:51:18.000Z</time>
      </trkpt>
      <trkpt lat="43.79075" lon="3.58474">
        <ele>646.6</ele>
        <time>2020-01-19T10:51:33.000Z</time>
      </trkpt>
      <trkpt lat="43.79067" lon="3.58478">
        <ele>646.6</ele>
        <time>2020-01-19T10:51:47.000Z</time>
      </trkpt>
      <trkpt lat="43.79066" lon="3.58477">
        <ele>646.6</ele>
        <time>2020-01-19T10:51:51.000Z</time>
      </trkpt>
      <trkpt lat="43.79067" lon="3.58483">
        <ele>644.2</ele>
        <time>2020-01-19T11:52:13.000Z</time>
      </trkpt>
      <trkpt lat="43.79067" lon="3.58483">
        <ele>643.7</ele>
        <time>2020-01-19T11:52:32.000Z</time>
      </trkpt>
      <trkpt lat="43.79066" lon="3.58483">
        <ele>643.3</ele>
        <time>2020-01-19T11:52:55.000Z</time>
      </trkpt>
      <trkpt lat="43.79066" lon="3.58483">
        <ele>642.8</ele>
        <time>2020-01-19T11:53:11.000Z</time>
      </trkpt>
      <trkpt lat="43.79066" lon="3.58483">
        <ele>643.3</ele>
        <time>2020-01-19T11:53:24.000Z</time>
      </trkpt>
      <trkpt lat="43.79063" lon="3.58482">
        <ele>643.3</ele>
        <time>2020-01-19T11:53:34.000Z</time>
      </trkpt>
      <trkpt lat="43.79057" lon="3.5848">
        <ele>642.8</ele>
        <time>2020-01-19T11:53:47.000Z</time>
      </trkpt>
      <trkpt lat="43.79054" lon="3.58477">
        <ele>642.8</ele>
        <time>2020-01-19T11:53:52.000Z</time>
      </trkpt>
      <trkpt lat="43.7905" lon="3.58474">
        <ele>643.3</ele>
        <time>2020-01-19T11:53:58.000Z</time>
      </trkpt>
      <trkpt lat="43.79046" lon="3.58474">
        <ele>642.8</ele>
        <time>2020-01-19T11:54:02.000Z</time>
      </trkpt>
      <trkpt lat="43.79038" lon="3.58474">
        <ele>643.7</ele>
        <time>2020-01-19T11:54:13.000Z</time>
      </trkpt>
      <trkpt lat="43.79035" lon="3.58473">
        <ele>642.8</ele>
        <time>2020-01-19T11:54:17.000Z</time>
      </trkpt>
      <trkpt lat="43.79031" lon="3.58466">
        <ele>643.7</ele>
        <time>2020-01-19T11:54:29.000Z</time>
      </trkpt>
      <trkpt lat="43.79032" lon="3.58465">
        <ele>643.7</ele>
        <time>2020-01-19T11:54:42.000Z</time>
      </trkpt>
      <trkpt lat="43.79028" lon="3.58464">
        <ele>643.7</ele>
        <time>2020-01-19T11:54:52.000Z</time>
      </trkpt>
      <trkpt lat="43.79024" lon="3.58455">
        <ele>643.7</ele>
        <time>2020-01-19T11:55:04.000Z</time>
      </trkpt>
      <trkpt lat="43.79019" lon="3.58459">
        <ele>642.8</ele>
        <time>2020-01-19T11:55:16.000Z</time>
      </trkpt>
      <trkpt lat="43.79017" lon="3.58458">
        <ele>641.3</ele>
        <time>2020-01-19T11:55:31.000Z</time>
      </trkpt>
      <trkpt lat="43.79015" lon="3.58453">
        <ele>640.4</ele>
        <time>2020-01-19T11:55:44.000Z</time>
      </trkpt>
      <trkpt lat="43.79016" lon="3.5845">
        <ele>640.4</ele>
        <time>2020-01-19T11:55:51.000Z</time>
      </trkpt>
      <trkpt lat="43.79015" lon="3.58448">
        <ele>638.5</ele>
        <time>2020-01-19T11:56:06.000Z</time>
      </trkpt>
      <trkpt lat="43.79014" lon="3.58444">
        <ele>637.5</ele>
        <time>2020-01-19T11:56:21.000Z</time>
      </trkpt>
      <trkpt lat="43.79018" lon="3.58443">
        <ele>635.1</ele>
        <time>2020-01-19T11:56:36.000Z</time>
      </trkpt>
      <trkpt lat="43.79018" lon="3.58439">
        <ele>632.7</ele>
        <time>2020-01-19T11:56:50.000Z</time>
      </trkpt>
      <trkpt lat="43.79016" lon="3.58438">
        <ele>631.7</ele>
        <time>2020-01-19T11:57:04.000Z</time>
      </trkpt>
      <trkpt lat="43.79019" lon="3.58442">
        <ele>632.2</ele>
        <time>2020-01-19T11:57:34.000Z</time>
      </trkpt>
      <trkpt lat="43.79017" lon="3.58438">
        <ele>632.2</ele>
        <time>2020-01-19T11:58:01.000Z</time>
      </trkpt>
      <trkpt lat="43.79017" lon="3.58436">
        <ele>631.2</ele>
        <time>2020-01-19T11:58:24.000Z</time>
      </trkpt>
      <trkpt lat="43.79021" lon="3.5843">
        <ele>628.4</ele>
        <time>2020-01-19T11:58:35.000Z</time>
      </trkpt>
      <trkpt lat="43.79019" lon="3.58425">
        <ele>626.9</ele>
        <time>2020-01-19T11:58:54.000Z</time>
      </trkpt>
      <trkpt lat="43.79027" lon="3.58424">
        <ele>625.5</ele>
        <time>2020-01-19T11:59:15.000Z</time>
      </trkpt>
      <trkpt lat="43.79031" lon="3.58418">
        <ele>622.6</ele>
        <time>2020-01-19T11:59:30.000Z</time>
      </trkpt>
      <trkpt lat="43.79033" lon="3.58414">
        <ele>620.2</ele>
        <time>2020-01-19T11:59:47.000Z</time>
      </trkpt>
      <trkpt lat="43.79035" lon="3.58409">
        <ele>617.3</ele>
        <time>2020-01-19T12:00:04.000Z</time>
      </trkpt>
      <trkpt lat="43.79034" lon="3.58407">
        <ele>617.3</ele>
        <time>2020-01-19T12:00:34.000Z</time>
      </trkpt>
      <trkpt lat="43.79035" lon="3.58406">
        <ele>615.4</ele>
        <time>2020-01-19T12:00:56.000Z</time>
      </trkpt>
      <trkpt lat="43.79034" lon="3.58409">
        <ele>615.9</ele>
        <time>2020-01-19T12:01:16.000Z</time>
      </trkpt>
      <trkpt lat="43.79033" lon="3.58407">
        <ele>613.9</ele>
        <time>2020-01-19T12:01:32.000Z</time>
      </trkpt>
      <trkpt lat="43.79033" lon="3.58405">
        <ele>614.4</ele>
        <time>2020-01-19T12:01:54.000Z</time>
      </trkpt>
      <trkpt lat="43.79033" lon="3.58404">
        <ele>614.4</ele>
        <time>2020-01-19T12:02:14.000Z</time>
      </trkpt>
      <trkpt lat="43.79033" lon="3.58405">
        <ele>614.4</ele>
        <time>2020-01-19T12:02:39.000Z</time>
      </trkpt>
      <trkpt lat="43.7903" lon="3.58401">
        <ele>614.4</ele>
        <time>2020-01-19T12:03:05.000Z</time>
      </trkpt>
      <trkpt lat="43.79031" lon="3.58404">
        <ele>614.9</ele>
        <time>2020-01-19T12:03:35.000Z</time>
      </trkpt>
      <trkpt lat="43.79032" lon="3.58405">
        <ele>614.9</ele>
        <time>2020-01-19T12:03:57.000Z</time>
      </trkpt>
      <trkpt lat="43.79034" lon="3.58405">
        <ele>614.9</ele>
        <time>2020-01-19T12:04:25.000Z</time>
      </trkpt>
      <trkpt lat="43.79034" lon="3.58408">
        <ele>614.9</ele>
        <time>2020-01-19T12:04:54.000Z</time>
      </trkpt>
      <trkpt lat="43.79034" lon="3.58405">
        <ele>614.4</ele>
        <time>2020-01-19T12:05:21.000Z</time>
      </trkpt>
      <trkpt lat="43.79032" lon="3.58402">
        <ele>612.5</ele>
        <time>2020-01-19T12:05:33.000Z</time>
      </trkpt>
      <trkpt lat="43.79031" lon="3.58399">
        <ele>610.1</ele>
        <time>2020-01-19T12:05:46.000Z</time>
      </trkpt>
      <trkpt lat="43.79028" lon="3.584">
        <ele>608.2</ele>
        <time>2020-01-19T12:06:00.000Z</time>
      </trkpt>
      <trkpt lat="43.79025" lon="3.58398">
        <ele>606.7</ele>
        <time>2020-01-19T12:06:17.000Z</time>
      </trkpt>
      <trkpt lat="43.79025" lon="3.58395">
        <ele>604.3</ele>
        <time>2020-01-19T12:06:30.000Z</time>
      </trkpt>
      <trkpt lat="43.79021" lon="3.5839">
        <ele>601</ele>
        <time>2020-01-19T12:06:42.000Z</time>
      </trkpt>
      <trkpt lat="43.79021" lon="3.58382">
        <ele>598.1</ele>
        <time>2020-01-19T12:06:51.000Z</time>
      </trkpt>
      <trkpt lat="43.79021" lon="3.58376">
        <ele>594.7</ele>
        <time>2020-01-19T12:07:01.000Z</time>
      </trkpt>
      <trkpt lat="43.7902" lon="3.58366">
        <ele>592.3</ele>
        <time>2020-01-19T12:07:17.000Z</time>
      </trkpt>
      <trkpt lat="43.79016" lon="3.58359">
        <ele>589.9</ele>
        <time>2020-01-19T12:07:30.000Z</time>
      </trkpt>
      <trkpt lat="43.79014" lon="3.58353">
        <ele>589</ele>
        <time>2020-01-19T12:07:50.000Z</time>
      </trkpt>
      <trkpt lat="43.79014" lon="3.58354">
        <ele>589</ele>
        <time>2020-01-19T12:08:05.000Z</time>
      </trkpt>
      <trkpt lat="43.79013" lon="3.58353">
        <ele>588.5</ele>
        <time>2020-01-19T12:08:32.000Z</time>
      </trkpt>
      <trkpt lat="43.79015" lon="3.58342">
        <ele>586.5</ele>
        <time>2020-01-19T12:08:42.000Z</time>
      </trkpt>
      <trkpt lat="43.79016" lon="3.58339">
        <ele>585.6</ele>
        <time>2020-01-19T12:08:46.000Z</time>
      </trkpt>
      <trkpt lat="43.79023" lon="3.58331">
        <ele>584.1</ele>
        <time>2020-01-19T12:08:56.000Z</time>
      </trkpt>
      <trkpt lat="43.79025" lon="3.58328">
        <ele>583.2</ele>
        <time>2020-01-19T12:09:02.000Z</time>
      </trkpt>
      <trkpt lat="43.79032" lon="3.5832">
        <ele>581.2</ele>
        <time>2020-01-19T12:09:11.000Z</time>
      </trkpt>
      <trkpt lat="43.79042" lon="3.5831">
        <ele>577.4</ele>
        <time>2020-01-19T12:09:26.000Z</time>
      </trkpt>
      <trkpt lat="43.79054" lon="3.58298">
        <ele>574</ele>
        <time>2020-01-19T12:09:40.000Z</time>
      </trkpt>
      <trkpt lat="43.79063" lon="3.58286">
        <ele>570.7</ele>
        <time>2020-01-19T12:09:52.000Z</time>
      </trkpt>
      <trkpt lat="43.79066" lon="3.5827">
        <ele>567.3</ele>
        <time>2020-01-19T12:10:05.000Z</time>
      </trkpt>
      <trkpt lat="43.7907" lon="3.58258">
        <ele>565.4</ele>
        <time>2020-01-19T12:10:19.000Z</time>
      </trkpt>
      <trkpt lat="43.79077" lon="3.58236">
        <ele>562.5</ele>
        <time>2020-01-19T12:10:37.000Z</time>
      </trkpt>
      <trkpt lat="43.79084" lon="3.58225">
        <ele>561.1</ele>
        <time>2020-01-19T12:10:51.000Z</time>
      </trkpt>
      <trkpt lat="43.79098" lon="3.58227">
        <ele>558.7</ele>
        <time>2020-01-19T12:11:06.000Z</time>
      </trkpt>
      <trkpt lat="43.79107" lon="3.58216">
        <ele>555.3</ele>
        <time>2020-01-19T12:11:19.000Z</time>
      </trkpt>
      <trkpt lat="43.79113" lon="3.582">
        <ele>552.4</ele>
        <time>2020-01-19T12:11:34.000Z</time>
      </trkpt>
      <trkpt lat="43.7911" lon="3.58191">
        <ele>551.5</ele>
        <time>2020-01-19T12:11:50.000Z</time>
      </trkpt>
      <trkpt lat="43.79104" lon="3.5818">
        <ele>550</ele>
        <time>2020-01-19T12:12:04.000Z</time>
      </trkpt>
      <trkpt lat="43.79101" lon="3.58165">
        <ele>548.1</ele>
        <time>2020-01-19T12:12:19.000Z</time>
      </trkpt>
      <trkpt lat="43.79096" lon="3.58152">
        <ele>547.1</ele>
        <time>2020-01-19T12:12:32.000Z</time>
      </trkpt>
      <trkpt lat="43.79092" lon="3.58144">
        <ele>546.2</ele>
        <time>2020-01-19T12:12:47.000Z</time>
      </trkpt>
      <trkpt lat="43.79089" lon="3.58141">
        <ele>546.2</ele>
        <time>2020-01-19T12:13:09.000Z</time>
      </trkpt>
      <trkpt lat="43.79082" lon="3.58129">
        <ele>544.7</ele>
        <time>2020-01-19T12:13:24.000Z</time>
      </trkpt>
      <trkpt lat="43.79078" lon="3.58121">
        <ele>544.7</ele>
        <time>2020-01-19T12:13:36.000Z</time>
      </trkpt>
      <trkpt lat="43.79074" lon="3.58106">
        <ele>545.2</ele>
        <time>2020-01-19T12:13:49.000Z</time>
      </trkpt>
      <trkpt lat="43.79068" lon="3.58093">
        <ele>546.7</ele>
        <time>2020-01-19T12:14:05.000Z</time>
      </trkpt>
      <trkpt lat="43.79063" lon="3.58082">
        <ele>545.2</ele>
        <time>2020-01-19T12:14:19.000Z</time>
      </trkpt>
      <trkpt lat="43.79055" lon="3.58069">
        <ele>544.2</ele>
        <time>2020-01-19T12:14:34.000Z</time>
      </trkpt>
      <trkpt lat="43.79049" lon="3.58054">
        <ele>545.2</ele>
        <time>2020-01-19T12:14:53.000Z</time>
      </trkpt>
      <trkpt lat="43.79044" lon="3.58042">
        <ele>547.1</ele>
        <time>2020-01-19T12:15:09.000Z</time>
      </trkpt>
      <trkpt lat="43.79043" lon="3.58039">
        <ele>546.7</ele>
        <time>2020-01-19T12:15:29.000Z</time>
      </trkpt>
      <trkpt lat="43.79042" lon="3.58041">
        <ele>546.7</ele>
        <time>2020-01-19T12:15:56.000Z</time>
      </trkpt>
      <trkpt lat="43.79041" lon="3.58046">
        <ele>546.7</ele>
        <time>2020-01-19T12:16:18.000Z</time>
      </trkpt>
      <trkpt lat="43.79035" lon="3.58042">
        <ele>546.7</ele>
        <time>2020-01-19T12:16:34.000Z</time>
      </trkpt>
      <trkpt lat="43.79028" lon="3.58041">
        <ele>549</ele>
        <time>2020-01-19T12:16:48.000Z</time>
      </trkpt>
      <trkpt lat="43.79021" lon="3.58033">
        <ele>551.5</ele>
        <time>2020-01-19T12:17:03.000Z</time>
      </trkpt>
      <trkpt lat="43.79017" lon="3.58023">
        <ele>554.3</ele>
        <time>2020-01-19T12:17:19.000Z</time>
      </trkpt>
      <trkpt lat="43.79015" lon="3.58011">
        <ele>556.3</ele>
        <time>2020-01-19T12:17:33.000Z</time>
      </trkpt>
      <trkpt lat="43.79011" lon="3.58003">
        <ele>558.7</ele>
        <time>2020-01-19T12:17:48.000Z</time>
      </trkpt>
      <trkpt lat="43.79002" lon="3.57994">
        <ele>561.5</ele>
        <time>2020-01-19T12:18:03.000Z</time>
      </trkpt>
      <trkpt lat="43.78995" lon="3.57988">
        <ele>563</ele>
        <time>2020-01-19T12:18:16.000Z</time>
      </trkpt>
      <trkpt lat="43.78995" lon="3.57987">
        <ele>562</ele>
        <time>2020-01-19T12:18:30.000Z</time>
      </trkpt>
      <trkpt lat="43.78998" lon="3.5798">
        <ele>564.9</ele>
        <time>2020-01-19T12:18:43.000Z</time>
      </trkpt>
      <trkpt lat="43.79003" lon="3.57976">
        <ele>567.3</ele>
        <time>2020-01-19T12:18:59.000Z</time>
      </trkpt>
      <trkpt lat="43.79006" lon="3.57966">
        <ele>570.2</ele>
        <time>2020-01-19T12:19:15.000Z</time>
      </trkpt>
      <trkpt lat="43.79002" lon="3.57961">
        <ele>572.1</ele>
        <time>2020-01-19T12:19:27.000Z</time>
      </trkpt>
      <trkpt lat="43.79004" lon="3.57962">
        <ele>571.6</ele>
        <time>2020-01-19T12:19:29.000Z</time>
      </trkpt>
      <trkpt lat="43.7901" lon="3.57961">
        <ele>571.6</ele>
        <time>2020-01-19T12:19:42.000Z</time>
      </trkpt>
      <trkpt lat="43.79006" lon="3.57965">
        <ele>570.7</ele>
        <time>2020-01-19T12:19:54.000Z</time>
      </trkpt>
      <trkpt lat="43.79004" lon="3.57968">
        <ele>570.2</ele>
        <time>2020-01-19T12:20:00.000Z</time>
      </trkpt>
      <trkpt lat="43.79002" lon="3.57977">
        <ele>566.8</ele>
        <time>2020-01-19T12:20:14.000Z</time>
      </trkpt>
      <trkpt lat="43.78999" lon="3.57978">
        <ele>565.4</ele>
        <time>2020-01-19T12:20:26.000Z</time>
      </trkpt>
      <trkpt lat="43.78994" lon="3.57983">
        <ele>562.5</ele>
        <time>2020-01-19T12:20:38.000Z</time>
      </trkpt>
      <trkpt lat="43.78983" lon="3.5798">
        <ele>561.1</ele>
        <time>2020-01-19T12:20:54.000Z</time>
      </trkpt>
      <trkpt lat="43.78977" lon="3.57975">
        <ele>558.7</ele>
        <time>2020-01-19T12:21:08.000Z</time>
      </trkpt>
      <trkpt lat="43.78963" lon="3.57968">
        <ele>556.3</ele>
        <time>2020-01-19T12:21:26.000Z</time>
      </trkpt>
      <trkpt lat="43.78961" lon="3.57965">
        <ele>555.8</ele>
        <time>2020-01-19T12:21:29.000Z</time>
      </trkpt>
      <trkpt lat="43.78954" lon="3.57958">
        <ele>555.8</ele>
        <time>2020-01-19T12:21:42.000Z</time>
      </trkpt>
      <trkpt lat="43.78953" lon="3.57957">
        <ele>555.8</ele>
        <time>2020-01-19T12:21:43.000Z</time>
      </trkpt>
      <trkpt lat="43.78943" lon="3.57949">
        <ele>554.8</ele>
        <time>2020-01-19T12:21:55.000Z</time>
      </trkpt>
      <trkpt lat="43.78941" lon="3.57948">
        <ele>555.8</ele>
        <time>2020-01-19T12:22:07.000Z</time>
      </trkpt>
      <trkpt lat="43.78938" lon="3.57944">
        <ele>554.8</ele>
        <time>2020-01-19T12:22:17.000Z</time>
      </trkpt>
      <trkpt lat="43.78935" lon="3.57942">
        <ele>554.3</ele>
        <time>2020-01-19T12:22:36.000Z</time>
      </trkpt>
      <trkpt lat="43.78932" lon="3.57939">
        <ele>554.8</ele>
        <time>2020-01-19T12:22:56.000Z</time>
      </trkpt>
      <trkpt lat="43.7893" lon="3.57938">
        <ele>554.3</ele>
        <time>2020-01-19T12:23:00.000Z</time>
      </trkpt>
      <trkpt lat="43.78925" lon="3.57934">
        <ele>553.9</ele>
        <time>2020-01-19T12:23:07.000Z</time>
      </trkpt>
      <trkpt lat="43.78914" lon="3.57928">
        <ele>551.9</ele>
        <time>2020-01-19T12:23:21.000Z</time>
      </trkpt>
      <trkpt lat="43.78901" lon="3.57917">
        <ele>548.6</ele>
        <time>2020-01-19T12:23:37.000Z</time>
      </trkpt>
      <trkpt lat="43.78887" lon="3.57899">
        <ele>547.6</ele>
        <time>2020-01-19T12:23:54.000Z</time>
      </trkpt>
      <trkpt lat="43.78875" lon="3.57893">
        <ele>546.2</ele>
        <time>2020-01-19T12:24:06.000Z</time>
      </trkpt>
      <trkpt lat="43.78864" lon="3.57884">
        <ele>545.7</ele>
        <time>2020-01-19T12:24:21.000Z</time>
      </trkpt>
      <trkpt lat="43.78852" lon="3.5787">
        <ele>545.7</ele>
        <time>2020-01-19T12:24:36.000Z</time>
      </trkpt>
      <trkpt lat="43.7884" lon="3.57859">
        <ele>545.2</ele>
        <time>2020-01-19T12:24:48.000Z</time>
      </trkpt>
      <trkpt lat="43.78827" lon="3.57849">
        <ele>544.7</ele>
        <time>2020-01-19T12:25:04.000Z</time>
      </trkpt>
      <trkpt lat="43.78819" lon="3.57843">
        <ele>543.8</ele>
        <time>2020-01-19T12:25:14.000Z</time>
      </trkpt>
      <trkpt lat="43.78814" lon="3.57833">
        <ele>544.2</ele>
        <time>2020-01-19T12:25:21.000Z</time>
      </trkpt>
      <trkpt lat="43.78808" lon="3.57816">
        <ele>545.2</ele>
        <time>2020-01-19T12:25:35.000Z</time>
      </trkpt>
      <trkpt lat="43.78804" lon="3.57799">
        <ele>545.7</ele>
        <time>2020-01-19T12:25:49.000Z</time>
      </trkpt>
      <trkpt lat="43.78798" lon="3.5778">
        <ele>545.2</ele>
        <time>2020-01-19T12:26:04.000Z</time>
      </trkpt>
      <trkpt lat="43.78797" lon="3.57779">
        <ele>545.2</ele>
        <time>2020-01-19T12:26:05.000Z</time>
      </trkpt>
      <trkpt lat="43.78793" lon="3.5776">
        <ele>545.2</ele>
        <time>2020-01-19T12:26:19.000Z</time>
      </trkpt>
      <trkpt lat="43.78788" lon="3.57738">
        <ele>544.7</ele>
        <time>2020-01-19T12:26:36.000Z</time>
      </trkpt>
      <trkpt lat="43.7878" lon="3.57718">
        <ele>543.8</ele>
        <time>2020-01-19T12:26:51.000Z</time>
      </trkpt>
      <trkpt lat="43.78776" lon="3.57699">
        <ele>542.8</ele>
        <time>2020-01-19T12:27:05.000Z</time>
      </trkpt>
      <trkpt lat="43.78771" lon="3.57677">
        <ele>542.3</ele>
        <time>2020-01-19T12:27:19.000Z</time>
      </trkpt>
      <trkpt lat="43.78768" lon="3.57668">
        <ele>542.3</ele>
        <time>2020-01-19T12:27:25.000Z</time>
      </trkpt>
      <trkpt lat="43.78763" lon="3.57648">
        <ele>542.8</ele>
        <time>2020-01-19T12:27:39.000Z</time>
      </trkpt>
      <trkpt lat="43.78761" lon="3.57632">
        <ele>543.8</ele>
        <time>2020-01-19T12:27:51.000Z</time>
      </trkpt>
      <trkpt lat="43.7876" lon="3.57615">
        <ele>544.7</ele>
        <time>2020-01-19T12:28:02.000Z</time>
      </trkpt>
      <trkpt lat="43.78759" lon="3.57601">
        <ele>545.7</ele>
        <time>2020-01-19T12:28:11.000Z</time>
      </trkpt>
      <trkpt lat="43.78749" lon="3.57585">
        <ele>543.8</ele>
        <time>2020-01-19T12:28:27.000Z</time>
      </trkpt>
      <trkpt lat="43.78745" lon="3.5757">
        <ele>544.7</ele>
        <time>2020-01-19T12:28:39.000Z</time>
      </trkpt>
      <trkpt lat="43.78742" lon="3.57562">
        <ele>544.2</ele>
        <time>2020-01-19T12:28:47.000Z</time>
      </trkpt>
      <trkpt lat="43.78738" lon="3.57547">
        <ele>544.7</ele>
        <time>2020-01-19T12:28:57.000Z</time>
      </trkpt>
      <trkpt lat="43.78734" lon="3.57537">
        <ele>545.2</ele>
        <time>2020-01-19T12:29:06.000Z</time>
      </trkpt>
      <trkpt lat="43.78726" lon="3.57522">
        <ele>544.7</ele>
        <time>2020-01-19T12:29:19.000Z</time>
      </trkpt>
      <trkpt lat="43.78727" lon="3.57507">
        <ele>547.1</ele>
        <time>2020-01-19T12:29:33.000Z</time>
      </trkpt>
      <trkpt lat="43.78724" lon="3.57492">
        <ele>548.6</ele>
        <time>2020-01-19T12:29:50.000Z</time>
      </trkpt>
      <trkpt lat="43.78725" lon="3.57489">
        <ele>549</ele>
        <time>2020-01-19T12:29:52.000Z</time>
      </trkpt>
      <trkpt lat="43.78725" lon="3.57484">
        <ele>550</ele>
        <time>2020-01-19T12:29:57.000Z</time>
      </trkpt>
      <trkpt lat="43.78715" lon="3.57467">
        <ele>549.5</ele>
        <time>2020-01-19T12:30:13.000Z</time>
      </trkpt>
      <trkpt lat="43.78714" lon="3.57454">
        <ele>551</ele>
        <time>2020-01-19T12:30:26.000Z</time>
      </trkpt>
      <trkpt lat="43.78708" lon="3.57443">
        <ele>551.5</ele>
        <time>2020-01-19T12:30:38.000Z</time>
      </trkpt>
      <trkpt lat="43.78704" lon="3.57434">
        <ele>551.9</ele>
        <time>2020-01-19T12:30:47.000Z</time>
      </trkpt>
      <trkpt lat="43.78705" lon="3.57426">
        <ele>552.9</ele>
        <time>2020-01-19T12:31:01.000Z</time>
      </trkpt>
      <trkpt lat="43.78704" lon="3.57428">
        <ele>552.4</ele>
        <time>2020-01-19T12:31:36.000Z</time>
      </trkpt>
      <trkpt lat="43.78704" lon="3.57428">
        <ele>552.4</ele>
        <time>2020-01-19T12:32:14.000Z</time>
      </trkpt>
      <trkpt lat="43.78706" lon="3.57428">
        <ele>553.4</ele>
        <time>2020-01-19T12:33:04.000Z</time>
      </trkpt>
      <trkpt lat="43.78701" lon="3.57426">
        <ele>555.3</ele>
        <time>2020-01-19T12:33:22.000Z</time>
      </trkpt>
      <trkpt lat="43.78703" lon="3.57426">
        <ele>555.3</ele>
        <time>2020-01-19T12:33:51.000Z</time>
      </trkpt>
      <trkpt lat="43.78702" lon="3.57422">
        <ele>555.3</ele>
        <time>2020-01-19T12:34:12.000Z</time>
      </trkpt>
      <trkpt lat="43.78702" lon="3.57423">
        <ele>555.3</ele>
        <time>2020-01-19T12:34:38.000Z</time>
      </trkpt>
      <trkpt lat="43.78701" lon="3.57424">
        <ele>554.8</ele>
        <time>2020-01-19T12:35:08.000Z</time>
      </trkpt>
      <trkpt lat="43.78703" lon="3.57425">
        <ele>555.3</ele>
        <time>2020-01-19T12:35:34.000Z</time>
      </trkpt>
      <trkpt lat="43.78704" lon="3.5742">
        <ele>555.8</ele>
        <time>2020-01-19T12:35:38.000Z</time>
      </trkpt>
      <trkpt lat="43.78702" lon="3.5741">
        <ele>557.2</ele>
        <time>2020-01-19T12:35:46.000Z</time>
      </trkpt>
      <trkpt lat="43.78693" lon="3.57396">
        <ele>557.2</ele>
        <time>2020-01-19T12:36:01.000Z</time>
      </trkpt>
      <trkpt lat="43.78693" lon="3.57384">
        <ele>558.2</ele>
        <time>2020-01-19T12:36:16.000Z</time>
      </trkpt>
      <trkpt lat="43.78692" lon="3.57375">
        <ele>559.1</ele>
        <time>2020-01-19T12:36:23.000Z</time>
      </trkpt>
      <trkpt lat="43.78692" lon="3.57348">
        <ele>557.7</ele>
        <time>2020-01-19T12:36:41.000Z</time>
      </trkpt>
      <trkpt lat="43.78693" lon="3.57336">
        <ele>556.7</ele>
        <time>2020-01-19T12:36:56.000Z</time>
      </trkpt>
      <trkpt lat="43.78691" lon="3.57331">
        <ele>556.3</ele>
        <time>2020-01-19T12:36:59.000Z</time>
      </trkpt>
      <trkpt lat="43.78687" lon="3.57318">
        <ele>553.9</ele>
        <time>2020-01-19T12:37:12.000Z</time>
      </trkpt>
      <trkpt lat="43.78688" lon="3.57298">
        <ele>551.5</ele>
        <time>2020-01-19T12:37:28.000Z</time>
      </trkpt>
      <trkpt lat="43.78692" lon="3.57283">
        <ele>549.5</ele>
        <time>2020-01-19T12:37:42.000Z</time>
      </trkpt>
      <trkpt lat="43.78693" lon="3.5728">
        <ele>549</ele>
        <time>2020-01-19T12:37:45.000Z</time>
      </trkpt>
      <trkpt lat="43.78693" lon="3.57259">
        <ele>546.2</ele>
        <time>2020-01-19T12:38:02.000Z</time>
      </trkpt>
      <trkpt lat="43.78688" lon="3.57246">
        <ele>543.3</ele>
        <time>2020-01-19T12:38:13.000Z</time>
      </trkpt>
      <trkpt lat="43.78682" lon="3.5723">
        <ele>540.4</ele>
        <time>2020-01-19T12:38:26.000Z</time>
      </trkpt>
      <trkpt lat="43.78673" lon="3.57219">
        <ele>537.5</ele>
        <time>2020-01-19T12:38:41.000Z</time>
      </trkpt>
      <trkpt lat="43.7867" lon="3.57201">
        <ele>536.5</ele>
        <time>2020-01-19T12:38:55.000Z</time>
      </trkpt>
      <trkpt lat="43.78664" lon="3.57177">
        <ele>535.6</ele>
        <time>2020-01-19T12:39:11.000Z</time>
      </trkpt>
      <trkpt lat="43.7865" lon="3.57166">
        <ele>535.6</ele>
        <time>2020-01-19T12:39:27.000Z</time>
      </trkpt>
      <trkpt lat="43.78635" lon="3.57156">
        <ele>535.1</ele>
        <time>2020-01-19T12:39:43.000Z</time>
      </trkpt>
      <trkpt lat="43.78634" lon="3.57151">
        <ele>535.1</ele>
        <time>2020-01-19T12:39:47.000Z</time>
      </trkpt>
      <trkpt lat="43.78632" lon="3.57149">
        <ele>534.6</ele>
        <time>2020-01-19T12:39:49.000Z</time>
      </trkpt>
      <trkpt lat="43.78629" lon="3.57133">
        <ele>537</ele>
        <time>2020-01-19T12:40:04.000Z</time>
      </trkpt>
      <trkpt lat="43.78619" lon="3.57121">
        <ele>537</ele>
        <time>2020-01-19T12:40:18.000Z</time>
      </trkpt>
      <trkpt lat="43.78611" lon="3.57116">
        <ele>537.5</ele>
        <time>2020-01-19T12:40:32.000Z</time>
      </trkpt>
      <trkpt lat="43.78612" lon="3.57115">
        <ele>537</ele>
        <time>2020-01-19T12:41:01.000Z</time>
      </trkpt>
      <trkpt lat="43.78611" lon="3.57114">
        <ele>537</ele>
        <time>2020-01-19T12:41:24.000Z</time>
      </trkpt>
      <trkpt lat="43.7861" lon="3.57116">
        <ele>537</ele>
        <time>2020-01-19T12:41:54.000Z</time>
      </trkpt>
      <trkpt lat="43.7861" lon="3.57114">
        <ele>537</ele>
        <time>2020-01-19T12:42:16.000Z</time>
      </trkpt>
      <trkpt lat="43.78608" lon="3.57115">
        <ele>537</ele>
        <time>2020-01-19T12:42:36.000Z</time>
      </trkpt>
      <trkpt lat="43.78608" lon="3.57112">
        <ele>537</ele>
        <time>2020-01-19T12:42:56.000Z</time>
      </trkpt>
      <trkpt lat="43.78609" lon="3.57111">
        <ele>537.5</ele>
        <time>2020-01-19T12:43:27.000Z</time>
      </trkpt>
      <trkpt lat="43.78612" lon="3.57111">
        <ele>537.5</ele>
        <time>2020-01-19T12:43:55.000Z</time>
      </trkpt>
      <trkpt lat="43.78609" lon="3.57113">
        <ele>537</ele>
        <time>2020-01-19T12:44:23.000Z</time>
      </trkpt>
      <trkpt lat="43.78609" lon="3.57112">
        <ele>537</ele>
        <time>2020-01-19T12:44:47.000Z</time>
      </trkpt>
      <trkpt lat="43.78609" lon="3.57111">
        <ele>537</ele>
        <time>2020-01-19T12:45:22.000Z</time>
      </trkpt>
      <trkpt lat="43.78608" lon="3.57094">
        <ele>538.5</ele>
        <time>2020-01-19T12:45:41.000Z</time>
      </trkpt>
      <trkpt lat="43.78611" lon="3.57083">
        <ele>539.9</ele>
        <time>2020-01-19T12:45:54.000Z</time>
      </trkpt>
      <trkpt lat="43.78615" lon="3.57078">
        <ele>541.4</ele>
        <time>2020-01-19T12:46:05.000Z</time>
      </trkpt>
      <trkpt lat="43.78628" lon="3.57078">
        <ele>540.9</ele>
        <time>2020-01-19T12:46:20.000Z</time>
      </trkpt>
      <trkpt lat="43.7863" lon="3.57078">
        <ele>540.4</ele>
        <time>2020-01-19T12:46:23.000Z</time>
      </trkpt>
      <trkpt lat="43.78647" lon="3.57082">
        <ele>538.5</ele>
        <time>2020-01-19T12:46:40.000Z</time>
      </trkpt>
      <trkpt lat="43.78648" lon="3.57083">
        <ele>538.5</ele>
        <time>2020-01-19T12:46:41.000Z</time>
      </trkpt>
      <trkpt lat="43.78657" lon="3.57086">
        <ele>536.1</ele>
        <time>2020-01-19T12:46:55.000Z</time>
      </trkpt>
      <trkpt lat="43.78663" lon="3.57086">
        <ele>532.7</ele>
        <time>2020-01-19T12:47:09.000Z</time>
      </trkpt>
      <trkpt lat="43.78669" lon="3.57081">
        <ele>529.8</ele>
        <time>2020-01-19T12:47:22.000Z</time>
      </trkpt>
      <trkpt lat="43.78668" lon="3.57064">
        <ele>526.5</ele>
        <time>2020-01-19T12:47:39.000Z</time>
      </trkpt>
      <trkpt lat="43.78671" lon="3.57044">
        <ele>523.6</ele>
        <time>2020-01-19T12:47:56.000Z</time>
      </trkpt>
      <trkpt lat="43.78678" lon="3.57033">
        <ele>522.1</ele>
        <time>2020-01-19T12:48:13.000Z</time>
      </trkpt>
      <trkpt lat="43.78684" lon="3.57018">
        <ele>519.2</ele>
        <time>2020-01-19T12:48:29.000Z</time>
      </trkpt>
      <trkpt lat="43.78693" lon="3.57004">
        <ele>515.9</ele>
        <time>2020-01-19T12:48:47.000Z</time>
      </trkpt>
      <trkpt lat="43.787" lon="3.56989">
        <ele>514.9</ele>
        <time>2020-01-19T12:49:04.000Z</time>
      </trkpt>
      <trkpt lat="43.78699" lon="3.56984">
        <ele>514.4</ele>
        <time>2020-01-19T12:49:18.000Z</time>
      </trkpt>
      <trkpt lat="43.78698" lon="3.56982">
        <ele>514.4</ele>
        <time>2020-01-19T12:49:41.000Z</time>
      </trkpt>
      <trkpt lat="43.787" lon="3.56982">
        <ele>514.4</ele>
        <time>2020-01-19T12:50:02.000Z</time>
      </trkpt>
      <trkpt lat="43.78699" lon="3.56979">
        <ele>514</ele>
        <time>2020-01-19T12:50:23.000Z</time>
      </trkpt>
      <trkpt lat="43.78699" lon="3.5697">
        <ele>511.6</ele>
        <time>2020-01-19T12:50:41.000Z</time>
      </trkpt>
      <trkpt lat="43.78699" lon="3.56952">
        <ele>510.1</ele>
        <time>2020-01-19T12:50:58.000Z</time>
      </trkpt>
      <trkpt lat="43.78706" lon="3.56933">
        <ele>508.2</ele>
        <time>2020-01-19T12:51:16.000Z</time>
      </trkpt>
      <trkpt lat="43.78709" lon="3.56923">
        <ele>505.8</ele>
        <time>2020-01-19T12:51:31.000Z</time>
      </trkpt>
      <trkpt lat="43.7871" lon="3.56916">
        <ele>502.4</ele>
        <time>2020-01-19T12:51:43.000Z</time>
      </trkpt>
      <trkpt lat="43.78713" lon="3.56909">
        <ele>499.1</ele>
        <time>2020-01-19T12:51:55.000Z</time>
      </trkpt>
      <trkpt lat="43.7872" lon="3.56905">
        <ele>496.2</ele>
        <time>2020-01-19T12:52:05.000Z</time>
      </trkpt>
      <trkpt lat="43.78727" lon="3.56908">
        <ele>492.8</ele>
        <time>2020-01-19T12:52:17.000Z</time>
      </trkpt>
      <trkpt lat="43.78732" lon="3.56903">
        <ele>491.4</ele>
        <time>2020-01-19T12:52:24.000Z</time>
      </trkpt>
      <trkpt lat="43.78737" lon="3.56892">
        <ele>489</ele>
        <time>2020-01-19T12:52:38.000Z</time>
      </trkpt>
      <trkpt lat="43.78743" lon="3.56882">
        <ele>485.6</ele>
        <time>2020-01-19T12:52:50.000Z</time>
      </trkpt>
      <trkpt lat="43.7875" lon="3.56883">
        <ele>482.2</ele>
        <time>2020-01-19T12:52:59.000Z</time>
      </trkpt>
      <trkpt lat="43.78758" lon="3.56878">
        <ele>479.4</ele>
        <time>2020-01-19T12:53:09.000Z</time>
      </trkpt>
      <trkpt lat="43.78765" lon="3.56873">
        <ele>476</ele>
        <time>2020-01-19T12:53:22.000Z</time>
      </trkpt>
      <trkpt lat="43.78769" lon="3.56864">
        <ele>473.1</ele>
        <time>2020-01-19T12:53:33.000Z</time>
      </trkpt>
      <trkpt lat="43.78771" lon="3.56857">
        <ele>471.7</ele>
        <time>2020-01-19T12:53:46.000Z</time>
      </trkpt>
      <trkpt lat="43.78776" lon="3.56845">
        <ele>469.3</ele>
        <time>2020-01-19T12:53:59.000Z</time>
      </trkpt>
      <trkpt lat="43.78783" lon="3.56835">
        <ele>465.9</ele>
        <time>2020-01-19T12:54:11.000Z</time>
      </trkpt>
      <trkpt lat="43.78788" lon="3.56825">
        <ele>463.5</ele>
        <time>2020-01-19T12:54:24.000Z</time>
      </trkpt>
      <trkpt lat="43.78797" lon="3.56818">
        <ele>460.6</ele>
        <time>2020-01-19T12:54:36.000Z</time>
      </trkpt>
      <trkpt lat="43.78803" lon="3.56803">
        <ele>457.7</ele>
        <time>2020-01-19T12:54:53.000Z</time>
      </trkpt>
      <trkpt lat="43.78809" lon="3.56789">
        <ele>455.8</ele>
        <time>2020-01-19T12:55:06.000Z</time>
      </trkpt>
      <trkpt lat="43.78819" lon="3.56786">
        <ele>453.4</ele>
        <time>2020-01-19T12:55:21.000Z</time>
      </trkpt>
      <trkpt lat="43.78831" lon="3.56784">
        <ele>451.5</ele>
        <time>2020-01-19T12:55:36.000Z</time>
      </trkpt>
      <trkpt lat="43.78839" lon="3.56775">
        <ele>450</ele>
        <time>2020-01-19T12:55:50.000Z</time>
      </trkpt>
      <trkpt lat="43.78846" lon="3.56783">
        <ele>447.6</ele>
        <time>2020-01-19T12:56:05.000Z</time>
      </trkpt>
      <trkpt lat="43.78856" lon="3.56786">
        <ele>444.3</ele>
        <time>2020-01-19T12:56:18.000Z</time>
      </trkpt>
      <trkpt lat="43.78863" lon="3.56781">
        <ele>443.3</ele>
        <time>2020-01-19T12:56:33.000Z</time>
      </trkpt>
      <trkpt lat="43.78864" lon="3.56777">
        <ele>442.8</ele>
        <time>2020-01-19T12:56:51.000Z</time>
      </trkpt>
      <trkpt lat="43.78865" lon="3.56775">
        <ele>442.8</ele>
        <time>2020-01-19T12:57:15.000Z</time>
      </trkpt>
      <trkpt lat="43.7887" lon="3.56775">
        <ele>439.5</ele>
        <time>2020-01-19T12:57:25.000Z</time>
      </trkpt>
      <trkpt lat="43.78877" lon="3.56775">
        <ele>436.6</ele>
        <time>2020-01-19T12:57:38.000Z</time>
      </trkpt>
      <trkpt lat="43.78885" lon="3.56777">
        <ele>433.2</ele>
        <time>2020-01-19T12:57:49.000Z</time>
      </trkpt>
      <trkpt lat="43.78898" lon="3.5677">
        <ele>431.8</ele>
        <time>2020-01-19T12:58:05.000Z</time>
      </trkpt>
      <trkpt lat="43.78903" lon="3.56753">
        <ele>433.2</ele>
        <time>2020-01-19T12:58:20.000Z</time>
      </trkpt>
      <trkpt lat="43.78907" lon="3.56741">
        <ele>434.6</ele>
        <time>2020-01-19T12:58:31.000Z</time>
      </trkpt>
      <trkpt lat="43.78901" lon="3.56729">
        <ele>436.1</ele>
        <time>2020-01-19T12:58:45.000Z</time>
      </trkpt>
      <trkpt lat="43.78895" lon="3.56722">
        <ele>436.1</ele>
        <time>2020-01-19T12:58:53.000Z</time>
      </trkpt>
      <trkpt lat="43.78885" lon="3.5671">
        <ele>434.6</ele>
        <time>2020-01-19T12:59:08.000Z</time>
      </trkpt>
      <trkpt lat="43.78883" lon="3.56703">
        <ele>434.2</ele>
        <time>2020-01-19T12:59:15.000Z</time>
      </trkpt>
      <trkpt lat="43.78873" lon="3.56694">
        <ele>430.8</ele>
        <time>2020-01-19T12:59:30.000Z</time>
      </trkpt>
      <trkpt lat="43.78872" lon="3.56694">
        <ele>430.3</ele>
        <time>2020-01-19T12:59:41.000Z</time>
      </trkpt>
      <trkpt lat="43.78871" lon="3.56691">
        <ele>430.3</ele>
        <time>2020-01-19T13:00:02.000Z</time>
      </trkpt>
      <trkpt lat="43.78866" lon="3.56694">
        <ele>429.4</ele>
        <time>2020-01-19T13:00:27.000Z</time>
      </trkpt>
      <trkpt lat="43.78857" lon="3.56684">
        <ele>426.5</ele>
        <time>2020-01-19T13:00:42.000Z</time>
      </trkpt>
      <trkpt lat="43.78848" lon="3.56671">
        <ele>423.6</ele>
        <time>2020-01-19T13:00:58.000Z</time>
      </trkpt>
      <trkpt lat="43.78843" lon="3.56663">
        <ele>421.7</ele>
        <time>2020-01-19T13:01:05.000Z</time>
      </trkpt>
      <trkpt lat="43.78839" lon="3.56658">
        <ele>420.7</ele>
        <time>2020-01-19T13:01:10.000Z</time>
      </trkpt>
      <trkpt lat="43.78825" lon="3.5666">
        <ele>421.2</ele>
        <time>2020-01-19T13:01:25.000Z</time>
      </trkpt>
      <trkpt lat="43.78813" lon="3.56661">
        <ele>418.3</ele>
        <time>2020-01-19T13:01:40.000Z</time>
      </trkpt>
      <trkpt lat="43.78799" lon="3.5666">
        <ele>415.4</ele>
        <time>2020-01-19T13:01:56.000Z</time>
      </trkpt>
      <trkpt lat="43.78795" lon="3.5665">
        <ele>414</ele>
        <time>2020-01-19T13:02:09.000Z</time>
      </trkpt>
      <trkpt lat="43.78784" lon="3.56639">
        <ele>415.4</ele>
        <time>2020-01-19T13:02:25.000Z</time>
      </trkpt>
      <trkpt lat="43.78772" lon="3.5663">
        <ele>415.9</ele>
        <time>2020-01-19T13:02:41.000Z</time>
      </trkpt>
      <trkpt lat="43.78763" lon="3.56619">
        <ele>413</ele>
        <time>2020-01-19T13:02:55.000Z</time>
      </trkpt>
      <trkpt lat="43.78753" lon="3.56616">
        <ele>410.1</ele>
        <time>2020-01-19T13:03:09.000Z</time>
      </trkpt>
      <trkpt lat="43.78746" lon="3.56607">
        <ele>407.3</ele>
        <time>2020-01-19T13:03:24.000Z</time>
      </trkpt>
      <trkpt lat="43.78738" lon="3.56597">
        <ele>404.4</ele>
        <time>2020-01-19T13:03:37.000Z</time>
      </trkpt>
      <trkpt lat="43.78734" lon="3.56581">
        <ele>402.5</ele>
        <time>2020-01-19T13:03:51.000Z</time>
      </trkpt>
      <trkpt lat="43.78731" lon="3.5656">
        <ele>402.5</ele>
        <time>2020-01-19T13:04:07.000Z</time>
      </trkpt>
      <trkpt lat="43.78731" lon="3.56552">
        <ele>403.4</ele>
        <time>2020-01-19T13:04:16.000Z</time>
      </trkpt>
      <trkpt lat="43.78735" lon="3.56529">
        <ele>402.5</ele>
        <time>2020-01-19T13:04:33.000Z</time>
      </trkpt>
      <trkpt lat="43.78745" lon="3.56515">
        <ele>401.5</ele>
        <time>2020-01-19T13:04:50.000Z</time>
      </trkpt>
      <trkpt lat="43.78758" lon="3.56513">
        <ele>401</ele>
        <time>2020-01-19T13:05:03.000Z</time>
      </trkpt>
      <trkpt lat="43.78769" lon="3.56513">
        <ele>400</ele>
        <time>2020-01-19T13:05:24.000Z</time>
      </trkpt>
      <trkpt lat="43.78781" lon="3.56504">
        <ele>399.1</ele>
        <time>2020-01-19T13:05:39.000Z</time>
      </trkpt>
      <trkpt lat="43.78781" lon="3.56484">
        <ele>397.6</ele>
        <time>2020-01-19T13:05:56.000Z</time>
      </trkpt>
      <trkpt lat="43.78776" lon="3.56463">
        <ele>396.7</ele>
        <time>2020-01-19T13:06:14.000Z</time>
      </trkpt>
      <trkpt lat="43.7877" lon="3.56445">
        <ele>395.2</ele>
        <time>2020-01-19T13:06:32.000Z</time>
      </trkpt>
      <trkpt lat="43.78765" lon="3.56433">
        <ele>391.9</ele>
        <time>2020-01-19T13:06:45.000Z</time>
      </trkpt>
      <trkpt lat="43.78763" lon="3.56411">
        <ele>390</ele>
        <time>2020-01-19T13:07:03.000Z</time>
      </trkpt>
      <trkpt lat="43.78762" lon="3.56391">
        <ele>387.1</ele>
        <time>2020-01-19T13:07:19.000Z</time>
      </trkpt>
      <trkpt lat="43.78766" lon="3.56376">
        <ele>384.2</ele>
        <time>2020-01-19T13:07:31.000Z</time>
      </trkpt>
      <trkpt lat="43.7877" lon="3.56355">
        <ele>380.8</ele>
        <time>2020-01-19T13:07:48.000Z</time>
      </trkpt>
      <trkpt lat="43.78773" lon="3.56339">
        <ele>378.4</ele>
        <time>2020-01-19T13:08:02.000Z</time>
      </trkpt>
      <trkpt lat="43.78778" lon="3.56328">
        <ele>375.5</ele>
        <time>2020-01-19T13:08:13.000Z</time>
      </trkpt>
      <trkpt lat="43.78778" lon="3.56313">
        <ele>372.2</ele>
        <time>2020-01-19T13:08:27.000Z</time>
      </trkpt>
      <trkpt lat="43.78779" lon="3.563">
        <ele>368.8</ele>
        <time>2020-01-19T13:08:42.000Z</time>
      </trkpt>
      <trkpt lat="43.78776" lon="3.56293">
        <ele>365.9</ele>
        <time>2020-01-19T13:08:55.000Z</time>
      </trkpt>
      <trkpt lat="43.78775" lon="3.56279">
        <ele>363</ele>
        <time>2020-01-19T13:09:11.000Z</time>
      </trkpt>
      <trkpt lat="43.78775" lon="3.56277">
        <ele>362.1</ele>
        <time>2020-01-19T13:09:13.000Z</time>
      </trkpt>
      <trkpt lat="43.7878" lon="3.56257">
        <ele>360.6</ele>
        <time>2020-01-19T13:09:27.000Z</time>
      </trkpt>
      <trkpt lat="43.78789" lon="3.56256">
        <ele>358.2</ele>
        <time>2020-01-19T13:09:41.000Z</time>
      </trkpt>
      <trkpt lat="43.78799" lon="3.56246">
        <ele>355.3</ele>
        <time>2020-01-19T13:09:57.000Z</time>
      </trkpt>
      <trkpt lat="43.78805" lon="3.56258">
        <ele>352.5</ele>
        <time>2020-01-19T13:10:09.000Z</time>
      </trkpt>
      <trkpt lat="43.7881" lon="3.56261">
        <ele>349.1</ele>
        <time>2020-01-19T13:10:20.000Z</time>
      </trkpt>
      <trkpt lat="43.78827" lon="3.56252">
        <ele>345.7</ele>
        <time>2020-01-19T13:10:34.000Z</time>
      </trkpt>
      <trkpt lat="43.78841" lon="3.56248">
        <ele>344.3</ele>
        <time>2020-01-19T13:10:51.000Z</time>
      </trkpt>
      <trkpt lat="43.78848" lon="3.56251">
        <ele>341.9</ele>
        <time>2020-01-19T13:11:06.000Z</time>
      </trkpt>
      <trkpt lat="43.78859" lon="3.56251">
        <ele>339.5</ele>
        <time>2020-01-19T13:11:19.000Z</time>
      </trkpt>
      <trkpt lat="43.78863" lon="3.56256">
        <ele>336.6</ele>
        <time>2020-01-19T13:11:34.000Z</time>
      </trkpt>
      <trkpt lat="43.7887" lon="3.56262">
        <ele>333.7</ele>
        <time>2020-01-19T13:11:47.000Z</time>
      </trkpt>
      <trkpt lat="43.78876" lon="3.5626">
        <ele>333.2</ele>
        <time>2020-01-19T13:11:55.000Z</time>
      </trkpt>
      <trkpt lat="43.78888" lon="3.56247">
        <ele>332.8</ele>
        <time>2020-01-19T13:12:12.000Z</time>
      </trkpt>
      <trkpt lat="43.78902" lon="3.56239">
        <ele>333.2</ele>
        <time>2020-01-19T13:12:29.000Z</time>
      </trkpt>
      <trkpt lat="43.78918" lon="3.56226">
        <ele>333.7</ele>
        <time>2020-01-19T13:12:47.000Z</time>
      </trkpt>
      <trkpt lat="43.78924" lon="3.56207">
        <ele>330.8</ele>
        <time>2020-01-19T13:13:03.000Z</time>
      </trkpt>
      <trkpt lat="43.7892" lon="3.5619">
        <ele>328.4</ele>
        <time>2020-01-19T13:13:18.000Z</time>
      </trkpt>
      <trkpt lat="43.78919" lon="3.56172">
        <ele>328.4</ele>
        <time>2020-01-19T13:13:35.000Z</time>
      </trkpt>
      <trkpt lat="43.78918" lon="3.56157">
        <ele>327</ele>
        <time>2020-01-19T13:13:51.000Z</time>
      </trkpt>
      <trkpt lat="43.78914" lon="3.56157">
        <ele>327.5</ele>
        <time>2020-01-19T13:14:20.000Z</time>
      </trkpt>
      <trkpt lat="43.78922" lon="3.56152">
        <ele>327</ele>
        <time>2020-01-19T13:14:44.000Z</time>
      </trkpt>
      <trkpt lat="43.78928" lon="3.56159">
        <ele>327</ele>
        <time>2020-01-19T13:15:13.000Z</time>
      </trkpt>
      <trkpt lat="43.78919" lon="3.56172">
        <ele>326.5</ele>
        <time>2020-01-19T13:15:41.000Z</time>
      </trkpt>
      <trkpt lat="43.7892" lon="3.56173">
        <ele>327</ele>
        <time>2020-01-19T13:15:58.000Z</time>
      </trkpt>
      <trkpt lat="43.78924" lon="3.56168">
        <ele>327</ele>
        <time>2020-01-19T13:16:11.000Z</time>
      </trkpt>
      <trkpt lat="43.78926" lon="3.5617">
        <ele>327.5</ele>
        <time>2020-01-19T13:16:24.000Z</time>
      </trkpt>
      <trkpt lat="43.7893" lon="3.56175">
        <ele>327</ele>
        <time>2020-01-19T13:16:33.000Z</time>
      </trkpt>
      <trkpt lat="43.78932" lon="3.56182">
        <ele>327.5</ele>
        <time>2020-01-19T13:16:38.000Z</time>
      </trkpt>
      <trkpt lat="43.78936" lon="3.56191">
        <ele>327</ele>
        <time>2020-01-19T13:16:45.000Z</time>
      </trkpt>
      <trkpt lat="43.78942" lon="3.56203">
        <ele>326.5</ele>
        <time>2020-01-19T13:16:57.000Z</time>
      </trkpt>
      <trkpt lat="43.78945" lon="3.5622">
        <ele>325.5</ele>
        <time>2020-01-19T13:17:10.000Z</time>
      </trkpt>
      <trkpt lat="43.78949" lon="3.56241">
        <ele>325.5</ele>
        <time>2020-01-19T13:17:23.000Z</time>
      </trkpt>
      <trkpt lat="43.78956" lon="3.56253">
        <ele>325.1</ele>
        <time>2020-01-19T13:17:33.000Z</time>
      </trkpt>
      <trkpt lat="43.78958" lon="3.5626">
        <ele>325.1</ele>
        <time>2020-01-19T13:17:38.000Z</time>
      </trkpt>
      <trkpt lat="43.7896" lon="3.56263">
        <ele>324.1</ele>
        <time>2020-01-19T13:17:41.000Z</time>
      </trkpt>
      <trkpt lat="43.78974" lon="3.56277">
        <ele>323.1</ele>
        <time>2020-01-19T13:17:58.000Z</time>
      </trkpt>
      <trkpt lat="43.78984" lon="3.56293">
        <ele>322.2</ele>
        <time>2020-01-19T13:18:11.000Z</time>
      </trkpt>
      <trkpt lat="43.78987" lon="3.56301">
        <ele>321.2</ele>
        <time>2020-01-19T13:18:19.000Z</time>
      </trkpt>
      <trkpt lat="43.78989" lon="3.56304">
        <ele>321.2</ele>
        <time>2020-01-19T13:18:22.000Z</time>
      </trkpt>
      <trkpt lat="43.79" lon="3.56313">
        <ele>320.7</ele>
        <time>2020-01-19T13:18:35.000Z</time>
      </trkpt>
      <trkpt lat="43.79004" lon="3.56319">
        <ele>320.7</ele>
        <time>2020-01-19T13:18:41.000Z</time>
      </trkpt>
      <trkpt lat="43.79007" lon="3.56324">
        <ele>321.2</ele>
        <time>2020-01-19T13:18:46.000Z</time>
      </trkpt>
      <trkpt lat="43.79009" lon="3.56329">
        <ele>320.7</ele>
        <time>2020-01-19T13:18:49.000Z</time>
      </trkpt>
      <trkpt lat="43.79012" lon="3.56331">
        <ele>321.2</ele>
        <time>2020-01-19T13:18:52.000Z</time>
      </trkpt>
      <trkpt lat="43.79018" lon="3.56339">
        <ele>320.3</ele>
        <time>2020-01-19T13:18:59.000Z</time>
      </trkpt>
      <trkpt lat="43.79019" lon="3.56341">
        <ele>319.8</ele>
        <time>2020-01-19T13:19:01.000Z</time>
      </trkpt>
      <trkpt lat="43.79022" lon="3.56345">
        <ele>319.3</ele>
        <time>2020-01-19T13:19:08.000Z</time>
      </trkpt>
      <trkpt lat="43.79032" lon="3.56352">
        <ele>317.9</ele>
        <time>2020-01-19T13:19:16.000Z</time>
      </trkpt>
      <trkpt lat="43.79037" lon="3.56359">
        <ele>316.4</ele>
        <time>2020-01-19T13:19:24.000Z</time>
      </trkpt>
      <trkpt lat="43.79042" lon="3.56365">
        <ele>315.9</ele>
        <time>2020-01-19T13:19:31.000Z</time>
      </trkpt>
      <trkpt lat="43.79048" lon="3.56367">
        <ele>315.5</ele>
        <time>2020-01-19T13:19:37.000Z</time>
      </trkpt>
      <trkpt lat="43.79056" lon="3.56376">
        <ele>315.9</ele>
        <time>2020-01-19T13:19:46.000Z</time>
      </trkpt>
      <trkpt lat="43.79061" lon="3.56381">
        <ele>315.9</ele>
        <time>2020-01-19T13:19:52.000Z</time>
      </trkpt>
      <trkpt lat="43.79066" lon="3.56386">
        <ele>315.9</ele>
        <time>2020-01-19T13:20:02.000Z</time>
      </trkpt>
      <trkpt lat="43.79071" lon="3.56389">
        <ele>315.9</ele>
        <time>2020-01-19T13:20:10.000Z</time>
      </trkpt>
      <trkpt lat="43.79083" lon="3.56403">
        <ele>315.9</ele>
        <time>2020-01-19T13:20:20.000Z</time>
      </trkpt>
      <trkpt lat="43.79092" lon="3.56415">
        <ele>315.9</ele>
        <time>2020-01-19T13:20:30.000Z</time>
      </trkpt>
      <trkpt lat="43.791" lon="3.56422">
        <ele>315.9</ele>
        <time>2020-01-19T13:20:39.000Z</time>
      </trkpt>
      <trkpt lat="43.79102" lon="3.56427">
        <ele>315.5</ele>
        <time>2020-01-19T13:20:44.000Z</time>
      </trkpt>
      <trkpt lat="43.79111" lon="3.56439">
        <ele>315.5</ele>
        <time>2020-01-19T13:20:56.000Z</time>
      </trkpt>
      <trkpt lat="43.79111" lon="3.5644">
        <ele>315.9</ele>
        <time>2020-01-19T13:20:57.000Z</time>
      </trkpt>
      <trkpt lat="43.79117" lon="3.56453">
        <ele>316.4</ele>
        <time>2020-01-19T13:21:05.000Z</time>
      </trkpt>
      <trkpt lat="43.79122" lon="3.56469">
        <ele>315</ele>
        <time>2020-01-19T13:21:19.000Z</time>
      </trkpt>
      <trkpt lat="43.79129" lon="3.56489">
        <ele>314.5</ele>
        <time>2020-01-19T13:21:36.000Z</time>
      </trkpt>
      <trkpt lat="43.79136" lon="3.56511">
        <ele>314</ele>
        <time>2020-01-19T13:21:54.000Z</time>
      </trkpt>
      <trkpt lat="43.79138" lon="3.56521">
        <ele>314</ele>
        <time>2020-01-19T13:22:09.000Z</time>
      </trkpt>
      <trkpt lat="43.79143" lon="3.56539">
        <ele>315</ele>
        <time>2020-01-19T13:22:25.000Z</time>
      </trkpt>
      <trkpt lat="43.79151" lon="3.56547">
        <ele>314</ele>
        <time>2020-01-19T13:22:38.000Z</time>
      </trkpt>
      <trkpt lat="43.79152" lon="3.5656">
        <ele>314</ele>
        <time>2020-01-19T13:22:51.000Z</time>
      </trkpt>
      <trkpt lat="43.79152" lon="3.56579">
        <ele>312.1</ele>
        <time>2020-01-19T13:23:06.000Z</time>
      </trkpt>
      <trkpt lat="43.79154" lon="3.56588">
        <ele>312.1</ele>
        <time>2020-01-19T13:23:12.000Z</time>
      </trkpt>
      <trkpt lat="43.79165" lon="3.566">
        <ele>311.1</ele>
        <time>2020-01-19T13:23:26.000Z</time>
      </trkpt>
      <trkpt lat="43.79183" lon="3.56617">
        <ele>309.7</ele>
        <time>2020-01-19T13:23:42.000Z</time>
      </trkpt>
      <trkpt lat="43.79186" lon="3.56622">
        <ele>309.7</ele>
        <time>2020-01-19T13:23:46.000Z</time>
      </trkpt>
      <trkpt lat="43.79194" lon="3.56646">
        <ele>308.2</ele>
        <time>2020-01-19T13:24:04.000Z</time>
      </trkpt>
      <trkpt lat="43.79196" lon="3.56648">
        <ele>308.2</ele>
        <time>2020-01-19T13:24:07.000Z</time>
      </trkpt>
      <trkpt lat="43.79203" lon="3.5666">
        <ele>307.3</ele>
        <time>2020-01-19T13:24:18.000Z</time>
      </trkpt>
      <trkpt lat="43.79212" lon="3.56674">
        <ele>306.8</ele>
        <time>2020-01-19T13:24:30.000Z</time>
      </trkpt>
      <trkpt lat="43.7922" lon="3.56699">
        <ele>306.3</ele>
        <time>2020-01-19T13:24:48.000Z</time>
      </trkpt>
      <trkpt lat="43.7923" lon="3.56721">
        <ele>306.8</ele>
        <time>2020-01-19T13:25:05.000Z</time>
      </trkpt>
      <trkpt lat="43.79237" lon="3.56735">
        <ele>306.8</ele>
        <time>2020-01-19T13:25:14.000Z</time>
      </trkpt>
      <trkpt lat="43.79242" lon="3.5674">
        <ele>306.8</ele>
        <time>2020-01-19T13:25:18.000Z</time>
      </trkpt>
      <trkpt lat="43.79248" lon="3.56754">
        <ele>306.8</ele>
        <time>2020-01-19T13:25:31.000Z</time>
      </trkpt>
      <trkpt lat="43.79263" lon="3.56774">
        <ele>306.8</ele>
        <time>2020-01-19T13:25:46.000Z</time>
      </trkpt>
      <trkpt lat="43.79272" lon="3.56784">
        <ele>306.3</ele>
        <time>2020-01-19T13:25:58.000Z</time>
      </trkpt>
      <trkpt lat="43.79287" lon="3.56794">
        <ele>307.3</ele>
        <time>2020-01-19T13:26:13.000Z</time>
      </trkpt>
      <trkpt lat="43.79304" lon="3.56808">
        <ele>304.9</ele>
        <time>2020-01-19T13:26:28.000Z</time>
      </trkpt>
      <trkpt lat="43.79305" lon="3.56809">
        <ele>304.4</ele>
        <time>2020-01-19T13:26:30.000Z</time>
      </trkpt>
      <trkpt lat="43.7931" lon="3.56813">
        <ele>304.9</ele>
        <time>2020-01-19T13:26:35.000Z</time>
      </trkpt>
      <trkpt lat="43.79311" lon="3.56819">
        <ele>304.4</ele>
        <time>2020-01-19T13:26:39.000Z</time>
      </trkpt>
      <trkpt lat="43.79323" lon="3.56835">
        <ele>303.4</ele>
        <time>2020-01-19T13:26:56.000Z</time>
      </trkpt>
      <trkpt lat="43.79324" lon="3.56852">
        <ele>302.5</ele>
        <time>2020-01-19T13:27:11.000Z</time>
      </trkpt>
      <trkpt lat="43.79322" lon="3.56859">
        <ele>302.5</ele>
        <time>2020-01-19T13:27:16.000Z</time>
      </trkpt>
      <trkpt lat="43.79326" lon="3.56874">
        <ele>301</ele>
        <time>2020-01-19T13:27:30.000Z</time>
      </trkpt>
      <trkpt lat="43.7933" lon="3.56886">
        <ele>299.1</ele>
        <time>2020-01-19T13:27:44.000Z</time>
      </trkpt>
      <trkpt lat="43.79331" lon="3.56892">
        <ele>297.7</ele>
        <time>2020-01-19T13:27:51.000Z</time>
      </trkpt>
      <trkpt lat="43.79333" lon="3.56906">
        <ele>296.7</ele>
        <time>2020-01-19T13:28:02.000Z</time>
      </trkpt>
      <trkpt lat="43.79335" lon="3.56914">
        <ele>294.8</ele>
        <time>2020-01-19T13:28:10.000Z</time>
      </trkpt>
      <trkpt lat="43.79331" lon="3.56925">
        <ele>294.3</ele>
        <time>2020-01-19T13:28:17.000Z</time>
      </trkpt>
      <trkpt lat="43.79326" lon="3.56936">
        <ele>292.9</ele>
        <time>2020-01-19T13:28:31.000Z</time>
      </trkpt>
      <trkpt lat="43.7932" lon="3.56959">
        <ele>291.9</ele>
        <time>2020-01-19T13:28:47.000Z</time>
      </trkpt>
      <trkpt lat="43.79314" lon="3.56975">
        <ele>290.9</ele>
        <time>2020-01-19T13:29:02.000Z</time>
      </trkpt>
      <trkpt lat="43.79308" lon="3.56993">
        <ele>289</ele>
        <time>2020-01-19T13:29:18.000Z</time>
      </trkpt>
      <trkpt lat="43.79305" lon="3.57005">
        <ele>289</ele>
        <time>2020-01-19T13:29:33.000Z</time>
      </trkpt>
      <trkpt lat="43.7931" lon="3.57023">
        <ele>287.6</ele>
        <time>2020-01-19T13:29:50.000Z</time>
      </trkpt>
      <trkpt lat="43.79313" lon="3.57026">
        <ele>287.6</ele>
        <time>2020-01-19T13:29:54.000Z</time>
      </trkpt>
      <trkpt lat="43.79316" lon="3.57045">
        <ele>285.6</ele>
        <time>2020-01-19T13:30:09.000Z</time>
      </trkpt>
      <trkpt lat="43.79319" lon="3.57065">
        <ele>285.2</ele>
        <time>2020-01-19T13:30:25.000Z</time>
      </trkpt>
      <trkpt lat="43.79319" lon="3.57068">
        <ele>285.2</ele>
        <time>2020-01-19T13:30:28.000Z</time>
      </trkpt>
      <trkpt lat="43.79322" lon="3.5709">
        <ele>283.7</ele>
        <time>2020-01-19T13:30:43.000Z</time>
      </trkpt>
      <trkpt lat="43.7933" lon="3.57104">
        <ele>281.8</ele>
        <time>2020-01-19T13:30:57.000Z</time>
      </trkpt>
      <trkpt lat="43.79338" lon="3.57121">
        <ele>281.3</ele>
        <time>2020-01-19T13:31:09.000Z</time>
      </trkpt>
      <trkpt lat="43.79346" lon="3.57137">
        <ele>280.8</ele>
        <time>2020-01-19T13:31:26.000Z</time>
      </trkpt>
      <trkpt lat="43.79351" lon="3.5715">
        <ele>281.3</ele>
        <time>2020-01-19T13:31:37.000Z</time>
      </trkpt>
      <trkpt lat="43.79352" lon="3.57162">
        <ele>281.3</ele>
        <time>2020-01-19T13:31:44.000Z</time>
      </trkpt>
      <trkpt lat="43.79356" lon="3.57175">
        <ele>280.4</ele>
        <time>2020-01-19T13:31:54.000Z</time>
      </trkpt>
      <trkpt lat="43.79367" lon="3.57182">
        <ele>280.4</ele>
        <time>2020-01-19T13:32:05.000Z</time>
      </trkpt>
      <trkpt lat="43.79381" lon="3.57192">
        <ele>278.4</ele>
        <time>2020-01-19T13:32:21.000Z</time>
      </trkpt>
      <trkpt lat="43.79395" lon="3.572">
        <ele>276.5</ele>
        <time>2020-01-19T13:32:38.000Z</time>
      </trkpt>
      <trkpt lat="43.79404" lon="3.57209">
        <ele>275.6</ele>
        <time>2020-01-19T13:32:50.000Z</time>
      </trkpt>
      <trkpt lat="43.79415" lon="3.57213">
        <ele>274.6</ele>
        <time>2020-01-19T13:33:04.000Z</time>
      </trkpt>
      <trkpt lat="43.7943" lon="3.57221">
        <ele>273.1</ele>
        <time>2020-01-19T13:33:21.000Z</time>
      </trkpt>
      <trkpt lat="43.79438" lon="3.57232">
        <ele>270.3</ele>
        <time>2020-01-19T13:33:37.000Z</time>
      </trkpt>
      <trkpt lat="43.79438" lon="3.57233">
        <ele>270.3</ele>
        <time>2020-01-19T13:33:38.000Z</time>
      </trkpt>
      <trkpt lat="43.79444" lon="3.5725">
        <ele>269.8</ele>
        <time>2020-01-19T13:33:55.000Z</time>
      </trkpt>
      <trkpt lat="43.79451" lon="3.57262">
        <ele>269.8</ele>
        <time>2020-01-19T13:34:09.000Z</time>
      </trkpt>
      <trkpt lat="43.79456" lon="3.57282">
        <ele>269.8</ele>
        <time>2020-01-19T13:34:26.000Z</time>
      </trkpt>
      <trkpt lat="43.79466" lon="3.57295">
        <ele>268.8</ele>
        <time>2020-01-19T13:34:40.000Z</time>
      </trkpt>
      <trkpt lat="43.79477" lon="3.57312">
        <ele>267.4</ele>
        <time>2020-01-19T13:34:57.000Z</time>
      </trkpt>
      <trkpt lat="43.79484" lon="3.57326">
        <ele>266.9</ele>
        <time>2020-01-19T13:35:10.000Z</time>
      </trkpt>
      <trkpt lat="43.79493" lon="3.57337">
        <ele>266.4</ele>
        <time>2020-01-19T13:35:25.000Z</time>
      </trkpt>
      <trkpt lat="43.79507" lon="3.57358">
        <ele>265.5</ele>
        <time>2020-01-19T13:35:41.000Z</time>
      </trkpt>
      <trkpt lat="43.79518" lon="3.57372">
        <ele>265.9</ele>
        <time>2020-01-19T13:35:56.000Z</time>
      </trkpt>
      <trkpt lat="43.79526" lon="3.57383">
        <ele>265.9</ele>
        <time>2020-01-19T13:36:10.000Z</time>
      </trkpt>
      <trkpt lat="43.79535" lon="3.57392">
        <ele>265</ele>
        <time>2020-01-19T13:36:26.000Z</time>
      </trkpt>
      <trkpt lat="43.79557" lon="3.57414">
        <ele>263.5</ele>
        <time>2020-01-19T13:36:43.000Z</time>
      </trkpt>
      <trkpt lat="43.79571" lon="3.57434">
        <ele>263.5</ele>
        <time>2020-01-19T13:36:58.000Z</time>
      </trkpt>
      <trkpt lat="43.79575" lon="3.5744">
        <ele>262.6</ele>
        <time>2020-01-19T13:37:05.000Z</time>
      </trkpt>
      <trkpt lat="43.79588" lon="3.5745">
        <ele>263.5</ele>
        <time>2020-01-19T13:37:21.000Z</time>
      </trkpt>
      <trkpt lat="43.79608" lon="3.5746">
        <ele>265.5</ele>
        <time>2020-01-19T13:37:39.000Z</time>
      </trkpt>
      <trkpt lat="43.79618" lon="3.57473">
        <ele>266.4</ele>
        <time>2020-01-19T13:37:53.000Z</time>
      </trkpt>
      <trkpt lat="43.79621" lon="3.57497">
        <ele>266.4</ele>
        <time>2020-01-19T13:38:09.000Z</time>
      </trkpt>
      <trkpt lat="43.79614" lon="3.57508">
        <ele>263.1</ele>
        <time>2020-01-19T13:38:21.000Z</time>
      </trkpt>
      <trkpt lat="43.7962" lon="3.57515">
        <ele>260.2</ele>
        <time>2020-01-19T13:38:37.000Z</time>
      </trkpt>
      <trkpt lat="43.79627" lon="3.57526">
        <ele>258.7</ele>
        <time>2020-01-19T13:38:51.000Z</time>
      </trkpt>
      <trkpt lat="43.79633" lon="3.57529">
        <ele>257.8</ele>
        <time>2020-01-19T13:38:57.000Z</time>
      </trkpt>
      <trkpt lat="43.79639" lon="3.57534">
        <ele>257.8</ele>
        <time>2020-01-19T13:39:01.000Z</time>
      </trkpt>
      <trkpt lat="43.79652" lon="3.57534">
        <ele>257.8</ele>
        <time>2020-01-19T13:39:18.000Z</time>
      </trkpt>
      <trkpt lat="43.79662" lon="3.57537">
        <ele>256.8</ele>
        <time>2020-01-19T13:39:39.000Z</time>
      </trkpt>
      <trkpt lat="43.79664" lon="3.57567">
        <ele>253.9</ele>
        <time>2020-01-19T13:40:03.000Z</time>
      </trkpt>
      <trkpt lat="43.79672" lon="3.57588">
        <ele>250.6</ele>
        <time>2020-01-19T13:40:19.000Z</time>
      </trkpt>
      <trkpt lat="43.79677" lon="3.5761">
        <ele>247.7</ele>
        <time>2020-01-19T13:40:41.000Z</time>
      </trkpt>
      <trkpt lat="43.79678" lon="3.57631">
        <ele>244.8</ele>
        <time>2020-01-19T13:41:04.000Z</time>
      </trkpt>
      <trkpt lat="43.79679" lon="3.57673">
        <ele>241.9</ele>
        <time>2020-01-19T13:41:27.000Z</time>
      </trkpt>
      <trkpt lat="43.79692" lon="3.57697">
        <ele>239.5</ele>
        <time>2020-01-19T13:41:52.000Z</time>
      </trkpt>
      <trkpt lat="43.79697" lon="3.57728">
        <ele>237.1</ele>
        <time>2020-01-19T13:42:13.000Z</time>
      </trkpt>
      <trkpt lat="43.79697" lon="3.57764">
        <ele>235.2</ele>
        <time>2020-01-19T13:42:33.000Z</time>
      </trkpt>
      <trkpt lat="43.79685" lon="3.57781">
        <ele>232.3</ele>
        <time>2020-01-19T13:42:55.000Z</time>
      </trkpt>
      <trkpt lat="43.79678" lon="3.57796">
        <ele>230.4</ele>
        <time>2020-01-19T13:43:12.000Z</time>
      </trkpt>
      <trkpt lat="43.79691" lon="3.57828">
        <ele>231.3</ele>
        <time>2020-01-19T13:43:34.000Z</time>
      </trkpt>
      <trkpt lat="43.79693" lon="3.57855">
        <ele>228.4</ele>
        <time>2020-01-19T13:43:52.000Z</time>
      </trkpt>
      <trkpt lat="43.79701" lon="3.57865">
        <ele>227.5</ele>
        <time>2020-01-19T13:44:11.000Z</time>
      </trkpt>
      <trkpt lat="43.79699" lon="3.57877">
        <ele>228</ele>
        <time>2020-01-19T13:44:34.000Z</time>
      </trkpt>
      <trkpt lat="43.79707" lon="3.57877">
        <ele>227.5</ele>
        <time>2020-01-19T13:44:53.000Z</time>
      </trkpt>
      <trkpt lat="43.79721" lon="3.57887">
        <ele>227</ele>
        <time>2020-01-19T13:45:10.000Z</time>
      </trkpt>
      <trkpt lat="43.79726" lon="3.57894">
        <ele>227</ele>
        <time>2020-01-19T13:45:20.000Z</time>
      </trkpt>
      <trkpt lat="43.79735" lon="3.57908">
        <ele>226.1</ele>
        <time>2020-01-19T13:45:36.000Z</time>
      </trkpt>
      <trkpt lat="43.79744" lon="3.57931">
        <ele>226.1</ele>
        <time>2020-01-19T13:45:55.000Z</time>
      </trkpt>
      <trkpt lat="43.79758" lon="3.57943">
        <ele>225.6</ele>
        <time>2020-01-19T13:46:14.000Z</time>
      </trkpt>
      <trkpt lat="43.79776" lon="3.5795">
        <ele>225.1</ele>
        <time>2020-01-19T13:46:33.000Z</time>
      </trkpt>
      <trkpt lat="43.79793" lon="3.57966">
        <ele>224.1</ele>
        <time>2020-01-19T13:46:52.000Z</time>
      </trkpt>
      <trkpt lat="43.79807" lon="3.57986">
        <ele>223.6</ele>
        <time>2020-01-19T13:47:09.000Z</time>
      </trkpt>
      <trkpt lat="43.79814" lon="3.57988">
        <ele>223.6</ele>
        <time>2020-01-19T13:47:15.000Z</time>
      </trkpt>
      <trkpt lat="43.79828" lon="3.58005">
        <ele>223.2</ele>
        <time>2020-01-19T13:47:37.000Z</time>
      </trkpt>
      <trkpt lat="43.79841" lon="3.58033">
        <ele>222.7</ele>
        <time>2020-01-19T13:48:00.000Z</time>
      </trkpt>
      <trkpt lat="43.79851" lon="3.58057">
        <ele>222.2</ele>
        <time>2020-01-19T13:48:20.000Z</time>
      </trkpt>
      <trkpt lat="43.79857" lon="3.58083">
        <ele>221.2</ele>
        <time>2020-01-19T13:48:37.000Z</time>
      </trkpt>
      <trkpt lat="43.79872" lon="3.58078">
        <ele>222.2</ele>
        <time>2020-01-19T13:48:55.000Z</time>
      </trkpt>
      <trkpt lat="43.79871" lon="3.58076">
        <ele>222.2</ele>
        <time>2020-01-19T13:48:56.000Z</time>
      </trkpt>
      <trkpt lat="43.79871" lon="3.58089">
        <ele>222.2</ele>
        <time>2020-01-19T13:49:09.000Z</time>
      </trkpt>
      <trkpt lat="43.79872" lon="3.58107">
        <ele>221.2</ele>
        <time>2020-01-19T13:49:23.000Z</time>
      </trkpt>
      <trkpt lat="43.79876" lon="3.5812">
        <ele>220.3</ele>
        <time>2020-01-19T13:49:36.000Z</time>
      </trkpt>
      <trkpt lat="43.79889" lon="3.5813">
        <ele>221.7</ele>
        <time>2020-01-19T13:49:52.000Z</time>
      </trkpt>
      <trkpt lat="43.79907" lon="3.58132">
        <ele>221.7</ele>
        <time>2020-01-19T13:50:05.000Z</time>
      </trkpt>
      <trkpt lat="43.79919" lon="3.58141">
        <ele>222.7</ele>
        <time>2020-01-19T13:50:18.000Z</time>
      </trkpt>
      <trkpt lat="43.79939" lon="3.58149">
        <ele>220.8</ele>
        <time>2020-01-19T13:50:36.000Z</time>
      </trkpt>
      <trkpt lat="43.79942" lon="3.58152">
        <ele>220.3</ele>
        <time>2020-01-19T13:50:40.000Z</time>
      </trkpt>
      <trkpt lat="43.79947" lon="3.58167">
        <ele>219.3</ele>
        <time>2020-01-19T13:50:51.000Z</time>
      </trkpt>
      <trkpt lat="43.79949" lon="3.58172">
        <ele>218.8</ele>
        <time>2020-01-19T13:50:57.000Z</time>
      </trkpt>
      <trkpt lat="43.79953" lon="3.58186">
        <ele>218.8</ele>
        <time>2020-01-19T13:51:09.000Z</time>
      </trkpt>
      <trkpt lat="43.7996" lon="3.58193">
        <ele>218.8</ele>
        <time>2020-01-19T13:51:15.000Z</time>
      </trkpt>
      <trkpt lat="43.79974" lon="3.58205">
        <ele>219.3</ele>
        <time>2020-01-19T13:51:28.000Z</time>
      </trkpt>
      <trkpt lat="43.79975" lon="3.58206">
        <ele>219.3</ele>
        <time>2020-01-19T13:51:30.000Z</time>
      </trkpt>
      <trkpt lat="43.79983" lon="3.58213">
        <ele>219.3</ele>
        <time>2020-01-19T13:51:41.000Z</time>
      </trkpt>
      <trkpt lat="43.79994" lon="3.58219">
        <ele>219.3</ele>
        <time>2020-01-19T13:51:54.000Z</time>
      </trkpt>
      <trkpt lat="43.8001" lon="3.58217">
        <ele>220.3</ele>
        <time>2020-01-19T13:52:06.000Z</time>
      </trkpt>
      <trkpt lat="43.80021" lon="3.58225">
        <ele>218.8</ele>
        <time>2020-01-19T13:52:17.000Z</time>
      </trkpt>
      <trkpt lat="43.8003" lon="3.58236">
        <ele>217.4</ele>
        <time>2020-01-19T13:52:30.000Z</time>
      </trkpt>
      <trkpt lat="43.80037" lon="3.58248">
        <ele>216.4</ele>
        <time>2020-01-19T13:52:41.000Z</time>
      </trkpt>
      <trkpt lat="43.80042" lon="3.58256">
        <ele>216.4</ele>
        <time>2020-01-19T13:52:49.000Z</time>
      </trkpt>
      <trkpt lat="43.80044" lon="3.58259">
        <ele>215.9</ele>
        <time>2020-01-19T13:52:51.000Z</time>
      </trkpt>
      <trkpt lat="43.80047" lon="3.58267">
        <ele>215.9</ele>
        <time>2020-01-19T13:52:55.000Z</time>
      </trkpt>
      <trkpt lat="43.80048" lon="3.58271">
        <ele>215.5</ele>
        <time>2020-01-19T13:52:58.000Z</time>
      </trkpt>
      <trkpt lat="43.80049" lon="3.58278">
        <ele>215.5</ele>
        <time>2020-01-19T13:53:05.000Z</time>
      </trkpt>
      <trkpt lat="43.80056" lon="3.58288">
        <ele>215.5</ele>
        <time>2020-01-19T13:53:16.000Z</time>
      </trkpt>
      <trkpt lat="43.80072" lon="3.58305">
        <ele>215.5</ele>
        <time>2020-01-19T13:53:32.000Z</time>
      </trkpt>
      <trkpt lat="43.80086" lon="3.58312">
        <ele>214</ele>
        <time>2020-01-19T13:53:48.000Z</time>
      </trkpt>
      <trkpt lat="43.80086" lon="3.58314">
        <ele>214</ele>
        <time>2020-01-19T13:53:49.000Z</time>
      </trkpt>
      <trkpt lat="43.80097" lon="3.58334">
        <ele>214</ele>
        <time>2020-01-19T13:54:06.000Z</time>
      </trkpt>
      <trkpt lat="43.80102" lon="3.58338">
        <ele>214.5</ele>
        <time>2020-01-19T13:54:12.000Z</time>
      </trkpt>
      <trkpt lat="43.80111" lon="3.58343">
        <ele>215.5</ele>
        <time>2020-01-19T13:54:25.000Z</time>
      </trkpt>
      <trkpt lat="43.80124" lon="3.58352">
        <ele>216.4</ele>
        <time>2020-01-19T13:54:42.000Z</time>
      </trkpt>
      <trkpt lat="43.80149" lon="3.58365">
        <ele>215.9</ele>
        <time>2020-01-19T13:55:01.000Z</time>
      </trkpt>
      <trkpt lat="43.80163" lon="3.5838">
        <ele>216.9</ele>
        <time>2020-01-19T13:55:18.000Z</time>
      </trkpt>
      <trkpt lat="43.80176" lon="3.5839">
        <ele>214</ele>
        <time>2020-01-19T13:55:33.000Z</time>
      </trkpt>
      <trkpt lat="43.80191" lon="3.58389">
        <ele>213.6</ele>
        <time>2020-01-19T13:55:46.000Z</time>
      </trkpt>
      <trkpt lat="43.80208" lon="3.58398">
        <ele>214</ele>
        <time>2020-01-19T13:56:04.000Z</time>
      </trkpt>
      <trkpt lat="43.80218" lon="3.58416">
        <ele>216.4</ele>
        <time>2020-01-19T13:56:22.000Z</time>
      </trkpt>
      <trkpt lat="43.80231" lon="3.58432">
        <ele>216.9</ele>
        <time>2020-01-19T13:56:40.000Z</time>
      </trkpt>
      <trkpt lat="43.80235" lon="3.58436">
        <ele>217.4</ele>
        <time>2020-01-19T13:56:46.000Z</time>
      </trkpt>
      <trkpt lat="43.80246" lon="3.58444">
        <ele>217.9</ele>
        <time>2020-01-19T13:57:00.000Z</time>
      </trkpt>
      <trkpt lat="43.80256" lon="3.5845">
        <ele>219.3</ele>
        <time>2020-01-19T13:57:14.000Z</time>
      </trkpt>
      <trkpt lat="43.80267" lon="3.58454">
        <ele>220.3</ele>
        <time>2020-01-19T13:57:28.000Z</time>
      </trkpt>
      <trkpt lat="43.80278" lon="3.58466">
        <ele>220.8</ele>
        <time>2020-01-19T13:57:43.000Z</time>
      </trkpt>
      <trkpt lat="43.8029" lon="3.58475">
        <ele>220.8</ele>
        <time>2020-01-19T13:57:57.000Z</time>
      </trkpt>
      <trkpt lat="43.80311" lon="3.58469">
        <ele>221.7</ele>
        <time>2020-01-19T13:58:14.000Z</time>
      </trkpt>
      <trkpt lat="43.80323" lon="3.5848">
        <ele>223.2</ele>
        <time>2020-01-19T13:58:29.000Z</time>
      </trkpt>
      <trkpt lat="43.80333" lon="3.58483">
        <ele>225.1</ele>
        <time>2020-01-19T13:58:45.000Z</time>
      </trkpt>
      <trkpt lat="43.80342" lon="3.58489">
        <ele>226.5</ele>
        <time>2020-01-19T13:58:57.000Z</time>
      </trkpt>
      <trkpt lat="43.80348" lon="3.58493">
        <ele>229.4</ele>
        <time>2020-01-19T13:59:11.000Z</time>
      </trkpt>
      <trkpt lat="43.80358" lon="3.58499">
        <ele>231.8</ele>
        <time>2020-01-19T13:59:26.000Z</time>
      </trkpt>
      <trkpt lat="43.80368" lon="3.58508">
        <ele>234.2</ele>
        <time>2020-01-19T13:59:42.000Z</time>
      </trkpt>
      <trkpt lat="43.80375" lon="3.58516">
        <ele>237.1</ele>
        <time>2020-01-19T14:00:00.000Z</time>
      </trkpt>
      <trkpt lat="43.80384" lon="3.58521">
        <ele>238.5</ele>
        <time>2020-01-19T14:00:12.000Z</time>
      </trkpt>
      <trkpt lat="43.80391" lon="3.58526">
        <ele>240.9</ele>
        <time>2020-01-19T14:00:24.000Z</time>
      </trkpt>
      <trkpt lat="43.80402" lon="3.58539">
        <ele>242.4</ele>
        <time>2020-01-19T14:00:38.000Z</time>
      </trkpt>
      <trkpt lat="43.80409" lon="3.58549">
        <ele>244.8</ele>
        <time>2020-01-19T14:00:53.000Z</time>
      </trkpt>
      <trkpt lat="43.80411" lon="3.5855">
        <ele>244.8</ele>
        <time>2020-01-19T14:00:55.000Z</time>
      </trkpt>
      <trkpt lat="43.80419" lon="3.58557">
        <ele>246.2</ele>
        <time>2020-01-19T14:01:03.000Z</time>
      </trkpt>
      <trkpt lat="43.80421" lon="3.58558">
        <ele>246.2</ele>
        <time>2020-01-19T14:01:05.000Z</time>
      </trkpt>
      <trkpt lat="43.80429" lon="3.58573">
        <ele>249.1</ele>
        <time>2020-01-19T14:01:23.000Z</time>
      </trkpt>
      <trkpt lat="43.80436" lon="3.58576">
        <ele>252</ele>
        <time>2020-01-19T14:01:38.000Z</time>
      </trkpt>
      <trkpt lat="43.80436" lon="3.58567">
        <ele>253</ele>
        <time>2020-01-19T14:01:45.000Z</time>
      </trkpt>
      <trkpt lat="43.80436" lon="3.5856">
        <ele>254.4</ele>
        <time>2020-01-19T14:01:54.000Z</time>
      </trkpt>
      <trkpt lat="43.80437" lon="3.58559">
        <ele>255.9</ele>
        <time>2020-01-19T14:02:07.000Z</time>
      </trkpt>
      <trkpt lat="43.80444" lon="3.58569">
        <ele>257.3</ele>
        <time>2020-01-19T14:02:20.000Z</time>
      </trkpt>
      <trkpt lat="43.80445" lon="3.58571">
        <ele>257.3</ele>
        <time>2020-01-19T14:02:22.000Z</time>
      </trkpt>
      <trkpt lat="43.80449" lon="3.58581">
        <ele>257.8</ele>
        <time>2020-01-19T14:02:28.000Z</time>
      </trkpt>
      <trkpt lat="43.80452" lon="3.5859">
        <ele>259.2</ele>
        <time>2020-01-19T14:02:34.000Z</time>
      </trkpt>
      <trkpt lat="43.8045" lon="3.58596">
        <ele>259.7</ele>
        <time>2020-01-19T14:02:39.000Z</time>
      </trkpt>
      <trkpt lat="43.80451" lon="3.58607">
        <ele>260.6</ele>
        <time>2020-01-19T14:02:46.000Z</time>
      </trkpt>
      <trkpt lat="43.80455" lon="3.58619">
        <ele>261.1</ele>
        <time>2020-01-19T14:02:54.000Z</time>
      </trkpt>
      <trkpt lat="43.80454" lon="3.58625">
        <ele>261.1</ele>
        <time>2020-01-19T14:02:59.000Z</time>
      </trkpt>
      <trkpt lat="43.80458" lon="3.58643">
        <ele>263.5</ele>
        <time>2020-01-19T14:03:13.000Z</time>
      </trkpt>
      <trkpt lat="43.80464" lon="3.58645">
        <ele>264.5</ele>
        <time>2020-01-19T14:03:20.000Z</time>
      </trkpt>
      <trkpt lat="43.80467" lon="3.58643">
        <ele>267.4</ele>
        <time>2020-01-19T14:03:35.000Z</time>
      </trkpt>
      <trkpt lat="43.80472" lon="3.58649">
        <ele>267.9</ele>
        <time>2020-01-19T14:03:47.000Z</time>
      </trkpt>
      <trkpt lat="43.8047" lon="3.58645">
        <ele>267.9</ele>
        <time>2020-01-19T14:04:00.000Z</time>
      </trkpt>
      <trkpt lat="43.8047" lon="3.5864">
        <ele>268.8</ele>
        <time>2020-01-19T14:04:17.000Z</time>
      </trkpt>
      <trkpt lat="43.80474" lon="3.58643">
        <ele>268.8</ele>
        <time>2020-01-19T14:04:43.000Z</time>
      </trkpt>
      <trkpt lat="43.80474" lon="3.58645">
        <ele>268.8</ele>
        <time>2020-01-19T14:05:11.000Z</time>
      </trkpt>
      <trkpt lat="43.80471" lon="3.58643">
        <ele>268.4</ele>
        <time>2020-01-19T14:05:39.000Z</time>
      </trkpt>
      <trkpt lat="43.80472" lon="3.58639">
        <ele>268.4</ele>
        <time>2020-01-19T14:06:02.000Z</time>
      </trkpt>
      <trkpt lat="43.8048" lon="3.58625">
        <ele>270.8</ele>
        <time>2020-01-19T14:06:23.000Z</time>
      </trkpt>
      <trkpt lat="43.80483" lon="3.586">
        <ele>273.6</ele>
        <time>2020-01-19T14:06:46.000Z</time>
      </trkpt>
      <trkpt lat="43.80487" lon="3.58606">
        <ele>275.1</ele>
        <time>2020-01-19T14:07:01.000Z</time>
      </trkpt>
      <trkpt lat="43.80499" lon="3.5863">
        <ele>276.5</ele>
        <time>2020-01-19T14:07:24.000Z</time>
      </trkpt>
      <trkpt lat="43.80508" lon="3.58646">
        <ele>278.4</ele>
        <time>2020-01-19T14:07:40.000Z</time>
      </trkpt>
      <trkpt lat="43.80521" lon="3.58665">
        <ele>279.9</ele>
        <time>2020-01-19T14:07:57.000Z</time>
      </trkpt>
      <trkpt lat="43.80533" lon="3.58673">
        <ele>280.4</ele>
        <time>2020-01-19T14:08:12.000Z</time>
      </trkpt>
      <trkpt lat="43.80541" lon="3.58683">
        <ele>282.8</ele>
        <time>2020-01-19T14:08:28.000Z</time>
      </trkpt>
      <trkpt lat="43.80547" lon="3.58687">
        <ele>283.7</ele>
        <time>2020-01-19T14:08:37.000Z</time>
      </trkpt>
      <trkpt lat="43.80558" lon="3.58685">
        <ele>285.2</ele>
        <time>2020-01-19T14:08:52.000Z</time>
      </trkpt>
      <trkpt lat="43.80563" lon="3.58688">
        <ele>286.1</ele>
        <time>2020-01-19T14:09:07.000Z</time>
      </trkpt>
      <trkpt lat="43.80562" lon="3.58694">
        <ele>288.5</ele>
        <time>2020-01-19T14:09:20.000Z</time>
      </trkpt>
      <trkpt lat="43.80569" lon="3.58693">
        <ele>290.5</ele>
        <time>2020-01-19T14:09:40.000Z</time>
      </trkpt>
      <trkpt lat="43.8058" lon="3.587">
        <ele>290</ele>
        <time>2020-01-19T14:09:55.000Z</time>
      </trkpt>
      <trkpt lat="43.80582" lon="3.58692">
        <ele>290</ele>
        <time>2020-01-19T14:10:13.000Z</time>
      </trkpt>
      <trkpt lat="43.80598" lon="3.58695">
        <ele>286.6</ele>
        <time>2020-01-19T14:10:33.000Z</time>
      </trkpt>
      <trkpt lat="43.8061" lon="3.58705">
        <ele>285.2</ele>
        <time>2020-01-19T14:10:53.000Z</time>
      </trkpt>
      <trkpt lat="43.80617" lon="3.58713">
        <ele>283.7</ele>
        <time>2020-01-19T14:11:11.000Z</time>
      </trkpt>
      <trkpt lat="43.80624" lon="3.58712">
        <ele>280.8</ele>
        <time>2020-01-19T14:11:33.000Z</time>
      </trkpt>
      <trkpt lat="43.80625" lon="3.58716">
        <ele>279.9</ele>
        <time>2020-01-19T14:11:39.000Z</time>
      </trkpt>
      <trkpt lat="43.80626" lon="3.58734">
        <ele>277.5</ele>
        <time>2020-01-19T14:11:56.000Z</time>
      </trkpt>
      <trkpt lat="43.80624" lon="3.58749">
        <ele>274.6</ele>
        <time>2020-01-19T14:12:09.000Z</time>
      </trkpt>
      <trkpt lat="43.80618" lon="3.58763">
        <ele>272.7</ele>
        <time>2020-01-19T14:12:23.000Z</time>
      </trkpt>
      <trkpt lat="43.80627" lon="3.58772">
        <ele>269.8</ele>
        <time>2020-01-19T14:12:37.000Z</time>
      </trkpt>
      <trkpt lat="43.80628" lon="3.58776">
        <ele>267.9</ele>
        <time>2020-01-19T14:12:42.000Z</time>
      </trkpt>
      <trkpt lat="43.80631" lon="3.58785">
        <ele>265</ele>
        <time>2020-01-19T14:12:55.000Z</time>
      </trkpt>
      <trkpt lat="43.80631" lon="3.58786">
        <ele>264.5</ele>
        <time>2020-01-19T14:12:56.000Z</time>
      </trkpt>
      <trkpt lat="43.80642" lon="3.58792">
        <ele>264</ele>
        <time>2020-01-19T14:13:08.000Z</time>
      </trkpt>
      <trkpt lat="43.80652" lon="3.58798">
        <ele>260.2</ele>
        <time>2020-01-19T14:13:19.000Z</time>
      </trkpt>
      <trkpt lat="43.80652" lon="3.58807">
        <ele>257.8</ele>
        <time>2020-01-19T14:13:36.000Z</time>
      </trkpt>
      <trkpt lat="43.80653" lon="3.58806">
        <ele>257.3</ele>
        <time>2020-01-19T14:13:37.000Z</time>
      </trkpt>
      <trkpt lat="43.8066" lon="3.58795">
        <ele>257.3</ele>
        <time>2020-01-19T14:13:51.000Z</time>
      </trkpt>
      <trkpt lat="43.80663" lon="3.58782">
        <ele>256.8</ele>
        <time>2020-01-19T14:14:02.000Z</time>
      </trkpt>
      <trkpt lat="43.80666" lon="3.58771">
        <ele>256.3</ele>
        <time>2020-01-19T14:14:10.000Z</time>
      </trkpt>
      <trkpt lat="43.80674" lon="3.5875">
        <ele>254.4</ele>
        <time>2020-01-19T14:14:28.000Z</time>
      </trkpt>
      <trkpt lat="43.80675" lon="3.58747">
        <ele>252</ele>
        <time>2020-01-19T14:14:41.000Z</time>
      </trkpt>
      <trkpt lat="43.80673" lon="3.58754">
        <ele>250.6</ele>
        <time>2020-01-19T14:14:47.000Z</time>
      </trkpt>
      <trkpt lat="43.80675" lon="3.58758">
        <ele>249.1</ele>
        <time>2020-01-19T14:14:56.000Z</time>
      </trkpt>
      <trkpt lat="43.80682" lon="3.58752">
        <ele>246.2</ele>
        <time>2020-01-19T14:15:05.000Z</time>
      </trkpt>
      <trkpt lat="43.80684" lon="3.58752">
        <ele>244.8</ele>
        <time>2020-01-19T14:15:08.000Z</time>
      </trkpt>
      <trkpt lat="43.80685" lon="3.58752">
        <ele>244.3</ele>
        <time>2020-01-19T14:15:09.000Z</time>
      </trkpt>
      <trkpt lat="43.80689" lon="3.5875">
        <ele>246.2</ele>
        <time>2020-01-19T14:15:13.000Z</time>
      </trkpt>
      <trkpt lat="43.807" lon="3.5874">
        <ele>243.4</ele>
        <time>2020-01-19T14:15:29.000Z</time>
      </trkpt>
      <trkpt lat="43.80706" lon="3.58731">
        <ele>240.5</ele>
        <time>2020-01-19T14:15:38.000Z</time>
      </trkpt>
      <trkpt lat="43.80706" lon="3.5873">
        <ele>240</ele>
        <time>2020-01-19T14:15:39.000Z</time>
      </trkpt>
      <trkpt lat="43.80714" lon="3.58727">
        <ele>237.6</ele>
        <time>2020-01-19T14:15:48.000Z</time>
      </trkpt>
      <trkpt lat="43.80726" lon="3.58727">
        <ele>236.1</ele>
        <time>2020-01-19T14:16:02.000Z</time>
      </trkpt>
      <trkpt lat="43.80738" lon="3.58725">
        <ele>232.8</ele>
        <time>2020-01-19T14:16:14.000Z</time>
      </trkpt>
      <trkpt lat="43.8075" lon="3.5872">
        <ele>231.3</ele>
        <time>2020-01-19T14:16:28.000Z</time>
      </trkpt>
      <trkpt lat="43.80765" lon="3.58715">
        <ele>229.9</ele>
        <time>2020-01-19T14:16:44.000Z</time>
      </trkpt>
      <trkpt lat="43.80776" lon="3.5871">
        <ele>227.5</ele>
        <time>2020-01-19T14:16:59.000Z</time>
      </trkpt>
      <trkpt lat="43.80779" lon="3.5871">
        <ele>227</ele>
        <time>2020-01-19T14:17:02.000Z</time>
      </trkpt>
      <trkpt lat="43.80785" lon="3.58714">
        <ele>226.5</ele>
        <time>2020-01-19T14:17:17.000Z</time>
      </trkpt>
      <trkpt lat="43.80785" lon="3.58719">
        <ele>226.5</ele>
        <time>2020-01-19T14:17:46.000Z</time>
      </trkpt>
      <trkpt lat="43.80784" lon="3.58708">
        <ele>225.6</ele>
        <time>2020-01-19T14:18:07.000Z</time>
      </trkpt>
      <trkpt lat="43.80797" lon="3.58702">
        <ele>223.2</ele>
        <time>2020-01-19T14:18:23.000Z</time>
      </trkpt>
      <trkpt lat="43.80807" lon="3.58695">
        <ele>220.3</ele>
        <time>2020-01-19T14:18:41.000Z</time>
      </trkpt>
      <trkpt lat="43.80824" lon="3.58691">
        <ele>217.4</ele>
        <time>2020-01-19T14:18:56.000Z</time>
      </trkpt>
      <trkpt lat="43.80839" lon="3.58687">
        <ele>215</ele>
        <time>2020-01-19T14:19:09.000Z</time>
      </trkpt>
      <trkpt lat="43.8085" lon="3.58684">
        <ele>214</ele>
        <time>2020-01-19T14:19:22.000Z</time>
      </trkpt>
      <trkpt lat="43.80861" lon="3.58678">
        <ele>211.6</ele>
        <time>2020-01-19T14:19:37.000Z</time>
      </trkpt>
      <trkpt lat="43.80876" lon="3.58672">
        <ele>210.7</ele>
        <time>2020-01-19T14:19:52.000Z</time>
      </trkpt>
      <trkpt lat="43.80885" lon="3.58663">
        <ele>209.2</ele>
        <time>2020-01-19T14:20:05.000Z</time>
      </trkpt>
      <trkpt lat="43.80896" lon="3.58658">
        <ele>207.3</ele>
        <time>2020-01-19T14:20:17.000Z</time>
      </trkpt>
      <trkpt lat="43.80902" lon="3.58652">
        <ele>205.9</ele>
        <time>2020-01-19T14:20:26.000Z</time>
      </trkpt>
      <trkpt lat="43.80909" lon="3.58638">
        <ele>203.5</ele>
        <time>2020-01-19T14:20:40.000Z</time>
      </trkpt>
      <trkpt lat="43.80918" lon="3.58626">
        <ele>200.6</ele>
        <time>2020-01-19T14:20:56.000Z</time>
      </trkpt>
      <trkpt lat="43.80925" lon="3.58619">
        <ele>198.6</ele>
        <time>2020-01-19T14:21:07.000Z</time>
      </trkpt>
      <trkpt lat="43.80935" lon="3.58614">
        <ele>197.2</ele>
        <time>2020-01-19T14:21:19.000Z</time>
      </trkpt>
      <trkpt lat="43.80948" lon="3.5861">
        <ele>195.8</ele>
        <time>2020-01-19T14:21:31.000Z</time>
      </trkpt>
      <trkpt lat="43.80964" lon="3.58608">
        <ele>194.3</ele>
        <time>2020-01-19T14:21:47.000Z</time>
      </trkpt>
      <trkpt lat="43.80971" lon="3.58602">
        <ele>192.9</ele>
        <time>2020-01-19T14:21:59.000Z</time>
      </trkpt>
      <trkpt lat="43.80984" lon="3.58601">
        <ele>190.5</ele>
        <time>2020-01-19T14:22:14.000Z</time>
      </trkpt>
      <trkpt lat="43.81001" lon="3.58607">
        <ele>189</ele>
        <time>2020-01-19T14:22:31.000Z</time>
      </trkpt>
      <trkpt lat="43.8101" lon="3.58615">
        <ele>188.1</ele>
        <time>2020-01-19T14:22:44.000Z</time>
      </trkpt>
      <trkpt lat="43.81013" lon="3.58614">
        <ele>187.6</ele>
        <time>2020-01-19T14:22:47.000Z</time>
      </trkpt>
      <trkpt lat="43.81027" lon="3.5862">
        <ele>186.6</ele>
        <time>2020-01-19T14:23:03.000Z</time>
      </trkpt>
      <trkpt lat="43.81035" lon="3.58625">
        <ele>186.6</ele>
        <time>2020-01-19T14:23:18.000Z</time>
      </trkpt>
      <trkpt lat="43.81037" lon="3.5862">
        <ele>186.1</ele>
        <time>2020-01-19T14:23:37.000Z</time>
      </trkpt>
      <trkpt lat="43.81043" lon="3.58618">
        <ele>187.1</ele>
        <time>2020-01-19T14:24:10.000Z</time>
      </trkpt>
      <trkpt lat="43.81056" lon="3.5861">
        <ele>186.1</ele>
        <time>2020-01-19T14:24:29.000Z</time>
      </trkpt>
      <trkpt lat="43.81069" lon="3.5861">
        <ele>185.2</ele>
        <time>2020-01-19T14:24:46.000Z</time>
      </trkpt>
      <trkpt lat="43.81085" lon="3.58606">
        <ele>187.6</ele>
        <time>2020-01-19T14:25:07.000Z</time>
      </trkpt>
      <trkpt lat="43.81093" lon="3.58616">
        <ele>189.5</ele>
        <time>2020-01-19T14:25:23.000Z</time>
      </trkpt>
      <trkpt lat="43.81105" lon="3.58628">
        <ele>191.9</ele>
        <time>2020-01-19T14:25:43.000Z</time>
      </trkpt>
      <trkpt lat="43.81123" lon="3.58642">
        <ele>193.8</ele>
        <time>2020-01-19T14:26:06.000Z</time>
      </trkpt>
      <trkpt lat="43.81135" lon="3.58642">
        <ele>195.3</ele>
        <time>2020-01-19T14:26:21.000Z</time>
      </trkpt>
      <trkpt lat="43.81152" lon="3.58631">
        <ele>197.7</ele>
        <time>2020-01-19T14:26:43.000Z</time>
      </trkpt>
      <trkpt lat="43.81169" lon="3.58637">
        <ele>199.1</ele>
        <time>2020-01-19T14:27:04.000Z</time>
      </trkpt>
    </trkseg>
  </trk>
  <trk>
    <name><![CDATA[Lauret_Lafoux]]></name>
    <trkseg>
      <trkpt lat="43.8425" lon="3.85686">
        <ele>440.4</ele>
        <time>2019-12-22T09:32:35.000Z</time>
      </trkpt>
      <trkpt lat="43.8425" lon="3.85686">
        <ele>436.6</ele>
        <time>2019-12-22T09:32:36.000Z</time>
      </trkpt>
      <trkpt lat="43.8425" lon="3.85686">
        <ele>428.9</ele>
        <time>2019-12-22T09:32:37.000Z</time>
      </trkpt>
      <trkpt lat="43.8425" lon="3.85686">
        <ele>425.5</ele>
        <time>2019-12-22T09:32:38.000Z</time>
      </trkpt>
      <trkpt lat="43.8425" lon="3.85686">
        <ele>425.5</ele>
        <time>2019-12-22T09:32:39.000Z</time>
      </trkpt>
      <trkpt lat="43.8425" lon="3.85685">
        <ele>422.2</ele>
        <time>2019-12-22T09:32:40.000Z</time>
      </trkpt>
      <trkpt lat="43.8425" lon="3.85685">
        <ele>418.8</ele>
        <time>2019-12-22T09:32:41.000Z</time>
      </trkpt>
      <trkpt lat="43.8425" lon="3.85685">
        <ele>415.4</ele>
        <time>2019-12-22T09:32:42.000Z</time>
      </trkpt>
      <trkpt lat="43.8425" lon="3.85684">
        <ele>412.5</ele>
        <time>2019-12-22T09:32:43.000Z</time>
      </trkpt>
      <trkpt lat="43.8425" lon="3.85684">
        <ele>406.8</ele>
        <time>2019-12-22T09:32:45.000Z</time>
      </trkpt>
      <trkpt lat="43.8425" lon="3.85684">
        <ele>401.5</ele>
        <time>2019-12-22T09:32:47.000Z</time>
      </trkpt>
      <trkpt lat="43.8425" lon="3.85685">
        <ele>396.2</ele>
        <time>2019-12-22T09:32:49.000Z</time>
      </trkpt>
      <trkpt lat="43.8425" lon="3.85684">
        <ele>391.4</ele>
        <time>2019-12-22T09:32:51.000Z</time>
      </trkpt>
      <trkpt lat="43.8425" lon="3.85684">
        <ele>387.1</ele>
        <time>2019-12-22T09:32:53.000Z</time>
      </trkpt>
      <trkpt lat="43.8425" lon="3.85684">
        <ele>383.2</ele>
        <time>2019-12-22T09:32:55.000Z</time>
      </trkpt>
      <trkpt lat="43.8425" lon="3.85685">
        <ele>379.4</ele>
        <time>2019-12-22T09:32:57.000Z</time>
      </trkpt>
      <trkpt lat="43.84249" lon="3.85685">
        <ele>375.5</ele>
        <time>2019-12-22T09:32:59.000Z</time>
      </trkpt>
      <trkpt lat="43.84249" lon="3.85684">
        <ele>372.2</ele>
        <time>2019-12-22T09:33:01.000Z</time>
      </trkpt>
      <trkpt lat="43.84249" lon="3.85684">
        <ele>367.8</ele>
        <time>2019-12-22T09:33:03.000Z</time>
      </trkpt>
      <trkpt lat="43.84249" lon="3.85684">
        <ele>367.8</ele>
        <time>2019-12-22T09:33:04.000Z</time>
      </trkpt>
      <trkpt lat="43.84249" lon="3.85684">
        <ele>363.5</ele>
        <time>2019-12-22T09:33:07.000Z</time>
      </trkpt>
      <trkpt lat="43.84249" lon="3.85684">
        <ele>360.1</ele>
        <time>2019-12-22T09:33:10.000Z</time>
      </trkpt>
      <trkpt lat="43.84249" lon="3.85684">
        <ele>356.8</ele>
        <time>2019-12-22T09:33:13.000Z</time>
      </trkpt>
      <trkpt lat="43.84249" lon="3.85684">
        <ele>353.4</ele>
        <time>2019-12-22T09:33:17.000Z</time>
      </trkpt>
      <trkpt lat="43.8425" lon="3.85685">
        <ele>350.1</ele>
        <time>2019-12-22T09:33:21.000Z</time>
      </trkpt>
      <trkpt lat="43.8425" lon="3.85685">
        <ele>346.2</ele>
        <time>2019-12-22T09:33:27.000Z</time>
      </trkpt>
      <trkpt lat="43.8425" lon="3.85685">
        <ele>346.2</ele>
        <time>2019-12-22T09:33:28.000Z</time>
      </trkpt>
      <trkpt lat="43.8425" lon="3.85684">
        <ele>342.4</ele>
        <time>2019-12-22T09:33:34.000Z</time>
      </trkpt>
      <trkpt lat="43.8425" lon="3.85683">
        <ele>339.5</ele>
        <time>2019-12-22T09:33:41.000Z</time>
      </trkpt>
      <trkpt lat="43.84248" lon="3.85683">
        <ele>336.1</ele>
        <time>2019-12-22T09:33:50.000Z</time>
      </trkpt>
      <trkpt lat="43.84247" lon="3.85682">
        <ele>333.2</ele>
        <time>2019-12-22T09:33:59.000Z</time>
      </trkpt>
      <trkpt lat="43.84247" lon="3.85684">
        <ele>334.7</ele>
        <time>2019-12-22T09:34:05.000Z</time>
      </trkpt>
      <trkpt lat="43.84247" lon="3.85684">
        <ele>331.3</ele>
        <time>2019-12-22T09:34:06.000Z</time>
      </trkpt>
      <trkpt lat="43.84247" lon="3.85685">
        <ele>328</ele>
        <time>2019-12-22T09:34:13.000Z</time>
      </trkpt>
      <trkpt lat="43.84247" lon="3.85685">
        <ele>328</ele>
        <time>2019-12-22T09:34:14.000Z</time>
      </trkpt>
      <trkpt lat="43.84247" lon="3.85684">
        <ele>327</ele>
        <time>2019-12-22T09:34:28.000Z</time>
      </trkpt>
      <trkpt lat="43.84249" lon="3.85686">
        <ele>328.4</ele>
        <time>2019-12-22T09:34:46.000Z</time>
      </trkpt>
      <trkpt lat="43.84248" lon="3.85686">
        <ele>325.5</ele>
        <time>2019-12-22T09:34:49.000Z</time>
      </trkpt>
      <trkpt lat="43.84248" lon="3.85685">
        <ele>329.9</ele>
        <time>2019-12-22T09:34:53.000Z</time>
      </trkpt>
      <trkpt lat="43.84248" lon="3.85686">
        <ele>326.5</ele>
        <time>2019-12-22T09:34:55.000Z</time>
      </trkpt>
      <trkpt lat="43.84248" lon="3.85686">
        <ele>325.5</ele>
        <time>2019-12-22T09:34:57.000Z</time>
      </trkpt>
      <trkpt lat="43.84248" lon="3.85684">
        <ele>326</ele>
        <time>2019-12-22T09:35:04.000Z</time>
      </trkpt>
      <trkpt lat="43.84248" lon="3.85682">
        <ele>324.6</ele>
        <time>2019-12-22T09:35:22.000Z</time>
      </trkpt>
      <trkpt lat="43.84248" lon="3.85682">
        <ele>328</ele>
        <time>2019-12-22T09:35:23.000Z</time>
      </trkpt>
      <trkpt lat="43.84248" lon="3.85682">
        <ele>326</ele>
        <time>2019-12-22T09:35:24.000Z</time>
      </trkpt>
      <trkpt lat="43.84247" lon="3.85687">
        <ele>327.5</ele>
        <time>2019-12-22T09:35:39.000Z</time>
      </trkpt>
      <trkpt lat="43.84243" lon="3.8569">
        <ele>325.5</ele>
        <time>2019-12-22T09:35:51.000Z</time>
      </trkpt>
      <trkpt lat="43.84242" lon="3.85691">
        <ele>325.5</ele>
        <time>2019-12-22T09:35:52.000Z</time>
      </trkpt>
      <trkpt lat="43.84239" lon="3.85693">
        <ele>327.5</ele>
        <time>2019-12-22T09:35:55.000Z</time>
      </trkpt>
      <trkpt lat="43.84232" lon="3.85698">
        <ele>327</ele>
        <time>2019-12-22T09:36:06.000Z</time>
      </trkpt>
      <trkpt lat="43.84231" lon="3.85699">
        <ele>328</ele>
        <time>2019-12-22T09:36:07.000Z</time>
      </trkpt>
      <trkpt lat="43.84227" lon="3.85709">
        <ele>328</ele>
        <time>2019-12-22T09:36:22.000Z</time>
      </trkpt>
      <trkpt lat="43.84225" lon="3.85715">
        <ele>329.9</ele>
        <time>2019-12-22T09:36:27.000Z</time>
      </trkpt>
      <trkpt lat="43.84226" lon="3.85716">
        <ele>328.4</ele>
        <time>2019-12-22T09:36:41.000Z</time>
      </trkpt>
      <trkpt lat="43.84225" lon="3.85723">
        <ele>328</ele>
        <time>2019-12-22T09:36:59.000Z</time>
      </trkpt>
      <trkpt lat="43.8422" lon="3.85736">
        <ele>329.4</ele>
        <time>2019-12-22T09:37:11.000Z</time>
      </trkpt>
      <trkpt lat="43.84217" lon="3.85748">
        <ele>330.4</ele>
        <time>2019-12-22T09:37:22.000Z</time>
      </trkpt>
      <trkpt lat="43.84216" lon="3.8575">
        <ele>333.7</ele>
        <time>2019-12-22T09:37:24.000Z</time>
      </trkpt>
      <trkpt lat="43.84216" lon="3.85754">
        <ele>330.4</ele>
        <time>2019-12-22T09:37:27.000Z</time>
      </trkpt>
      <trkpt lat="43.84214" lon="3.8576">
        <ele>329.4</ele>
        <time>2019-12-22T09:37:32.000Z</time>
      </trkpt>
      <trkpt lat="43.84213" lon="3.85782">
        <ele>329.9</ele>
        <time>2019-12-22T09:37:49.000Z</time>
      </trkpt>
      <trkpt lat="43.8421" lon="3.85802">
        <ele>327.5</ele>
        <time>2019-12-22T09:38:03.000Z</time>
      </trkpt>
      <trkpt lat="43.84205" lon="3.85823">
        <ele>327.5</ele>
        <time>2019-12-22T09:38:19.000Z</time>
      </trkpt>
      <trkpt lat="43.84202" lon="3.85833">
        <ele>330.8</ele>
        <time>2019-12-22T09:38:26.000Z</time>
      </trkpt>
      <trkpt lat="43.84201" lon="3.85834">
        <ele>330.4</ele>
        <time>2019-12-22T09:38:27.000Z</time>
      </trkpt>
      <trkpt lat="43.84199" lon="3.8584">
        <ele>328</ele>
        <time>2019-12-22T09:38:32.000Z</time>
      </trkpt>
      <trkpt lat="43.84198" lon="3.8585">
        <ele>330.4</ele>
        <time>2019-12-22T09:38:40.000Z</time>
      </trkpt>
      <trkpt lat="43.84199" lon="3.85869">
        <ele>331.3</ele>
        <time>2019-12-22T09:38:55.000Z</time>
      </trkpt>
      <trkpt lat="43.84202" lon="3.85883">
        <ele>333.2</ele>
        <time>2019-12-22T09:39:07.000Z</time>
      </trkpt>
      <trkpt lat="43.84199" lon="3.85897">
        <ele>333.7</ele>
        <time>2019-12-22T09:39:19.000Z</time>
      </trkpt>
      <trkpt lat="43.84192" lon="3.85914">
        <ele>333.2</ele>
        <time>2019-12-22T09:39:33.000Z</time>
      </trkpt>
      <trkpt lat="43.84191" lon="3.85916">
        <ele>334.2</ele>
        <time>2019-12-22T09:39:35.000Z</time>
      </trkpt>
      <trkpt lat="43.84186" lon="3.85925">
        <ele>335.2</ele>
        <time>2019-12-22T09:39:44.000Z</time>
      </trkpt>
      <trkpt lat="43.84181" lon="3.8593">
        <ele>334.7</ele>
        <time>2019-12-22T09:39:49.000Z</time>
      </trkpt>
      <trkpt lat="43.8418" lon="3.85933">
        <ele>335.6</ele>
        <time>2019-12-22T09:39:51.000Z</time>
      </trkpt>
      <trkpt lat="43.84177" lon="3.85949">
        <ele>337.1</ele>
        <time>2019-12-22T09:40:02.000Z</time>
      </trkpt>
      <trkpt lat="43.84176" lon="3.85955">
        <ele>337.6</ele>
        <time>2019-12-22T09:40:06.000Z</time>
      </trkpt>
      <trkpt lat="43.84175" lon="3.85971">
        <ele>334.7</ele>
        <time>2019-12-22T09:40:18.000Z</time>
      </trkpt>
      <trkpt lat="43.84174" lon="3.85976">
        <ele>336.1</ele>
        <time>2019-12-22T09:40:23.000Z</time>
      </trkpt>
      <trkpt lat="43.84174" lon="3.85993">
        <ele>337.1</ele>
        <time>2019-12-22T09:40:37.000Z</time>
      </trkpt>
      <trkpt lat="43.8418" lon="3.8601">
        <ele>335.6</ele>
        <time>2019-12-22T09:40:51.000Z</time>
      </trkpt>
      <trkpt lat="43.84185" lon="3.8602">
        <ele>332.3</ele>
        <time>2019-12-22T09:41:01.000Z</time>
      </trkpt>
      <trkpt lat="43.84186" lon="3.86024">
        <ele>335.6</ele>
        <time>2019-12-22T09:41:04.000Z</time>
      </trkpt>
      <trkpt lat="43.84192" lon="3.86031">
        <ele>332.8</ele>
        <time>2019-12-22T09:41:11.000Z</time>
      </trkpt>
      <trkpt lat="43.84194" lon="3.86031">
        <ele>334.2</ele>
        <time>2019-12-22T09:41:13.000Z</time>
      </trkpt>
      <trkpt lat="43.84198" lon="3.86039">
        <ele>337.6</ele>
        <time>2019-12-22T09:41:19.000Z</time>
      </trkpt>
      <trkpt lat="43.84199" lon="3.8604">
        <ele>336.1</ele>
        <time>2019-12-22T09:41:20.000Z</time>
      </trkpt>
      <trkpt lat="43.84201" lon="3.86051">
        <ele>335.6</ele>
        <time>2019-12-22T09:41:27.000Z</time>
      </trkpt>
      <trkpt lat="43.84199" lon="3.86065">
        <ele>335.2</ele>
        <time>2019-12-22T09:41:40.000Z</time>
      </trkpt>
      <trkpt lat="43.84196" lon="3.8607">
        <ele>334.7</ele>
        <time>2019-12-22T09:41:46.000Z</time>
      </trkpt>
      <trkpt lat="43.84192" lon="3.86083">
        <ele>335.2</ele>
        <time>2019-12-22T09:41:56.000Z</time>
      </trkpt>
      <trkpt lat="43.84191" lon="3.86089">
        <ele>334.7</ele>
        <time>2019-12-22T09:42:00.000Z</time>
      </trkpt>
      <trkpt lat="43.8419" lon="3.86091">
        <ele>334.2</ele>
        <time>2019-12-22T09:42:02.000Z</time>
      </trkpt>
      <trkpt lat="43.84188" lon="3.86106">
        <ele>334.2</ele>
        <time>2019-12-22T09:42:14.000Z</time>
      </trkpt>
      <trkpt lat="43.8419" lon="3.86124">
        <ele>335.2</ele>
        <time>2019-12-22T09:42:28.000Z</time>
      </trkpt>
      <trkpt lat="43.84194" lon="3.86141">
        <ele>336.1</ele>
        <time>2019-12-22T09:42:42.000Z</time>
      </trkpt>
      <trkpt lat="43.84192" lon="3.86162">
        <ele>336.1</ele>
        <time>2019-12-22T09:42:58.000Z</time>
      </trkpt>
      <trkpt lat="43.84196" lon="3.86178">
        <ele>334.7</ele>
        <time>2019-12-22T09:43:12.000Z</time>
      </trkpt>
      <trkpt lat="43.84196" lon="3.86179">
        <ele>334.7</ele>
        <time>2019-12-22T09:43:13.000Z</time>
      </trkpt>
      <trkpt lat="43.84196" lon="3.86182">
        <ele>336.1</ele>
        <time>2019-12-22T09:43:16.000Z</time>
      </trkpt>
      <trkpt lat="43.84203" lon="3.86197">
        <ele>336.1</ele>
        <time>2019-12-22T09:43:30.000Z</time>
      </trkpt>
      <trkpt lat="43.84205" lon="3.86201">
        <ele>337.1</ele>
        <time>2019-12-22T09:43:34.000Z</time>
      </trkpt>
      <trkpt lat="43.84209" lon="3.86207">
        <ele>338</ele>
        <time>2019-12-22T09:43:41.000Z</time>
      </trkpt>
      <trkpt lat="43.84219" lon="3.86216">
        <ele>337.6</ele>
        <time>2019-12-22T09:43:55.000Z</time>
      </trkpt>
      <trkpt lat="43.84222" lon="3.86221">
        <ele>337.6</ele>
        <time>2019-12-22T09:44:01.000Z</time>
      </trkpt>
      <trkpt lat="43.84224" lon="3.86224">
        <ele>338</ele>
        <time>2019-12-22T09:44:04.000Z</time>
      </trkpt>
      <trkpt lat="43.84227" lon="3.86232">
        <ele>338.5</ele>
        <time>2019-12-22T09:44:11.000Z</time>
      </trkpt>
      <trkpt lat="43.84231" lon="3.86234">
        <ele>336.1</ele>
        <time>2019-12-22T09:44:15.000Z</time>
      </trkpt>
      <trkpt lat="43.84237" lon="3.86241">
        <ele>344.3</ele>
        <time>2019-12-22T09:44:22.000Z</time>
      </trkpt>
      <trkpt lat="43.84237" lon="3.86242">
        <ele>340.9</ele>
        <time>2019-12-22T09:44:23.000Z</time>
      </trkpt>
      <trkpt lat="43.84238" lon="3.86243">
        <ele>337.6</ele>
        <time>2019-12-22T09:44:24.000Z</time>
      </trkpt>
      <trkpt lat="43.84238" lon="3.86245">
        <ele>337.6</ele>
        <time>2019-12-22T09:44:25.000Z</time>
      </trkpt>
      <trkpt lat="43.84239" lon="3.86246">
        <ele>339</ele>
        <time>2019-12-22T09:44:26.000Z</time>
      </trkpt>
      <trkpt lat="43.84242" lon="3.86248">
        <ele>335.2</ele>
        <time>2019-12-22T09:44:29.000Z</time>
      </trkpt>
      <trkpt lat="43.84243" lon="3.86248">
        <ele>335.2</ele>
        <time>2019-12-22T09:44:30.000Z</time>
      </trkpt>
      <trkpt lat="43.84245" lon="3.86249">
        <ele>339</ele>
        <time>2019-12-22T09:44:33.000Z</time>
      </trkpt>
      <trkpt lat="43.84246" lon="3.86249">
        <ele>338</ele>
        <time>2019-12-22T09:44:34.000Z</time>
      </trkpt>
      <trkpt lat="43.84256" lon="3.86254">
        <ele>338</ele>
        <time>2019-12-22T09:44:48.000Z</time>
      </trkpt>
      <trkpt lat="43.84257" lon="3.86254">
        <ele>338</ele>
        <time>2019-12-22T09:44:49.000Z</time>
      </trkpt>
      <trkpt lat="43.84256" lon="3.86254">
        <ele>340</ele>
        <time>2019-12-22T09:45:00.000Z</time>
      </trkpt>
      <trkpt lat="43.84256" lon="3.86254">
        <ele>336.1</ele>
        <time>2019-12-22T09:45:02.000Z</time>
      </trkpt>
      <trkpt lat="43.84256" lon="3.86254">
        <ele>333.7</ele>
        <time>2019-12-22T09:45:09.000Z</time>
      </trkpt>
      <trkpt lat="43.84256" lon="3.86254">
        <ele>337.6</ele>
        <time>2019-12-22T09:45:11.000Z</time>
      </trkpt>
      <trkpt lat="43.84256" lon="3.86254">
        <ele>337.1</ele>
        <time>2019-12-22T09:45:12.000Z</time>
      </trkpt>
      <trkpt lat="43.84263" lon="3.86256">
        <ele>335.2</ele>
        <time>2019-12-22T09:45:27.000Z</time>
      </trkpt>
      <trkpt lat="43.84265" lon="3.86258">
        <ele>337.1</ele>
        <time>2019-12-22T09:45:30.000Z</time>
      </trkpt>
      <trkpt lat="43.84277" lon="3.86267">
        <ele>338</ele>
        <time>2019-12-22T09:45:46.000Z</time>
      </trkpt>
      <trkpt lat="43.84286" lon="3.86278">
        <ele>339</ele>
        <time>2019-12-22T09:45:58.000Z</time>
      </trkpt>
      <trkpt lat="43.84287" lon="3.86289">
        <ele>339</ele>
        <time>2019-12-22T09:46:06.000Z</time>
      </trkpt>
      <trkpt lat="43.84289" lon="3.86299">
        <ele>340</ele>
        <time>2019-12-22T09:46:14.000Z</time>
      </trkpt>
      <trkpt lat="43.84296" lon="3.86315">
        <ele>338</ele>
        <time>2019-12-22T09:46:29.000Z</time>
      </trkpt>
      <trkpt lat="43.84304" lon="3.86332">
        <ele>339.5</ele>
        <time>2019-12-22T09:46:43.000Z</time>
      </trkpt>
      <trkpt lat="43.84306" lon="3.86339">
        <ele>338</ele>
        <time>2019-12-22T09:46:49.000Z</time>
      </trkpt>
      <trkpt lat="43.84308" lon="3.86348">
        <ele>340.4</ele>
        <time>2019-12-22T09:46:56.000Z</time>
      </trkpt>
      <trkpt lat="43.84307" lon="3.86355">
        <ele>345.3</ele>
        <time>2019-12-22T09:47:01.000Z</time>
      </trkpt>
      <trkpt lat="43.84307" lon="3.86356">
        <ele>341.4</ele>
        <time>2019-12-22T09:47:02.000Z</time>
      </trkpt>
      <trkpt lat="43.84306" lon="3.86359">
        <ele>339.5</ele>
        <time>2019-12-22T09:47:04.000Z</time>
      </trkpt>
      <trkpt lat="43.84301" lon="3.86376">
        <ele>340.4</ele>
        <time>2019-12-22T09:47:18.000Z</time>
      </trkpt>
      <trkpt lat="43.843" lon="3.86379">
        <ele>339</ele>
        <time>2019-12-22T09:47:20.000Z</time>
      </trkpt>
      <trkpt lat="43.84298" lon="3.86387">
        <ele>341.9</ele>
        <time>2019-12-22T09:47:25.000Z</time>
      </trkpt>
      <trkpt lat="43.84295" lon="3.86395">
        <ele>340</ele>
        <time>2019-12-22T09:47:31.000Z</time>
      </trkpt>
      <trkpt lat="43.84293" lon="3.86401">
        <ele>342.4</ele>
        <time>2019-12-22T09:47:35.000Z</time>
      </trkpt>
      <trkpt lat="43.84288" lon="3.86419">
        <ele>342.4</ele>
        <time>2019-12-22T09:47:49.000Z</time>
      </trkpt>
      <trkpt lat="43.84281" lon="3.86438">
        <ele>341.9</ele>
        <time>2019-12-22T09:48:04.000Z</time>
      </trkpt>
      <trkpt lat="43.84274" lon="3.86459">
        <ele>341.9</ele>
        <time>2019-12-22T09:48:20.000Z</time>
      </trkpt>
      <trkpt lat="43.84267" lon="3.86477">
        <ele>342.4</ele>
        <time>2019-12-22T09:48:34.000Z</time>
      </trkpt>
      <trkpt lat="43.84266" lon="3.86479">
        <ele>345.7</ele>
        <time>2019-12-22T09:48:36.000Z</time>
      </trkpt>
      <trkpt lat="43.84266" lon="3.865">
        <ele>347.6</ele>
        <time>2019-12-22T09:48:51.000Z</time>
      </trkpt>
      <trkpt lat="43.84269" lon="3.86513">
        <ele>347.2</ele>
        <time>2019-12-22T09:49:01.000Z</time>
      </trkpt>
      <trkpt lat="43.84273" lon="3.86523">
        <ele>348.6</ele>
        <time>2019-12-22T09:49:09.000Z</time>
      </trkpt>
      <trkpt lat="43.84276" lon="3.86545">
        <ele>350.5</ele>
        <time>2019-12-22T09:49:26.000Z</time>
      </trkpt>
      <trkpt lat="43.84279" lon="3.86553">
        <ele>348.6</ele>
        <time>2019-12-22T09:49:33.000Z</time>
      </trkpt>
      <trkpt lat="43.84279" lon="3.86555">
        <ele>349.6</ele>
        <time>2019-12-22T09:49:35.000Z</time>
      </trkpt>
      <trkpt lat="43.84279" lon="3.86558">
        <ele>347.2</ele>
        <time>2019-12-22T09:49:37.000Z</time>
      </trkpt>
      <trkpt lat="43.84279" lon="3.86562">
        <ele>349.6</ele>
        <time>2019-12-22T09:49:40.000Z</time>
      </trkpt>
      <trkpt lat="43.8428" lon="3.86564">
        <ele>350.1</ele>
        <time>2019-12-22T09:49:42.000Z</time>
      </trkpt>
      <trkpt lat="43.84281" lon="3.86581">
        <ele>350.5</ele>
        <time>2019-12-22T09:49:57.000Z</time>
      </trkpt>
      <trkpt lat="43.8428" lon="3.8659">
        <ele>353.4</ele>
        <time>2019-12-22T09:50:05.000Z</time>
      </trkpt>
      <trkpt lat="43.84282" lon="3.86595">
        <ele>353.4</ele>
        <time>2019-12-22T09:50:09.000Z</time>
      </trkpt>
      <trkpt lat="43.84285" lon="3.86599">
        <ele>351</ele>
        <time>2019-12-22T09:50:13.000Z</time>
      </trkpt>
      <trkpt lat="43.84286" lon="3.86599">
        <ele>351</ele>
        <time>2019-12-22T09:50:14.000Z</time>
      </trkpt>
      <trkpt lat="43.84289" lon="3.86597">
        <ele>354.9</ele>
        <time>2019-12-22T09:50:17.000Z</time>
      </trkpt>
      <trkpt lat="43.8429" lon="3.86596">
        <ele>352.5</ele>
        <time>2019-12-22T09:50:18.000Z</time>
      </trkpt>
      <trkpt lat="43.84295" lon="3.86596">
        <ele>353.9</ele>
        <time>2019-12-22T09:50:24.000Z</time>
      </trkpt>
      <trkpt lat="43.84297" lon="3.86597">
        <ele>352.9</ele>
        <time>2019-12-22T09:50:26.000Z</time>
      </trkpt>
      <trkpt lat="43.84298" lon="3.86602">
        <ele>353.9</ele>
        <time>2019-12-22T09:50:30.000Z</time>
      </trkpt>
      <trkpt lat="43.84298" lon="3.86603">
        <ele>352.9</ele>
        <time>2019-12-22T09:50:31.000Z</time>
      </trkpt>
      <trkpt lat="43.84298" lon="3.86618">
        <ele>349.6</ele>
        <time>2019-12-22T09:50:44.000Z</time>
      </trkpt>
      <trkpt lat="43.84298" lon="3.86619">
        <ele>349.6</ele>
        <time>2019-12-22T09:50:45.000Z</time>
      </trkpt>
      <trkpt lat="43.84298" lon="3.86621">
        <ele>352.9</ele>
        <time>2019-12-22T09:50:47.000Z</time>
      </trkpt>
      <trkpt lat="43.843" lon="3.86626">
        <ele>349.6</ele>
        <time>2019-12-22T09:50:54.000Z</time>
      </trkpt>
      <trkpt lat="43.84301" lon="3.86628">
        <ele>345.7</ele>
        <time>2019-12-22T09:50:55.000Z</time>
      </trkpt>
      <trkpt lat="43.84301" lon="3.86628">
        <ele>347.2</ele>
        <time>2019-12-22T09:50:56.000Z</time>
      </trkpt>
      <trkpt lat="43.84302" lon="3.86629">
        <ele>351</ele>
        <time>2019-12-22T09:50:57.000Z</time>
      </trkpt>
      <trkpt lat="43.84305" lon="3.86631">
        <ele>355.3</ele>
        <time>2019-12-22T09:51:02.000Z</time>
      </trkpt>
      <trkpt lat="43.84306" lon="3.8663">
        <ele>354.4</ele>
        <time>2019-12-22T09:51:03.000Z</time>
      </trkpt>
      <trkpt lat="43.84314" lon="3.86629">
        <ele>355.8</ele>
        <time>2019-12-22T09:51:12.000Z</time>
      </trkpt>
      <trkpt lat="43.84317" lon="3.86627">
        <ele>356.3</ele>
        <time>2019-12-22T09:51:16.000Z</time>
      </trkpt>
      <trkpt lat="43.84322" lon="3.86622">
        <ele>354.9</ele>
        <time>2019-12-22T09:51:23.000Z</time>
      </trkpt>
      <trkpt lat="43.84328" lon="3.86622">
        <ele>354.9</ele>
        <time>2019-12-22T09:51:27.000Z</time>
      </trkpt>
      <trkpt lat="43.84331" lon="3.86621">
        <ele>358.7</ele>
        <time>2019-12-22T09:51:29.000Z</time>
      </trkpt>
      <trkpt lat="43.84333" lon="3.8662">
        <ele>356.8</ele>
        <time>2019-12-22T09:51:31.000Z</time>
      </trkpt>
      <trkpt lat="43.84336" lon="3.86618">
        <ele>356.8</ele>
        <time>2019-12-22T09:51:36.000Z</time>
      </trkpt>
      <trkpt lat="43.84343" lon="3.86612">
        <ele>356.8</ele>
        <time>2019-12-22T09:51:45.000Z</time>
      </trkpt>
      <trkpt lat="43.84349" lon="3.86608">
        <ele>356.8</ele>
        <time>2019-12-22T09:51:52.000Z</time>
      </trkpt>
      <trkpt lat="43.84357" lon="3.86607">
        <ele>358.2</ele>
        <time>2019-12-22T09:51:58.000Z</time>
      </trkpt>
      <trkpt lat="43.84361" lon="3.86605">
        <ele>358.7</ele>
        <time>2019-12-22T09:52:03.000Z</time>
      </trkpt>
      <trkpt lat="43.84363" lon="3.86605">
        <ele>359.7</ele>
        <time>2019-12-22T09:52:05.000Z</time>
      </trkpt>
      <trkpt lat="43.84371" lon="3.86604">
        <ele>359.2</ele>
        <time>2019-12-22T09:52:14.000Z</time>
      </trkpt>
      <trkpt lat="43.84376" lon="3.86603">
        <ele>360.1</ele>
        <time>2019-12-22T09:52:19.000Z</time>
      </trkpt>
      <trkpt lat="43.84378" lon="3.86604">
        <ele>358.7</ele>
        <time>2019-12-22T09:52:21.000Z</time>
      </trkpt>
      <trkpt lat="43.84385" lon="3.86601">
        <ele>358.7</ele>
        <time>2019-12-22T09:52:27.000Z</time>
      </trkpt>
      <trkpt lat="43.84388" lon="3.86602">
        <ele>357.3</ele>
        <time>2019-12-22T09:52:29.000Z</time>
      </trkpt>
      <trkpt lat="43.84401" lon="3.86601">
        <ele>357.8</ele>
        <time>2019-12-22T09:52:41.000Z</time>
      </trkpt>
      <trkpt lat="43.8441" lon="3.86601">
        <ele>357.8</ele>
        <time>2019-12-22T09:52:52.000Z</time>
      </trkpt>
      <trkpt lat="43.84403" lon="3.86606">
        <ele>360.6</ele>
        <time>2019-12-22T09:53:04.000Z</time>
      </trkpt>
      <trkpt lat="43.84401" lon="3.86611">
        <ele>364.5</ele>
        <time>2019-12-22T09:53:10.000Z</time>
      </trkpt>
      <trkpt lat="43.84401" lon="3.86614">
        <ele>365.4</ele>
        <time>2019-12-22T09:53:12.000Z</time>
      </trkpt>
      <trkpt lat="43.84402" lon="3.86618">
        <ele>366.4</ele>
        <time>2019-12-22T09:53:16.000Z</time>
      </trkpt>
      <trkpt lat="43.84402" lon="3.86626">
        <ele>366.4</ele>
        <time>2019-12-22T09:53:25.000Z</time>
      </trkpt>
      <trkpt lat="43.84392" lon="3.86628">
        <ele>366.9</ele>
        <time>2019-12-22T09:53:37.000Z</time>
      </trkpt>
      <trkpt lat="43.84382" lon="3.86636">
        <ele>365.4</ele>
        <time>2019-12-22T09:53:52.000Z</time>
      </trkpt>
      <trkpt lat="43.8438" lon="3.86637">
        <ele>368.3</ele>
        <time>2019-12-22T09:53:54.000Z</time>
      </trkpt>
      <trkpt lat="43.84378" lon="3.86638">
        <ele>369.8</ele>
        <time>2019-12-22T09:53:55.000Z</time>
      </trkpt>
      <trkpt lat="43.84371" lon="3.86641">
        <ele>371.7</ele>
        <time>2019-12-22T09:54:03.000Z</time>
      </trkpt>
      <trkpt lat="43.8437" lon="3.86643">
        <ele>369.3</ele>
        <time>2019-12-22T09:54:06.000Z</time>
      </trkpt>
      <trkpt lat="43.84364" lon="3.86648">
        <ele>370.7</ele>
        <time>2019-12-22T09:54:14.000Z</time>
      </trkpt>
      <trkpt lat="43.84353" lon="3.86658">
        <ele>372.6</ele>
        <time>2019-12-22T09:54:27.000Z</time>
      </trkpt>
      <trkpt lat="43.84342" lon="3.86664">
        <ele>372.2</ele>
        <time>2019-12-22T09:54:40.000Z</time>
      </trkpt>
      <trkpt lat="43.84337" lon="3.86669">
        <ele>376</ele>
        <time>2019-12-22T09:54:47.000Z</time>
      </trkpt>
      <trkpt lat="43.84337" lon="3.8667">
        <ele>375.5</ele>
        <time>2019-12-22T09:54:48.000Z</time>
      </trkpt>
      <trkpt lat="43.84335" lon="3.86672">
        <ele>374.1</ele>
        <time>2019-12-22T09:54:52.000Z</time>
      </trkpt>
      <trkpt lat="43.8433" lon="3.86682">
        <ele>376.5</ele>
        <time>2019-12-22T09:55:03.000Z</time>
      </trkpt>
      <trkpt lat="43.84329" lon="3.86684">
        <ele>373.1</ele>
        <time>2019-12-22T09:55:05.000Z</time>
      </trkpt>
      <trkpt lat="43.84327" lon="3.86686">
        <ele>376.5</ele>
        <time>2019-12-22T09:55:08.000Z</time>
      </trkpt>
      <trkpt lat="43.84325" lon="3.86689">
        <ele>374.6</ele>
        <time>2019-12-22T09:55:13.000Z</time>
      </trkpt>
      <trkpt lat="43.84322" lon="3.86692">
        <ele>375.5</ele>
        <time>2019-12-22T09:55:17.000Z</time>
      </trkpt>
      <trkpt lat="43.84317" lon="3.86699">
        <ele>379.4</ele>
        <time>2019-12-22T09:55:25.000Z</time>
      </trkpt>
      <trkpt lat="43.84309" lon="3.86708">
        <ele>378.4</ele>
        <time>2019-12-22T09:55:37.000Z</time>
      </trkpt>
      <trkpt lat="43.84306" lon="3.86712">
        <ele>380.3</ele>
        <time>2019-12-22T09:55:41.000Z</time>
      </trkpt>
      <trkpt lat="43.84298" lon="3.86723">
        <ele>381.8</ele>
        <time>2019-12-22T09:55:55.000Z</time>
      </trkpt>
      <trkpt lat="43.84296" lon="3.86728">
        <ele>378.4</ele>
        <time>2019-12-22T09:56:00.000Z</time>
      </trkpt>
      <trkpt lat="43.84295" lon="3.8673">
        <ele>383.7</ele>
        <time>2019-12-22T09:56:02.000Z</time>
      </trkpt>
      <trkpt lat="43.84292" lon="3.8674">
        <ele>382.7</ele>
        <time>2019-12-22T09:56:11.000Z</time>
      </trkpt>
      <trkpt lat="43.84292" lon="3.86743">
        <ele>382.7</ele>
        <time>2019-12-22T09:56:13.000Z</time>
      </trkpt>
      <trkpt lat="43.84291" lon="3.86747">
        <ele>386.1</ele>
        <time>2019-12-22T09:56:16.000Z</time>
      </trkpt>
      <trkpt lat="43.84289" lon="3.86751">
        <ele>384.7</ele>
        <time>2019-12-22T09:56:19.000Z</time>
      </trkpt>
      <trkpt lat="43.84289" lon="3.86754">
        <ele>385.1</ele>
        <time>2019-12-22T09:56:21.000Z</time>
      </trkpt>
      <trkpt lat="43.84288" lon="3.86757">
        <ele>386.1</ele>
        <time>2019-12-22T09:56:23.000Z</time>
      </trkpt>
      <trkpt lat="43.84285" lon="3.86771">
        <ele>387.1</ele>
        <time>2019-12-22T09:56:36.000Z</time>
      </trkpt>
      <trkpt lat="43.84283" lon="3.86778">
        <ele>384.2</ele>
        <time>2019-12-22T09:56:42.000Z</time>
      </trkpt>
      <trkpt lat="43.84281" lon="3.8678">
        <ele>387.1</ele>
        <time>2019-12-22T09:56:44.000Z</time>
      </trkpt>
      <trkpt lat="43.8428" lon="3.86783">
        <ele>386.1</ele>
        <time>2019-12-22T09:56:47.000Z</time>
      </trkpt>
      <trkpt lat="43.84277" lon="3.86786">
        <ele>385.1</ele>
        <time>2019-12-22T09:56:52.000Z</time>
      </trkpt>
      <trkpt lat="43.84274" lon="3.86789">
        <ele>388</ele>
        <time>2019-12-22T09:56:57.000Z</time>
      </trkpt>
      <trkpt lat="43.8427" lon="3.86793">
        <ele>386.6</ele>
        <time>2019-12-22T09:57:02.000Z</time>
      </trkpt>
      <trkpt lat="43.84268" lon="3.86796">
        <ele>385.1</ele>
        <time>2019-12-22T09:57:04.000Z</time>
      </trkpt>
      <trkpt lat="43.84267" lon="3.86799">
        <ele>387.5</ele>
        <time>2019-12-22T09:57:07.000Z</time>
      </trkpt>
      <trkpt lat="43.84261" lon="3.86818">
        <ele>389.5</ele>
        <time>2019-12-22T09:57:22.000Z</time>
      </trkpt>
      <trkpt lat="43.84256" lon="3.86827">
        <ele>387.1</ele>
        <time>2019-12-22T09:57:31.000Z</time>
      </trkpt>
      <trkpt lat="43.84254" lon="3.86829">
        <ele>390.4</ele>
        <time>2019-12-22T09:57:33.000Z</time>
      </trkpt>
      <trkpt lat="43.84254" lon="3.86831">
        <ele>389.5</ele>
        <time>2019-12-22T09:57:34.000Z</time>
      </trkpt>
      <trkpt lat="43.84241" lon="3.86842">
        <ele>389.5</ele>
        <time>2019-12-22T09:57:49.000Z</time>
      </trkpt>
      <trkpt lat="43.84233" lon="3.86854">
        <ele>393.3</ele>
        <time>2019-12-22T09:58:02.000Z</time>
      </trkpt>
      <trkpt lat="43.84233" lon="3.86855">
        <ele>393.3</ele>
        <time>2019-12-22T09:58:03.000Z</time>
      </trkpt>
      <trkpt lat="43.84229" lon="3.86857">
        <ele>392.8</ele>
        <time>2019-12-22T09:58:07.000Z</time>
      </trkpt>
      <trkpt lat="43.84225" lon="3.8686">
        <ele>391.4</ele>
        <time>2019-12-22T09:58:11.000Z</time>
      </trkpt>
      <trkpt lat="43.84223" lon="3.86861">
        <ele>393.3</ele>
        <time>2019-12-22T09:58:13.000Z</time>
      </trkpt>
      <trkpt lat="43.84217" lon="3.86867">
        <ele>390.9</ele>
        <time>2019-12-22T09:58:20.000Z</time>
      </trkpt>
      <trkpt lat="43.84207" lon="3.86877">
        <ele>392.4</ele>
        <time>2019-12-22T09:58:33.000Z</time>
      </trkpt>
      <trkpt lat="43.84202" lon="3.8688">
        <ele>390.9</ele>
        <time>2019-12-22T09:58:38.000Z</time>
      </trkpt>
      <trkpt lat="43.84201" lon="3.86882">
        <ele>393.8</ele>
        <time>2019-12-22T09:58:40.000Z</time>
      </trkpt>
      <trkpt lat="43.84196" lon="3.86887">
        <ele>393.3</ele>
        <time>2019-12-22T09:58:46.000Z</time>
      </trkpt>
      <trkpt lat="43.84194" lon="3.86889">
        <ele>390</ele>
        <time>2019-12-22T09:58:48.000Z</time>
      </trkpt>
      <trkpt lat="43.84192" lon="3.86891">
        <ele>394.8</ele>
        <time>2019-12-22T09:58:50.000Z</time>
      </trkpt>
      <trkpt lat="43.84184" lon="3.86898">
        <ele>395.2</ele>
        <time>2019-12-22T09:59:03.000Z</time>
      </trkpt>
      <trkpt lat="43.84177" lon="3.86908">
        <ele>391.9</ele>
        <time>2019-12-22T09:59:12.000Z</time>
      </trkpt>
      <trkpt lat="43.84176" lon="3.86909">
        <ele>397.2</ele>
        <time>2019-12-22T09:59:14.000Z</time>
      </trkpt>
      <trkpt lat="43.84172" lon="3.86912">
        <ele>396.7</ele>
        <time>2019-12-22T09:59:18.000Z</time>
      </trkpt>
      <trkpt lat="43.84169" lon="3.86915">
        <ele>392.4</ele>
        <time>2019-12-22T09:59:21.000Z</time>
      </trkpt>
      <trkpt lat="43.84168" lon="3.86917">
        <ele>398.6</ele>
        <time>2019-12-22T09:59:23.000Z</time>
      </trkpt>
      <trkpt lat="43.84167" lon="3.86918">
        <ele>397.6</ele>
        <time>2019-12-22T09:59:24.000Z</time>
      </trkpt>
      <trkpt lat="43.84164" lon="3.86922">
        <ele>396.7</ele>
        <time>2019-12-22T09:59:29.000Z</time>
      </trkpt>
      <trkpt lat="43.84162" lon="3.86925">
        <ele>401.5</ele>
        <time>2019-12-22T09:59:32.000Z</time>
      </trkpt>
      <trkpt lat="43.84161" lon="3.86925">
        <ele>397.6</ele>
        <time>2019-12-22T09:59:33.000Z</time>
      </trkpt>
      <trkpt lat="43.84155" lon="3.86931">
        <ele>401</ele>
        <time>2019-12-22T09:59:41.000Z</time>
      </trkpt>
      <trkpt lat="43.84155" lon="3.86932">
        <ele>401</ele>
        <time>2019-12-22T09:59:42.000Z</time>
      </trkpt>
      <trkpt lat="43.84152" lon="3.86935">
        <ele>399.6</ele>
        <time>2019-12-22T09:59:45.000Z</time>
      </trkpt>
      <trkpt lat="43.84151" lon="3.86936">
        <ele>400</ele>
        <time>2019-12-22T09:59:47.000Z</time>
      </trkpt>
      <trkpt lat="43.84146" lon="3.86938">
        <ele>398.1</ele>
        <time>2019-12-22T09:59:52.000Z</time>
      </trkpt>
      <trkpt lat="43.84139" lon="3.8694">
        <ele>403.4</ele>
        <time>2019-12-22T10:00:02.000Z</time>
      </trkpt>
      <trkpt lat="43.84139" lon="3.8694">
        <ele>399.1</ele>
        <time>2019-12-22T10:00:03.000Z</time>
      </trkpt>
      <trkpt lat="43.84139" lon="3.8694">
        <ele>406.3</ele>
        <time>2019-12-22T10:00:04.000Z</time>
      </trkpt>
      <trkpt lat="43.84138" lon="3.8694">
        <ele>405.3</ele>
        <time>2019-12-22T10:00:05.000Z</time>
      </trkpt>
      <trkpt lat="43.84139" lon="3.8694">
        <ele>401.5</ele>
        <time>2019-12-22T10:00:07.000Z</time>
      </trkpt>
      <trkpt lat="43.84138" lon="3.86941">
        <ele>400.5</ele>
        <time>2019-12-22T10:00:09.000Z</time>
      </trkpt>
      <trkpt lat="43.84134" lon="3.86946">
        <ele>403.9</ele>
        <time>2019-12-22T10:00:19.000Z</time>
      </trkpt>
      <trkpt lat="43.84133" lon="3.86946">
        <ele>402.9</ele>
        <time>2019-12-22T10:00:20.000Z</time>
      </trkpt>
      <trkpt lat="43.84131" lon="3.86949">
        <ele>401.5</ele>
        <time>2019-12-22T10:00:23.000Z</time>
      </trkpt>
      <trkpt lat="43.84124" lon="3.86962">
        <ele>402</ele>
        <time>2019-12-22T10:00:37.000Z</time>
      </trkpt>
      <trkpt lat="43.84121" lon="3.86966">
        <ele>403.4</ele>
        <time>2019-12-22T10:00:41.000Z</time>
      </trkpt>
      <trkpt lat="43.84119" lon="3.8697">
        <ele>401</ele>
        <time>2019-12-22T10:00:46.000Z</time>
      </trkpt>
      <trkpt lat="43.84119" lon="3.8697">
        <ele>401.5</ele>
        <time>2019-12-22T10:00:47.000Z</time>
      </trkpt>
      <trkpt lat="43.84118" lon="3.86971">
        <ele>405.3</ele>
        <time>2019-12-22T10:00:48.000Z</time>
      </trkpt>
      <trkpt lat="43.84118" lon="3.86972">
        <ele>405.3</ele>
        <time>2019-12-22T10:00:49.000Z</time>
      </trkpt>
      <trkpt lat="43.84118" lon="3.86973">
        <ele>400.5</ele>
        <time>2019-12-22T10:00:50.000Z</time>
      </trkpt>
      <trkpt lat="43.84112" lon="3.86983">
        <ele>401</ele>
        <time>2019-12-22T10:00:59.000Z</time>
      </trkpt>
      <trkpt lat="43.84106" lon="3.86994">
        <ele>402</ele>
        <time>2019-12-22T10:01:08.000Z</time>
      </trkpt>
      <trkpt lat="43.84101" lon="3.87003">
        <ele>402.9</ele>
        <time>2019-12-22T10:01:18.000Z</time>
      </trkpt>
      <trkpt lat="43.84098" lon="3.87008">
        <ele>404.4</ele>
        <time>2019-12-22T10:01:24.000Z</time>
      </trkpt>
      <trkpt lat="43.84096" lon="3.87009">
        <ele>403.4</ele>
        <time>2019-12-22T10:01:26.000Z</time>
      </trkpt>
      <trkpt lat="43.84092" lon="3.87015">
        <ele>402.9</ele>
        <time>2019-12-22T10:01:31.000Z</time>
      </trkpt>
      <trkpt lat="43.8409" lon="3.87022">
        <ele>405.3</ele>
        <time>2019-12-22T10:01:36.000Z</time>
      </trkpt>
      <trkpt lat="43.84087" lon="3.87029">
        <ele>405.3</ele>
        <time>2019-12-22T10:01:43.000Z</time>
      </trkpt>
      <trkpt lat="43.84083" lon="3.87036">
        <ele>402.5</ele>
        <time>2019-12-22T10:01:50.000Z</time>
      </trkpt>
      <trkpt lat="43.84079" lon="3.87048">
        <ele>403.4</ele>
        <time>2019-12-22T10:01:59.000Z</time>
      </trkpt>
      <trkpt lat="43.84078" lon="3.87055">
        <ele>402.5</ele>
        <time>2019-12-22T10:02:04.000Z</time>
      </trkpt>
      <trkpt lat="43.84077" lon="3.87057">
        <ele>405.3</ele>
        <time>2019-12-22T10:02:05.000Z</time>
      </trkpt>
      <trkpt lat="43.84077" lon="3.87058">
        <ele>404.4</ele>
        <time>2019-12-22T10:02:06.000Z</time>
      </trkpt>
      <trkpt lat="43.84075" lon="3.87067">
        <ele>405.8</ele>
        <time>2019-12-22T10:02:13.000Z</time>
      </trkpt>
      <trkpt lat="43.84074" lon="3.87077">
        <ele>402.5</ele>
        <time>2019-12-22T10:02:20.000Z</time>
      </trkpt>
      <trkpt lat="43.84074" lon="3.87087">
        <ele>404.4</ele>
        <time>2019-12-22T10:02:27.000Z</time>
      </trkpt>
      <trkpt lat="43.84073" lon="3.87104">
        <ele>402.9</ele>
        <time>2019-12-22T10:02:41.000Z</time>
      </trkpt>
      <trkpt lat="43.84073" lon="3.87108">
        <ele>402</ele>
        <time>2019-12-22T10:02:43.000Z</time>
      </trkpt>
      <trkpt lat="43.84073" lon="3.87109">
        <ele>404.9</ele>
        <time>2019-12-22T10:02:44.000Z</time>
      </trkpt>
      <trkpt lat="43.84073" lon="3.8711">
        <ele>406.3</ele>
        <time>2019-12-22T10:02:45.000Z</time>
      </trkpt>
      <trkpt lat="43.84072" lon="3.87114">
        <ele>402.5</ele>
        <time>2019-12-22T10:02:48.000Z</time>
      </trkpt>
      <trkpt lat="43.84073" lon="3.87117">
        <ele>404.9</ele>
        <time>2019-12-22T10:02:50.000Z</time>
      </trkpt>
      <trkpt lat="43.84073" lon="3.87122">
        <ele>404.9</ele>
        <time>2019-12-22T10:02:54.000Z</time>
      </trkpt>
      <trkpt lat="43.84074" lon="3.87126">
        <ele>401</ele>
        <time>2019-12-22T10:02:57.000Z</time>
      </trkpt>
      <trkpt lat="43.84074" lon="3.87127">
        <ele>405.8</ele>
        <time>2019-12-22T10:02:58.000Z</time>
      </trkpt>
      <trkpt lat="43.84074" lon="3.87133">
        <ele>407.7</ele>
        <time>2019-12-22T10:03:03.000Z</time>
      </trkpt>
      <trkpt lat="43.84074" lon="3.87138">
        <ele>408.2</ele>
        <time>2019-12-22T10:03:07.000Z</time>
      </trkpt>
      <trkpt lat="43.84073" lon="3.87144">
        <ele>409.2</ele>
        <time>2019-12-22T10:03:11.000Z</time>
      </trkpt>
      <trkpt lat="43.84073" lon="3.87145">
        <ele>409.7</ele>
        <time>2019-12-22T10:03:12.000Z</time>
      </trkpt>
      <trkpt lat="43.84073" lon="3.87147">
        <ele>413</ele>
        <time>2019-12-22T10:03:13.000Z</time>
      </trkpt>
      <trkpt lat="43.84073" lon="3.8715">
        <ele>407.7</ele>
        <time>2019-12-22T10:03:16.000Z</time>
      </trkpt>
      <trkpt lat="43.84065" lon="3.87156">
        <ele>406.8</ele>
        <time>2019-12-22T10:03:26.000Z</time>
      </trkpt>
      <trkpt lat="43.84063" lon="3.8716">
        <ele>409.2</ele>
        <time>2019-12-22T10:03:31.000Z</time>
      </trkpt>
      <trkpt lat="43.84062" lon="3.87165">
        <ele>405.3</ele>
        <time>2019-12-22T10:03:35.000Z</time>
      </trkpt>
      <trkpt lat="43.84062" lon="3.87165">
        <ele>408.7</ele>
        <time>2019-12-22T10:03:36.000Z</time>
      </trkpt>
      <trkpt lat="43.84064" lon="3.87177">
        <ele>414</ele>
        <time>2019-12-22T10:03:47.000Z</time>
      </trkpt>
      <trkpt lat="43.84064" lon="3.87178">
        <ele>410.1</ele>
        <time>2019-12-22T10:03:48.000Z</time>
      </trkpt>
      <trkpt lat="43.84066" lon="3.8718">
        <ele>409.7</ele>
        <time>2019-12-22T10:03:50.000Z</time>
      </trkpt>
      <trkpt lat="43.84067" lon="3.87182">
        <ele>408.2</ele>
        <time>2019-12-22T10:03:52.000Z</time>
      </trkpt>
      <trkpt lat="43.84071" lon="3.87191">
        <ele>411.6</ele>
        <time>2019-12-22T10:04:03.000Z</time>
      </trkpt>
      <trkpt lat="43.84073" lon="3.87196">
        <ele>407.3</ele>
        <time>2019-12-22T10:04:08.000Z</time>
      </trkpt>
      <trkpt lat="43.84073" lon="3.87198">
        <ele>413</ele>
        <time>2019-12-22T10:04:09.000Z</time>
      </trkpt>
      <trkpt lat="43.84073" lon="3.87199">
        <ele>409.2</ele>
        <time>2019-12-22T10:04:10.000Z</time>
      </trkpt>
      <trkpt lat="43.84073" lon="3.872">
        <ele>412.5</ele>
        <time>2019-12-22T10:04:11.000Z</time>
      </trkpt>
      <trkpt lat="43.84074" lon="3.87203">
        <ele>408.2</ele>
        <time>2019-12-22T10:04:14.000Z</time>
      </trkpt>
      <trkpt lat="43.84074" lon="3.87204">
        <ele>410.6</ele>
        <time>2019-12-22T10:04:15.000Z</time>
      </trkpt>
      <trkpt lat="43.84074" lon="3.87205">
        <ele>406.8</ele>
        <time>2019-12-22T10:04:16.000Z</time>
      </trkpt>
      <trkpt lat="43.84074" lon="3.87206">
        <ele>410.6</ele>
        <time>2019-12-22T10:04:17.000Z</time>
      </trkpt>
      <trkpt lat="43.84074" lon="3.87206">
        <ele>416.9</ele>
        <time>2019-12-22T10:04:18.000Z</time>
      </trkpt>
      <trkpt lat="43.84074" lon="3.87207">
        <ele>414</ele>
        <time>2019-12-22T10:04:20.000Z</time>
      </trkpt>
      <trkpt lat="43.84075" lon="3.87207">
        <ele>414</ele>
        <time>2019-12-22T10:04:21.000Z</time>
      </trkpt>
      <trkpt lat="43.84073" lon="3.8721">
        <ele>410.6</ele>
        <time>2019-12-22T10:04:28.000Z</time>
      </trkpt>
      <trkpt lat="43.84072" lon="3.87211">
        <ele>412.5</ele>
        <time>2019-12-22T10:04:29.000Z</time>
      </trkpt>
      <trkpt lat="43.84072" lon="3.87211">
        <ele>416.4</ele>
        <time>2019-12-22T10:04:30.000Z</time>
      </trkpt>
      <trkpt lat="43.84072" lon="3.87212">
        <ele>416.4</ele>
        <time>2019-12-22T10:04:31.000Z</time>
      </trkpt>
      <trkpt lat="43.84072" lon="3.87214">
        <ele>412.1</ele>
        <time>2019-12-22T10:04:34.000Z</time>
      </trkpt>
      <trkpt lat="43.84073" lon="3.87215">
        <ele>413.5</ele>
        <time>2019-12-22T10:04:38.000Z</time>
      </trkpt>
      <trkpt lat="43.84073" lon="3.87215">
        <ele>412.1</ele>
        <time>2019-12-22T10:04:41.000Z</time>
      </trkpt>
      <trkpt lat="43.84073" lon="3.87215">
        <ele>411.6</ele>
        <time>2019-12-22T10:04:46.000Z</time>
      </trkpt>
      <trkpt lat="43.84074" lon="3.87216">
        <ele>412.1</ele>
        <time>2019-12-22T10:04:53.000Z</time>
      </trkpt>
      <trkpt lat="43.84075" lon="3.87217">
        <ele>408.2</ele>
        <time>2019-12-22T10:05:03.000Z</time>
      </trkpt>
      <trkpt lat="43.84076" lon="3.87217">
        <ele>415</ele>
        <time>2019-12-22T10:05:11.000Z</time>
      </trkpt>
      <trkpt lat="43.84077" lon="3.87217">
        <ele>410.1</ele>
        <time>2019-12-22T10:05:15.000Z</time>
      </trkpt>
      <trkpt lat="43.84078" lon="3.87217">
        <ele>410.6</ele>
        <time>2019-12-22T10:05:16.000Z</time>
      </trkpt>
      <trkpt lat="43.84079" lon="3.87217">
        <ele>411.6</ele>
        <time>2019-12-22T10:05:22.000Z</time>
      </trkpt>
      <trkpt lat="43.84078" lon="3.87214">
        <ele>410.1</ele>
        <time>2019-12-22T10:05:28.000Z</time>
      </trkpt>
      <trkpt lat="43.84074" lon="3.87209">
        <ele>413.5</ele>
        <time>2019-12-22T10:05:38.000Z</time>
      </trkpt>
      <trkpt lat="43.84074" lon="3.87208">
        <ele>412.5</ele>
        <time>2019-12-22T10:05:43.000Z</time>
      </trkpt>
      <trkpt lat="43.84074" lon="3.87209">
        <ele>410.6</ele>
        <time>2019-12-22T10:05:47.000Z</time>
      </trkpt>
      <trkpt lat="43.84077" lon="3.87208">
        <ele>405.8</ele>
        <time>2019-12-22T10:05:52.000Z</time>
      </trkpt>
      <trkpt lat="43.84078" lon="3.87208">
        <ele>411.6</ele>
        <time>2019-12-22T10:05:53.000Z</time>
      </trkpt>
      <trkpt lat="43.84078" lon="3.87207">
        <ele>411.6</ele>
        <time>2019-12-22T10:05:54.000Z</time>
      </trkpt>
      <trkpt lat="43.84079" lon="3.87206">
        <ele>406.8</ele>
        <time>2019-12-22T10:05:56.000Z</time>
      </trkpt>
      <trkpt lat="43.8408" lon="3.87204">
        <ele>406.3</ele>
        <time>2019-12-22T10:05:58.000Z</time>
      </trkpt>
      <trkpt lat="43.84081" lon="3.87204">
        <ele>408.2</ele>
        <time>2019-12-22T10:06:00.000Z</time>
      </trkpt>
      <trkpt lat="43.84082" lon="3.87204">
        <ele>409.2</ele>
        <time>2019-12-22T10:06:01.000Z</time>
      </trkpt>
      <trkpt lat="43.84087" lon="3.87207">
        <ele>404.9</ele>
        <time>2019-12-22T10:06:07.000Z</time>
      </trkpt>
      <trkpt lat="43.84088" lon="3.87206">
        <ele>404.9</ele>
        <time>2019-12-22T10:06:08.000Z</time>
      </trkpt>
      <trkpt lat="43.8409" lon="3.87206">
        <ele>408.2</ele>
        <time>2019-12-22T10:06:11.000Z</time>
      </trkpt>
      <trkpt lat="43.84093" lon="3.87206">
        <ele>408.2</ele>
        <time>2019-12-22T10:06:14.000Z</time>
      </trkpt>
      <trkpt lat="43.84097" lon="3.87205">
        <ele>410.6</ele>
        <time>2019-12-22T10:06:18.000Z</time>
      </trkpt>
      <trkpt lat="43.84098" lon="3.87205">
        <ele>403.9</ele>
        <time>2019-12-22T10:06:19.000Z</time>
      </trkpt>
      <trkpt lat="43.841" lon="3.87204">
        <ele>408.2</ele>
        <time>2019-12-22T10:06:20.000Z</time>
      </trkpt>
      <trkpt lat="43.84103" lon="3.87202">
        <ele>410.1</ele>
        <time>2019-12-22T10:06:23.000Z</time>
      </trkpt>
      <trkpt lat="43.84106" lon="3.872">
        <ele>407.7</ele>
        <time>2019-12-22T10:06:25.000Z</time>
      </trkpt>
      <trkpt lat="43.84107" lon="3.87199">
        <ele>408.7</ele>
        <time>2019-12-22T10:06:26.000Z</time>
      </trkpt>
      <trkpt lat="43.8411" lon="3.87192">
        <ele>411.6</ele>
        <time>2019-12-22T10:06:30.000Z</time>
      </trkpt>
      <trkpt lat="43.84113" lon="3.87186">
        <ele>408.2</ele>
        <time>2019-12-22T10:06:33.000Z</time>
      </trkpt>
      <trkpt lat="43.84115" lon="3.87183">
        <ele>406.8</ele>
        <time>2019-12-22T10:06:35.000Z</time>
      </trkpt>
      <trkpt lat="43.84116" lon="3.87182">
        <ele>410.6</ele>
        <time>2019-12-22T10:06:36.000Z</time>
      </trkpt>
      <trkpt lat="43.84117" lon="3.87181">
        <ele>409.2</ele>
        <time>2019-12-22T10:06:37.000Z</time>
      </trkpt>
      <trkpt lat="43.84121" lon="3.8718">
        <ele>404.4</ele>
        <time>2019-12-22T10:06:43.000Z</time>
      </trkpt>
      <trkpt lat="43.84122" lon="3.8718">
        <ele>404.4</ele>
        <time>2019-12-22T10:06:44.000Z</time>
      </trkpt>
      <trkpt lat="43.84126" lon="3.87174">
        <ele>404.4</ele>
        <time>2019-12-22T10:06:49.000Z</time>
      </trkpt>
      <trkpt lat="43.84133" lon="3.8717">
        <ele>400</ele>
        <time>2019-12-22T10:06:57.000Z</time>
      </trkpt>
      <trkpt lat="43.84134" lon="3.87167">
        <ele>405.3</ele>
        <time>2019-12-22T10:06:59.000Z</time>
      </trkpt>
      <trkpt lat="43.84145" lon="3.8716">
        <ele>400.5</ele>
        <time>2019-12-22T10:07:13.000Z</time>
      </trkpt>
      <trkpt lat="43.84146" lon="3.8716">
        <ele>404.9</ele>
        <time>2019-12-22T10:07:14.000Z</time>
      </trkpt>
      <trkpt lat="43.84148" lon="3.87159">
        <ele>399.1</ele>
        <time>2019-12-22T10:07:17.000Z</time>
      </trkpt>
      <trkpt lat="43.84149" lon="3.87159">
        <ele>405.8</ele>
        <time>2019-12-22T10:07:18.000Z</time>
      </trkpt>
      <trkpt lat="43.84152" lon="3.87156">
        <ele>402</ele>
        <time>2019-12-22T10:07:21.000Z</time>
      </trkpt>
      <trkpt lat="43.84154" lon="3.87155">
        <ele>404.9</ele>
        <time>2019-12-22T10:07:24.000Z</time>
      </trkpt>
      <trkpt lat="43.84155" lon="3.87156">
        <ele>404.9</ele>
        <time>2019-12-22T10:07:25.000Z</time>
      </trkpt>
      <trkpt lat="43.84157" lon="3.87156">
        <ele>401</ele>
        <time>2019-12-22T10:07:28.000Z</time>
      </trkpt>
      <trkpt lat="43.84167" lon="3.87151">
        <ele>400</ele>
        <time>2019-12-22T10:07:41.000Z</time>
      </trkpt>
      <trkpt lat="43.84174" lon="3.8715">
        <ele>399.1</ele>
        <time>2019-12-22T10:07:48.000Z</time>
      </trkpt>
      <trkpt lat="43.84177" lon="3.8715">
        <ele>395.2</ele>
        <time>2019-12-22T10:07:51.000Z</time>
      </trkpt>
      <trkpt lat="43.84178" lon="3.87147">
        <ele>391.9</ele>
        <time>2019-12-22T10:07:53.000Z</time>
      </trkpt>
      <trkpt lat="43.84178" lon="3.87146">
        <ele>393.8</ele>
        <time>2019-12-22T10:07:54.000Z</time>
      </trkpt>
      <trkpt lat="43.8418" lon="3.87137">
        <ele>397.6</ele>
        <time>2019-12-22T10:08:01.000Z</time>
      </trkpt>
      <trkpt lat="43.84181" lon="3.87136">
        <ele>394.8</ele>
        <time>2019-12-22T10:08:03.000Z</time>
      </trkpt>
      <trkpt lat="43.84182" lon="3.87134">
        <ele>395.7</ele>
        <time>2019-12-22T10:08:04.000Z</time>
      </trkpt>
      <trkpt lat="43.84185" lon="3.87133">
        <ele>390.4</ele>
        <time>2019-12-22T10:08:09.000Z</time>
      </trkpt>
      <trkpt lat="43.84186" lon="3.87134">
        <ele>394.3</ele>
        <time>2019-12-22T10:08:10.000Z</time>
      </trkpt>
      <trkpt lat="43.84188" lon="3.87138">
        <ele>398.6</ele>
        <time>2019-12-22T10:08:14.000Z</time>
      </trkpt>
      <trkpt lat="43.84189" lon="3.87139">
        <ele>396.7</ele>
        <time>2019-12-22T10:08:15.000Z</time>
      </trkpt>
      <trkpt lat="43.84192" lon="3.87134">
        <ele>396.7</ele>
        <time>2019-12-22T10:08:21.000Z</time>
      </trkpt>
      <trkpt lat="43.84195" lon="3.87133">
        <ele>398.1</ele>
        <time>2019-12-22T10:08:26.000Z</time>
      </trkpt>
      <trkpt lat="43.84196" lon="3.87133">
        <ele>394.8</ele>
        <time>2019-12-22T10:08:27.000Z</time>
      </trkpt>
      <trkpt lat="43.84197" lon="3.87132">
        <ele>398.1</ele>
        <time>2019-12-22T10:08:29.000Z</time>
      </trkpt>
      <trkpt lat="43.84198" lon="3.87131">
        <ele>397.6</ele>
        <time>2019-12-22T10:08:30.000Z</time>
      </trkpt>
      <trkpt lat="43.84199" lon="3.8713">
        <ele>394.3</ele>
        <time>2019-12-22T10:08:32.000Z</time>
      </trkpt>
      <trkpt lat="43.84199" lon="3.87129">
        <ele>394.8</ele>
        <time>2019-12-22T10:08:33.000Z</time>
      </trkpt>
      <trkpt lat="43.84203" lon="3.87129">
        <ele>400</ele>
        <time>2019-12-22T10:08:37.000Z</time>
      </trkpt>
      <trkpt lat="43.84204" lon="3.87128">
        <ele>394.3</ele>
        <time>2019-12-22T10:08:38.000Z</time>
      </trkpt>
      <trkpt lat="43.84207" lon="3.87127">
        <ele>395.7</ele>
        <time>2019-12-22T10:08:42.000Z</time>
      </trkpt>
      <trkpt lat="43.8421" lon="3.87124">
        <ele>390.4</ele>
        <time>2019-12-22T10:08:46.000Z</time>
      </trkpt>
      <trkpt lat="43.84211" lon="3.87123">
        <ele>395.2</ele>
        <time>2019-12-22T10:08:48.000Z</time>
      </trkpt>
      <trkpt lat="43.84212" lon="3.87122">
        <ele>393.8</ele>
        <time>2019-12-22T10:08:49.000Z</time>
      </trkpt>
      <trkpt lat="43.84214" lon="3.8712">
        <ele>392.4</ele>
        <time>2019-12-22T10:08:51.000Z</time>
      </trkpt>
      <trkpt lat="43.84223" lon="3.87113">
        <ele>390</ele>
        <time>2019-12-22T10:09:05.000Z</time>
      </trkpt>
      <trkpt lat="43.84229" lon="3.87104">
        <ele>386.1</ele>
        <time>2019-12-22T10:09:19.000Z</time>
      </trkpt>
      <trkpt lat="43.84228" lon="3.87099">
        <ele>390.9</ele>
        <time>2019-12-22T10:09:28.000Z</time>
      </trkpt>
      <trkpt lat="43.84228" lon="3.87101">
        <ele>387.1</ele>
        <time>2019-12-22T10:09:30.000Z</time>
      </trkpt>
      <trkpt lat="43.84229" lon="3.87101">
        <ele>386.6</ele>
        <time>2019-12-22T10:09:31.000Z</time>
      </trkpt>
      <trkpt lat="43.84234" lon="3.87107">
        <ele>385.6</ele>
        <time>2019-12-22T10:09:41.000Z</time>
      </trkpt>
      <trkpt lat="43.84236" lon="3.87107">
        <ele>384.2</ele>
        <time>2019-12-22T10:09:44.000Z</time>
      </trkpt>
      <trkpt lat="43.84238" lon="3.87107">
        <ele>386.1</ele>
        <time>2019-12-22T10:09:47.000Z</time>
      </trkpt>
      <trkpt lat="43.84248" lon="3.87097">
        <ele>382.7</ele>
        <time>2019-12-22T10:10:01.000Z</time>
      </trkpt>
      <trkpt lat="43.84249" lon="3.87095">
        <ele>387.1</ele>
        <time>2019-12-22T10:10:04.000Z</time>
      </trkpt>
      <trkpt lat="43.84249" lon="3.87094">
        <ele>386.1</ele>
        <time>2019-12-22T10:10:05.000Z</time>
      </trkpt>
      <trkpt lat="43.84251" lon="3.87092">
        <ele>382.7</ele>
        <time>2019-12-22T10:10:07.000Z</time>
      </trkpt>
      <trkpt lat="43.84251" lon="3.87091">
        <ele>386.1</ele>
        <time>2019-12-22T10:10:08.000Z</time>
      </trkpt>
      <trkpt lat="43.84252" lon="3.87087">
        <ele>382.7</ele>
        <time>2019-12-22T10:10:11.000Z</time>
      </trkpt>
      <trkpt lat="43.84252" lon="3.87086">
        <ele>383.2</ele>
        <time>2019-12-22T10:10:12.000Z</time>
      </trkpt>
      <trkpt lat="43.84252" lon="3.87082">
        <ele>381.8</ele>
        <time>2019-12-22T10:10:16.000Z</time>
      </trkpt>
      <trkpt lat="43.84256" lon="3.87078">
        <ele>380.3</ele>
        <time>2019-12-22T10:10:21.000Z</time>
      </trkpt>
      <trkpt lat="43.84257" lon="3.87077">
        <ele>381.3</ele>
        <time>2019-12-22T10:10:23.000Z</time>
      </trkpt>
      <trkpt lat="43.84262" lon="3.87078">
        <ele>381.3</ele>
        <time>2019-12-22T10:10:30.000Z</time>
      </trkpt>
      <trkpt lat="43.84274" lon="3.87075">
        <ele>378.4</ele>
        <time>2019-12-22T10:10:43.000Z</time>
      </trkpt>
      <trkpt lat="43.84282" lon="3.87074">
        <ele>379.4</ele>
        <time>2019-12-22T10:10:53.000Z</time>
      </trkpt>
      <trkpt lat="43.84284" lon="3.87074">
        <ele>378.9</ele>
        <time>2019-12-22T10:10:55.000Z</time>
      </trkpt>
      <trkpt lat="43.8429" lon="3.8707">
        <ele>375.5</ele>
        <time>2019-12-22T10:11:03.000Z</time>
      </trkpt>
      <trkpt lat="43.84291" lon="3.8707">
        <ele>376</ele>
        <time>2019-12-22T10:11:04.000Z</time>
      </trkpt>
      <trkpt lat="43.84293" lon="3.8707">
        <ele>378.4</ele>
        <time>2019-12-22T10:11:07.000Z</time>
      </trkpt>
      <trkpt lat="43.84302" lon="3.87064">
        <ele>376</ele>
        <time>2019-12-22T10:11:18.000Z</time>
      </trkpt>
      <trkpt lat="43.84304" lon="3.87064">
        <ele>377.5</ele>
        <time>2019-12-22T10:11:21.000Z</time>
      </trkpt>
      <trkpt lat="43.84305" lon="3.87064">
        <ele>376.5</ele>
        <time>2019-12-22T10:11:34.000Z</time>
      </trkpt>
      <trkpt lat="43.84304" lon="3.87065">
        <ele>379.9</ele>
        <time>2019-12-22T10:11:41.000Z</time>
      </trkpt>
      <trkpt lat="43.84305" lon="3.87065">
        <ele>377.9</ele>
        <time>2019-12-22T10:11:53.000Z</time>
      </trkpt>
      <trkpt lat="43.84312" lon="3.87056">
        <ele>377</ele>
        <time>2019-12-22T10:12:09.000Z</time>
      </trkpt>
      <trkpt lat="43.84312" lon="3.87053">
        <ele>373.6</ele>
        <time>2019-12-22T10:12:11.000Z</time>
      </trkpt>
      <trkpt lat="43.84313" lon="3.87052">
        <ele>373.6</ele>
        <time>2019-12-22T10:12:12.000Z</time>
      </trkpt>
      <trkpt lat="43.84314" lon="3.8705">
        <ele>375.5</ele>
        <time>2019-12-22T10:12:14.000Z</time>
      </trkpt>
      <trkpt lat="43.84315" lon="3.87048">
        <ele>373.6</ele>
        <time>2019-12-22T10:12:16.000Z</time>
      </trkpt>
      <trkpt lat="43.84317" lon="3.87046">
        <ele>374.6</ele>
        <time>2019-12-22T10:12:19.000Z</time>
      </trkpt>
      <trkpt lat="43.84324" lon="3.87042">
        <ele>375.5</ele>
        <time>2019-12-22T10:12:27.000Z</time>
      </trkpt>
      <trkpt lat="43.84326" lon="3.87039">
        <ele>370.7</ele>
        <time>2019-12-22T10:12:30.000Z</time>
      </trkpt>
      <trkpt lat="43.84326" lon="3.87038">
        <ele>376</ele>
        <time>2019-12-22T10:12:31.000Z</time>
      </trkpt>
      <trkpt lat="43.84327" lon="3.87037">
        <ele>372.2</ele>
        <time>2019-12-22T10:12:32.000Z</time>
      </trkpt>
      <trkpt lat="43.84329" lon="3.87033">
        <ele>375.5</ele>
        <time>2019-12-22T10:12:35.000Z</time>
      </trkpt>
      <trkpt lat="43.84332" lon="3.87033">
        <ele>372.6</ele>
        <time>2019-12-22T10:12:39.000Z</time>
      </trkpt>
      <trkpt lat="43.84339" lon="3.87031">
        <ele>372.2</ele>
        <time>2019-12-22T10:12:48.000Z</time>
      </trkpt>
      <trkpt lat="43.84344" lon="3.8703">
        <ele>370.7</ele>
        <time>2019-12-22T10:12:54.000Z</time>
      </trkpt>
      <trkpt lat="43.84353" lon="3.87026">
        <ele>369.8</ele>
        <time>2019-12-22T10:13:06.000Z</time>
      </trkpt>
      <trkpt lat="43.8436" lon="3.87022">
        <ele>368.3</ele>
        <time>2019-12-22T10:13:14.000Z</time>
      </trkpt>
      <trkpt lat="43.84365" lon="3.87023">
        <ele>368.3</ele>
        <time>2019-12-22T10:13:19.000Z</time>
      </trkpt>
      <trkpt lat="43.84368" lon="3.87024">
        <ele>370.2</ele>
        <time>2019-12-22T10:13:24.000Z</time>
      </trkpt>
      <trkpt lat="43.84368" lon="3.87023">
        <ele>367.8</ele>
        <time>2019-12-22T10:13:26.000Z</time>
      </trkpt>
      <trkpt lat="43.84368" lon="3.87023">
        <ele>368.8</ele>
        <time>2019-12-22T10:13:31.000Z</time>
      </trkpt>
      <trkpt lat="43.8437" lon="3.87023">
        <ele>369.8</ele>
        <time>2019-12-22T10:13:47.000Z</time>
      </trkpt>
      <trkpt lat="43.84371" lon="3.87024">
        <ele>368.3</ele>
        <time>2019-12-22T10:13:53.000Z</time>
      </trkpt>
      <trkpt lat="43.84371" lon="3.87024">
        <ele>367.8</ele>
        <time>2019-12-22T10:14:07.000Z</time>
      </trkpt>
      <trkpt lat="43.84371" lon="3.87022">
        <ele>373.6</ele>
        <time>2019-12-22T10:14:12.000Z</time>
      </trkpt>
      <trkpt lat="43.84372" lon="3.87022">
        <ele>371.2</ele>
        <time>2019-12-22T10:14:13.000Z</time>
      </trkpt>
      <trkpt lat="43.84372" lon="3.87021">
        <ele>366.9</ele>
        <time>2019-12-22T10:14:15.000Z</time>
      </trkpt>
      <trkpt lat="43.84374" lon="3.87014">
        <ele>369.3</ele>
        <time>2019-12-22T10:14:23.000Z</time>
      </trkpt>
      <trkpt lat="43.84376" lon="3.8701">
        <ele>366.4</ele>
        <time>2019-12-22T10:14:26.000Z</time>
      </trkpt>
      <trkpt lat="43.84377" lon="3.87009">
        <ele>367.8</ele>
        <time>2019-12-22T10:14:28.000Z</time>
      </trkpt>
      <trkpt lat="43.84382" lon="3.87008">
        <ele>364</ele>
        <time>2019-12-22T10:14:33.000Z</time>
      </trkpt>
      <trkpt lat="43.84388" lon="3.87008">
        <ele>365</ele>
        <time>2019-12-22T10:14:39.000Z</time>
      </trkpt>
      <trkpt lat="43.84393" lon="3.87009">
        <ele>361.1</ele>
        <time>2019-12-22T10:14:47.000Z</time>
      </trkpt>
      <trkpt lat="43.84396" lon="3.87007">
        <ele>364.5</ele>
        <time>2019-12-22T10:14:52.000Z</time>
      </trkpt>
      <trkpt lat="43.84397" lon="3.87007">
        <ele>365</ele>
        <time>2019-12-22T10:14:53.000Z</time>
      </trkpt>
      <trkpt lat="43.84403" lon="3.87005">
        <ele>369.8</ele>
        <time>2019-12-22T10:15:00.000Z</time>
      </trkpt>
      <trkpt lat="43.84404" lon="3.87005">
        <ele>364</ele>
        <time>2019-12-22T10:15:01.000Z</time>
      </trkpt>
      <trkpt lat="43.84414" lon="3.87001">
        <ele>360.1</ele>
        <time>2019-12-22T10:15:13.000Z</time>
      </trkpt>
      <trkpt lat="43.84415" lon="3.87">
        <ele>360.1</ele>
        <time>2019-12-22T10:15:14.000Z</time>
      </trkpt>
      <trkpt lat="43.84418" lon="3.87002">
        <ele>362.1</ele>
        <time>2019-12-22T10:15:16.000Z</time>
      </trkpt>
      <trkpt lat="43.84421" lon="3.87002">
        <ele>363</ele>
        <time>2019-12-22T10:15:19.000Z</time>
      </trkpt>
      <trkpt lat="43.84422" lon="3.87">
        <ele>362.5</ele>
        <time>2019-12-22T10:15:21.000Z</time>
      </trkpt>
      <trkpt lat="43.84424" lon="3.86996">
        <ele>365</ele>
        <time>2019-12-22T10:15:25.000Z</time>
      </trkpt>
      <trkpt lat="43.84425" lon="3.86992">
        <ele>361.6</ele>
        <time>2019-12-22T10:15:28.000Z</time>
      </trkpt>
      <trkpt lat="43.84426" lon="3.86991">
        <ele>361.1</ele>
        <time>2019-12-22T10:15:29.000Z</time>
      </trkpt>
      <trkpt lat="43.84433" lon="3.86983">
        <ele>361.1</ele>
        <time>2019-12-22T10:15:38.000Z</time>
      </trkpt>
      <trkpt lat="43.84441" lon="3.8698">
        <ele>360.1</ele>
        <time>2019-12-22T10:15:46.000Z</time>
      </trkpt>
      <trkpt lat="43.8445" lon="3.86971">
        <ele>358.2</ele>
        <time>2019-12-22T10:15:59.000Z</time>
      </trkpt>
      <trkpt lat="43.8446" lon="3.86962">
        <ele>355.3</ele>
        <time>2019-12-22T10:16:12.000Z</time>
      </trkpt>
      <trkpt lat="43.84467" lon="3.86955">
        <ele>357.8</ele>
        <time>2019-12-22T10:16:23.000Z</time>
      </trkpt>
      <trkpt lat="43.84471" lon="3.86951">
        <ele>355.3</ele>
        <time>2019-12-22T10:16:29.000Z</time>
      </trkpt>
      <trkpt lat="43.84472" lon="3.86951">
        <ele>354.4</ele>
        <time>2019-12-22T10:16:31.000Z</time>
      </trkpt>
      <trkpt lat="43.84473" lon="3.86949">
        <ele>356.3</ele>
        <time>2019-12-22T10:16:33.000Z</time>
      </trkpt>
      <trkpt lat="43.84485" lon="3.86945">
        <ele>355.8</ele>
        <time>2019-12-22T10:16:47.000Z</time>
      </trkpt>
      <trkpt lat="43.84492" lon="3.86942">
        <ele>354.9</ele>
        <time>2019-12-22T10:16:53.000Z</time>
      </trkpt>
      <trkpt lat="43.84506" lon="3.86935">
        <ele>352.5</ele>
        <time>2019-12-22T10:17:08.000Z</time>
      </trkpt>
      <trkpt lat="43.84507" lon="3.86936">
        <ele>354.4</ele>
        <time>2019-12-22T10:17:11.000Z</time>
      </trkpt>
      <trkpt lat="43.84521" lon="3.86933">
        <ele>352.9</ele>
        <time>2019-12-22T10:17:24.000Z</time>
      </trkpt>
      <trkpt lat="43.84527" lon="3.86932">
        <ele>354.9</ele>
        <time>2019-12-22T10:17:28.000Z</time>
      </trkpt>
      <trkpt lat="43.8454" lon="3.86927">
        <ele>353.4</ele>
        <time>2019-12-22T10:17:43.000Z</time>
      </trkpt>
      <trkpt lat="43.84554" lon="3.86919">
        <ele>352</ele>
        <time>2019-12-22T10:17:59.000Z</time>
      </trkpt>
      <trkpt lat="43.84562" lon="3.86923">
        <ele>353.4</ele>
        <time>2019-12-22T10:18:11.000Z</time>
      </trkpt>
      <trkpt lat="43.84572" lon="3.86924">
        <ele>352</ele>
        <time>2019-12-22T10:18:27.000Z</time>
      </trkpt>
      <trkpt lat="43.84583" lon="3.86926">
        <ele>352</ele>
        <time>2019-12-22T10:18:42.000Z</time>
      </trkpt>
      <trkpt lat="43.84594" lon="3.8693">
        <ele>352</ele>
        <time>2019-12-22T10:18:56.000Z</time>
      </trkpt>
      <trkpt lat="43.84608" lon="3.86926">
        <ele>352</ele>
        <time>2019-12-22T10:19:12.000Z</time>
      </trkpt>
      <trkpt lat="43.84616" lon="3.86921">
        <ele>352</ele>
        <time>2019-12-22T10:19:25.000Z</time>
      </trkpt>
      <trkpt lat="43.84628" lon="3.86923">
        <ele>352.9</ele>
        <time>2019-12-22T10:19:40.000Z</time>
      </trkpt>
      <trkpt lat="43.84639" lon="3.8693">
        <ele>352.9</ele>
        <time>2019-12-22T10:19:55.000Z</time>
      </trkpt>
      <trkpt lat="43.84646" lon="3.86932">
        <ele>352.5</ele>
        <time>2019-12-22T10:20:04.000Z</time>
      </trkpt>
      <trkpt lat="43.84648" lon="3.86934">
        <ele>351.5</ele>
        <time>2019-12-22T10:20:06.000Z</time>
      </trkpt>
      <trkpt lat="43.84652" lon="3.86935">
        <ele>356.3</ele>
        <time>2019-12-22T10:20:10.000Z</time>
      </trkpt>
      <trkpt lat="43.84653" lon="3.86935">
        <ele>356.3</ele>
        <time>2019-12-22T10:20:11.000Z</time>
      </trkpt>
      <trkpt lat="43.84654" lon="3.86935">
        <ele>352.9</ele>
        <time>2019-12-22T10:20:12.000Z</time>
      </trkpt>
      <trkpt lat="43.84655" lon="3.86935">
        <ele>353.9</ele>
        <time>2019-12-22T10:20:13.000Z</time>
      </trkpt>
      <trkpt lat="43.84663" lon="3.86939">
        <ele>354.9</ele>
        <time>2019-12-22T10:20:21.000Z</time>
      </trkpt>
      <trkpt lat="43.84666" lon="3.86941">
        <ele>353.4</ele>
        <time>2019-12-22T10:20:24.000Z</time>
      </trkpt>
      <trkpt lat="43.84668" lon="3.86942">
        <ele>352.5</ele>
        <time>2019-12-22T10:20:26.000Z</time>
      </trkpt>
      <trkpt lat="43.84669" lon="3.86944">
        <ele>354.4</ele>
        <time>2019-12-22T10:20:28.000Z</time>
      </trkpt>
      <trkpt lat="43.84677" lon="3.86953">
        <ele>354.4</ele>
        <time>2019-12-22T10:20:37.000Z</time>
      </trkpt>
      <trkpt lat="43.84681" lon="3.8696">
        <ele>352.9</ele>
        <time>2019-12-22T10:20:45.000Z</time>
      </trkpt>
      <trkpt lat="43.84682" lon="3.86962">
        <ele>353.9</ele>
        <time>2019-12-22T10:20:47.000Z</time>
      </trkpt>
      <trkpt lat="43.84684" lon="3.86964">
        <ele>352</ele>
        <time>2019-12-22T10:20:49.000Z</time>
      </trkpt>
      <trkpt lat="43.84685" lon="3.86965">
        <ele>355.8</ele>
        <time>2019-12-22T10:20:50.000Z</time>
      </trkpt>
      <trkpt lat="43.84685" lon="3.86966">
        <ele>355.3</ele>
        <time>2019-12-22T10:20:51.000Z</time>
      </trkpt>
      <trkpt lat="43.84686" lon="3.86969">
        <ele>353.4</ele>
        <time>2019-12-22T10:20:53.000Z</time>
      </trkpt>
      <trkpt lat="43.84687" lon="3.86971">
        <ele>352</ele>
        <time>2019-12-22T10:20:57.000Z</time>
      </trkpt>
      <trkpt lat="43.84688" lon="3.86976">
        <ele>353.9</ele>
        <time>2019-12-22T10:21:06.000Z</time>
      </trkpt>
      <trkpt lat="43.8469" lon="3.8698">
        <ele>353.9</ele>
        <time>2019-12-22T10:21:09.000Z</time>
      </trkpt>
      <trkpt lat="43.84693" lon="3.86988">
        <ele>354.9</ele>
        <time>2019-12-22T10:21:16.000Z</time>
      </trkpt>
      <trkpt lat="43.84696" lon="3.87004">
        <ele>353.9</ele>
        <time>2019-12-22T10:21:31.000Z</time>
      </trkpt>
      <trkpt lat="43.84696" lon="3.87011">
        <ele>358.2</ele>
        <time>2019-12-22T10:21:36.000Z</time>
      </trkpt>
      <trkpt lat="43.84696" lon="3.87015">
        <ele>355.3</ele>
        <time>2019-12-22T10:21:39.000Z</time>
      </trkpt>
      <trkpt lat="43.84694" lon="3.87024">
        <ele>357.3</ele>
        <time>2019-12-22T10:21:46.000Z</time>
      </trkpt>
      <trkpt lat="43.84694" lon="3.87025">
        <ele>356.3</ele>
        <time>2019-12-22T10:21:47.000Z</time>
      </trkpt>
      <trkpt lat="43.84693" lon="3.87026">
        <ele>355.3</ele>
        <time>2019-12-22T10:21:48.000Z</time>
      </trkpt>
      <trkpt lat="43.84694" lon="3.87033">
        <ele>361.1</ele>
        <time>2019-12-22T10:21:54.000Z</time>
      </trkpt>
      <trkpt lat="43.84693" lon="3.87034">
        <ele>356.3</ele>
        <time>2019-12-22T10:21:55.000Z</time>
      </trkpt>
      <trkpt lat="43.84694" lon="3.87039">
        <ele>360.1</ele>
        <time>2019-12-22T10:21:59.000Z</time>
      </trkpt>
      <trkpt lat="43.84693" lon="3.87047">
        <ele>358.7</ele>
        <time>2019-12-22T10:22:07.000Z</time>
      </trkpt>
      <trkpt lat="43.84693" lon="3.8706">
        <ele>359.2</ele>
        <time>2019-12-22T10:22:16.000Z</time>
      </trkpt>
      <trkpt lat="43.84698" lon="3.87068">
        <ele>359.2</ele>
        <time>2019-12-22T10:22:23.000Z</time>
      </trkpt>
      <trkpt lat="43.84701" lon="3.87071">
        <ele>360.6</ele>
        <time>2019-12-22T10:22:28.000Z</time>
      </trkpt>
      <trkpt lat="43.84709" lon="3.87077">
        <ele>364.5</ele>
        <time>2019-12-22T10:22:37.000Z</time>
      </trkpt>
      <trkpt lat="43.84723" lon="3.87082">
        <ele>363.5</ele>
        <time>2019-12-22T10:22:53.000Z</time>
      </trkpt>
      <trkpt lat="43.84728" lon="3.87084">
        <ele>367.4</ele>
        <time>2019-12-22T10:22:58.000Z</time>
      </trkpt>
      <trkpt lat="43.84729" lon="3.87084">
        <ele>366.9</ele>
        <time>2019-12-22T10:22:59.000Z</time>
      </trkpt>
      <trkpt lat="43.8473" lon="3.87085">
        <ele>365</ele>
        <time>2019-12-22T10:23:01.000Z</time>
      </trkpt>
      <trkpt lat="43.84735" lon="3.87087">
        <ele>366.4</ele>
        <time>2019-12-22T10:23:06.000Z</time>
      </trkpt>
      <trkpt lat="43.84737" lon="3.8709">
        <ele>374.6</ele>
        <time>2019-12-22T10:23:09.000Z</time>
      </trkpt>
      <trkpt lat="43.84738" lon="3.8709">
        <ele>367.8</ele>
        <time>2019-12-22T10:23:10.000Z</time>
      </trkpt>
      <trkpt lat="43.84741" lon="3.87093">
        <ele>372.2</ele>
        <time>2019-12-22T10:23:13.000Z</time>
      </trkpt>
      <trkpt lat="43.84747" lon="3.87094">
        <ele>370.7</ele>
        <time>2019-12-22T10:23:19.000Z</time>
      </trkpt>
      <trkpt lat="43.84748" lon="3.87096">
        <ele>373.6</ele>
        <time>2019-12-22T10:23:21.000Z</time>
      </trkpt>
      <trkpt lat="43.84751" lon="3.87098">
        <ele>368.8</ele>
        <time>2019-12-22T10:23:24.000Z</time>
      </trkpt>
      <trkpt lat="43.84762" lon="3.87101">
        <ele>375.5</ele>
        <time>2019-12-22T10:23:37.000Z</time>
      </trkpt>
      <trkpt lat="43.84763" lon="3.87101">
        <ele>371.2</ele>
        <time>2019-12-22T10:23:38.000Z</time>
      </trkpt>
      <trkpt lat="43.8477" lon="3.87102">
        <ele>369.3</ele>
        <time>2019-12-22T10:23:46.000Z</time>
      </trkpt>
      <trkpt lat="43.84777" lon="3.87106">
        <ele>372.6</ele>
        <time>2019-12-22T10:23:55.000Z</time>
      </trkpt>
      <trkpt lat="43.84777" lon="3.87107">
        <ele>372.2</ele>
        <time>2019-12-22T10:23:56.000Z</time>
      </trkpt>
      <trkpt lat="43.84781" lon="3.8711">
        <ele>375.5</ele>
        <time>2019-12-22T10:24:03.000Z</time>
      </trkpt>
      <trkpt lat="43.84781" lon="3.87109">
        <ele>371.2</ele>
        <time>2019-12-22T10:24:04.000Z</time>
      </trkpt>
      <trkpt lat="43.84782" lon="3.87108">
        <ele>367.8</ele>
        <time>2019-12-22T10:24:06.000Z</time>
      </trkpt>
      <trkpt lat="43.84784" lon="3.87106">
        <ele>373.1</ele>
        <time>2019-12-22T10:24:12.000Z</time>
      </trkpt>
      <trkpt lat="43.84785" lon="3.87106">
        <ele>369.3</ele>
        <time>2019-12-22T10:24:17.000Z</time>
      </trkpt>
      <trkpt lat="43.84785" lon="3.87106">
        <ele>372.6</ele>
        <time>2019-12-22T10:24:21.000Z</time>
      </trkpt>
      <trkpt lat="43.84785" lon="3.87106">
        <ele>371.2</ele>
        <time>2019-12-22T10:24:25.000Z</time>
      </trkpt>
      <trkpt lat="43.84786" lon="3.87108">
        <ele>374.6</ele>
        <time>2019-12-22T10:24:34.000Z</time>
      </trkpt>
      <trkpt lat="43.84787" lon="3.87108">
        <ele>373.1</ele>
        <time>2019-12-22T10:24:35.000Z</time>
      </trkpt>
      <trkpt lat="43.84789" lon="3.87105">
        <ele>374.1</ele>
        <time>2019-12-22T10:24:46.000Z</time>
      </trkpt>
      <trkpt lat="43.84789" lon="3.87106">
        <ele>370.7</ele>
        <time>2019-12-22T10:24:49.000Z</time>
      </trkpt>
      <trkpt lat="43.84791" lon="3.87105">
        <ele>374.1</ele>
        <time>2019-12-22T10:24:51.000Z</time>
      </trkpt>
      <trkpt lat="43.84791" lon="3.87105">
        <ele>374.1</ele>
        <time>2019-12-22T10:24:52.000Z</time>
      </trkpt>
      <trkpt lat="43.84797" lon="3.87107">
        <ele>370.7</ele>
        <time>2019-12-22T10:25:00.000Z</time>
      </trkpt>
      <trkpt lat="43.848" lon="3.8711">
        <ele>371.2</ele>
        <time>2019-12-22T10:25:04.000Z</time>
      </trkpt>
      <trkpt lat="43.84809" lon="3.87114">
        <ele>372.6</ele>
        <time>2019-12-22T10:25:15.000Z</time>
      </trkpt>
      <trkpt lat="43.84811" lon="3.87114">
        <ele>369.3</ele>
        <time>2019-12-22T10:25:17.000Z</time>
      </trkpt>
      <trkpt lat="43.84826" lon="3.87113">
        <ele>372.6</ele>
        <time>2019-12-22T10:25:32.000Z</time>
      </trkpt>
      <trkpt lat="43.84831" lon="3.87112">
        <ele>372.2</ele>
        <time>2019-12-22T10:25:37.000Z</time>
      </trkpt>
      <trkpt lat="43.84836" lon="3.87108">
        <ele>369.3</ele>
        <time>2019-12-22T10:25:44.000Z</time>
      </trkpt>
      <trkpt lat="43.84837" lon="3.87105">
        <ele>369.8</ele>
        <time>2019-12-22T10:25:50.000Z</time>
      </trkpt>
      <trkpt lat="43.84843" lon="3.87096">
        <ele>370.2</ele>
        <time>2019-12-22T10:26:02.000Z</time>
      </trkpt>
      <trkpt lat="43.84846" lon="3.87086">
        <ele>371.2</ele>
        <time>2019-12-22T10:26:04.000Z</time>
      </trkpt>
      <trkpt lat="43.84847" lon="3.87083">
        <ele>369.8</ele>
        <time>2019-12-22T10:26:06.000Z</time>
      </trkpt>
      <trkpt lat="43.84851" lon="3.87083">
        <ele>368.8</ele>
        <time>2019-12-22T10:26:10.000Z</time>
      </trkpt>
      <trkpt lat="43.84855" lon="3.87083">
        <ele>366.4</ele>
        <time>2019-12-22T10:26:15.000Z</time>
      </trkpt>
      <trkpt lat="43.84864" lon="3.87085">
        <ele>362.1</ele>
        <time>2019-12-22T10:26:23.000Z</time>
      </trkpt>
      <trkpt lat="43.84865" lon="3.87085">
        <ele>365.9</ele>
        <time>2019-12-22T10:26:24.000Z</time>
      </trkpt>
      <trkpt lat="43.84867" lon="3.87085">
        <ele>369.3</ele>
        <time>2019-12-22T10:26:26.000Z</time>
      </trkpt>
      <trkpt lat="43.84868" lon="3.87085">
        <ele>367.8</ele>
        <time>2019-12-22T10:26:27.000Z</time>
      </trkpt>
      <trkpt lat="43.8487" lon="3.87085">
        <ele>366.4</ele>
        <time>2019-12-22T10:26:29.000Z</time>
      </trkpt>
      <trkpt lat="43.84878" lon="3.87085">
        <ele>362.5</ele>
        <time>2019-12-22T10:26:38.000Z</time>
      </trkpt>
      <trkpt lat="43.84878" lon="3.87084">
        <ele>358.2</ele>
        <time>2019-12-22T10:26:39.000Z</time>
      </trkpt>
      <trkpt lat="43.84879" lon="3.87084">
        <ele>364</ele>
        <time>2019-12-22T10:26:40.000Z</time>
      </trkpt>
      <trkpt lat="43.84883" lon="3.87082">
        <ele>363.5</ele>
        <time>2019-12-22T10:26:44.000Z</time>
      </trkpt>
      <trkpt lat="43.84884" lon="3.87082">
        <ele>365</ele>
        <time>2019-12-22T10:26:46.000Z</time>
      </trkpt>
      <trkpt lat="43.84886" lon="3.87083">
        <ele>363.5</ele>
        <time>2019-12-22T10:26:48.000Z</time>
      </trkpt>
      <trkpt lat="43.84888" lon="3.87084">
        <ele>365.9</ele>
        <time>2019-12-22T10:26:50.000Z</time>
      </trkpt>
      <trkpt lat="43.84889" lon="3.87084">
        <ele>362.1</ele>
        <time>2019-12-22T10:26:57.000Z</time>
      </trkpt>
      <trkpt lat="43.8489" lon="3.87084">
        <ele>371.7</ele>
        <time>2019-12-22T10:26:59.000Z</time>
      </trkpt>
      <trkpt lat="43.8489" lon="3.87084">
        <ele>369.3</ele>
        <time>2019-12-22T10:27:00.000Z</time>
      </trkpt>
      <trkpt lat="43.84892" lon="3.87084">
        <ele>366.4</ele>
        <time>2019-12-22T10:27:02.000Z</time>
      </trkpt>
      <trkpt lat="43.849" lon="3.87082">
        <ele>363.5</ele>
        <time>2019-12-22T10:27:11.000Z</time>
      </trkpt>
      <trkpt lat="43.84913" lon="3.87076">
        <ele>366.4</ele>
        <time>2019-12-22T10:27:24.000Z</time>
      </trkpt>
      <trkpt lat="43.84916" lon="3.87076">
        <ele>365.4</ele>
        <time>2019-12-22T10:27:40.000Z</time>
      </trkpt>
      <trkpt lat="43.84917" lon="3.8707">
        <ele>362.5</ele>
        <time>2019-12-22T10:27:51.000Z</time>
      </trkpt>
      <trkpt lat="43.8492" lon="3.87062">
        <ele>363</ele>
        <time>2019-12-22T10:27:59.000Z</time>
      </trkpt>
      <trkpt lat="43.84925" lon="3.87052">
        <ele>362.1</ele>
        <time>2019-12-22T10:28:09.000Z</time>
      </trkpt>
      <trkpt lat="43.84931" lon="3.87049">
        <ele>358.7</ele>
        <time>2019-12-22T10:28:16.000Z</time>
      </trkpt>
      <trkpt lat="43.84931" lon="3.87048">
        <ele>363.5</ele>
        <time>2019-12-22T10:28:17.000Z</time>
      </trkpt>
      <trkpt lat="43.84931" lon="3.87047">
        <ele>360.6</ele>
        <time>2019-12-22T10:28:18.000Z</time>
      </trkpt>
      <trkpt lat="43.84937" lon="3.87042">
        <ele>355.8</ele>
        <time>2019-12-22T10:28:27.000Z</time>
      </trkpt>
      <trkpt lat="43.84937" lon="3.8704">
        <ele>355.8</ele>
        <time>2019-12-22T10:28:28.000Z</time>
      </trkpt>
      <trkpt lat="43.84938" lon="3.87037">
        <ele>358.7</ele>
        <time>2019-12-22T10:28:30.000Z</time>
      </trkpt>
      <trkpt lat="43.84939" lon="3.87034">
        <ele>358.7</ele>
        <time>2019-12-22T10:28:32.000Z</time>
      </trkpt>
      <trkpt lat="43.84942" lon="3.87025">
        <ele>359.7</ele>
        <time>2019-12-22T10:28:38.000Z</time>
      </trkpt>
      <trkpt lat="43.84942" lon="3.87025">
        <ele>358.7</ele>
        <time>2019-12-22T10:28:39.000Z</time>
      </trkpt>
      <trkpt lat="43.84944" lon="3.87019">
        <ele>357.8</ele>
        <time>2019-12-22T10:28:43.000Z</time>
      </trkpt>
      <trkpt lat="43.84949" lon="3.87012">
        <ele>350.5</ele>
        <time>2019-12-22T10:28:49.000Z</time>
      </trkpt>
      <trkpt lat="43.8495" lon="3.8701">
        <ele>359.7</ele>
        <time>2019-12-22T10:28:50.000Z</time>
      </trkpt>
      <trkpt lat="43.84951" lon="3.87009">
        <ele>355.3</ele>
        <time>2019-12-22T10:28:51.000Z</time>
      </trkpt>
      <trkpt lat="43.84954" lon="3.86996">
        <ele>355.8</ele>
        <time>2019-12-22T10:29:01.000Z</time>
      </trkpt>
      <trkpt lat="43.84956" lon="3.86994">
        <ele>354.4</ele>
        <time>2019-12-22T10:29:03.000Z</time>
      </trkpt>
      <trkpt lat="43.84957" lon="3.86991">
        <ele>355.8</ele>
        <time>2019-12-22T10:29:05.000Z</time>
      </trkpt>
      <trkpt lat="43.84959" lon="3.86987">
        <ele>354.4</ele>
        <time>2019-12-22T10:29:08.000Z</time>
      </trkpt>
      <trkpt lat="43.84962" lon="3.86983">
        <ele>356.3</ele>
        <time>2019-12-22T10:29:13.000Z</time>
      </trkpt>
      <trkpt lat="43.84962" lon="3.86982">
        <ele>352.5</ele>
        <time>2019-12-22T10:29:14.000Z</time>
      </trkpt>
      <trkpt lat="43.84963" lon="3.86981">
        <ele>353.4</ele>
        <time>2019-12-22T10:29:15.000Z</time>
      </trkpt>
      <trkpt lat="43.84965" lon="3.86976">
        <ele>354.9</ele>
        <time>2019-12-22T10:29:20.000Z</time>
      </trkpt>
      <trkpt lat="43.84966" lon="3.86973">
        <ele>352</ele>
        <time>2019-12-22T10:29:22.000Z</time>
      </trkpt>
      <trkpt lat="43.84972" lon="3.8696">
        <ele>353.9</ele>
        <time>2019-12-22T10:29:36.000Z</time>
      </trkpt>
      <trkpt lat="43.84975" lon="3.86953">
        <ele>351.5</ele>
        <time>2019-12-22T10:29:41.000Z</time>
      </trkpt>
      <trkpt lat="43.84979" lon="3.86941">
        <ele>352.5</ele>
        <time>2019-12-22T10:29:49.000Z</time>
      </trkpt>
      <trkpt lat="43.84985" lon="3.86929">
        <ele>348.1</ele>
        <time>2019-12-22T10:29:59.000Z</time>
      </trkpt>
      <trkpt lat="43.84988" lon="3.8692">
        <ele>344.8</ele>
        <time>2019-12-22T10:30:07.000Z</time>
      </trkpt>
      <trkpt lat="43.84989" lon="3.86918">
        <ele>348.6</ele>
        <time>2019-12-22T10:30:10.000Z</time>
      </trkpt>
      <trkpt lat="43.8499" lon="3.86916">
        <ele>348.6</ele>
        <time>2019-12-22T10:30:11.000Z</time>
      </trkpt>
      <trkpt lat="43.84991" lon="3.86911">
        <ele>345.3</ele>
        <time>2019-12-22T10:30:15.000Z</time>
      </trkpt>
      <trkpt lat="43.84994" lon="3.86905">
        <ele>349.1</ele>
        <time>2019-12-22T10:30:19.000Z</time>
      </trkpt>
      <trkpt lat="43.84994" lon="3.86904">
        <ele>348.6</ele>
        <time>2019-12-22T10:30:20.000Z</time>
      </trkpt>
      <trkpt lat="43.84994" lon="3.86901">
        <ele>350.5</ele>
        <time>2019-12-22T10:30:22.000Z</time>
      </trkpt>
      <trkpt lat="43.84999" lon="3.86892">
        <ele>347.6</ele>
        <time>2019-12-22T10:30:30.000Z</time>
      </trkpt>
      <trkpt lat="43.84999" lon="3.86892">
        <ele>348.6</ele>
        <time>2019-12-22T10:30:46.000Z</time>
      </trkpt>
      <trkpt lat="43.85" lon="3.86892">
        <ele>345.3</ele>
        <time>2019-12-22T10:30:58.000Z</time>
      </trkpt>
      <trkpt lat="43.85" lon="3.86893">
        <ele>350.5</ele>
        <time>2019-12-22T10:31:01.000Z</time>
      </trkpt>
      <trkpt lat="43.85" lon="3.86892">
        <ele>349.6</ele>
        <time>2019-12-22T10:31:02.000Z</time>
      </trkpt>
      <trkpt lat="43.85" lon="3.86892">
        <ele>346.7</ele>
        <time>2019-12-22T10:31:05.000Z</time>
      </trkpt>
      <trkpt lat="43.85" lon="3.86892">
        <ele>346.7</ele>
        <time>2019-12-22T10:31:06.000Z</time>
      </trkpt>
      <trkpt lat="43.84999" lon="3.86892">
        <ele>350.1</ele>
        <time>2019-12-22T10:31:09.000Z</time>
      </trkpt>
      <trkpt lat="43.84999" lon="3.86892">
        <ele>345.3</ele>
        <time>2019-12-22T10:31:16.000Z</time>
      </trkpt>
      <trkpt lat="43.84999" lon="3.86891">
        <ele>348.6</ele>
        <time>2019-12-22T10:31:17.000Z</time>
      </trkpt>
      <trkpt lat="43.85" lon="3.86891">
        <ele>348.6</ele>
        <time>2019-12-22T10:31:48.000Z</time>
      </trkpt>
      <trkpt lat="43.85" lon="3.8689">
        <ele>344.8</ele>
        <time>2019-12-22T10:32:08.000Z</time>
      </trkpt>
      <trkpt lat="43.85001" lon="3.8689">
        <ele>347.6</ele>
        <time>2019-12-22T10:32:09.000Z</time>
      </trkpt>
      <trkpt lat="43.85001" lon="3.8689">
        <ele>343.8</ele>
        <time>2019-12-22T10:32:10.000Z</time>
      </trkpt>
      <trkpt lat="43.85" lon="3.8689">
        <ele>348.6</ele>
        <time>2019-12-22T10:32:12.000Z</time>
      </trkpt>
      <trkpt lat="43.85" lon="3.8689">
        <ele>348.6</ele>
        <time>2019-12-22T10:32:13.000Z</time>
      </trkpt>
      <trkpt lat="43.85" lon="3.86891">
        <ele>345.3</ele>
        <time>2019-12-22T10:32:14.000Z</time>
      </trkpt>
      <trkpt lat="43.85" lon="3.8689">
        <ele>348.6</ele>
        <time>2019-12-22T10:32:15.000Z</time>
      </trkpt>
      <trkpt lat="43.84999" lon="3.86891">
        <ele>350.1</ele>
        <time>2019-12-22T10:32:23.000Z</time>
      </trkpt>
      <trkpt lat="43.84998" lon="3.86891">
        <ele>346.2</ele>
        <time>2019-12-22T10:32:25.000Z</time>
      </trkpt>
      <trkpt lat="43.84998" lon="3.8689">
        <ele>349.6</ele>
        <time>2019-12-22T10:32:26.000Z</time>
      </trkpt>
      <trkpt lat="43.84997" lon="3.8689">
        <ele>346.2</ele>
        <time>2019-12-22T10:32:33.000Z</time>
      </trkpt>
      <trkpt lat="43.84997" lon="3.8689">
        <ele>347.2</ele>
        <time>2019-12-22T10:32:34.000Z</time>
      </trkpt>
      <trkpt lat="43.84996" lon="3.8689">
        <ele>348.6</ele>
        <time>2019-12-22T10:32:38.000Z</time>
      </trkpt>
      <trkpt lat="43.84996" lon="3.86891">
        <ele>347.2</ele>
        <time>2019-12-22T10:32:47.000Z</time>
      </trkpt>
      <trkpt lat="43.84999" lon="3.86888">
        <ele>348.6</ele>
        <time>2019-12-22T10:32:59.000Z</time>
      </trkpt>
      <trkpt lat="43.84999" lon="3.86889">
        <ele>351.5</ele>
        <time>2019-12-22T10:33:00.000Z</time>
      </trkpt>
      <trkpt lat="43.84999" lon="3.86889">
        <ele>350.5</ele>
        <time>2019-12-22T10:33:01.000Z</time>
      </trkpt>
      <trkpt lat="43.84998" lon="3.86893">
        <ele>346.7</ele>
        <time>2019-12-22T10:33:12.000Z</time>
      </trkpt>
      <trkpt lat="43.84996" lon="3.86893">
        <ele>349.6</ele>
        <time>2019-12-22T10:33:23.000Z</time>
      </trkpt>
      <trkpt lat="43.84996" lon="3.86892">
        <ele>348.6</ele>
        <time>2019-12-22T10:33:40.000Z</time>
      </trkpt>
      <trkpt lat="43.84996" lon="3.86892">
        <ele>350.1</ele>
        <time>2019-12-22T10:33:43.000Z</time>
      </trkpt>
      <trkpt lat="43.84997" lon="3.86893">
        <ele>351</ele>
        <time>2019-12-22T10:33:51.000Z</time>
      </trkpt>
      <trkpt lat="43.84996" lon="3.86893">
        <ele>347.2</ele>
        <time>2019-12-22T10:33:53.000Z</time>
      </trkpt>
      <trkpt lat="43.84998" lon="3.8689">
        <ele>351.5</ele>
        <time>2019-12-22T10:33:54.000Z</time>
      </trkpt>
      <trkpt lat="43.84998" lon="3.86891">
        <ele>348.1</ele>
        <time>2019-12-22T10:33:55.000Z</time>
      </trkpt>
      <trkpt lat="43.84999" lon="3.86893">
        <ele>348.1</ele>
        <time>2019-12-22T10:34:03.000Z</time>
      </trkpt>
      <trkpt lat="43.84998" lon="3.86893">
        <ele>347.6</ele>
        <time>2019-12-22T10:34:08.000Z</time>
      </trkpt>
      <trkpt lat="43.84999" lon="3.86893">
        <ele>349.6</ele>
        <time>2019-12-22T10:34:25.000Z</time>
      </trkpt>
      <trkpt lat="43.84999" lon="3.86893">
        <ele>349.6</ele>
        <time>2019-12-22T10:34:26.000Z</time>
      </trkpt>
      <trkpt lat="43.85" lon="3.86893">
        <ele>352.9</ele>
        <time>2019-12-22T10:34:33.000Z</time>
      </trkpt>
      <trkpt lat="43.85" lon="3.86892">
        <ele>350.1</ele>
        <time>2019-12-22T10:34:34.000Z</time>
      </trkpt>
      <trkpt lat="43.85" lon="3.86892">
        <ele>348.6</ele>
        <time>2019-12-22T10:34:36.000Z</time>
      </trkpt>
      <trkpt lat="43.85" lon="3.86891">
        <ele>346.7</ele>
        <time>2019-12-22T10:34:50.000Z</time>
      </trkpt>
      <trkpt lat="43.85001" lon="3.86892">
        <ele>347.6</ele>
        <time>2019-12-22T10:34:55.000Z</time>
      </trkpt>
      <trkpt lat="43.85004" lon="3.86891">
        <ele>346.2</ele>
        <time>2019-12-22T10:35:04.000Z</time>
      </trkpt>
      <trkpt lat="43.85006" lon="3.8689">
        <ele>349.1</ele>
        <time>2019-12-22T10:35:07.000Z</time>
      </trkpt>
      <trkpt lat="43.85007" lon="3.86889">
        <ele>347.2</ele>
        <time>2019-12-22T10:35:09.000Z</time>
      </trkpt>
      <trkpt lat="43.85008" lon="3.86885">
        <ele>343.8</ele>
        <time>2019-12-22T10:35:25.000Z</time>
      </trkpt>
      <trkpt lat="43.85008" lon="3.86885">
        <ele>343.3</ele>
        <time>2019-12-22T10:35:26.000Z</time>
      </trkpt>
      <trkpt lat="43.85006" lon="3.86885">
        <ele>345.3</ele>
        <time>2019-12-22T10:35:30.000Z</time>
      </trkpt>
      <trkpt lat="43.85006" lon="3.86885">
        <ele>342.9</ele>
        <time>2019-12-22T10:35:37.000Z</time>
      </trkpt>
      <trkpt lat="43.85007" lon="3.86885">
        <ele>347.6</ele>
        <time>2019-12-22T10:35:44.000Z</time>
      </trkpt>
      <trkpt lat="43.85008" lon="3.86885">
        <ele>347.2</ele>
        <time>2019-12-22T10:35:45.000Z</time>
      </trkpt>
      <trkpt lat="43.85008" lon="3.86886">
        <ele>343.8</ele>
        <time>2019-12-22T10:35:49.000Z</time>
      </trkpt>
      <trkpt lat="43.85009" lon="3.86885">
        <ele>343.3</ele>
        <time>2019-12-22T10:35:50.000Z</time>
      </trkpt>
      <trkpt lat="43.85008" lon="3.86886">
        <ele>347.6</ele>
        <time>2019-12-22T10:36:01.000Z</time>
      </trkpt>
      <trkpt lat="43.85009" lon="3.86885">
        <ele>344.3</ele>
        <time>2019-12-22T10:36:06.000Z</time>
      </trkpt>
      <trkpt lat="43.85008" lon="3.86882">
        <ele>342.9</ele>
        <time>2019-12-22T10:36:12.000Z</time>
      </trkpt>
      <trkpt lat="43.85011" lon="3.86877">
        <ele>339</ele>
        <time>2019-12-22T10:36:22.000Z</time>
      </trkpt>
      <trkpt lat="43.85012" lon="3.86878">
        <ele>340.4</ele>
        <time>2019-12-22T10:36:28.000Z</time>
      </trkpt>
      <trkpt lat="43.85012" lon="3.86878">
        <ele>337.6</ele>
        <time>2019-12-22T10:36:30.000Z</time>
      </trkpt>
      <trkpt lat="43.85015" lon="3.86881">
        <ele>337.6</ele>
        <time>2019-12-22T10:36:41.000Z</time>
      </trkpt>
      <trkpt lat="43.85015" lon="3.8688">
        <ele>336.1</ele>
        <time>2019-12-22T10:36:47.000Z</time>
      </trkpt>
      <trkpt lat="43.85016" lon="3.86881">
        <ele>334.2</ele>
        <time>2019-12-22T10:36:49.000Z</time>
      </trkpt>
      <trkpt lat="43.85016" lon="3.86881">
        <ele>337.6</ele>
        <time>2019-12-22T10:36:51.000Z</time>
      </trkpt>
      <trkpt lat="43.85017" lon="3.86881">
        <ele>334.2</ele>
        <time>2019-12-22T10:36:54.000Z</time>
      </trkpt>
      <trkpt lat="43.85019" lon="3.86884">
        <ele>334.7</ele>
        <time>2019-12-22T10:37:02.000Z</time>
      </trkpt>
      <trkpt lat="43.85017" lon="3.8688">
        <ele>336.1</ele>
        <time>2019-12-22T10:37:15.000Z</time>
      </trkpt>
      <trkpt lat="43.85016" lon="3.86881">
        <ele>332.8</ele>
        <time>2019-12-22T10:37:19.000Z</time>
      </trkpt>
      <trkpt lat="43.85016" lon="3.86883">
        <ele>334.2</ele>
        <time>2019-12-22T10:37:22.000Z</time>
      </trkpt>
      <trkpt lat="43.85016" lon="3.86882">
        <ele>332.3</ele>
        <time>2019-12-22T10:37:28.000Z</time>
      </trkpt>
      <trkpt lat="43.85016" lon="3.86882">
        <ele>336.1</ele>
        <time>2019-12-22T10:37:29.000Z</time>
      </trkpt>
      <trkpt lat="43.85016" lon="3.86882">
        <ele>336.1</ele>
        <time>2019-12-22T10:37:30.000Z</time>
      </trkpt>
      <trkpt lat="43.85017" lon="3.86883">
        <ele>332.3</ele>
        <time>2019-12-22T10:37:34.000Z</time>
      </trkpt>
      <trkpt lat="43.85017" lon="3.86883">
        <ele>332.3</ele>
        <time>2019-12-22T10:37:35.000Z</time>
      </trkpt>
      <trkpt lat="43.85019" lon="3.86887">
        <ele>333.2</ele>
        <time>2019-12-22T10:37:43.000Z</time>
      </trkpt>
      <trkpt lat="43.8502" lon="3.8689">
        <ele>330.4</ele>
        <time>2019-12-22T10:37:47.000Z</time>
      </trkpt>
      <trkpt lat="43.85021" lon="3.86896">
        <ele>329.9</ele>
        <time>2019-12-22T10:37:54.000Z</time>
      </trkpt>
      <trkpt lat="43.85023" lon="3.86902">
        <ele>328</ele>
        <time>2019-12-22T10:38:04.000Z</time>
      </trkpt>
      <trkpt lat="43.85029" lon="3.86912">
        <ele>324.6</ele>
        <time>2019-12-22T10:38:19.000Z</time>
      </trkpt>
      <trkpt lat="43.85029" lon="3.86912">
        <ele>323.6</ele>
        <time>2019-12-22T10:38:20.000Z</time>
      </trkpt>
      <trkpt lat="43.85029" lon="3.86913">
        <ele>323.1</ele>
        <time>2019-12-22T10:38:35.000Z</time>
      </trkpt>
      <trkpt lat="43.85031" lon="3.86912">
        <ele>322.2</ele>
        <time>2019-12-22T10:39:03.000Z</time>
      </trkpt>
      <trkpt lat="43.85033" lon="3.8692">
        <ele>319.8</ele>
        <time>2019-12-22T10:39:21.000Z</time>
      </trkpt>
      <trkpt lat="43.85033" lon="3.86922">
        <ele>319.3</ele>
        <time>2019-12-22T10:39:22.000Z</time>
      </trkpt>
      <trkpt lat="43.85036" lon="3.86931">
        <ele>316.9</ele>
        <time>2019-12-22T10:39:31.000Z</time>
      </trkpt>
      <trkpt lat="43.85039" lon="3.86932">
        <ele>315.5</ele>
        <time>2019-12-22T10:39:34.000Z</time>
      </trkpt>
      <trkpt lat="43.85042" lon="3.86939">
        <ele>312.1</ele>
        <time>2019-12-22T10:39:41.000Z</time>
      </trkpt>
      <trkpt lat="43.85047" lon="3.86949">
        <ele>311.6</ele>
        <time>2019-12-22T10:39:51.000Z</time>
      </trkpt>
      <trkpt lat="43.85053" lon="3.8696">
        <ele>309.2</ele>
        <time>2019-12-22T10:40:01.000Z</time>
      </trkpt>
      <trkpt lat="43.85057" lon="3.86967">
        <ele>310.2</ele>
        <time>2019-12-22T10:40:08.000Z</time>
      </trkpt>
      <trkpt lat="43.85058" lon="3.8697">
        <ele>307.3</ele>
        <time>2019-12-22T10:40:11.000Z</time>
      </trkpt>
      <trkpt lat="43.85066" lon="3.8698">
        <ele>306.3</ele>
        <time>2019-12-22T10:40:25.000Z</time>
      </trkpt>
      <trkpt lat="43.85069" lon="3.86983">
        <ele>303.4</ele>
        <time>2019-12-22T10:40:32.000Z</time>
      </trkpt>
      <trkpt lat="43.85074" lon="3.86986">
        <ele>306.8</ele>
        <time>2019-12-22T10:40:42.000Z</time>
      </trkpt>
      <trkpt lat="43.85077" lon="3.8699">
        <ele>309.7</ele>
        <time>2019-12-22T10:40:50.000Z</time>
      </trkpt>
      <trkpt lat="43.8508" lon="3.86991">
        <ele>306.3</ele>
        <time>2019-12-22T10:40:54.000Z</time>
      </trkpt>
      <trkpt lat="43.8508" lon="3.86992">
        <ele>306.8</ele>
        <time>2019-12-22T10:40:55.000Z</time>
      </trkpt>
      <trkpt lat="43.85081" lon="3.86994">
        <ele>308.2</ele>
        <time>2019-12-22T10:40:57.000Z</time>
      </trkpt>
      <trkpt lat="43.85082" lon="3.86997">
        <ele>305.4</ele>
        <time>2019-12-22T10:40:59.000Z</time>
      </trkpt>
      <trkpt lat="43.85083" lon="3.86998">
        <ele>303.9</ele>
        <time>2019-12-22T10:41:01.000Z</time>
      </trkpt>
      <trkpt lat="43.85086" lon="3.87002">
        <ele>301.5</ele>
        <time>2019-12-22T10:41:08.000Z</time>
      </trkpt>
      <trkpt lat="43.85088" lon="3.87003">
        <ele>299.6</ele>
        <time>2019-12-22T10:41:10.000Z</time>
      </trkpt>
      <trkpt lat="43.85099" lon="3.87001">
        <ele>297.7</ele>
        <time>2019-12-22T10:41:20.000Z</time>
      </trkpt>
      <trkpt lat="43.85101" lon="3.87003">
        <ele>295.7</ele>
        <time>2019-12-22T10:41:22.000Z</time>
      </trkpt>
      <trkpt lat="43.85104" lon="3.87003">
        <ele>295.7</ele>
        <time>2019-12-22T10:41:36.000Z</time>
      </trkpt>
      <trkpt lat="43.85103" lon="3.87005">
        <ele>294.8</ele>
        <time>2019-12-22T10:41:46.000Z</time>
      </trkpt>
      <trkpt lat="43.85104" lon="3.87006">
        <ele>295.3</ele>
        <time>2019-12-22T10:42:13.000Z</time>
      </trkpt>
      <trkpt lat="43.85103" lon="3.87007">
        <ele>294.3</ele>
        <time>2019-12-22T10:42:17.000Z</time>
      </trkpt>
      <trkpt lat="43.85103" lon="3.87007">
        <ele>297.7</ele>
        <time>2019-12-22T10:42:25.000Z</time>
      </trkpt>
      <trkpt lat="43.85103" lon="3.87007">
        <ele>295.3</ele>
        <time>2019-12-22T10:42:28.000Z</time>
      </trkpt>
      <trkpt lat="43.85103" lon="3.87007">
        <ele>296.2</ele>
        <time>2019-12-22T10:42:33.000Z</time>
      </trkpt>
      <trkpt lat="43.85103" lon="3.87007">
        <ele>294.3</ele>
        <time>2019-12-22T10:42:39.000Z</time>
      </trkpt>
      <trkpt lat="43.85103" lon="3.87003">
        <ele>295.3</ele>
        <time>2019-12-22T10:42:50.000Z</time>
      </trkpt>
      <trkpt lat="43.851" lon="3.87001">
        <ele>294.8</ele>
        <time>2019-12-22T10:42:57.000Z</time>
      </trkpt>
      <trkpt lat="43.85097" lon="3.86989">
        <ele>295.7</ele>
        <time>2019-12-22T10:43:08.000Z</time>
      </trkpt>
      <trkpt lat="43.85096" lon="3.86989">
        <ele>301</ele>
        <time>2019-12-22T10:43:09.000Z</time>
      </trkpt>
      <trkpt lat="43.85096" lon="3.86987">
        <ele>297.2</ele>
        <time>2019-12-22T10:43:10.000Z</time>
      </trkpt>
      <trkpt lat="43.85095" lon="3.86983">
        <ele>298.6</ele>
        <time>2019-12-22T10:43:16.000Z</time>
      </trkpt>
      <trkpt lat="43.85096" lon="3.86984">
        <ele>295.3</ele>
        <time>2019-12-22T10:43:17.000Z</time>
      </trkpt>
      <trkpt lat="43.85097" lon="3.86984">
        <ele>296.2</ele>
        <time>2019-12-22T10:43:18.000Z</time>
      </trkpt>
      <trkpt lat="43.85102" lon="3.86989">
        <ele>300.1</ele>
        <time>2019-12-22T10:43:22.000Z</time>
      </trkpt>
      <trkpt lat="43.85104" lon="3.86989">
        <ele>296.2</ele>
        <time>2019-12-22T10:43:26.000Z</time>
      </trkpt>
      <trkpt lat="43.85106" lon="3.86988">
        <ele>293.3</ele>
        <time>2019-12-22T10:43:29.000Z</time>
      </trkpt>
      <trkpt lat="43.85103" lon="3.86979">
        <ele>291.4</ele>
        <time>2019-12-22T10:43:37.000Z</time>
      </trkpt>
      <trkpt lat="43.85101" lon="3.86969">
        <ele>287.1</ele>
        <time>2019-12-22T10:43:45.000Z</time>
      </trkpt>
      <trkpt lat="43.85105" lon="3.86961">
        <ele>284.7</ele>
        <time>2019-12-22T10:43:51.000Z</time>
      </trkpt>
      <trkpt lat="43.8511" lon="3.86956">
        <ele>281.8</ele>
        <time>2019-12-22T10:43:58.000Z</time>
      </trkpt>
      <trkpt lat="43.8511" lon="3.86955">
        <ele>281.8</ele>
        <time>2019-12-22T10:43:59.000Z</time>
      </trkpt>
      <trkpt lat="43.85111" lon="3.86952">
        <ele>283.3</ele>
        <time>2019-12-22T10:44:02.000Z</time>
      </trkpt>
      <trkpt lat="43.85115" lon="3.86945">
        <ele>283.3</ele>
        <time>2019-12-22T10:44:07.000Z</time>
      </trkpt>
      <trkpt lat="43.85117" lon="3.86942">
        <ele>285.2</ele>
        <time>2019-12-22T10:44:09.000Z</time>
      </trkpt>
      <trkpt lat="43.85118" lon="3.86941">
        <ele>281.3</ele>
        <time>2019-12-22T10:44:10.000Z</time>
      </trkpt>
      <trkpt lat="43.85118" lon="3.86939">
        <ele>280.4</ele>
        <time>2019-12-22T10:44:12.000Z</time>
      </trkpt>
      <trkpt lat="43.85122" lon="3.86933">
        <ele>276.5</ele>
        <time>2019-12-22T10:44:16.000Z</time>
      </trkpt>
      <trkpt lat="43.85123" lon="3.86933">
        <ele>276.5</ele>
        <time>2019-12-22T10:44:17.000Z</time>
      </trkpt>
      <trkpt lat="43.85123" lon="3.86932">
        <ele>278.4</ele>
        <time>2019-12-22T10:44:18.000Z</time>
      </trkpt>
      <trkpt lat="43.85129" lon="3.8692">
        <ele>277.5</ele>
        <time>2019-12-22T10:44:31.000Z</time>
      </trkpt>
      <trkpt lat="43.85129" lon="3.86917">
        <ele>279.4</ele>
        <time>2019-12-22T10:44:34.000Z</time>
      </trkpt>
      <trkpt lat="43.85129" lon="3.86916">
        <ele>278.9</ele>
        <time>2019-12-22T10:44:36.000Z</time>
      </trkpt>
      <trkpt lat="43.85131" lon="3.86912">
        <ele>277.5</ele>
        <time>2019-12-22T10:44:41.000Z</time>
      </trkpt>
      <trkpt lat="43.85132" lon="3.8691">
        <ele>275.1</ele>
        <time>2019-12-22T10:44:45.000Z</time>
      </trkpt>
      <trkpt lat="43.85139" lon="3.86907">
        <ele>272.2</ele>
        <time>2019-12-22T10:44:58.000Z</time>
      </trkpt>
      <trkpt lat="43.8514" lon="3.86905">
        <ele>270.8</ele>
        <time>2019-12-22T10:45:00.000Z</time>
      </trkpt>
      <trkpt lat="43.85145" lon="3.86898">
        <ele>272.2</ele>
        <time>2019-12-22T10:45:11.000Z</time>
      </trkpt>
      <trkpt lat="43.85147" lon="3.86891">
        <ele>268.8</ele>
        <time>2019-12-22T10:45:21.000Z</time>
      </trkpt>
      <trkpt lat="43.85148" lon="3.86893">
        <ele>269.3</ele>
        <time>2019-12-22T10:45:39.000Z</time>
      </trkpt>
      <trkpt lat="43.85144" lon="3.86889">
        <ele>268.8</ele>
        <time>2019-12-22T10:45:58.000Z</time>
      </trkpt>
      <trkpt lat="43.85144" lon="3.86889">
        <ele>268.4</ele>
        <time>2019-12-22T10:46:00.000Z</time>
      </trkpt>
      <trkpt lat="43.85146" lon="3.8689">
        <ele>267.4</ele>
        <time>2019-12-22T10:46:15.000Z</time>
      </trkpt>
      <trkpt lat="43.85145" lon="3.8689">
        <ele>268.8</ele>
        <time>2019-12-22T10:46:18.000Z</time>
      </trkpt>
      <trkpt lat="43.85145" lon="3.8689">
        <ele>265.9</ele>
        <time>2019-12-22T10:46:25.000Z</time>
      </trkpt>
      <trkpt lat="43.85146" lon="3.86888">
        <ele>269.8</ele>
        <time>2019-12-22T10:46:40.000Z</time>
      </trkpt>
      <trkpt lat="43.85149" lon="3.86887">
        <ele>268.4</ele>
        <time>2019-12-22T10:46:48.000Z</time>
      </trkpt>
      <trkpt lat="43.85155" lon="3.86881">
        <ele>267.4</ele>
        <time>2019-12-22T10:46:58.000Z</time>
      </trkpt>
      <trkpt lat="43.85155" lon="3.8688">
        <ele>267.4</ele>
        <time>2019-12-22T10:46:59.000Z</time>
      </trkpt>
      <trkpt lat="43.85155" lon="3.86875">
        <ele>266.9</ele>
        <time>2019-12-22T10:47:03.000Z</time>
      </trkpt>
      <trkpt lat="43.85161" lon="3.86865">
        <ele>266.9</ele>
        <time>2019-12-22T10:47:15.000Z</time>
      </trkpt>
      <trkpt lat="43.85164" lon="3.8686">
        <ele>263.5</ele>
        <time>2019-12-22T10:47:21.000Z</time>
      </trkpt>
      <trkpt lat="43.85165" lon="3.86859">
        <ele>263.5</ele>
        <time>2019-12-22T10:47:22.000Z</time>
      </trkpt>
      <trkpt lat="43.85172" lon="3.86856">
        <ele>262.1</ele>
        <time>2019-12-22T10:47:34.000Z</time>
      </trkpt>
      <trkpt lat="43.85176" lon="3.86842">
        <ele>264</ele>
        <time>2019-12-22T10:47:47.000Z</time>
      </trkpt>
      <trkpt lat="43.85176" lon="3.8684">
        <ele>265</ele>
        <time>2019-12-22T10:47:49.000Z</time>
      </trkpt>
      <trkpt lat="43.85182" lon="3.86831">
        <ele>262.1</ele>
        <time>2019-12-22T10:47:58.000Z</time>
      </trkpt>
      <trkpt lat="43.85183" lon="3.8683">
        <ele>265.5</ele>
        <time>2019-12-22T10:48:03.000Z</time>
      </trkpt>
      <trkpt lat="43.85184" lon="3.86829">
        <ele>265</ele>
        <time>2019-12-22T10:48:04.000Z</time>
      </trkpt>
      <trkpt lat="43.85184" lon="3.86823">
        <ele>262.1</ele>
        <time>2019-12-22T10:48:09.000Z</time>
      </trkpt>
      <trkpt lat="43.85185" lon="3.86813">
        <ele>261.1</ele>
        <time>2019-12-22T10:48:17.000Z</time>
      </trkpt>
      <trkpt lat="43.85186" lon="3.86811">
        <ele>259.7</ele>
        <time>2019-12-22T10:48:19.000Z</time>
      </trkpt>
      <trkpt lat="43.85188" lon="3.86808">
        <ele>256.3</ele>
        <time>2019-12-22T10:48:21.000Z</time>
      </trkpt>
      <trkpt lat="43.8519" lon="3.86803">
        <ele>254.4</ele>
        <time>2019-12-22T10:48:26.000Z</time>
      </trkpt>
      <trkpt lat="43.85193" lon="3.868">
        <ele>257.8</ele>
        <time>2019-12-22T10:48:30.000Z</time>
      </trkpt>
      <trkpt lat="43.85196" lon="3.86797">
        <ele>256.3</ele>
        <time>2019-12-22T10:48:35.000Z</time>
      </trkpt>
      <trkpt lat="43.852" lon="3.86796">
        <ele>256.8</ele>
        <time>2019-12-22T10:48:39.000Z</time>
      </trkpt>
      <trkpt lat="43.85204" lon="3.86791">
        <ele>258.3</ele>
        <time>2019-12-22T10:48:47.000Z</time>
      </trkpt>
      <trkpt lat="43.85209" lon="3.86789">
        <ele>258.7</ele>
        <time>2019-12-22T10:48:58.000Z</time>
      </trkpt>
      <trkpt lat="43.85208" lon="3.86788">
        <ele>256.8</ele>
        <time>2019-12-22T10:49:15.000Z</time>
      </trkpt>
      <trkpt lat="43.85208" lon="3.86791">
        <ele>253.9</ele>
        <time>2019-12-22T10:49:33.000Z</time>
      </trkpt>
      <trkpt lat="43.85206" lon="3.86788">
        <ele>256.8</ele>
        <time>2019-12-22T10:49:47.000Z</time>
      </trkpt>
      <trkpt lat="43.85209" lon="3.86787">
        <ele>259.7</ele>
        <time>2019-12-22T10:49:52.000Z</time>
      </trkpt>
      <trkpt lat="43.8521" lon="3.86787">
        <ele>258.3</ele>
        <time>2019-12-22T10:49:58.000Z</time>
      </trkpt>
      <trkpt lat="43.85228" lon="3.86781">
        <ele>259.2</ele>
        <time>2019-12-22T10:50:18.000Z</time>
      </trkpt>
      <trkpt lat="43.85232" lon="3.86773">
        <ele>257.8</ele>
        <time>2019-12-22T10:50:23.000Z</time>
      </trkpt>
      <trkpt lat="43.85234" lon="3.86771">
        <ele>257.8</ele>
        <time>2019-12-22T10:50:25.000Z</time>
      </trkpt>
      <trkpt lat="43.85247" lon="3.86772">
        <ele>256.8</ele>
        <time>2019-12-22T10:50:38.000Z</time>
      </trkpt>
      <trkpt lat="43.8525" lon="3.86771">
        <ele>260.6</ele>
        <time>2019-12-22T10:50:42.000Z</time>
      </trkpt>
      <trkpt lat="43.85255" lon="3.8677">
        <ele>260.2</ele>
        <time>2019-12-22T10:50:46.000Z</time>
      </trkpt>
      <trkpt lat="43.8527" lon="3.8677">
        <ele>256.8</ele>
        <time>2019-12-22T10:51:01.000Z</time>
      </trkpt>
      <trkpt lat="43.85277" lon="3.86774">
        <ele>260.2</ele>
        <time>2019-12-22T10:51:11.000Z</time>
      </trkpt>
      <trkpt lat="43.85289" lon="3.86774">
        <ele>259.2</ele>
        <time>2019-12-22T10:51:24.000Z</time>
      </trkpt>
      <trkpt lat="43.85295" lon="3.86778">
        <ele>261.1</ele>
        <time>2019-12-22T10:51:33.000Z</time>
      </trkpt>
      <trkpt lat="43.853" lon="3.86779">
        <ele>258.7</ele>
        <time>2019-12-22T10:51:39.000Z</time>
      </trkpt>
      <trkpt lat="43.85312" lon="3.86786">
        <ele>258.3</ele>
        <time>2019-12-22T10:51:51.000Z</time>
      </trkpt>
      <trkpt lat="43.85313" lon="3.86789">
        <ele>257.8</ele>
        <time>2019-12-22T10:51:54.000Z</time>
      </trkpt>
      <trkpt lat="43.85317" lon="3.86794">
        <ele>257.8</ele>
        <time>2019-12-22T10:51:59.000Z</time>
      </trkpt>
      <trkpt lat="43.85322" lon="3.86798">
        <ele>258.3</ele>
        <time>2019-12-22T10:52:05.000Z</time>
      </trkpt>
      <trkpt lat="43.85323" lon="3.86799">
        <ele>260.2</ele>
        <time>2019-12-22T10:52:07.000Z</time>
      </trkpt>
      <trkpt lat="43.85328" lon="3.86805">
        <ele>258.7</ele>
        <time>2019-12-22T10:52:14.000Z</time>
      </trkpt>
      <trkpt lat="43.8533" lon="3.86807">
        <ele>256.8</ele>
        <time>2019-12-22T10:52:17.000Z</time>
      </trkpt>
      <trkpt lat="43.85334" lon="3.86808">
        <ele>253.4</ele>
        <time>2019-12-22T10:52:21.000Z</time>
      </trkpt>
      <trkpt lat="43.85335" lon="3.8681">
        <ele>252.5</ele>
        <time>2019-12-22T10:52:23.000Z</time>
      </trkpt>
      <trkpt lat="43.85336" lon="3.86811">
        <ele>256.3</ele>
        <time>2019-12-22T10:52:24.000Z</time>
      </trkpt>
      <trkpt lat="43.85339" lon="3.86812">
        <ele>257.8</ele>
        <time>2019-12-22T10:52:27.000Z</time>
      </trkpt>
      <trkpt lat="43.85341" lon="3.86813">
        <ele>253.4</ele>
        <time>2019-12-22T10:52:29.000Z</time>
      </trkpt>
      <trkpt lat="43.85343" lon="3.86815">
        <ele>255.9</ele>
        <time>2019-12-22T10:52:32.000Z</time>
      </trkpt>
      <trkpt lat="43.85349" lon="3.86817">
        <ele>256.8</ele>
        <time>2019-12-22T10:52:38.000Z</time>
      </trkpt>
      <trkpt lat="43.85353" lon="3.86818">
        <ele>260.6</ele>
        <time>2019-12-22T10:52:41.000Z</time>
      </trkpt>
      <trkpt lat="43.85362" lon="3.86822">
        <ele>257.3</ele>
        <time>2019-12-22T10:52:51.000Z</time>
      </trkpt>
      <trkpt lat="43.85366" lon="3.86822">
        <ele>258.3</ele>
        <time>2019-12-22T10:52:54.000Z</time>
      </trkpt>
      <trkpt lat="43.85373" lon="3.86821">
        <ele>261.6</ele>
        <time>2019-12-22T10:53:00.000Z</time>
      </trkpt>
      <trkpt lat="43.85387" lon="3.86823">
        <ele>261.1</ele>
        <time>2019-12-22T10:53:14.000Z</time>
      </trkpt>
      <trkpt lat="43.85389" lon="3.86822">
        <ele>260.2</ele>
        <time>2019-12-22T10:53:16.000Z</time>
      </trkpt>
      <trkpt lat="43.85393" lon="3.86818">
        <ele>261.1</ele>
        <time>2019-12-22T10:53:20.000Z</time>
      </trkpt>
      <trkpt lat="43.85396" lon="3.8682">
        <ele>255.4</ele>
        <time>2019-12-22T10:53:24.000Z</time>
      </trkpt>
      <trkpt lat="43.85397" lon="3.8682">
        <ele>255.4</ele>
        <time>2019-12-22T10:53:25.000Z</time>
      </trkpt>
      <trkpt lat="43.85402" lon="3.86819">
        <ele>258.7</ele>
        <time>2019-12-22T10:53:30.000Z</time>
      </trkpt>
      <trkpt lat="43.85408" lon="3.86824">
        <ele>256.3</ele>
        <time>2019-12-22T10:53:37.000Z</time>
      </trkpt>
      <trkpt lat="43.85411" lon="3.86827">
        <ele>254.4</ele>
        <time>2019-12-22T10:53:41.000Z</time>
      </trkpt>
      <trkpt lat="43.85414" lon="3.86828">
        <ele>255.9</ele>
        <time>2019-12-22T10:53:44.000Z</time>
      </trkpt>
      <trkpt lat="43.8542" lon="3.86829">
        <ele>261.6</ele>
        <time>2019-12-22T10:53:51.000Z</time>
      </trkpt>
      <trkpt lat="43.85422" lon="3.86829">
        <ele>262.1</ele>
        <time>2019-12-22T10:53:53.000Z</time>
      </trkpt>
      <trkpt lat="43.85427" lon="3.8683">
        <ele>255.9</ele>
        <time>2019-12-22T10:53:58.000Z</time>
      </trkpt>
      <trkpt lat="43.85428" lon="3.86831">
        <ele>255.4</ele>
        <time>2019-12-22T10:53:59.000Z</time>
      </trkpt>
      <trkpt lat="43.85432" lon="3.86833">
        <ele>254.4</ele>
        <time>2019-12-22T10:54:04.000Z</time>
      </trkpt>
      <trkpt lat="43.85437" lon="3.86838">
        <ele>258.7</ele>
        <time>2019-12-22T10:54:09.000Z</time>
      </trkpt>
      <trkpt lat="43.85441" lon="3.86841">
        <ele>261.1</ele>
        <time>2019-12-22T10:54:14.000Z</time>
      </trkpt>
      <trkpt lat="43.85445" lon="3.86846">
        <ele>257.3</ele>
        <time>2019-12-22T10:54:19.000Z</time>
      </trkpt>
      <trkpt lat="43.85445" lon="3.86846">
        <ele>255.9</ele>
        <time>2019-12-22T10:54:20.000Z</time>
      </trkpt>
      <trkpt lat="43.85449" lon="3.86846">
        <ele>251</ele>
        <time>2019-12-22T10:54:24.000Z</time>
      </trkpt>
      <trkpt lat="43.8545" lon="3.86845">
        <ele>251</ele>
        <time>2019-12-22T10:54:25.000Z</time>
      </trkpt>
      <trkpt lat="43.85453" lon="3.86844">
        <ele>254.4</ele>
        <time>2019-12-22T10:54:28.000Z</time>
      </trkpt>
      <trkpt lat="43.85455" lon="3.86845">
        <ele>256.3</ele>
        <time>2019-12-22T10:54:30.000Z</time>
      </trkpt>
      <trkpt lat="43.85464" lon="3.86848">
        <ele>256.8</ele>
        <time>2019-12-22T10:54:41.000Z</time>
      </trkpt>
      <trkpt lat="43.85465" lon="3.86849">
        <ele>255.4</ele>
        <time>2019-12-22T10:54:43.000Z</time>
      </trkpt>
      <trkpt lat="43.85468" lon="3.8685">
        <ele>257.3</ele>
        <time>2019-12-22T10:54:45.000Z</time>
      </trkpt>
      <trkpt lat="43.85471" lon="3.86852">
        <ele>253.9</ele>
        <time>2019-12-22T10:54:48.000Z</time>
      </trkpt>
      <trkpt lat="43.85477" lon="3.86856">
        <ele>254.4</ele>
        <time>2019-12-22T10:54:56.000Z</time>
      </trkpt>
      <trkpt lat="43.85482" lon="3.8686">
        <ele>252</ele>
        <time>2019-12-22T10:55:01.000Z</time>
      </trkpt>
      <trkpt lat="43.85485" lon="3.86861">
        <ele>256.3</ele>
        <time>2019-12-22T10:55:04.000Z</time>
      </trkpt>
      <trkpt lat="43.85495" lon="3.8687">
        <ele>260.2</ele>
        <time>2019-12-22T10:55:15.000Z</time>
      </trkpt>
      <trkpt lat="43.85497" lon="3.8687">
        <ele>260.2</ele>
        <time>2019-12-22T10:55:16.000Z</time>
      </trkpt>
      <trkpt lat="43.855" lon="3.86874">
        <ele>257.3</ele>
        <time>2019-12-22T10:55:20.000Z</time>
      </trkpt>
      <trkpt lat="43.85501" lon="3.86875">
        <ele>257.8</ele>
        <time>2019-12-22T10:55:21.000Z</time>
      </trkpt>
      <trkpt lat="43.85504" lon="3.86881">
        <ele>258.7</ele>
        <time>2019-12-22T10:55:26.000Z</time>
      </trkpt>
      <trkpt lat="43.85508" lon="3.86885">
        <ele>262.6</ele>
        <time>2019-12-22T10:55:31.000Z</time>
      </trkpt>
      <trkpt lat="43.85509" lon="3.86888">
        <ele>263.5</ele>
        <time>2019-12-22T10:55:33.000Z</time>
      </trkpt>
      <trkpt lat="43.85511" lon="3.86896">
        <ele>262.6</ele>
        <time>2019-12-22T10:55:40.000Z</time>
      </trkpt>
      <trkpt lat="43.85512" lon="3.86898">
        <ele>261.1</ele>
        <time>2019-12-22T10:55:42.000Z</time>
      </trkpt>
      <trkpt lat="43.85513" lon="3.86899">
        <ele>262.1</ele>
        <time>2019-12-22T10:55:43.000Z</time>
      </trkpt>
      <trkpt lat="43.85514" lon="3.86902">
        <ele>262.6</ele>
        <time>2019-12-22T10:55:45.000Z</time>
      </trkpt>
      <trkpt lat="43.8552" lon="3.86921">
        <ele>265</ele>
        <time>2019-12-22T10:56:00.000Z</time>
      </trkpt>
      <trkpt lat="43.85522" lon="3.86927">
        <ele>265.9</ele>
        <time>2019-12-22T10:56:04.000Z</time>
      </trkpt>
      <trkpt lat="43.85525" lon="3.86935">
        <ele>264</ele>
        <time>2019-12-22T10:56:09.000Z</time>
      </trkpt>
      <trkpt lat="43.85528" lon="3.86947">
        <ele>267.9</ele>
        <time>2019-12-22T10:56:18.000Z</time>
      </trkpt>
      <trkpt lat="43.85529" lon="3.8695">
        <ele>269.8</ele>
        <time>2019-12-22T10:56:20.000Z</time>
      </trkpt>
      <trkpt lat="43.8553" lon="3.86959">
        <ele>271.7</ele>
        <time>2019-12-22T10:56:27.000Z</time>
      </trkpt>
      <trkpt lat="43.85531" lon="3.86971">
        <ele>276</ele>
        <time>2019-12-22T10:56:35.000Z</time>
      </trkpt>
      <trkpt lat="43.8553" lon="3.86973">
        <ele>276.5</ele>
        <time>2019-12-22T10:56:36.000Z</time>
      </trkpt>
      <trkpt lat="43.8553" lon="3.86982">
        <ele>276.5</ele>
        <time>2019-12-22T10:56:42.000Z</time>
      </trkpt>
      <trkpt lat="43.85529" lon="3.86987">
        <ele>272.7</ele>
        <time>2019-12-22T10:56:45.000Z</time>
      </trkpt>
      <trkpt lat="43.85529" lon="3.86989">
        <ele>273.6</ele>
        <time>2019-12-22T10:56:46.000Z</time>
      </trkpt>
      <trkpt lat="43.85528" lon="3.86991">
        <ele>277</ele>
        <time>2019-12-22T10:56:48.000Z</time>
      </trkpt>
      <trkpt lat="43.85528" lon="3.86992">
        <ele>277</ele>
        <time>2019-12-22T10:56:49.000Z</time>
      </trkpt>
      <trkpt lat="43.85528" lon="3.86995">
        <ele>278.4</ele>
        <time>2019-12-22T10:56:51.000Z</time>
      </trkpt>
      <trkpt lat="43.85528" lon="3.86996">
        <ele>273.6</ele>
        <time>2019-12-22T10:56:52.000Z</time>
      </trkpt>
      <trkpt lat="43.85527" lon="3.86998">
        <ele>278.4</ele>
        <time>2019-12-22T10:56:54.000Z</time>
      </trkpt>
      <trkpt lat="43.85527" lon="3.87">
        <ele>277.5</ele>
        <time>2019-12-22T10:56:55.000Z</time>
      </trkpt>
      <trkpt lat="43.85527" lon="3.87003">
        <ele>275.6</ele>
        <time>2019-12-22T10:56:57.000Z</time>
      </trkpt>
      <trkpt lat="43.85527" lon="3.87008">
        <ele>274.1</ele>
        <time>2019-12-22T10:57:02.000Z</time>
      </trkpt>
      <trkpt lat="43.85529" lon="3.8701">
        <ele>275.1</ele>
        <time>2019-12-22T10:57:17.000Z</time>
      </trkpt>
      <trkpt lat="43.85529" lon="3.87009">
        <ele>278</ele>
        <time>2019-12-22T10:57:18.000Z</time>
      </trkpt>
      <trkpt lat="43.85529" lon="3.8701">
        <ele>276.5</ele>
        <time>2019-12-22T10:57:19.000Z</time>
      </trkpt>
      <trkpt lat="43.85529" lon="3.8701">
        <ele>276.5</ele>
        <time>2019-12-22T10:57:24.000Z</time>
      </trkpt>
      <trkpt lat="43.85528" lon="3.8701">
        <ele>275.6</ele>
        <time>2019-12-22T10:57:26.000Z</time>
      </trkpt>
      <trkpt lat="43.85528" lon="3.87009">
        <ele>271.7</ele>
        <time>2019-12-22T10:57:28.000Z</time>
      </trkpt>
      <trkpt lat="43.85528" lon="3.87008">
        <ele>272.2</ele>
        <time>2019-12-22T10:57:29.000Z</time>
      </trkpt>
      <trkpt lat="43.85528" lon="3.87007">
        <ele>275.6</ele>
        <time>2019-12-22T10:57:31.000Z</time>
      </trkpt>
      <trkpt lat="43.8553" lon="3.87008">
        <ele>276.5</ele>
        <time>2019-12-22T10:57:40.000Z</time>
      </trkpt>
      <trkpt lat="43.85529" lon="3.8701">
        <ele>275.6</ele>
        <time>2019-12-22T10:57:56.000Z</time>
      </trkpt>
      <trkpt lat="43.85527" lon="3.87025">
        <ele>277.5</ele>
        <time>2019-12-22T10:58:05.000Z</time>
      </trkpt>
      <trkpt lat="43.85524" lon="3.87038">
        <ele>279.9</ele>
        <time>2019-12-22T10:58:13.000Z</time>
      </trkpt>
      <trkpt lat="43.85523" lon="3.87041">
        <ele>278.9</ele>
        <time>2019-12-22T10:58:15.000Z</time>
      </trkpt>
      <trkpt lat="43.85522" lon="3.87049">
        <ele>278.9</ele>
        <time>2019-12-22T10:58:21.000Z</time>
      </trkpt>
      <trkpt lat="43.85517" lon="3.87055">
        <ele>279.9</ele>
        <time>2019-12-22T10:58:27.000Z</time>
      </trkpt>
      <trkpt lat="43.85512" lon="3.87071">
        <ele>279.4</ele>
        <time>2019-12-22T10:58:38.000Z</time>
      </trkpt>
      <trkpt lat="43.85511" lon="3.87073">
        <ele>282.8</ele>
        <time>2019-12-22T10:58:40.000Z</time>
      </trkpt>
      <trkpt lat="43.8551" lon="3.87074">
        <ele>279.4</ele>
        <time>2019-12-22T10:58:42.000Z</time>
      </trkpt>
      <trkpt lat="43.85509" lon="3.87074">
        <ele>279.4</ele>
        <time>2019-12-22T10:58:43.000Z</time>
      </trkpt>
      <trkpt lat="43.85507" lon="3.87075">
        <ele>282.3</ele>
        <time>2019-12-22T10:58:45.000Z</time>
      </trkpt>
      <trkpt lat="43.85505" lon="3.87074">
        <ele>279.4</ele>
        <time>2019-12-22T10:58:48.000Z</time>
      </trkpt>
      <trkpt lat="43.85503" lon="3.87076">
        <ele>283.7</ele>
        <time>2019-12-22T10:58:51.000Z</time>
      </trkpt>
      <trkpt lat="43.85503" lon="3.87076">
        <ele>284.2</ele>
        <time>2019-12-22T10:58:52.000Z</time>
      </trkpt>
      <trkpt lat="43.85497" lon="3.87086">
        <ele>285.2</ele>
        <time>2019-12-22T10:59:03.000Z</time>
      </trkpt>
      <trkpt lat="43.85496" lon="3.87089">
        <ele>285.6</ele>
        <time>2019-12-22T10:59:05.000Z</time>
      </trkpt>
      <trkpt lat="43.85496" lon="3.87092">
        <ele>284.2</ele>
        <time>2019-12-22T10:59:07.000Z</time>
      </trkpt>
      <trkpt lat="43.85494" lon="3.87103">
        <ele>285.2</ele>
        <time>2019-12-22T10:59:15.000Z</time>
      </trkpt>
      <trkpt lat="43.85493" lon="3.87105">
        <ele>284.2</ele>
        <time>2019-12-22T10:59:17.000Z</time>
      </trkpt>
      <trkpt lat="43.85493" lon="3.87111">
        <ele>282.3</ele>
        <time>2019-12-22T10:59:22.000Z</time>
      </trkpt>
      <trkpt lat="43.85494" lon="3.87116">
        <ele>279.9</ele>
        <time>2019-12-22T10:59:26.000Z</time>
      </trkpt>
      <trkpt lat="43.85493" lon="3.87119">
        <ele>280.4</ele>
        <time>2019-12-22T10:59:29.000Z</time>
      </trkpt>
      <trkpt lat="43.85486" lon="3.8713">
        <ele>277</ele>
        <time>2019-12-22T10:59:36.000Z</time>
      </trkpt>
      <trkpt lat="43.85486" lon="3.87144">
        <ele>277.5</ele>
        <time>2019-12-22T10:59:46.000Z</time>
      </trkpt>
      <trkpt lat="43.85485" lon="3.87145">
        <ele>277</ele>
        <time>2019-12-22T10:59:47.000Z</time>
      </trkpt>
      <trkpt lat="43.85485" lon="3.87152">
        <ele>275.6</ele>
        <time>2019-12-22T10:59:53.000Z</time>
      </trkpt>
      <trkpt lat="43.85485" lon="3.87156">
        <ele>273.6</ele>
        <time>2019-12-22T10:59:55.000Z</time>
      </trkpt>
      <trkpt lat="43.85486" lon="3.8717">
        <ele>270.3</ele>
        <time>2019-12-22T11:00:01.000Z</time>
      </trkpt>
      <trkpt lat="43.85488" lon="3.87177">
        <ele>267.9</ele>
        <time>2019-12-22T11:00:04.000Z</time>
      </trkpt>
      <trkpt lat="43.85492" lon="3.87186">
        <ele>264</ele>
        <time>2019-12-22T11:00:08.000Z</time>
      </trkpt>
      <trkpt lat="43.85497" lon="3.87195">
        <ele>261.1</ele>
        <time>2019-12-22T11:00:15.000Z</time>
      </trkpt>
      <trkpt lat="43.85506" lon="3.872">
        <ele>258.7</ele>
        <time>2019-12-22T11:00:23.000Z</time>
      </trkpt>
      <trkpt lat="43.85516" lon="3.87203">
        <ele>254.9</ele>
        <time>2019-12-22T11:00:31.000Z</time>
      </trkpt>
      <trkpt lat="43.85517" lon="3.87203">
        <ele>255.4</ele>
        <time>2019-12-22T11:00:32.000Z</time>
      </trkpt>
      <trkpt lat="43.85524" lon="3.87206">
        <ele>252.5</ele>
        <time>2019-12-22T11:00:40.000Z</time>
      </trkpt>
      <trkpt lat="43.85525" lon="3.87207">
        <ele>252.5</ele>
        <time>2019-12-22T11:00:41.000Z</time>
      </trkpt>
      <trkpt lat="43.85527" lon="3.87208">
        <ele>251</ele>
        <time>2019-12-22T11:00:45.000Z</time>
      </trkpt>
      <trkpt lat="43.85535" lon="3.87209">
        <ele>251.5</ele>
        <time>2019-12-22T11:00:57.000Z</time>
      </trkpt>
      <trkpt lat="43.85534" lon="3.87209">
        <ele>251.5</ele>
        <time>2019-12-22T11:01:02.000Z</time>
      </trkpt>
      <trkpt lat="43.85536" lon="3.87207">
        <ele>248.6</ele>
        <time>2019-12-22T11:01:14.000Z</time>
      </trkpt>
      <trkpt lat="43.85536" lon="3.87207">
        <ele>253</ele>
        <time>2019-12-22T11:01:16.000Z</time>
      </trkpt>
      <trkpt lat="43.85536" lon="3.87207">
        <ele>253</ele>
        <time>2019-12-22T11:01:17.000Z</time>
      </trkpt>
      <trkpt lat="43.85537" lon="3.87204">
        <ele>253</ele>
        <time>2019-12-22T11:01:22.000Z</time>
      </trkpt>
      <trkpt lat="43.85537" lon="3.87205">
        <ele>249.6</ele>
        <time>2019-12-22T11:01:32.000Z</time>
      </trkpt>
      <trkpt lat="43.85538" lon="3.87209">
        <ele>251.5</ele>
        <time>2019-12-22T11:01:57.000Z</time>
      </trkpt>
      <trkpt lat="43.85537" lon="3.87207">
        <ele>250.6</ele>
        <time>2019-12-22T11:02:22.000Z</time>
      </trkpt>
      <trkpt lat="43.85537" lon="3.87208">
        <ele>251</ele>
        <time>2019-12-22T11:02:47.000Z</time>
      </trkpt>
      <trkpt lat="43.85537" lon="3.87207">
        <ele>250.6</ele>
        <time>2019-12-22T11:02:48.000Z</time>
      </trkpt>
      <trkpt lat="43.85538" lon="3.87209">
        <ele>252.5</ele>
        <time>2019-12-22T11:03:00.000Z</time>
      </trkpt>
      <trkpt lat="43.85538" lon="3.87215">
        <ele>248.6</ele>
        <time>2019-12-22T11:03:09.000Z</time>
      </trkpt>
      <trkpt lat="43.85537" lon="3.87228">
        <ele>249.6</ele>
        <time>2019-12-22T11:03:23.000Z</time>
      </trkpt>
      <trkpt lat="43.85536" lon="3.87229">
        <ele>249.6</ele>
        <time>2019-12-22T11:03:24.000Z</time>
      </trkpt>
      <trkpt lat="43.85534" lon="3.87232">
        <ele>246.7</ele>
        <time>2019-12-22T11:03:27.000Z</time>
      </trkpt>
      <trkpt lat="43.85534" lon="3.87234">
        <ele>246.7</ele>
        <time>2019-12-22T11:03:28.000Z</time>
      </trkpt>
      <trkpt lat="43.85533" lon="3.87236">
        <ele>248.2</ele>
        <time>2019-12-22T11:03:30.000Z</time>
      </trkpt>
      <trkpt lat="43.85527" lon="3.87253">
        <ele>245.8</ele>
        <time>2019-12-22T11:03:45.000Z</time>
      </trkpt>
      <trkpt lat="43.85528" lon="3.87255">
        <ele>245.3</ele>
        <time>2019-12-22T11:03:47.000Z</time>
      </trkpt>
      <trkpt lat="43.8553" lon="3.87259">
        <ele>245.3</ele>
        <time>2019-12-22T11:03:51.000Z</time>
      </trkpt>
      <trkpt lat="43.8553" lon="3.87269">
        <ele>242.4</ele>
        <time>2019-12-22T11:03:57.000Z</time>
      </trkpt>
      <trkpt lat="43.85532" lon="3.87285">
        <ele>239.5</ele>
        <time>2019-12-22T11:04:09.000Z</time>
      </trkpt>
      <trkpt lat="43.85535" lon="3.87288">
        <ele>237.1</ele>
        <time>2019-12-22T11:04:12.000Z</time>
      </trkpt>
      <trkpt lat="43.85543" lon="3.87298">
        <ele>236.6</ele>
        <time>2019-12-22T11:04:21.000Z</time>
      </trkpt>
      <trkpt lat="43.85544" lon="3.87301">
        <ele>234.7</ele>
        <time>2019-12-22T11:04:23.000Z</time>
      </trkpt>
      <trkpt lat="43.85549" lon="3.87314">
        <ele>233.3</ele>
        <time>2019-12-22T11:04:35.000Z</time>
      </trkpt>
      <trkpt lat="43.85552" lon="3.8732">
        <ele>231.3</ele>
        <time>2019-12-22T11:04:40.000Z</time>
      </trkpt>
      <trkpt lat="43.85551" lon="3.87323">
        <ele>231.3</ele>
        <time>2019-12-22T11:04:45.000Z</time>
      </trkpt>
      <trkpt lat="43.85549" lon="3.87327">
        <ele>230.4</ele>
        <time>2019-12-22T11:04:58.000Z</time>
      </trkpt>
      <trkpt lat="43.85541" lon="3.87332">
        <ele>230.4</ele>
        <time>2019-12-22T11:05:07.000Z</time>
      </trkpt>
      <trkpt lat="43.85527" lon="3.87338">
        <ele>229.4</ele>
        <time>2019-12-22T11:05:22.000Z</time>
      </trkpt>
      <trkpt lat="43.85513" lon="3.87341">
        <ele>230.9</ele>
        <time>2019-12-22T11:05:36.000Z</time>
      </trkpt>
      <trkpt lat="43.85508" lon="3.87341">
        <ele>232.3</ele>
        <time>2019-12-22T11:05:41.000Z</time>
      </trkpt>
      <trkpt lat="43.855" lon="3.87346">
        <ele>231.8</ele>
        <time>2019-12-22T11:05:53.000Z</time>
      </trkpt>
      <trkpt lat="43.85499" lon="3.87348">
        <ele>231.8</ele>
        <time>2019-12-22T11:06:02.000Z</time>
      </trkpt>
      <trkpt lat="43.85494" lon="3.87349">
        <ele>227.5</ele>
        <time>2019-12-22T11:06:06.000Z</time>
      </trkpt>
      <trkpt lat="43.85493" lon="3.87349">
        <ele>227.5</ele>
        <time>2019-12-22T11:06:07.000Z</time>
      </trkpt>
      <trkpt lat="43.85479" lon="3.87356">
        <ele>228.4</ele>
        <time>2019-12-22T11:06:22.000Z</time>
      </trkpt>
      <trkpt lat="43.85459" lon="3.87351">
        <ele>228.9</ele>
        <time>2019-12-22T11:06:39.000Z</time>
      </trkpt>
      <trkpt lat="43.85457" lon="3.87352">
        <ele>228.4</ele>
        <time>2019-12-22T11:06:41.000Z</time>
      </trkpt>
      <trkpt lat="43.85456" lon="3.87353">
        <ele>228.4</ele>
        <time>2019-12-22T11:06:42.000Z</time>
      </trkpt>
      <trkpt lat="43.85449" lon="3.87363">
        <ele>228.4</ele>
        <time>2019-12-22T11:06:52.000Z</time>
      </trkpt>
      <trkpt lat="43.85445" lon="3.87366">
        <ele>230.9</ele>
        <time>2019-12-22T11:06:57.000Z</time>
      </trkpt>
      <trkpt lat="43.85436" lon="3.87364">
        <ele>229.9</ele>
        <time>2019-12-22T11:07:03.000Z</time>
      </trkpt>
      <trkpt lat="43.85434" lon="3.87366">
        <ele>231.3</ele>
        <time>2019-12-22T11:07:05.000Z</time>
      </trkpt>
      <trkpt lat="43.85431" lon="3.87368">
        <ele>229.4</ele>
        <time>2019-12-22T11:07:07.000Z</time>
      </trkpt>
      <trkpt lat="43.85427" lon="3.87374">
        <ele>228</ele>
        <time>2019-12-22T11:07:13.000Z</time>
      </trkpt>
      <trkpt lat="43.85427" lon="3.87384">
        <ele>229.4</ele>
        <time>2019-12-22T11:07:19.000Z</time>
      </trkpt>
      <trkpt lat="43.85427" lon="3.87389">
        <ele>227</ele>
        <time>2019-12-22T11:07:22.000Z</time>
      </trkpt>
      <trkpt lat="43.85426" lon="3.87393">
        <ele>226.1</ele>
        <time>2019-12-22T11:07:25.000Z</time>
      </trkpt>
      <trkpt lat="43.85426" lon="3.87395">
        <ele>225.1</ele>
        <time>2019-12-22T11:07:27.000Z</time>
      </trkpt>
      <trkpt lat="43.85422" lon="3.87417">
        <ele>224.6</ele>
        <time>2019-12-22T11:07:41.000Z</time>
      </trkpt>
      <trkpt lat="43.85415" lon="3.87438">
        <ele>222.2</ele>
        <time>2019-12-22T11:07:57.000Z</time>
      </trkpt>
      <trkpt lat="43.8541" lon="3.87454">
        <ele>220.8</ele>
        <time>2019-12-22T11:08:09.000Z</time>
      </trkpt>
      <trkpt lat="43.85404" lon="3.87462">
        <ele>218.4</ele>
        <time>2019-12-22T11:08:17.000Z</time>
      </trkpt>
      <trkpt lat="43.85402" lon="3.87471">
        <ele>217.4</ele>
        <time>2019-12-22T11:08:24.000Z</time>
      </trkpt>
      <trkpt lat="43.85404" lon="3.87485">
        <ele>216.9</ele>
        <time>2019-12-22T11:08:38.000Z</time>
      </trkpt>
      <trkpt lat="43.85405" lon="3.87486">
        <ele>214.5</ele>
        <time>2019-12-22T11:08:44.000Z</time>
      </trkpt>
      <trkpt lat="43.85394" lon="3.87484">
        <ele>215.9</ele>
        <time>2019-12-22T11:09:06.000Z</time>
      </trkpt>
      <trkpt lat="43.85392" lon="3.87479">
        <ele>219.8</ele>
        <time>2019-12-22T11:09:12.000Z</time>
      </trkpt>
      <trkpt lat="43.85391" lon="3.87477">
        <ele>221.2</ele>
        <time>2019-12-22T11:09:14.000Z</time>
      </trkpt>
      <trkpt lat="43.85387" lon="3.87472">
        <ele>217.9</ele>
        <time>2019-12-22T11:09:19.000Z</time>
      </trkpt>
      <trkpt lat="43.85384" lon="3.87467">
        <ele>221.2</ele>
        <time>2019-12-22T11:09:25.000Z</time>
      </trkpt>
      <trkpt lat="43.85383" lon="3.87466">
        <ele>220.8</ele>
        <time>2019-12-22T11:09:26.000Z</time>
      </trkpt>
      <trkpt lat="43.85378" lon="3.87459">
        <ele>223.6</ele>
        <time>2019-12-22T11:09:34.000Z</time>
      </trkpt>
      <trkpt lat="43.85375" lon="3.87458">
        <ele>220.3</ele>
        <time>2019-12-22T11:09:37.000Z</time>
      </trkpt>
      <trkpt lat="43.85374" lon="3.87457">
        <ele>220.3</ele>
        <time>2019-12-22T11:09:38.000Z</time>
      </trkpt>
      <trkpt lat="43.85372" lon="3.87454">
        <ele>225.1</ele>
        <time>2019-12-22T11:09:42.000Z</time>
      </trkpt>
      <trkpt lat="43.85365" lon="3.87452">
        <ele>225.1</ele>
        <time>2019-12-22T11:09:51.000Z</time>
      </trkpt>
      <trkpt lat="43.85362" lon="3.87451">
        <ele>223.6</ele>
        <time>2019-12-22T11:09:54.000Z</time>
      </trkpt>
      <trkpt lat="43.85359" lon="3.8745">
        <ele>226.1</ele>
        <time>2019-12-22T11:09:57.000Z</time>
      </trkpt>
      <trkpt lat="43.85355" lon="3.87449">
        <ele>224.1</ele>
        <time>2019-12-22T11:10:02.000Z</time>
      </trkpt>
      <trkpt lat="43.8535" lon="3.87447">
        <ele>226.1</ele>
        <time>2019-12-22T11:10:07.000Z</time>
      </trkpt>
      <trkpt lat="43.85349" lon="3.87446">
        <ele>229.4</ele>
        <time>2019-12-22T11:10:09.000Z</time>
      </trkpt>
      <trkpt lat="43.85347" lon="3.87444">
        <ele>227.5</ele>
        <time>2019-12-22T11:10:12.000Z</time>
      </trkpt>
      <trkpt lat="43.85344" lon="3.87441">
        <ele>228.4</ele>
        <time>2019-12-22T11:10:16.000Z</time>
      </trkpt>
      <trkpt lat="43.85334" lon="3.87436">
        <ele>228</ele>
        <time>2019-12-22T11:10:29.000Z</time>
      </trkpt>
      <trkpt lat="43.8533" lon="3.87432">
        <ele>227</ele>
        <time>2019-12-22T11:10:35.000Z</time>
      </trkpt>
      <trkpt lat="43.85329" lon="3.8743">
        <ele>229.9</ele>
        <time>2019-12-22T11:10:38.000Z</time>
      </trkpt>
      <trkpt lat="43.85325" lon="3.87427">
        <ele>227</ele>
        <time>2019-12-22T11:10:44.000Z</time>
      </trkpt>
      <trkpt lat="43.85325" lon="3.87428">
        <ele>227.5</ele>
        <time>2019-12-22T11:10:45.000Z</time>
      </trkpt>
      <trkpt lat="43.85323" lon="3.87426">
        <ele>228</ele>
        <time>2019-12-22T11:10:48.000Z</time>
      </trkpt>
      <trkpt lat="43.85316" lon="3.87419">
        <ele>231.8</ele>
        <time>2019-12-22T11:10:57.000Z</time>
      </trkpt>
      <trkpt lat="43.85311" lon="3.87414">
        <ele>232.3</ele>
        <time>2019-12-22T11:11:04.000Z</time>
      </trkpt>
      <trkpt lat="43.85309" lon="3.87412">
        <ele>236.6</ele>
        <time>2019-12-22T11:11:07.000Z</time>
      </trkpt>
      <trkpt lat="43.85307" lon="3.87409">
        <ele>234.7</ele>
        <time>2019-12-22T11:11:11.000Z</time>
      </trkpt>
      <trkpt lat="43.85303" lon="3.87402">
        <ele>235.7</ele>
        <time>2019-12-22T11:11:19.000Z</time>
      </trkpt>
      <trkpt lat="43.85302" lon="3.87397">
        <ele>233.7</ele>
        <time>2019-12-22T11:11:24.000Z</time>
      </trkpt>
      <trkpt lat="43.853" lon="3.87395">
        <ele>236.1</ele>
        <time>2019-12-22T11:11:28.000Z</time>
      </trkpt>
      <trkpt lat="43.85299" lon="3.87383">
        <ele>238.5</ele>
        <time>2019-12-22T11:11:39.000Z</time>
      </trkpt>
      <trkpt lat="43.85298" lon="3.87377">
        <ele>241.9</ele>
        <time>2019-12-22T11:11:44.000Z</time>
      </trkpt>
      <trkpt lat="43.85296" lon="3.87375">
        <ele>240.5</ele>
        <time>2019-12-22T11:11:47.000Z</time>
      </trkpt>
      <trkpt lat="43.85292" lon="3.87369">
        <ele>243.8</ele>
        <time>2019-12-22T11:11:57.000Z</time>
      </trkpt>
      <trkpt lat="43.85291" lon="3.87368">
        <ele>243.4</ele>
        <time>2019-12-22T11:11:58.000Z</time>
      </trkpt>
      <trkpt lat="43.85291" lon="3.87365">
        <ele>241.9</ele>
        <time>2019-12-22T11:12:11.000Z</time>
      </trkpt>
      <trkpt lat="43.85291" lon="3.87361">
        <ele>241.4</ele>
        <time>2019-12-22T11:12:23.000Z</time>
      </trkpt>
      <trkpt lat="43.85291" lon="3.87359">
        <ele>237.6</ele>
        <time>2019-12-22T11:12:28.000Z</time>
      </trkpt>
      <trkpt lat="43.85291" lon="3.87358">
        <ele>237.6</ele>
        <time>2019-12-22T11:12:33.000Z</time>
      </trkpt>
      <trkpt lat="43.85289" lon="3.87361">
        <ele>226.1</ele>
        <time>2019-12-22T12:18:48.000Z</time>
      </trkpt>
      <trkpt lat="43.85289" lon="3.87358">
        <ele>229.9</ele>
        <time>2019-12-22T12:19:03.000Z</time>
      </trkpt>
      <trkpt lat="43.85289" lon="3.87358">
        <ele>229.9</ele>
        <time>2019-12-22T12:19:04.000Z</time>
      </trkpt>
      <trkpt lat="43.85289" lon="3.87359">
        <ele>233.3</ele>
        <time>2019-12-22T12:19:10.000Z</time>
      </trkpt>
      <trkpt lat="43.85288" lon="3.87359">
        <ele>234.7</ele>
        <time>2019-12-22T12:19:14.000Z</time>
      </trkpt>
      <trkpt lat="43.85285" lon="3.87351">
        <ele>237.6</ele>
        <time>2019-12-22T12:19:22.000Z</time>
      </trkpt>
      <trkpt lat="43.85285" lon="3.87349">
        <ele>238.1</ele>
        <time>2019-12-22T12:19:23.000Z</time>
      </trkpt>
      <trkpt lat="43.85283" lon="3.87341">
        <ele>240.9</ele>
        <time>2019-12-22T12:19:29.000Z</time>
      </trkpt>
      <trkpt lat="43.85281" lon="3.87339">
        <ele>241.4</ele>
        <time>2019-12-22T12:19:31.000Z</time>
      </trkpt>
      <trkpt lat="43.8528" lon="3.87329">
        <ele>243.4</ele>
        <time>2019-12-22T12:19:38.000Z</time>
      </trkpt>
      <trkpt lat="43.85277" lon="3.87301">
        <ele>244.8</ele>
        <time>2019-12-22T12:19:54.000Z</time>
      </trkpt>
      <trkpt lat="43.85271" lon="3.87282">
        <ele>246.7</ele>
        <time>2019-12-22T12:20:09.000Z</time>
      </trkpt>
      <trkpt lat="43.85264" lon="3.87272">
        <ele>250.6</ele>
        <time>2019-12-22T12:20:20.000Z</time>
      </trkpt>
      <trkpt lat="43.85263" lon="3.87271">
        <ele>251</ele>
        <time>2019-12-22T12:20:21.000Z</time>
      </trkpt>
      <trkpt lat="43.85254" lon="3.87264">
        <ele>253.4</ele>
        <time>2019-12-22T12:20:35.000Z</time>
      </trkpt>
      <trkpt lat="43.85244" lon="3.87255">
        <ele>254.4</ele>
        <time>2019-12-22T12:20:48.000Z</time>
      </trkpt>
      <trkpt lat="43.85242" lon="3.87254">
        <ele>254.9</ele>
        <time>2019-12-22T12:20:50.000Z</time>
      </trkpt>
      <trkpt lat="43.85228" lon="3.87242">
        <ele>256.3</ele>
        <time>2019-12-22T12:21:05.000Z</time>
      </trkpt>
      <trkpt lat="43.85218" lon="3.87228">
        <ele>256.8</ele>
        <time>2019-12-22T12:21:22.000Z</time>
      </trkpt>
      <trkpt lat="43.85208" lon="3.87219">
        <ele>259.2</ele>
        <time>2019-12-22T12:21:37.000Z</time>
      </trkpt>
      <trkpt lat="43.85201" lon="3.87208">
        <ele>260.2</ele>
        <time>2019-12-22T12:21:53.000Z</time>
      </trkpt>
      <trkpt lat="43.85193" lon="3.87199">
        <ele>262.6</ele>
        <time>2019-12-22T12:22:10.000Z</time>
      </trkpt>
      <trkpt lat="43.85187" lon="3.87191">
        <ele>265.5</ele>
        <time>2019-12-22T12:22:25.000Z</time>
      </trkpt>
      <trkpt lat="43.85179" lon="3.87185">
        <ele>266.9</ele>
        <time>2019-12-22T12:22:39.000Z</time>
      </trkpt>
      <trkpt lat="43.85173" lon="3.87176">
        <ele>268.8</ele>
        <time>2019-12-22T12:22:54.000Z</time>
      </trkpt>
      <trkpt lat="43.85165" lon="3.87167">
        <ele>270.8</ele>
        <time>2019-12-22T12:23:07.000Z</time>
      </trkpt>
      <trkpt lat="43.85159" lon="3.87152">
        <ele>271.2</ele>
        <time>2019-12-22T12:23:25.000Z</time>
      </trkpt>
      <trkpt lat="43.85158" lon="3.8715">
        <ele>271.7</ele>
        <time>2019-12-22T12:23:42.000Z</time>
      </trkpt>
      <trkpt lat="43.85154" lon="3.87152">
        <ele>274.1</ele>
        <time>2019-12-22T12:24:01.000Z</time>
      </trkpt>
      <trkpt lat="43.8515" lon="3.87151">
        <ele>271.7</ele>
        <time>2019-12-22T12:24:11.000Z</time>
      </trkpt>
      <trkpt lat="43.85137" lon="3.87147">
        <ele>268.8</ele>
        <time>2019-12-22T12:24:27.000Z</time>
      </trkpt>
      <trkpt lat="43.85129" lon="3.87151">
        <ele>268.4</ele>
        <time>2019-12-22T12:24:38.000Z</time>
      </trkpt>
      <trkpt lat="43.85124" lon="3.8715">
        <ele>270.8</ele>
        <time>2019-12-22T12:24:45.000Z</time>
      </trkpt>
      <trkpt lat="43.85115" lon="3.87157">
        <ele>269.8</ele>
        <time>2019-12-22T12:24:59.000Z</time>
      </trkpt>
      <trkpt lat="43.8511" lon="3.87163">
        <ele>267.9</ele>
        <time>2019-12-22T12:25:06.000Z</time>
      </trkpt>
      <trkpt lat="43.85109" lon="3.87167">
        <ele>266.9</ele>
        <time>2019-12-22T12:25:09.000Z</time>
      </trkpt>
      <trkpt lat="43.85106" lon="3.8717">
        <ele>270.3</ele>
        <time>2019-12-22T12:25:12.000Z</time>
      </trkpt>
      <trkpt lat="43.85102" lon="3.87171">
        <ele>267.9</ele>
        <time>2019-12-22T12:25:17.000Z</time>
      </trkpt>
      <trkpt lat="43.85101" lon="3.87172">
        <ele>266.4</ele>
        <time>2019-12-22T12:25:19.000Z</time>
      </trkpt>
      <trkpt lat="43.85092" lon="3.87176">
        <ele>267.9</ele>
        <time>2019-12-22T12:25:32.000Z</time>
      </trkpt>
      <trkpt lat="43.85087" lon="3.87189">
        <ele>267.4</ele>
        <time>2019-12-22T12:25:47.000Z</time>
      </trkpt>
      <trkpt lat="43.85086" lon="3.872">
        <ele>267.9</ele>
        <time>2019-12-22T12:26:00.000Z</time>
      </trkpt>
      <trkpt lat="43.85085" lon="3.87205">
        <ele>267.9</ele>
        <time>2019-12-22T12:26:05.000Z</time>
      </trkpt>
      <trkpt lat="43.85086" lon="3.8721">
        <ele>266.4</ele>
        <time>2019-12-22T12:26:08.000Z</time>
      </trkpt>
      <trkpt lat="43.85096" lon="3.87227">
        <ele>267.4</ele>
        <time>2019-12-22T12:26:22.000Z</time>
      </trkpt>
      <trkpt lat="43.85095" lon="3.87244">
        <ele>266.4</ele>
        <time>2019-12-22T12:26:34.000Z</time>
      </trkpt>
      <trkpt lat="43.85096" lon="3.87253">
        <ele>269.3</ele>
        <time>2019-12-22T12:26:43.000Z</time>
      </trkpt>
      <trkpt lat="43.85098" lon="3.87259">
        <ele>270.3</ele>
        <time>2019-12-22T12:26:49.000Z</time>
      </trkpt>
      <trkpt lat="43.851" lon="3.87263">
        <ele>271.7</ele>
        <time>2019-12-22T12:26:53.000Z</time>
      </trkpt>
      <trkpt lat="43.85104" lon="3.87279">
        <ele>270.3</ele>
        <time>2019-12-22T12:27:06.000Z</time>
      </trkpt>
      <trkpt lat="43.8511" lon="3.87296">
        <ele>269.8</ele>
        <time>2019-12-22T12:27:22.000Z</time>
      </trkpt>
      <trkpt lat="43.8511" lon="3.87299">
        <ele>267.4</ele>
        <time>2019-12-22T12:27:24.000Z</time>
      </trkpt>
      <trkpt lat="43.85109" lon="3.87307">
        <ele>267.9</ele>
        <time>2019-12-22T12:27:30.000Z</time>
      </trkpt>
      <trkpt lat="43.85107" lon="3.87314">
        <ele>270.3</ele>
        <time>2019-12-22T12:27:37.000Z</time>
      </trkpt>
      <trkpt lat="43.85103" lon="3.87327">
        <ele>271.7</ele>
        <time>2019-12-22T12:27:50.000Z</time>
      </trkpt>
      <trkpt lat="43.85102" lon="3.87332">
        <ele>267.9</ele>
        <time>2019-12-22T12:27:54.000Z</time>
      </trkpt>
      <trkpt lat="43.85102" lon="3.87333">
        <ele>267.4</ele>
        <time>2019-12-22T12:27:55.000Z</time>
      </trkpt>
      <trkpt lat="43.85102" lon="3.87338">
        <ele>272.2</ele>
        <time>2019-12-22T12:27:59.000Z</time>
      </trkpt>
      <trkpt lat="43.85096" lon="3.87359">
        <ele>270.3</ele>
        <time>2019-12-22T12:28:16.000Z</time>
      </trkpt>
      <trkpt lat="43.85095" lon="3.87371">
        <ele>270.8</ele>
        <time>2019-12-22T12:28:28.000Z</time>
      </trkpt>
      <trkpt lat="43.85093" lon="3.87381">
        <ele>272.7</ele>
        <time>2019-12-22T12:28:41.000Z</time>
      </trkpt>
      <trkpt lat="43.85093" lon="3.87379">
        <ele>271.2</ele>
        <time>2019-12-22T12:28:46.000Z</time>
      </trkpt>
      <trkpt lat="43.8509" lon="3.87381">
        <ele>270.8</ele>
        <time>2019-12-22T12:28:49.000Z</time>
      </trkpt>
      <trkpt lat="43.85082" lon="3.87403">
        <ele>271.7</ele>
        <time>2019-12-22T12:29:03.000Z</time>
      </trkpt>
      <trkpt lat="43.85079" lon="3.87406">
        <ele>271.2</ele>
        <time>2019-12-22T12:29:06.000Z</time>
      </trkpt>
      <trkpt lat="43.85071" lon="3.8742">
        <ele>272.7</ele>
        <time>2019-12-22T12:29:17.000Z</time>
      </trkpt>
      <trkpt lat="43.85062" lon="3.87433">
        <ele>272.2</ele>
        <time>2019-12-22T12:29:30.000Z</time>
      </trkpt>
      <trkpt lat="43.85055" lon="3.87447">
        <ele>272.7</ele>
        <time>2019-12-22T12:29:42.000Z</time>
      </trkpt>
      <trkpt lat="43.85051" lon="3.87466">
        <ele>271.2</ele>
        <time>2019-12-22T12:29:57.000Z</time>
      </trkpt>
      <trkpt lat="43.85047" lon="3.87483">
        <ele>269.8</ele>
        <time>2019-12-22T12:30:12.000Z</time>
      </trkpt>
      <trkpt lat="43.85043" lon="3.87486">
        <ele>268.8</ele>
        <time>2019-12-22T12:30:17.000Z</time>
      </trkpt>
      <trkpt lat="43.85038" lon="3.87494">
        <ele>269.8</ele>
        <time>2019-12-22T12:30:23.000Z</time>
      </trkpt>
      <trkpt lat="43.85036" lon="3.87506">
        <ele>269.3</ele>
        <time>2019-12-22T12:30:31.000Z</time>
      </trkpt>
      <trkpt lat="43.85026" lon="3.87523">
        <ele>269.3</ele>
        <time>2019-12-22T12:30:47.000Z</time>
      </trkpt>
      <trkpt lat="43.85017" lon="3.87531">
        <ele>270.3</ele>
        <time>2019-12-22T12:30:58.000Z</time>
      </trkpt>
      <trkpt lat="43.85015" lon="3.87534">
        <ele>268.8</ele>
        <time>2019-12-22T12:31:01.000Z</time>
      </trkpt>
      <trkpt lat="43.84998" lon="3.87546">
        <ele>268.8</ele>
        <time>2019-12-22T12:31:19.000Z</time>
      </trkpt>
      <trkpt lat="43.84985" lon="3.8755">
        <ele>270.8</ele>
        <time>2019-12-22T12:31:33.000Z</time>
      </trkpt>
      <trkpt lat="43.84975" lon="3.87559">
        <ele>271.7</ele>
        <time>2019-12-22T12:31:47.000Z</time>
      </trkpt>
      <trkpt lat="43.84961" lon="3.8756">
        <ele>271.2</ele>
        <time>2019-12-22T12:32:02.000Z</time>
      </trkpt>
      <trkpt lat="43.84959" lon="3.8756">
        <ele>270.8</ele>
        <time>2019-12-22T12:32:05.000Z</time>
      </trkpt>
      <trkpt lat="43.84941" lon="3.87555">
        <ele>270.8</ele>
        <time>2019-12-22T12:32:22.000Z</time>
      </trkpt>
      <trkpt lat="43.84926" lon="3.87554">
        <ele>270.3</ele>
        <time>2019-12-22T12:32:37.000Z</time>
      </trkpt>
      <trkpt lat="43.84916" lon="3.87549">
        <ele>269.8</ele>
        <time>2019-12-22T12:32:51.000Z</time>
      </trkpt>
      <trkpt lat="43.84916" lon="3.87544">
        <ele>270.8</ele>
        <time>2019-12-22T12:32:58.000Z</time>
      </trkpt>
      <trkpt lat="43.84915" lon="3.87535">
        <ele>271.2</ele>
        <time>2019-12-22T12:33:04.000Z</time>
      </trkpt>
      <trkpt lat="43.84916" lon="3.87532">
        <ele>269.8</ele>
        <time>2019-12-22T12:33:07.000Z</time>
      </trkpt>
      <trkpt lat="43.84911" lon="3.87512">
        <ele>268.8</ele>
        <time>2019-12-22T12:33:24.000Z</time>
      </trkpt>
      <trkpt lat="43.84908" lon="3.87491">
        <ele>269.3</ele>
        <time>2019-12-22T12:33:37.000Z</time>
      </trkpt>
      <trkpt lat="43.8491" lon="3.87484">
        <ele>269.8</ele>
        <time>2019-12-22T12:33:42.000Z</time>
      </trkpt>
      <trkpt lat="43.84913" lon="3.87475">
        <ele>269.8</ele>
        <time>2019-12-22T12:33:49.000Z</time>
      </trkpt>
      <trkpt lat="43.8491" lon="3.87466">
        <ele>269.3</ele>
        <time>2019-12-22T12:33:56.000Z</time>
      </trkpt>
      <trkpt lat="43.84909" lon="3.87463">
        <ele>269.3</ele>
        <time>2019-12-22T12:33:58.000Z</time>
      </trkpt>
      <trkpt lat="43.84906" lon="3.87455">
        <ele>269.3</ele>
        <time>2019-12-22T12:34:05.000Z</time>
      </trkpt>
      <trkpt lat="43.84907" lon="3.87432">
        <ele>269.3</ele>
        <time>2019-12-22T12:34:20.000Z</time>
      </trkpt>
      <trkpt lat="43.849" lon="3.87413">
        <ele>270.8</ele>
        <time>2019-12-22T12:34:35.000Z</time>
      </trkpt>
      <trkpt lat="43.84889" lon="3.87395">
        <ele>269.3</ele>
        <time>2019-12-22T12:34:53.000Z</time>
      </trkpt>
      <trkpt lat="43.84883" lon="3.87374">
        <ele>269.3</ele>
        <time>2019-12-22T12:35:08.000Z</time>
      </trkpt>
      <trkpt lat="43.84871" lon="3.87352">
        <ele>268.4</ele>
        <time>2019-12-22T12:35:26.000Z</time>
      </trkpt>
      <trkpt lat="43.84869" lon="3.87338">
        <ele>268.4</ele>
        <time>2019-12-22T12:35:42.000Z</time>
      </trkpt>
      <trkpt lat="43.84869" lon="3.87335">
        <ele>269.3</ele>
        <time>2019-12-22T12:35:59.000Z</time>
      </trkpt>
      <trkpt lat="43.8487" lon="3.87333">
        <ele>268.8</ele>
        <time>2019-12-22T12:36:24.000Z</time>
      </trkpt>
      <trkpt lat="43.84863" lon="3.87318">
        <ele>269.3</ele>
        <time>2019-12-22T12:36:41.000Z</time>
      </trkpt>
      <trkpt lat="43.8485" lon="3.87314">
        <ele>268.4</ele>
        <time>2019-12-22T12:36:54.000Z</time>
      </trkpt>
      <trkpt lat="43.84844" lon="3.87316">
        <ele>269.3</ele>
        <time>2019-12-22T12:37:00.000Z</time>
      </trkpt>
      <trkpt lat="43.84836" lon="3.87327">
        <ele>268.8</ele>
        <time>2019-12-22T12:37:11.000Z</time>
      </trkpt>
      <trkpt lat="43.84834" lon="3.87342">
        <ele>265.9</ele>
        <time>2019-12-22T12:37:22.000Z</time>
      </trkpt>
      <trkpt lat="43.84827" lon="3.87356">
        <ele>263.5</ele>
        <time>2019-12-22T12:37:36.000Z</time>
      </trkpt>
      <trkpt lat="43.84818" lon="3.87366">
        <ele>260.2</ele>
        <time>2019-12-22T12:37:53.000Z</time>
      </trkpt>
      <trkpt lat="43.84812" lon="3.87378">
        <ele>258.3</ele>
        <time>2019-12-22T12:38:07.000Z</time>
      </trkpt>
      <trkpt lat="43.84803" lon="3.87391">
        <ele>258.3</ele>
        <time>2019-12-22T12:38:22.000Z</time>
      </trkpt>
      <trkpt lat="43.84794" lon="3.87406">
        <ele>254.9</ele>
        <time>2019-12-22T12:38:37.000Z</time>
      </trkpt>
      <trkpt lat="43.84786" lon="3.87424">
        <ele>252.5</ele>
        <time>2019-12-22T12:38:55.000Z</time>
      </trkpt>
      <trkpt lat="43.8478" lon="3.87436">
        <ele>251</ele>
        <time>2019-12-22T12:39:09.000Z</time>
      </trkpt>
      <trkpt lat="43.8477" lon="3.87447">
        <ele>248.6</ele>
        <time>2019-12-22T12:39:25.000Z</time>
      </trkpt>
      <trkpt lat="43.84765" lon="3.8745">
        <ele>248.6</ele>
        <time>2019-12-22T12:39:31.000Z</time>
      </trkpt>
      <trkpt lat="43.84754" lon="3.87458">
        <ele>248.6</ele>
        <time>2019-12-22T12:39:44.000Z</time>
      </trkpt>
      <trkpt lat="43.84746" lon="3.87463">
        <ele>248.2</ele>
        <time>2019-12-22T12:39:54.000Z</time>
      </trkpt>
      <trkpt lat="43.8473" lon="3.87472">
        <ele>245.8</ele>
        <time>2019-12-22T12:40:11.000Z</time>
      </trkpt>
      <trkpt lat="43.8473" lon="3.87472">
        <ele>245.8</ele>
        <time>2019-12-22T12:40:12.000Z</time>
      </trkpt>
      <trkpt lat="43.84728" lon="3.87474">
        <ele>245.8</ele>
        <time>2019-12-22T12:40:15.000Z</time>
      </trkpt>
      <trkpt lat="43.84717" lon="3.87487">
        <ele>243.8</ele>
        <time>2019-12-22T12:40:31.000Z</time>
      </trkpt>
      <trkpt lat="43.84711" lon="3.87498">
        <ele>241.9</ele>
        <time>2019-12-22T12:40:45.000Z</time>
      </trkpt>
      <trkpt lat="43.84705" lon="3.87505">
        <ele>239</ele>
        <time>2019-12-22T12:40:55.000Z</time>
      </trkpt>
      <trkpt lat="43.84704" lon="3.87508">
        <ele>238.1</ele>
        <time>2019-12-22T12:40:58.000Z</time>
      </trkpt>
      <trkpt lat="43.84699" lon="3.87516">
        <ele>234.7</ele>
        <time>2019-12-22T12:41:08.000Z</time>
      </trkpt>
      <trkpt lat="43.84694" lon="3.87523">
        <ele>235.2</ele>
        <time>2019-12-22T12:41:17.000Z</time>
      </trkpt>
      <trkpt lat="43.84688" lon="3.87531">
        <ele>236.1</ele>
        <time>2019-12-22T12:41:24.000Z</time>
      </trkpt>
      <trkpt lat="43.84677" lon="3.87542">
        <ele>233.7</ele>
        <time>2019-12-22T12:41:37.000Z</time>
      </trkpt>
      <trkpt lat="43.84665" lon="3.87553">
        <ele>233.7</ele>
        <time>2019-12-22T12:41:52.000Z</time>
      </trkpt>
      <trkpt lat="43.84658" lon="3.87561">
        <ele>232.8</ele>
        <time>2019-12-22T12:42:03.000Z</time>
      </trkpt>
      <trkpt lat="43.84649" lon="3.87569">
        <ele>231.8</ele>
        <time>2019-12-22T12:42:16.000Z</time>
      </trkpt>
      <trkpt lat="43.84637" lon="3.87578">
        <ele>230.9</ele>
        <time>2019-12-22T12:42:30.000Z</time>
      </trkpt>
      <trkpt lat="43.8463" lon="3.87585">
        <ele>230.4</ele>
        <time>2019-12-22T12:42:44.000Z</time>
      </trkpt>
      <trkpt lat="43.84629" lon="3.87583">
        <ele>230.4</ele>
        <time>2019-12-22T12:42:55.000Z</time>
      </trkpt>
      <trkpt lat="43.84623" lon="3.8759">
        <ele>229.9</ele>
        <time>2019-12-22T12:43:15.000Z</time>
      </trkpt>
      <trkpt lat="43.84616" lon="3.87602">
        <ele>228.4</ele>
        <time>2019-12-22T12:43:29.000Z</time>
      </trkpt>
      <trkpt lat="43.84618" lon="3.8761">
        <ele>225.6</ele>
        <time>2019-12-22T12:43:43.000Z</time>
      </trkpt>
      <trkpt lat="43.84617" lon="3.87623">
        <ele>224.6</ele>
        <time>2019-12-22T12:43:54.000Z</time>
      </trkpt>
      <trkpt lat="43.84614" lon="3.87638">
        <ele>221.2</ele>
        <time>2019-12-22T12:44:07.000Z</time>
      </trkpt>
      <trkpt lat="43.84612" lon="3.87641">
        <ele>219.8</ele>
        <time>2019-12-22T12:44:11.000Z</time>
      </trkpt>
      <trkpt lat="43.84607" lon="3.87645">
        <ele>218.8</ele>
        <time>2019-12-22T12:44:17.000Z</time>
      </trkpt>
      <trkpt lat="43.84604" lon="3.87651">
        <ele>219.3</ele>
        <time>2019-12-22T12:44:24.000Z</time>
      </trkpt>
      <trkpt lat="43.84592" lon="3.8766">
        <ele>218.8</ele>
        <time>2019-12-22T12:44:39.000Z</time>
      </trkpt>
      <trkpt lat="43.8459" lon="3.8766">
        <ele>217.4</ele>
        <time>2019-12-22T12:44:41.000Z</time>
      </trkpt>
      <trkpt lat="43.84581" lon="3.87666">
        <ele>214.5</ele>
        <time>2019-12-22T12:44:53.000Z</time>
      </trkpt>
      <trkpt lat="43.84574" lon="3.87674">
        <ele>212.6</ele>
        <time>2019-12-22T12:45:06.000Z</time>
      </trkpt>
      <trkpt lat="43.84564" lon="3.87682">
        <ele>210.7</ele>
        <time>2019-12-22T12:45:18.000Z</time>
      </trkpt>
      <trkpt lat="43.84554" lon="3.87691">
        <ele>209.2</ele>
        <time>2019-12-22T12:45:32.000Z</time>
      </trkpt>
      <trkpt lat="43.84551" lon="3.87698">
        <ele>209.7</ele>
        <time>2019-12-22T12:45:46.000Z</time>
      </trkpt>
      <trkpt lat="43.8454" lon="3.87699">
        <ele>208.3</ele>
        <time>2019-12-22T12:46:02.000Z</time>
      </trkpt>
      <trkpt lat="43.84533" lon="3.8769">
        <ele>206.8</ele>
        <time>2019-12-22T12:46:16.000Z</time>
      </trkpt>
      <trkpt lat="43.84528" lon="3.87682">
        <ele>209.2</ele>
        <time>2019-12-22T12:46:25.000Z</time>
      </trkpt>
      <trkpt lat="43.84529" lon="3.87665">
        <ele>207.8</ele>
        <time>2019-12-22T12:46:37.000Z</time>
      </trkpt>
      <trkpt lat="43.84529" lon="3.87658">
        <ele>207.3</ele>
        <time>2019-12-22T12:46:42.000Z</time>
      </trkpt>
      <trkpt lat="43.8453" lon="3.87649">
        <ele>206.3</ele>
        <time>2019-12-22T12:46:48.000Z</time>
      </trkpt>
      <trkpt lat="43.8453" lon="3.87632">
        <ele>207.3</ele>
        <time>2019-12-22T12:47:04.000Z</time>
      </trkpt>
      <trkpt lat="43.84529" lon="3.87632">
        <ele>205.9</ele>
        <time>2019-12-22T12:47:10.000Z</time>
      </trkpt>
      <trkpt lat="43.84535" lon="3.87618">
        <ele>204.4</ele>
        <time>2019-12-22T12:47:22.000Z</time>
      </trkpt>
      <trkpt lat="43.84546" lon="3.87605">
        <ele>204.4</ele>
        <time>2019-12-22T12:47:35.000Z</time>
      </trkpt>
      <trkpt lat="43.84557" lon="3.8759">
        <ele>204.4</ele>
        <time>2019-12-22T12:47:49.000Z</time>
      </trkpt>
      <trkpt lat="43.84562" lon="3.87565">
        <ele>203.9</ele>
        <time>2019-12-22T12:48:05.000Z</time>
      </trkpt>
      <trkpt lat="43.84565" lon="3.87558">
        <ele>204.9</ele>
        <time>2019-12-22T12:48:10.000Z</time>
      </trkpt>
      <trkpt lat="43.84566" lon="3.87546">
        <ele>204.4</ele>
        <time>2019-12-22T12:48:22.000Z</time>
      </trkpt>
      <trkpt lat="43.84563" lon="3.87544">
        <ele>202</ele>
        <time>2019-12-22T12:48:27.000Z</time>
      </trkpt>
      <trkpt lat="43.84555" lon="3.87539">
        <ele>199.6</ele>
        <time>2019-12-22T12:48:35.000Z</time>
      </trkpt>
      <trkpt lat="43.84555" lon="3.87539">
        <ele>199.6</ele>
        <time>2019-12-22T12:48:36.000Z</time>
      </trkpt>
      <trkpt lat="43.8455" lon="3.87531">
        <ele>200.1</ele>
        <time>2019-12-22T12:48:45.000Z</time>
      </trkpt>
      <trkpt lat="43.84541" lon="3.8753">
        <ele>199.6</ele>
        <time>2019-12-22T12:48:58.000Z</time>
      </trkpt>
      <trkpt lat="43.8454" lon="3.8753">
        <ele>199.6</ele>
        <time>2019-12-22T12:49:01.000Z</time>
      </trkpt>
      <trkpt lat="43.84537" lon="3.87531">
        <ele>199.1</ele>
        <time>2019-12-22T12:49:04.000Z</time>
      </trkpt>
      <trkpt lat="43.84531" lon="3.87539">
        <ele>198.2</ele>
        <time>2019-12-22T12:49:10.000Z</time>
      </trkpt>
      <trkpt lat="43.84521" lon="3.87561">
        <ele>196.3</ele>
        <time>2019-12-22T12:49:27.000Z</time>
      </trkpt>
      <trkpt lat="43.84516" lon="3.87575">
        <ele>193.4</ele>
        <time>2019-12-22T12:49:39.000Z</time>
      </trkpt>
      <trkpt lat="43.84513" lon="3.87577">
        <ele>192.4</ele>
        <time>2019-12-22T12:49:43.000Z</time>
      </trkpt>
      <trkpt lat="43.84505" lon="3.8758">
        <ele>192.9</ele>
        <time>2019-12-22T12:49:55.000Z</time>
      </trkpt>
      <trkpt lat="43.84503" lon="3.87584">
        <ele>191.9</ele>
        <time>2019-12-22T12:50:00.000Z</time>
      </trkpt>
      <trkpt lat="43.84497" lon="3.87604">
        <ele>191</ele>
        <time>2019-12-22T12:50:15.000Z</time>
      </trkpt>
      <trkpt lat="43.84494" lon="3.87611">
        <ele>191</ele>
        <time>2019-12-22T12:50:21.000Z</time>
      </trkpt>
      <trkpt lat="43.84483" lon="3.87636">
        <ele>189</ele>
        <time>2019-12-22T12:50:38.000Z</time>
      </trkpt>
      <trkpt lat="43.84476" lon="3.87652">
        <ele>187.6</ele>
        <time>2019-12-22T12:50:50.000Z</time>
      </trkpt>
      <trkpt lat="43.84468" lon="3.87668">
        <ele>187.1</ele>
        <time>2019-12-22T12:51:02.000Z</time>
      </trkpt>
      <trkpt lat="43.84462" lon="3.87684">
        <ele>187.1</ele>
        <time>2019-12-22T12:51:14.000Z</time>
      </trkpt>
      <trkpt lat="43.84453" lon="3.87701">
        <ele>186.1</ele>
        <time>2019-12-22T12:51:26.000Z</time>
      </trkpt>
      <trkpt lat="43.84447" lon="3.87719">
        <ele>186.6</ele>
        <time>2019-12-22T12:51:38.000Z</time>
      </trkpt>
      <trkpt lat="43.84441" lon="3.8774">
        <ele>184.7</ele>
        <time>2019-12-22T12:51:53.000Z</time>
      </trkpt>
      <trkpt lat="43.84436" lon="3.87755">
        <ele>184.2</ele>
        <time>2019-12-22T12:52:05.000Z</time>
      </trkpt>
      <trkpt lat="43.84434" lon="3.87759">
        <ele>184.2</ele>
        <time>2019-12-22T12:52:09.000Z</time>
      </trkpt>
      <trkpt lat="43.84428" lon="3.87758">
        <ele>184.7</ele>
        <time>2019-12-22T12:52:16.000Z</time>
      </trkpt>
      <trkpt lat="43.84424" lon="3.87754">
        <ele>185.2</ele>
        <time>2019-12-22T12:52:24.000Z</time>
      </trkpt>
      <trkpt lat="43.84419" lon="3.87748">
        <ele>185.2</ele>
        <time>2019-12-22T12:52:36.000Z</time>
      </trkpt>
      <trkpt lat="43.84423" lon="3.87752">
        <ele>184.7</ele>
        <time>2019-12-22T12:52:46.000Z</time>
      </trkpt>
      <trkpt lat="43.84435" lon="3.87762">
        <ele>185.7</ele>
        <time>2019-12-22T12:53:02.000Z</time>
      </trkpt>
      <trkpt lat="43.84434" lon="3.87772">
        <ele>186.6</ele>
        <time>2019-12-22T12:53:14.000Z</time>
      </trkpt>
      <trkpt lat="43.84419" lon="3.87789">
        <ele>185.7</ele>
        <time>2019-12-22T12:53:32.000Z</time>
      </trkpt>
      <trkpt lat="43.84407" lon="3.87798">
        <ele>187.1</ele>
        <time>2019-12-22T12:53:46.000Z</time>
      </trkpt>
      <trkpt lat="43.84399" lon="3.87806">
        <ele>185.2</ele>
        <time>2019-12-22T12:53:59.000Z</time>
      </trkpt>
      <trkpt lat="43.84396" lon="3.87813">
        <ele>183.8</ele>
        <time>2019-12-22T12:54:10.000Z</time>
      </trkpt>
      <trkpt lat="43.84395" lon="3.87817">
        <ele>183.8</ele>
        <time>2019-12-22T12:54:14.000Z</time>
      </trkpt>
      <trkpt lat="43.84389" lon="3.87843">
        <ele>182.3</ele>
        <time>2019-12-22T12:54:32.000Z</time>
      </trkpt>
      <trkpt lat="43.8438" lon="3.87854">
        <ele>181.8</ele>
        <time>2019-12-22T12:54:47.000Z</time>
      </trkpt>
      <trkpt lat="43.84368" lon="3.87859">
        <ele>179.4</ele>
        <time>2019-12-22T12:55:02.000Z</time>
      </trkpt>
      <trkpt lat="43.84362" lon="3.87856">
        <ele>178</ele>
        <time>2019-12-22T12:55:14.000Z</time>
      </trkpt>
      <trkpt lat="43.84361" lon="3.87858">
        <ele>177</ele>
        <time>2019-12-22T12:55:28.000Z</time>
      </trkpt>
      <trkpt lat="43.84361" lon="3.87859">
        <ele>178.5</ele>
        <time>2019-12-22T12:55:44.000Z</time>
      </trkpt>
      <trkpt lat="43.84366" lon="3.87863">
        <ele>179.9</ele>
        <time>2019-12-22T12:56:08.000Z</time>
      </trkpt>
      <trkpt lat="43.84375" lon="3.87868">
        <ele>180.4</ele>
        <time>2019-12-22T12:56:26.000Z</time>
      </trkpt>
      <trkpt lat="43.84375" lon="3.87877">
        <ele>182.3</ele>
        <time>2019-12-22T12:56:35.000Z</time>
      </trkpt>
      <trkpt lat="43.84374" lon="3.87882">
        <ele>182.8</ele>
        <time>2019-12-22T12:56:39.000Z</time>
      </trkpt>
      <trkpt lat="43.84379" lon="3.87899">
        <ele>181.8</ele>
        <time>2019-12-22T12:56:51.000Z</time>
      </trkpt>
      <trkpt lat="43.84378" lon="3.87904">
        <ele>182.3</ele>
        <time>2019-12-22T12:56:53.000Z</time>
      </trkpt>
      <trkpt lat="43.84377" lon="3.87912">
        <ele>182.8</ele>
        <time>2019-12-22T12:56:59.000Z</time>
      </trkpt>
      <trkpt lat="43.84373" lon="3.87914">
        <ele>182.8</ele>
        <time>2019-12-22T12:57:03.000Z</time>
      </trkpt>
      <trkpt lat="43.84369" lon="3.87917">
        <ele>183.8</ele>
        <time>2019-12-22T12:57:06.000Z</time>
      </trkpt>
      <trkpt lat="43.84354" lon="3.87918">
        <ele>182.8</ele>
        <time>2019-12-22T12:57:22.000Z</time>
      </trkpt>
      <trkpt lat="43.84345" lon="3.87923">
        <ele>183.8</ele>
        <time>2019-12-22T12:57:33.000Z</time>
      </trkpt>
      <trkpt lat="43.84331" lon="3.8791">
        <ele>184.7</ele>
        <time>2019-12-22T12:57:49.000Z</time>
      </trkpt>
      <trkpt lat="43.84322" lon="3.87906">
        <ele>185.2</ele>
        <time>2019-12-22T12:58:03.000Z</time>
      </trkpt>
      <trkpt lat="43.8431" lon="3.87894">
        <ele>185.2</ele>
        <time>2019-12-22T12:58:20.000Z</time>
      </trkpt>
      <trkpt lat="43.84301" lon="3.87888">
        <ele>186.1</ele>
        <time>2019-12-22T12:58:34.000Z</time>
      </trkpt>
      <trkpt lat="43.84298" lon="3.87883">
        <ele>186.1</ele>
        <time>2019-12-22T12:58:37.000Z</time>
      </trkpt>
      <trkpt lat="43.84293" lon="3.87872">
        <ele>185.7</ele>
        <time>2019-12-22T12:58:51.000Z</time>
      </trkpt>
      <trkpt lat="43.84297" lon="3.87858">
        <ele>185.7</ele>
        <time>2019-12-22T12:59:05.000Z</time>
      </trkpt>
      <trkpt lat="43.84297" lon="3.87853">
        <ele>185.7</ele>
        <time>2019-12-22T12:59:18.000Z</time>
      </trkpt>
      <trkpt lat="43.84299" lon="3.87852">
        <ele>185.2</ele>
        <time>2019-12-22T12:59:43.000Z</time>
      </trkpt>
      <trkpt lat="43.84297" lon="3.87849">
        <ele>185.7</ele>
        <time>2019-12-22T12:59:58.000Z</time>
      </trkpt>
      <trkpt lat="43.84297" lon="3.87848">
        <ele>185.7</ele>
        <time>2019-12-22T12:59:59.000Z</time>
      </trkpt>
      <trkpt lat="43.84299" lon="3.87834">
        <ele>185.7</ele>
        <time>2019-12-22T13:00:11.000Z</time>
      </trkpt>
      <trkpt lat="43.84301" lon="3.87817">
        <ele>186.1</ele>
        <time>2019-12-22T13:00:22.000Z</time>
      </trkpt>
      <trkpt lat="43.84306" lon="3.87806">
        <ele>186.6</ele>
        <time>2019-12-22T13:00:32.000Z</time>
      </trkpt>
      <trkpt lat="43.84311" lon="3.87792">
        <ele>187.6</ele>
        <time>2019-12-22T13:00:43.000Z</time>
      </trkpt>
      <trkpt lat="43.84314" lon="3.87782">
        <ele>188.1</ele>
        <time>2019-12-22T13:00:50.000Z</time>
      </trkpt>
      <trkpt lat="43.84319" lon="3.87764">
        <ele>187.6</ele>
        <time>2019-12-22T13:01:01.000Z</time>
      </trkpt>
      <trkpt lat="43.84322" lon="3.87755">
        <ele>188.6</ele>
        <time>2019-12-22T13:01:08.000Z</time>
      </trkpt>
      <trkpt lat="43.84327" lon="3.8774">
        <ele>189.5</ele>
        <time>2019-12-22T13:01:18.000Z</time>
      </trkpt>
      <trkpt lat="43.84327" lon="3.8774">
        <ele>189</ele>
        <time>2019-12-22T13:01:19.000Z</time>
      </trkpt>
      <trkpt lat="43.8433" lon="3.87731">
        <ele>190</ele>
        <time>2019-12-22T13:01:25.000Z</time>
      </trkpt>
      <trkpt lat="43.84332" lon="3.87722">
        <ele>190</ele>
        <time>2019-12-22T13:01:32.000Z</time>
      </trkpt>
      <trkpt lat="43.84334" lon="3.87711">
        <ele>190.5</ele>
        <time>2019-12-22T13:01:39.000Z</time>
      </trkpt>
      <trkpt lat="43.84339" lon="3.87693">
        <ele>191.9</ele>
        <time>2019-12-22T13:01:50.000Z</time>
      </trkpt>
      <trkpt lat="43.84342" lon="3.8768">
        <ele>192.4</ele>
        <time>2019-12-22T13:02:00.000Z</time>
      </trkpt>
      <trkpt lat="43.84344" lon="3.87672">
        <ele>192.9</ele>
        <time>2019-12-22T13:02:06.000Z</time>
      </trkpt>
      <trkpt lat="43.84346" lon="3.87663">
        <ele>193.4</ele>
        <time>2019-12-22T13:02:12.000Z</time>
      </trkpt>
      <trkpt lat="43.84349" lon="3.87655">
        <ele>193.8</ele>
        <time>2019-12-22T13:02:18.000Z</time>
      </trkpt>
      <trkpt lat="43.84355" lon="3.8764">
        <ele>194.8</ele>
        <time>2019-12-22T13:02:28.000Z</time>
      </trkpt>
      <trkpt lat="43.84359" lon="3.87629">
        <ele>195.8</ele>
        <time>2019-12-22T13:02:37.000Z</time>
      </trkpt>
      <trkpt lat="43.84363" lon="3.87623">
        <ele>195.8</ele>
        <time>2019-12-22T13:02:43.000Z</time>
      </trkpt>
      <trkpt lat="43.84369" lon="3.87609">
        <ele>196.7</ele>
        <time>2019-12-22T13:02:53.000Z</time>
      </trkpt>
      <trkpt lat="43.84373" lon="3.87601">
        <ele>197.7</ele>
        <time>2019-12-22T13:03:01.000Z</time>
      </trkpt>
      <trkpt lat="43.84375" lon="3.87594">
        <ele>197.7</ele>
        <time>2019-12-22T13:03:06.000Z</time>
      </trkpt>
      <trkpt lat="43.84376" lon="3.8759">
        <ele>198.6</ele>
        <time>2019-12-22T13:03:10.000Z</time>
      </trkpt>
      <trkpt lat="43.84376" lon="3.87587">
        <ele>199.6</ele>
        <time>2019-12-22T13:03:15.000Z</time>
      </trkpt>
      <trkpt lat="43.84377" lon="3.87582">
        <ele>199.6</ele>
        <time>2019-12-22T13:03:19.000Z</time>
      </trkpt>
      <trkpt lat="43.84378" lon="3.87568">
        <ele>201.1</ele>
        <time>2019-12-22T13:03:32.000Z</time>
      </trkpt>
      <trkpt lat="43.84378" lon="3.87556">
        <ele>203</ele>
        <time>2019-12-22T13:03:43.000Z</time>
      </trkpt>
      <trkpt lat="43.84377" lon="3.87549">
        <ele>203.5</ele>
        <time>2019-12-22T13:03:50.000Z</time>
      </trkpt>
      <trkpt lat="43.84378" lon="3.87538">
        <ele>203.9</ele>
        <time>2019-12-22T13:03:58.000Z</time>
      </trkpt>
      <trkpt lat="43.84387" lon="3.8753">
        <ele>203.9</ele>
        <time>2019-12-22T13:04:08.000Z</time>
      </trkpt>
      <trkpt lat="43.84398" lon="3.87535">
        <ele>204.4</ele>
        <time>2019-12-22T13:04:17.000Z</time>
      </trkpt>
      <trkpt lat="43.84408" lon="3.87533">
        <ele>203.9</ele>
        <time>2019-12-22T13:04:27.000Z</time>
      </trkpt>
      <trkpt lat="43.84408" lon="3.87533">
        <ele>203.9</ele>
        <time>2019-12-22T13:04:28.000Z</time>
      </trkpt>
      <trkpt lat="43.84411" lon="3.87531">
        <ele>203.9</ele>
        <time>2019-12-22T13:04:31.000Z</time>
      </trkpt>
      <trkpt lat="43.84419" lon="3.87529">
        <ele>203.5</ele>
        <time>2019-12-22T13:04:38.000Z</time>
      </trkpt>
      <trkpt lat="43.84424" lon="3.87525">
        <ele>203.9</ele>
        <time>2019-12-22T13:04:44.000Z</time>
      </trkpt>
      <trkpt lat="43.8443" lon="3.87519">
        <ele>204.4</ele>
        <time>2019-12-22T13:04:51.000Z</time>
      </trkpt>
      <trkpt lat="43.8444" lon="3.87512">
        <ele>204.9</ele>
        <time>2019-12-22T13:05:00.000Z</time>
      </trkpt>
      <trkpt lat="43.84441" lon="3.8751">
        <ele>205.9</ele>
        <time>2019-12-22T13:05:03.000Z</time>
      </trkpt>
      <trkpt lat="43.84446" lon="3.87505">
        <ele>206.3</ele>
        <time>2019-12-22T13:05:09.000Z</time>
      </trkpt>
      <trkpt lat="43.8445" lon="3.875">
        <ele>206.8</ele>
        <time>2019-12-22T13:05:15.000Z</time>
      </trkpt>
      <trkpt lat="43.84456" lon="3.87495">
        <ele>208.3</ele>
        <time>2019-12-22T13:05:21.000Z</time>
      </trkpt>
      <trkpt lat="43.84467" lon="3.87486">
        <ele>208.3</ele>
        <time>2019-12-22T13:05:32.000Z</time>
      </trkpt>
      <trkpt lat="43.84478" lon="3.87481">
        <ele>208.3</ele>
        <time>2019-12-22T13:05:42.000Z</time>
      </trkpt>
      <trkpt lat="43.84488" lon="3.87474">
        <ele>208.3</ele>
        <time>2019-12-22T13:05:52.000Z</time>
      </trkpt>
      <trkpt lat="43.84493" lon="3.87471">
        <ele>208.7</ele>
        <time>2019-12-22T13:05:56.000Z</time>
      </trkpt>
      <trkpt lat="43.84495" lon="3.8747">
        <ele>208.3</ele>
        <time>2019-12-22T13:05:58.000Z</time>
      </trkpt>
      <trkpt lat="43.84511" lon="3.87457">
        <ele>210.2</ele>
        <time>2019-12-22T13:06:12.000Z</time>
      </trkpt>
      <trkpt lat="43.84523" lon="3.87439">
        <ele>210.7</ele>
        <time>2019-12-22T13:06:27.000Z</time>
      </trkpt>
      <trkpt lat="43.84528" lon="3.87433">
        <ele>210.7</ele>
        <time>2019-12-22T13:06:33.000Z</time>
      </trkpt>
      <trkpt lat="43.84534" lon="3.8743">
        <ele>210.7</ele>
        <time>2019-12-22T13:06:39.000Z</time>
      </trkpt>
      <trkpt lat="43.84546" lon="3.87422">
        <ele>211.6</ele>
        <time>2019-12-22T13:06:51.000Z</time>
      </trkpt>
      <trkpt lat="43.84554" lon="3.87415">
        <ele>212.1</ele>
        <time>2019-12-22T13:07:06.000Z</time>
      </trkpt>
      <trkpt lat="43.84553" lon="3.87399">
        <ele>213.1</ele>
        <time>2019-12-22T13:07:21.000Z</time>
      </trkpt>
      <trkpt lat="43.84559" lon="3.87385">
        <ele>213.6</ele>
        <time>2019-12-22T13:07:35.000Z</time>
      </trkpt>
      <trkpt lat="43.8456" lon="3.87377">
        <ele>213.6</ele>
        <time>2019-12-22T13:07:50.000Z</time>
      </trkpt>
      <trkpt lat="43.84561" lon="3.87375">
        <ele>213.6</ele>
        <time>2019-12-22T13:07:52.000Z</time>
      </trkpt>
      <trkpt lat="43.8457" lon="3.87361">
        <ele>214.5</ele>
        <time>2019-12-22T13:08:06.000Z</time>
      </trkpt>
      <trkpt lat="43.84581" lon="3.8735">
        <ele>215</ele>
        <time>2019-12-22T13:08:21.000Z</time>
      </trkpt>
      <trkpt lat="43.84594" lon="3.87345">
        <ele>215.5</ele>
        <time>2019-12-22T13:08:36.000Z</time>
      </trkpt>
      <trkpt lat="43.84598" lon="3.87346">
        <ele>215.9</ele>
        <time>2019-12-22T13:08:51.000Z</time>
      </trkpt>
      <trkpt lat="43.84601" lon="3.87346">
        <ele>215.9</ele>
        <time>2019-12-22T13:08:55.000Z</time>
      </trkpt>
      <trkpt lat="43.84611" lon="3.87344">
        <ele>216.4</ele>
        <time>2019-12-22T13:09:11.000Z</time>
      </trkpt>
      <trkpt lat="43.84615" lon="3.87338">
        <ele>216.9</ele>
        <time>2019-12-22T13:09:39.000Z</time>
      </trkpt>
      <trkpt lat="43.84623" lon="3.8734">
        <ele>216.9</ele>
        <time>2019-12-22T13:10:02.000Z</time>
      </trkpt>
      <trkpt lat="43.84617" lon="3.87338">
        <ele>217.9</ele>
        <time>2019-12-22T13:10:26.000Z</time>
      </trkpt>
      <trkpt lat="43.84621" lon="3.87341">
        <ele>218.8</ele>
        <time>2019-12-22T13:10:47.000Z</time>
      </trkpt>
      <trkpt lat="43.84631" lon="3.87329">
        <ele>219.8</ele>
        <time>2019-12-22T13:11:10.000Z</time>
      </trkpt>
      <trkpt lat="43.84644" lon="3.87321">
        <ele>220.3</ele>
        <time>2019-12-22T13:11:36.000Z</time>
      </trkpt>
      <trkpt lat="43.84638" lon="3.87333">
        <ele>220.3</ele>
        <time>2019-12-22T13:11:58.000Z</time>
      </trkpt>
      <trkpt lat="43.84635" lon="3.87337">
        <ele>220.3</ele>
        <time>2019-12-22T13:12:05.000Z</time>
      </trkpt>
      <trkpt lat="43.84647" lon="3.87336">
        <ele>221.2</ele>
        <time>2019-12-22T13:12:44.000Z</time>
      </trkpt>
      <trkpt lat="43.84637" lon="3.87329">
        <ele>221.2</ele>
        <time>2019-12-22T13:13:00.000Z</time>
      </trkpt>
      <trkpt lat="43.84633" lon="3.87333">
        <ele>221.7</ele>
        <time>2019-12-22T13:13:22.000Z</time>
      </trkpt>
      <trkpt lat="43.84631" lon="3.87334">
        <ele>221.7</ele>
        <time>2019-12-22T13:13:30.000Z</time>
      </trkpt>
      <trkpt lat="43.84619" lon="3.87338">
        <ele>219.8</ele>
        <time>2019-12-22T13:13:46.000Z</time>
      </trkpt>
      <trkpt lat="43.84604" lon="3.87343">
        <ele>219.3</ele>
        <time>2019-12-22T13:14:01.000Z</time>
      </trkpt>
      <trkpt lat="43.84595" lon="3.87344">
        <ele>219.3</ele>
        <time>2019-12-22T13:14:14.000Z</time>
      </trkpt>
      <trkpt lat="43.84583" lon="3.87344">
        <ele>219.3</ele>
        <time>2019-12-22T13:14:28.000Z</time>
      </trkpt>
      <trkpt lat="43.84569" lon="3.87363">
        <ele>217.9</ele>
        <time>2019-12-22T13:14:42.000Z</time>
      </trkpt>
      <trkpt lat="43.84558" lon="3.8738">
        <ele>216.9</ele>
        <time>2019-12-22T13:14:58.000Z</time>
      </trkpt>
      <trkpt lat="43.84551" lon="3.874">
        <ele>217.4</ele>
        <time>2019-12-22T13:15:14.000Z</time>
      </trkpt>
      <trkpt lat="43.8455" lon="3.87403">
        <ele>216.4</ele>
        <time>2019-12-22T13:15:16.000Z</time>
      </trkpt>
      <trkpt lat="43.84546" lon="3.87413">
        <ele>215.9</ele>
        <time>2019-12-22T13:15:23.000Z</time>
      </trkpt>
      <trkpt lat="43.84541" lon="3.87416">
        <ele>216.4</ele>
        <time>2019-12-22T13:15:36.000Z</time>
      </trkpt>
      <trkpt lat="43.8454" lon="3.87414">
        <ele>216.4</ele>
        <time>2019-12-22T13:15:46.000Z</time>
      </trkpt>
      <trkpt lat="43.84543" lon="3.87415">
        <ele>215.9</ele>
        <time>2019-12-22T13:15:50.000Z</time>
      </trkpt>
      <trkpt lat="43.84545" lon="3.87424">
        <ele>215</ele>
        <time>2019-12-22T13:15:58.000Z</time>
      </trkpt>
      <trkpt lat="43.84538" lon="3.87428">
        <ele>214.5</ele>
        <time>2019-12-22T13:16:04.000Z</time>
      </trkpt>
      <trkpt lat="43.84529" lon="3.87435">
        <ele>214.5</ele>
        <time>2019-12-22T13:16:19.000Z</time>
      </trkpt>
      <trkpt lat="43.84518" lon="3.87444">
        <ele>214</ele>
        <time>2019-12-22T13:16:31.000Z</time>
      </trkpt>
      <trkpt lat="43.84514" lon="3.87455">
        <ele>214</ele>
        <time>2019-12-22T13:16:39.000Z</time>
      </trkpt>
      <trkpt lat="43.84503" lon="3.87463">
        <ele>212.1</ele>
        <time>2019-12-22T13:16:52.000Z</time>
      </trkpt>
      <trkpt lat="43.84491" lon="3.87474">
        <ele>211.6</ele>
        <time>2019-12-22T13:17:05.000Z</time>
      </trkpt>
      <trkpt lat="43.84473" lon="3.87483">
        <ele>211.1</ele>
        <time>2019-12-22T13:17:21.000Z</time>
      </trkpt>
      <trkpt lat="43.84458" lon="3.87496">
        <ele>210.7</ele>
        <time>2019-12-22T13:17:36.000Z</time>
      </trkpt>
      <trkpt lat="43.84444" lon="3.87509">
        <ele>209.2</ele>
        <time>2019-12-22T13:17:51.000Z</time>
      </trkpt>
      <trkpt lat="43.8444" lon="3.87513">
        <ele>208.7</ele>
        <time>2019-12-22T13:17:56.000Z</time>
      </trkpt>
      <trkpt lat="43.84421" lon="3.87527">
        <ele>209.2</ele>
        <time>2019-12-22T13:18:14.000Z</time>
      </trkpt>
      <trkpt lat="43.84418" lon="3.87528">
        <ele>209.2</ele>
        <time>2019-12-22T13:18:16.000Z</time>
      </trkpt>
      <trkpt lat="43.84408" lon="3.87534">
        <ele>208.7</ele>
        <time>2019-12-22T13:18:29.000Z</time>
      </trkpt>
      <trkpt lat="43.84409" lon="3.87535">
        <ele>208.7</ele>
        <time>2019-12-22T13:18:42.000Z</time>
      </trkpt>
      <trkpt lat="43.84409" lon="3.87541">
        <ele>207.8</ele>
        <time>2019-12-22T13:19:05.000Z</time>
      </trkpt>
      <trkpt lat="43.84411" lon="3.8754">
        <ele>208.3</ele>
        <time>2019-12-22T13:19:31.000Z</time>
      </trkpt>
      <trkpt lat="43.84413" lon="3.87536">
        <ele>208.7</ele>
        <time>2019-12-22T13:19:55.000Z</time>
      </trkpt>
      <trkpt lat="43.84408" lon="3.87532">
        <ele>209.7</ele>
        <time>2019-12-22T13:20:23.000Z</time>
      </trkpt>
      <trkpt lat="43.84408" lon="3.87536">
        <ele>209.2</ele>
        <time>2019-12-22T13:20:46.000Z</time>
      </trkpt>
      <trkpt lat="43.84406" lon="3.87528">
        <ele>209.2</ele>
        <time>2019-12-22T13:21:12.000Z</time>
      </trkpt>
      <trkpt lat="43.8441" lon="3.87519">
        <ele>212.1</ele>
        <time>2019-12-22T13:21:23.000Z</time>
      </trkpt>
      <trkpt lat="43.84419" lon="3.87505">
        <ele>213.1</ele>
        <time>2019-12-22T13:21:38.000Z</time>
      </trkpt>
      <trkpt lat="43.84426" lon="3.87491">
        <ele>214</ele>
        <time>2019-12-22T13:21:51.000Z</time>
      </trkpt>
      <trkpt lat="43.84433" lon="3.87479">
        <ele>216.4</ele>
        <time>2019-12-22T13:22:07.000Z</time>
      </trkpt>
      <trkpt lat="43.84438" lon="3.87466">
        <ele>218.4</ele>
        <time>2019-12-22T13:22:23.000Z</time>
      </trkpt>
      <trkpt lat="43.84444" lon="3.87453">
        <ele>220.8</ele>
        <time>2019-12-22T13:22:38.000Z</time>
      </trkpt>
      <trkpt lat="43.84445" lon="3.87437">
        <ele>223.6</ele>
        <time>2019-12-22T13:22:55.000Z</time>
      </trkpt>
      <trkpt lat="43.84451" lon="3.87424">
        <ele>225.6</ele>
        <time>2019-12-22T13:23:09.000Z</time>
      </trkpt>
      <trkpt lat="43.84455" lon="3.8741">
        <ele>228</ele>
        <time>2019-12-22T13:23:27.000Z</time>
      </trkpt>
      <trkpt lat="43.84457" lon="3.87393">
        <ele>231.3</ele>
        <time>2019-12-22T13:23:44.000Z</time>
      </trkpt>
      <trkpt lat="43.84461" lon="3.8738">
        <ele>232.8</ele>
        <time>2019-12-22T13:23:59.000Z</time>
      </trkpt>
      <trkpt lat="43.84465" lon="3.87365">
        <ele>235.2</ele>
        <time>2019-12-22T13:24:17.000Z</time>
      </trkpt>
      <trkpt lat="43.84469" lon="3.87351">
        <ele>237.1</ele>
        <time>2019-12-22T13:24:33.000Z</time>
      </trkpt>
      <trkpt lat="43.8447" lon="3.87338">
        <ele>239.5</ele>
        <time>2019-12-22T13:24:49.000Z</time>
      </trkpt>
      <trkpt lat="43.84467" lon="3.87325">
        <ele>242.4</ele>
        <time>2019-12-22T13:25:05.000Z</time>
      </trkpt>
      <trkpt lat="43.84459" lon="3.87314">
        <ele>245.3</ele>
        <time>2019-12-22T13:25:21.000Z</time>
      </trkpt>
      <trkpt lat="43.8445" lon="3.87308">
        <ele>247.2</ele>
        <time>2019-12-22T13:25:36.000Z</time>
      </trkpt>
      <trkpt lat="43.84443" lon="3.87311">
        <ele>249.6</ele>
        <time>2019-12-22T13:25:50.000Z</time>
      </trkpt>
      <trkpt lat="43.84442" lon="3.87316">
        <ele>250.1</ele>
        <time>2019-12-22T13:26:07.000Z</time>
      </trkpt>
      <trkpt lat="43.84443" lon="3.87318">
        <ele>250.1</ele>
        <time>2019-12-22T13:26:23.000Z</time>
      </trkpt>
      <trkpt lat="43.84442" lon="3.87317">
        <ele>249.6</ele>
        <time>2019-12-22T13:26:45.000Z</time>
      </trkpt>
      <trkpt lat="43.84442" lon="3.8732">
        <ele>250.1</ele>
        <time>2019-12-22T13:27:03.000Z</time>
      </trkpt>
      <trkpt lat="43.84441" lon="3.87321">
        <ele>250.6</ele>
        <time>2019-12-22T13:27:31.000Z</time>
      </trkpt>
      <trkpt lat="43.84429" lon="3.87323">
        <ele>251</ele>
        <time>2019-12-22T13:27:44.000Z</time>
      </trkpt>
      <trkpt lat="43.84414" lon="3.87331">
        <ele>251</ele>
        <time>2019-12-22T13:28:00.000Z</time>
      </trkpt>
      <trkpt lat="43.844" lon="3.87339">
        <ele>251.5</ele>
        <time>2019-12-22T13:28:16.000Z</time>
      </trkpt>
      <trkpt lat="43.84387" lon="3.87347">
        <ele>251.5</ele>
        <time>2019-12-22T13:28:31.000Z</time>
      </trkpt>
      <trkpt lat="43.84375" lon="3.8735">
        <ele>252</ele>
        <time>2019-12-22T13:28:45.000Z</time>
      </trkpt>
      <trkpt lat="43.84364" lon="3.87352">
        <ele>253.9</ele>
        <time>2019-12-22T13:29:00.000Z</time>
      </trkpt>
      <trkpt lat="43.84351" lon="3.87356">
        <ele>256.3</ele>
        <time>2019-12-22T13:29:16.000Z</time>
      </trkpt>
      <trkpt lat="43.84335" lon="3.8736">
        <ele>258.7</ele>
        <time>2019-12-22T13:29:38.000Z</time>
      </trkpt>
      <trkpt lat="43.84326" lon="3.87362">
        <ele>261.1</ele>
        <time>2019-12-22T13:29:52.000Z</time>
      </trkpt>
      <trkpt lat="43.84315" lon="3.87365">
        <ele>263.1</ele>
        <time>2019-12-22T13:30:09.000Z</time>
      </trkpt>
      <trkpt lat="43.84307" lon="3.87369">
        <ele>265</ele>
        <time>2019-12-22T13:30:24.000Z</time>
      </trkpt>
      <trkpt lat="43.84297" lon="3.87373">
        <ele>266.9</ele>
        <time>2019-12-22T13:30:41.000Z</time>
      </trkpt>
      <trkpt lat="43.84291" lon="3.87377">
        <ele>268.8</ele>
        <time>2019-12-22T13:30:55.000Z</time>
      </trkpt>
      <trkpt lat="43.84281" lon="3.87382">
        <ele>270.8</ele>
        <time>2019-12-22T13:31:12.000Z</time>
      </trkpt>
      <trkpt lat="43.84273" lon="3.8739">
        <ele>272.2</ele>
        <time>2019-12-22T13:31:28.000Z</time>
      </trkpt>
      <trkpt lat="43.84264" lon="3.87397">
        <ele>273.6</ele>
        <time>2019-12-22T13:31:43.000Z</time>
      </trkpt>
      <trkpt lat="43.84256" lon="3.87404">
        <ele>275.6</ele>
        <time>2019-12-22T13:32:01.000Z</time>
      </trkpt>
      <trkpt lat="43.84247" lon="3.87409">
        <ele>278</ele>
        <time>2019-12-22T13:32:17.000Z</time>
      </trkpt>
      <trkpt lat="43.84239" lon="3.87414">
        <ele>279.9</ele>
        <time>2019-12-22T13:32:33.000Z</time>
      </trkpt>
      <trkpt lat="43.84231" lon="3.87418">
        <ele>281.8</ele>
        <time>2019-12-22T13:32:46.000Z</time>
      </trkpt>
      <trkpt lat="43.84225" lon="3.87423">
        <ele>282.8</ele>
        <time>2019-12-22T13:33:00.000Z</time>
      </trkpt>
      <trkpt lat="43.84214" lon="3.87425">
        <ele>286.1</ele>
        <time>2019-12-22T13:33:19.000Z</time>
      </trkpt>
      <trkpt lat="43.84207" lon="3.87431">
        <ele>288.5</ele>
        <time>2019-12-22T13:33:36.000Z</time>
      </trkpt>
      <trkpt lat="43.84198" lon="3.87437">
        <ele>290.9</ele>
        <time>2019-12-22T13:33:56.000Z</time>
      </trkpt>
      <trkpt lat="43.84193" lon="3.87448">
        <ele>292.9</ele>
        <time>2019-12-22T13:34:11.000Z</time>
      </trkpt>
      <trkpt lat="43.84188" lon="3.87458">
        <ele>293.8</ele>
        <time>2019-12-22T13:34:24.000Z</time>
      </trkpt>
      <trkpt lat="43.84183" lon="3.87463">
        <ele>295.7</ele>
        <time>2019-12-22T13:34:38.000Z</time>
      </trkpt>
      <trkpt lat="43.84173" lon="3.87467">
        <ele>297.2</ele>
        <time>2019-12-22T13:34:54.000Z</time>
      </trkpt>
      <trkpt lat="43.84173" lon="3.87467">
        <ele>297.2</ele>
        <time>2019-12-22T13:34:55.000Z</time>
      </trkpt>
      <trkpt lat="43.84167" lon="3.87465">
        <ele>299.1</ele>
        <time>2019-12-22T13:35:06.000Z</time>
      </trkpt>
      <trkpt lat="43.8416" lon="3.87468">
        <ele>300.5</ele>
        <time>2019-12-22T13:35:18.000Z</time>
      </trkpt>
      <trkpt lat="43.84155" lon="3.87473">
        <ele>301</ele>
        <time>2019-12-22T13:35:27.000Z</time>
      </trkpt>
      <trkpt lat="43.84147" lon="3.87479">
        <ele>302</ele>
        <time>2019-12-22T13:35:39.000Z</time>
      </trkpt>
      <trkpt lat="43.84139" lon="3.87484">
        <ele>303.4</ele>
        <time>2019-12-22T13:35:52.000Z</time>
      </trkpt>
      <trkpt lat="43.8413" lon="3.87486">
        <ele>305.8</ele>
        <time>2019-12-22T13:36:07.000Z</time>
      </trkpt>
      <trkpt lat="43.84116" lon="3.8749">
        <ele>306.8</ele>
        <time>2019-12-22T13:36:20.000Z</time>
      </trkpt>
      <trkpt lat="43.84106" lon="3.87487">
        <ele>308.2</ele>
        <time>2019-12-22T13:36:34.000Z</time>
      </trkpt>
      <trkpt lat="43.84098" lon="3.8748">
        <ele>309.7</ele>
        <time>2019-12-22T13:36:47.000Z</time>
      </trkpt>
      <trkpt lat="43.84085" lon="3.87477">
        <ele>310.2</ele>
        <time>2019-12-22T13:37:02.000Z</time>
      </trkpt>
      <trkpt lat="43.84082" lon="3.87473">
        <ele>310.6</ele>
        <time>2019-12-22T13:37:07.000Z</time>
      </trkpt>
      <trkpt lat="43.84073" lon="3.87462">
        <ele>311.6</ele>
        <time>2019-12-22T13:37:21.000Z</time>
      </trkpt>
      <trkpt lat="43.84058" lon="3.87455">
        <ele>313.5</ele>
        <time>2019-12-22T13:37:39.000Z</time>
      </trkpt>
      <trkpt lat="43.84048" lon="3.87447">
        <ele>315</ele>
        <time>2019-12-22T13:37:54.000Z</time>
      </trkpt>
      <trkpt lat="43.84046" lon="3.87434">
        <ele>317.4</ele>
        <time>2019-12-22T13:38:09.000Z</time>
      </trkpt>
      <trkpt lat="43.84037" lon="3.8742">
        <ele>318.8</ele>
        <time>2019-12-22T13:38:26.000Z</time>
      </trkpt>
      <trkpt lat="43.84025" lon="3.87404">
        <ele>319.8</ele>
        <time>2019-12-22T13:38:43.000Z</time>
      </trkpt>
      <trkpt lat="43.84017" lon="3.8739">
        <ele>320.7</ele>
        <time>2019-12-22T13:38:59.000Z</time>
      </trkpt>
      <trkpt lat="43.84008" lon="3.87374">
        <ele>320.7</ele>
        <time>2019-12-22T13:39:13.000Z</time>
      </trkpt>
      <trkpt lat="43.83994" lon="3.87358">
        <ele>320.7</ele>
        <time>2019-12-22T13:39:32.000Z</time>
      </trkpt>
      <trkpt lat="43.83989" lon="3.8734">
        <ele>322.2</ele>
        <time>2019-12-22T13:39:49.000Z</time>
      </trkpt>
      <trkpt lat="43.83989" lon="3.8734">
        <ele>322.2</ele>
        <time>2019-12-22T13:40:09.000Z</time>
      </trkpt>
      <trkpt lat="43.83987" lon="3.87343">
        <ele>322.2</ele>
        <time>2019-12-22T13:40:36.000Z</time>
      </trkpt>
      <trkpt lat="43.83988" lon="3.8734">
        <ele>322.2</ele>
        <time>2019-12-22T13:40:53.000Z</time>
      </trkpt>
      <trkpt lat="43.83982" lon="3.87332">
        <ele>322.2</ele>
        <time>2019-12-22T13:41:06.000Z</time>
      </trkpt>
      <trkpt lat="43.83972" lon="3.87317">
        <ele>320.7</ele>
        <time>2019-12-22T13:41:22.000Z</time>
      </trkpt>
      <trkpt lat="43.83964" lon="3.87293">
        <ele>319.8</ele>
        <time>2019-12-22T13:41:40.000Z</time>
      </trkpt>
      <trkpt lat="43.83957" lon="3.87273">
        <ele>319.8</ele>
        <time>2019-12-22T13:41:56.000Z</time>
      </trkpt>
      <trkpt lat="43.83951" lon="3.87258">
        <ele>320.3</ele>
        <time>2019-12-22T13:42:10.000Z</time>
      </trkpt>
      <trkpt lat="43.83946" lon="3.87236">
        <ele>319.8</ele>
        <time>2019-12-22T13:42:27.000Z</time>
      </trkpt>
      <trkpt lat="43.83939" lon="3.87217">
        <ele>320.3</ele>
        <time>2019-12-22T13:42:43.000Z</time>
      </trkpt>
      <trkpt lat="43.83935" lon="3.872">
        <ele>320.3</ele>
        <time>2019-12-22T13:42:59.000Z</time>
      </trkpt>
      <trkpt lat="43.83926" lon="3.87183">
        <ele>317.4</ele>
        <time>2019-12-22T13:43:14.000Z</time>
      </trkpt>
      <trkpt lat="43.83918" lon="3.87171">
        <ele>314</ele>
        <time>2019-12-22T13:43:27.000Z</time>
      </trkpt>
      <trkpt lat="43.83918" lon="3.87169">
        <ele>313.5</ele>
        <time>2019-12-22T13:43:28.000Z</time>
      </trkpt>
      <trkpt lat="43.8392" lon="3.87154">
        <ele>314.5</ele>
        <time>2019-12-22T13:43:41.000Z</time>
      </trkpt>
      <trkpt lat="43.83923" lon="3.87149">
        <ele>317.9</ele>
        <time>2019-12-22T13:43:52.000Z</time>
      </trkpt>
      <trkpt lat="43.83928" lon="3.87137">
        <ele>318.3</ele>
        <time>2019-12-22T13:44:06.000Z</time>
      </trkpt>
      <trkpt lat="43.83934" lon="3.87125">
        <ele>321.2</ele>
        <time>2019-12-22T13:44:23.000Z</time>
      </trkpt>
      <trkpt lat="43.83935" lon="3.87104">
        <ele>320.7</ele>
        <time>2019-12-22T13:44:39.000Z</time>
      </trkpt>
      <trkpt lat="43.83936" lon="3.87079">
        <ele>320.3</ele>
        <time>2019-12-22T13:44:58.000Z</time>
      </trkpt>
      <trkpt lat="43.83938" lon="3.87063">
        <ele>320.7</ele>
        <time>2019-12-22T13:45:13.000Z</time>
      </trkpt>
      <trkpt lat="43.83937" lon="3.87043">
        <ele>322.7</ele>
        <time>2019-12-22T13:45:29.000Z</time>
      </trkpt>
      <trkpt lat="43.83944" lon="3.87035">
        <ele>324.6</ele>
        <time>2019-12-22T13:45:45.000Z</time>
      </trkpt>
      <trkpt lat="43.83948" lon="3.87025">
        <ele>327.5</ele>
        <time>2019-12-22T13:45:59.000Z</time>
      </trkpt>
      <trkpt lat="43.83952" lon="3.87017">
        <ele>330.4</ele>
        <time>2019-12-22T13:46:14.000Z</time>
      </trkpt>
      <trkpt lat="43.83953" lon="3.87011">
        <ele>330.4</ele>
        <time>2019-12-22T13:46:31.000Z</time>
      </trkpt>
      <trkpt lat="43.83958" lon="3.87003">
        <ele>333.7</ele>
        <time>2019-12-22T13:46:45.000Z</time>
      </trkpt>
      <trkpt lat="43.83962" lon="3.86994">
        <ele>335.6</ele>
        <time>2019-12-22T13:46:58.000Z</time>
      </trkpt>
      <trkpt lat="43.83963" lon="3.8698">
        <ele>336.6</ele>
        <time>2019-12-22T13:47:12.000Z</time>
      </trkpt>
      <trkpt lat="43.83965" lon="3.86967">
        <ele>338</ele>
        <time>2019-12-22T13:47:26.000Z</time>
      </trkpt>
      <trkpt lat="43.83966" lon="3.86955">
        <ele>340.4</ele>
        <time>2019-12-22T13:47:40.000Z</time>
      </trkpt>
      <trkpt lat="43.83967" lon="3.86948">
        <ele>342.9</ele>
        <time>2019-12-22T13:47:55.000Z</time>
      </trkpt>
      <trkpt lat="43.83967" lon="3.86937">
        <ele>345.3</ele>
        <time>2019-12-22T13:48:07.000Z</time>
      </trkpt>
      <trkpt lat="43.83963" lon="3.86925">
        <ele>346.7</ele>
        <time>2019-12-22T13:48:20.000Z</time>
      </trkpt>
      <trkpt lat="43.83959" lon="3.86914">
        <ele>347.6</ele>
        <time>2019-12-22T13:48:33.000Z</time>
      </trkpt>
      <trkpt lat="43.83955" lon="3.869">
        <ele>349.1</ele>
        <time>2019-12-22T13:48:45.000Z</time>
      </trkpt>
      <trkpt lat="43.83951" lon="3.86889">
        <ele>349.1</ele>
        <time>2019-12-22T13:48:55.000Z</time>
      </trkpt>
      <trkpt lat="43.83946" lon="3.86876">
        <ele>349.1</ele>
        <time>2019-12-22T13:49:07.000Z</time>
      </trkpt>
      <trkpt lat="43.83945" lon="3.86874">
        <ele>349.6</ele>
        <time>2019-12-22T13:49:09.000Z</time>
      </trkpt>
      <trkpt lat="43.83944" lon="3.86865">
        <ele>349.1</ele>
        <time>2019-12-22T13:49:17.000Z</time>
      </trkpt>
      <trkpt lat="43.83943" lon="3.86849">
        <ele>349.6</ele>
        <time>2019-12-22T13:49:31.000Z</time>
      </trkpt>
      <trkpt lat="43.83947" lon="3.86841">
        <ele>349.1</ele>
        <time>2019-12-22T13:49:44.000Z</time>
      </trkpt>
      <trkpt lat="43.83951" lon="3.86828">
        <ele>349.6</ele>
        <time>2019-12-22T13:49:58.000Z</time>
      </trkpt>
      <trkpt lat="43.83955" lon="3.86816">
        <ele>350.1</ele>
        <time>2019-12-22T13:50:11.000Z</time>
      </trkpt>
      <trkpt lat="43.83964" lon="3.86795">
        <ele>350.1</ele>
        <time>2019-12-22T13:50:29.000Z</time>
      </trkpt>
      <trkpt lat="43.83976" lon="3.86782">
        <ele>349.6</ele>
        <time>2019-12-22T13:50:46.000Z</time>
      </trkpt>
      <trkpt lat="43.83979" lon="3.86762">
        <ele>351</ele>
        <time>2019-12-22T13:51:01.000Z</time>
      </trkpt>
      <trkpt lat="43.83985" lon="3.86744">
        <ele>350.5</ele>
        <time>2019-12-22T13:51:15.000Z</time>
      </trkpt>
      <trkpt lat="43.83992" lon="3.86723">
        <ele>352</ele>
        <time>2019-12-22T13:51:31.000Z</time>
      </trkpt>
      <trkpt lat="43.84001" lon="3.86711">
        <ele>351</ele>
        <time>2019-12-22T13:51:44.000Z</time>
      </trkpt>
      <trkpt lat="43.84009" lon="3.86694">
        <ele>351</ele>
        <time>2019-12-22T13:51:59.000Z</time>
      </trkpt>
      <trkpt lat="43.84021" lon="3.86678">
        <ele>350.1</ele>
        <time>2019-12-22T13:52:15.000Z</time>
      </trkpt>
      <trkpt lat="43.84031" lon="3.86665">
        <ele>349.6</ele>
        <time>2019-12-22T13:52:29.000Z</time>
      </trkpt>
      <trkpt lat="43.84045" lon="3.86653">
        <ele>349.6</ele>
        <time>2019-12-22T13:52:43.000Z</time>
      </trkpt>
      <trkpt lat="43.84063" lon="3.8664">
        <ele>347.6</ele>
        <time>2019-12-22T13:53:02.000Z</time>
      </trkpt>
      <trkpt lat="43.8408" lon="3.86623">
        <ele>345.7</ele>
        <time>2019-12-22T13:53:20.000Z</time>
      </trkpt>
      <trkpt lat="43.84094" lon="3.86602">
        <ele>346.2</ele>
        <time>2019-12-22T13:53:39.000Z</time>
      </trkpt>
      <trkpt lat="43.84107" lon="3.86588">
        <ele>345.7</ele>
        <time>2019-12-22T13:53:54.000Z</time>
      </trkpt>
      <trkpt lat="43.84121" lon="3.86574">
        <ele>345.7</ele>
        <time>2019-12-22T13:54:09.000Z</time>
      </trkpt>
      <trkpt lat="43.84128" lon="3.86563">
        <ele>346.2</ele>
        <time>2019-12-22T13:54:19.000Z</time>
      </trkpt>
      <trkpt lat="43.84147" lon="3.86559">
        <ele>345.7</ele>
        <time>2019-12-22T13:54:37.000Z</time>
      </trkpt>
      <trkpt lat="43.84161" lon="3.86565">
        <ele>346.2</ele>
        <time>2019-12-22T13:54:51.000Z</time>
      </trkpt>
      <trkpt lat="43.84168" lon="3.86571">
        <ele>346.2</ele>
        <time>2019-12-22T13:54:58.000Z</time>
      </trkpt>
      <trkpt lat="43.84177" lon="3.86574">
        <ele>345.3</ele>
        <time>2019-12-22T13:55:06.000Z</time>
      </trkpt>
      <trkpt lat="43.84196" lon="3.8657">
        <ele>345.3</ele>
        <time>2019-12-22T13:55:24.000Z</time>
      </trkpt>
      <trkpt lat="43.84213" lon="3.86562">
        <ele>345.3</ele>
        <time>2019-12-22T13:55:40.000Z</time>
      </trkpt>
      <trkpt lat="43.84214" lon="3.86559">
        <ele>344.3</ele>
        <time>2019-12-22T13:55:42.000Z</time>
      </trkpt>
      <trkpt lat="43.84227" lon="3.86544">
        <ele>344.3</ele>
        <time>2019-12-22T13:55:55.000Z</time>
      </trkpt>
      <trkpt lat="43.84237" lon="3.86524">
        <ele>344.8</ele>
        <time>2019-12-22T13:56:13.000Z</time>
      </trkpt>
      <trkpt lat="43.8425" lon="3.86507">
        <ele>344.3</ele>
        <time>2019-12-22T13:56:29.000Z</time>
      </trkpt>
      <trkpt lat="43.84261" lon="3.86497">
        <ele>345.3</ele>
        <time>2019-12-22T13:56:43.000Z</time>
      </trkpt>
      <trkpt lat="43.84264" lon="3.8649">
        <ele>344.3</ele>
        <time>2019-12-22T13:56:56.000Z</time>
      </trkpt>
      <trkpt lat="43.84266" lon="3.86485">
        <ele>348.1</ele>
        <time>2019-12-22T13:57:00.000Z</time>
      </trkpt>
      <trkpt lat="43.84267" lon="3.86484">
        <ele>346.2</ele>
        <time>2019-12-22T13:57:01.000Z</time>
      </trkpt>
      <trkpt lat="43.84272" lon="3.86461">
        <ele>342.9</ele>
        <time>2019-12-22T13:57:17.000Z</time>
      </trkpt>
      <trkpt lat="43.84277" lon="3.8645">
        <ele>342.4</ele>
        <time>2019-12-22T13:57:27.000Z</time>
      </trkpt>
      <trkpt lat="43.84285" lon="3.86428">
        <ele>341.4</ele>
        <time>2019-12-22T13:57:42.000Z</time>
      </trkpt>
      <trkpt lat="43.84292" lon="3.86413">
        <ele>340.4</ele>
        <time>2019-12-22T13:57:53.000Z</time>
      </trkpt>
      <trkpt lat="43.84299" lon="3.86394">
        <ele>339</ele>
        <time>2019-12-22T13:58:06.000Z</time>
      </trkpt>
      <trkpt lat="43.84303" lon="3.86377">
        <ele>338.5</ele>
        <time>2019-12-22T13:58:20.000Z</time>
      </trkpt>
      <trkpt lat="43.8431" lon="3.86356">
        <ele>338</ele>
        <time>2019-12-22T13:58:33.000Z</time>
      </trkpt>
      <trkpt lat="43.8431" lon="3.8634">
        <ele>337.1</ele>
        <time>2019-12-22T13:58:46.000Z</time>
      </trkpt>
      <trkpt lat="43.843" lon="3.86326">
        <ele>336.1</ele>
        <time>2019-12-22T13:58:59.000Z</time>
      </trkpt>
      <trkpt lat="43.84295" lon="3.86315">
        <ele>336.1</ele>
        <time>2019-12-22T13:59:12.000Z</time>
      </trkpt>
      <trkpt lat="43.8429" lon="3.86296">
        <ele>336.6</ele>
        <time>2019-12-22T13:59:23.000Z</time>
      </trkpt>
      <trkpt lat="43.84289" lon="3.86294">
        <ele>336.6</ele>
        <time>2019-12-22T13:59:24.000Z</time>
      </trkpt>
      <trkpt lat="43.84288" lon="3.86277">
        <ele>335.2</ele>
        <time>2019-12-22T13:59:37.000Z</time>
      </trkpt>
      <trkpt lat="43.84276" lon="3.86264">
        <ele>334.2</ele>
        <time>2019-12-22T13:59:51.000Z</time>
      </trkpt>
      <trkpt lat="43.84262" lon="3.86254">
        <ele>333.7</ele>
        <time>2019-12-22T14:00:07.000Z</time>
      </trkpt>
      <trkpt lat="43.84254" lon="3.86251">
        <ele>334.2</ele>
        <time>2019-12-22T14:00:14.000Z</time>
      </trkpt>
      <trkpt lat="43.84238" lon="3.86239">
        <ele>333.7</ele>
        <time>2019-12-22T14:00:34.000Z</time>
      </trkpt>
      <trkpt lat="43.84225" lon="3.86221">
        <ele>333.7</ele>
        <time>2019-12-22T14:00:52.000Z</time>
      </trkpt>
      <trkpt lat="43.8421" lon="3.86208">
        <ele>333.2</ele>
        <time>2019-12-22T14:01:10.000Z</time>
      </trkpt>
      <trkpt lat="43.84203" lon="3.86195">
        <ele>332.3</ele>
        <time>2019-12-22T14:01:24.000Z</time>
      </trkpt>
      <trkpt lat="43.84199" lon="3.86185">
        <ele>331.3</ele>
        <time>2019-12-22T14:01:38.000Z</time>
      </trkpt>
      <trkpt lat="43.84192" lon="3.86169">
        <ele>331.3</ele>
        <time>2019-12-22T14:01:54.000Z</time>
      </trkpt>
      <trkpt lat="43.84192" lon="3.86151">
        <ele>331.3</ele>
        <time>2019-12-22T14:02:09.000Z</time>
      </trkpt>
      <trkpt lat="43.84193" lon="3.86134">
        <ele>330.8</ele>
        <time>2019-12-22T14:02:27.000Z</time>
      </trkpt>
      <trkpt lat="43.84192" lon="3.86119">
        <ele>330.4</ele>
        <time>2019-12-22T14:02:42.000Z</time>
      </trkpt>
      <trkpt lat="43.84192" lon="3.86116">
        <ele>330.8</ele>
        <time>2019-12-22T14:02:59.000Z</time>
      </trkpt>
      <trkpt lat="43.84192" lon="3.86097">
        <ele>329.9</ele>
        <time>2019-12-22T14:03:17.000Z</time>
      </trkpt>
      <trkpt lat="43.84192" lon="3.86093">
        <ele>328.4</ele>
        <time>2019-12-22T14:03:20.000Z</time>
      </trkpt>
      <trkpt lat="43.84194" lon="3.86088">
        <ele>329.4</ele>
        <time>2019-12-22T14:03:25.000Z</time>
      </trkpt>
      <trkpt lat="43.84198" lon="3.86072">
        <ele>328.4</ele>
        <time>2019-12-22T14:03:38.000Z</time>
      </trkpt>
      <trkpt lat="43.84204" lon="3.86053">
        <ele>328.9</ele>
        <time>2019-12-22T14:03:54.000Z</time>
      </trkpt>
      <trkpt lat="43.84193" lon="3.86031">
        <ele>328.9</ele>
        <time>2019-12-22T14:04:13.000Z</time>
      </trkpt>
      <trkpt lat="43.84184" lon="3.86009">
        <ele>329.9</ele>
        <time>2019-12-22T14:04:33.000Z</time>
      </trkpt>
      <trkpt lat="43.84175" lon="3.85984">
        <ele>330.4</ele>
        <time>2019-12-22T14:04:53.000Z</time>
      </trkpt>
      <trkpt lat="43.84178" lon="3.85955">
        <ele>330.8</ele>
        <time>2019-12-22T14:05:12.000Z</time>
      </trkpt>
      <trkpt lat="43.84184" lon="3.85929">
        <ele>328.9</ele>
        <time>2019-12-22T14:05:30.000Z</time>
      </trkpt>
      <trkpt lat="43.84186" lon="3.85926">
        <ele>329.9</ele>
        <time>2019-12-22T14:05:33.000Z</time>
      </trkpt>
      <trkpt lat="43.84192" lon="3.85915">
        <ele>328</ele>
        <time>2019-12-22T14:05:42.000Z</time>
      </trkpt>
      <trkpt lat="43.84203" lon="3.85892">
        <ele>327</ele>
        <time>2019-12-22T14:06:00.000Z</time>
      </trkpt>
    </trkseg>
  </trk>
</gpx>